<?xml version="1.0" encoding="utf-8"?>
<gpx xmlns:xsi="http://www.w3.org/2001/XMLSchema-instance" xmlns:xsd="http://www.w3.org/2001/XMLSchema" version="1.1" creator="Shapelink.com" xmlns="http://www.topografix.com/GPX/1/1" xmlns:gpxtpx="http://www.garmin.com/xmlschemas/TrackPointExtension/v1">
  <metadata>
    <name>Sykling 19.24 km, 2013-05-05</name>
    <desc></desc>
    <author><name>Mikael Blom</name></author> 
    <time>2013-05-05T14:04:03Z</time>
  </metadata>
  <trk>
    <name>Sykling 19.24 km, 2013-05-05</name>
    <trkseg>
      <trkpt lat="59.9488265" lon="17.5333996">
        <ele>39.0707</ele>
        <time>2013-05-05T14:04:03Z</time>
      </trkpt>
      <trkpt lat="59.9488028" lon="17.5334633">
        <ele>38.5901</ele>
        <time>2013-05-05T14:04:04Z</time>
      </trkpt>
      <trkpt lat="59.948775" lon="17.5335251">
        <ele>38.1094</ele>
        <time>2013-05-05T14:04:05Z</time>
      </trkpt>
      <trkpt lat="59.9487497" lon="17.5335856">
        <ele>37.6287</ele>
        <time>2013-05-05T14:04:06Z</time>
      </trkpt>
      <trkpt lat="59.9487221" lon="17.5336439">
        <ele>36.6675</ele>
        <time>2013-05-05T14:04:07Z</time>
      </trkpt>
      <trkpt lat="59.9486922" lon="17.5336959">
        <ele>36.1868</ele>
        <time>2013-05-05T14:04:08Z</time>
      </trkpt>
      <trkpt lat="59.9486604" lon="17.5337391">
        <ele>36.1868</ele>
        <time>2013-05-05T14:04:09Z</time>
      </trkpt>
      <trkpt lat="59.9486204" lon="17.5337634">
        <ele>34.7449</ele>
        <time>2013-05-05T14:04:10Z</time>
      </trkpt>
      <trkpt lat="59.9485838" lon="17.5337738">
        <ele>34.7449</ele>
        <time>2013-05-05T14:04:11Z</time>
      </trkpt>
      <trkpt lat="59.9485425" lon="17.5337856">
        <ele>34.2642</ele>
        <time>2013-05-05T14:04:12Z</time>
      </trkpt>
      <trkpt lat="59.948504" lon="17.5337894">
        <ele>33.7834</ele>
        <time>2013-05-05T14:04:13Z</time>
      </trkpt>
      <trkpt lat="59.9484645" lon="17.533795">
        <ele>33.3029</ele>
        <time>2013-05-05T14:04:14Z</time>
      </trkpt>
      <trkpt lat="59.9484202" lon="17.5338141">
        <ele>32.3416</ele>
        <time>2013-05-05T14:04:15Z</time>
      </trkpt>
      <trkpt lat="59.9483786" lon="17.5338498">
        <ele>32.3416</ele>
        <time>2013-05-05T14:04:16Z</time>
      </trkpt>
      <trkpt lat="59.9483438" lon="17.5339049">
        <ele>31.8607</ele>
        <time>2013-05-05T14:04:17Z</time>
      </trkpt>
      <trkpt lat="59.9483238" lon="17.5339737">
        <ele>31.3801</ele>
        <time>2013-05-05T14:04:18Z</time>
      </trkpt>
      <trkpt lat="59.948316" lon="17.5340481">
        <ele>30.4188</ele>
        <time>2013-05-05T14:04:19Z</time>
      </trkpt>
      <trkpt lat="59.9483179" lon="17.5341266">
        <ele>30.4188</ele>
        <time>2013-05-05T14:04:20Z</time>
      </trkpt>
      <trkpt lat="59.9483232" lon="17.5342088">
        <ele>30.4188</ele>
        <time>2013-05-05T14:04:21Z</time>
      </trkpt>
      <trkpt lat="59.9483285" lon="17.5342927">
        <ele>29.9381</ele>
        <time>2013-05-05T14:04:22Z</time>
      </trkpt>
      <trkpt lat="59.9483347" lon="17.5343757">
        <ele>29.9381</ele>
        <time>2013-05-05T14:04:23Z</time>
      </trkpt>
      <trkpt lat="59.9483419" lon="17.5344636">
        <ele>29.9381</ele>
        <time>2013-05-05T14:04:24Z</time>
      </trkpt>
      <trkpt lat="59.9483497" lon="17.5345538">
        <ele>30.4188</ele>
        <time>2013-05-05T14:04:25Z</time>
      </trkpt>
      <trkpt lat="59.9483598" lon="17.53464">
        <ele>30.4188</ele>
        <time>2013-05-05T14:04:26Z</time>
      </trkpt>
      <trkpt lat="59.9483709" lon="17.5347243">
        <ele>30.8995</ele>
        <time>2013-05-05T14:04:27Z</time>
      </trkpt>
      <trkpt lat="59.9483807" lon="17.5348073">
        <ele>30.4188</ele>
        <time>2013-05-05T14:04:28Z</time>
      </trkpt>
      <trkpt lat="59.9483874" lon="17.5348866">
        <ele>30.4188</ele>
        <time>2013-05-05T14:04:29Z</time>
      </trkpt>
      <trkpt lat="59.9483936" lon="17.5349651">
        <ele>30.4188</ele>
        <time>2013-05-05T14:04:30Z</time>
      </trkpt>
      <trkpt lat="59.9484013" lon="17.5350434">
        <ele>30.4188</ele>
        <time>2013-05-05T14:04:31Z</time>
      </trkpt>
      <trkpt lat="59.9484103" lon="17.535119">
        <ele>29.9381</ele>
        <time>2013-05-05T14:04:32Z</time>
      </trkpt>
      <trkpt lat="59.9484194" lon="17.5351926">
        <ele>29.9381</ele>
        <time>2013-05-05T14:04:33Z</time>
      </trkpt>
      <trkpt lat="59.9484288" lon="17.5352646">
        <ele>29.9381</ele>
        <time>2013-05-05T14:04:34Z</time>
      </trkpt>
      <trkpt lat="59.9484402" lon="17.5353362">
        <ele>29.9381</ele>
        <time>2013-05-05T14:04:35Z</time>
      </trkpt>
      <trkpt lat="59.9484546" lon="17.535405">
        <ele>29.4575</ele>
        <time>2013-05-05T14:04:36Z</time>
      </trkpt>
      <trkpt lat="59.9484707" lon="17.5354745">
        <ele>29.4575</ele>
        <time>2013-05-05T14:04:37Z</time>
      </trkpt>
      <trkpt lat="59.9484859" lon="17.5355465">
        <ele>29.4575</ele>
        <time>2013-05-05T14:04:38Z</time>
      </trkpt>
      <trkpt lat="59.9485023" lon="17.5356183">
        <ele>28.9769</ele>
        <time>2013-05-05T14:04:39Z</time>
      </trkpt>
      <trkpt lat="59.9485196" lon="17.5356903">
        <ele>28.9769</ele>
        <time>2013-05-05T14:04:40Z</time>
      </trkpt>
      <trkpt lat="59.9485356" lon="17.5357648">
        <ele>28.4962</ele>
        <time>2013-05-05T14:04:41Z</time>
      </trkpt>
      <trkpt lat="59.9485491" lon="17.5358425">
        <ele>28.4962</ele>
        <time>2013-05-05T14:04:42Z</time>
      </trkpt>
      <trkpt lat="59.9485632" lon="17.5359199">
        <ele>28.4962</ele>
        <time>2013-05-05T14:04:43Z</time>
      </trkpt>
      <trkpt lat="59.94858" lon="17.5359951">
        <ele>28.4962</ele>
        <time>2013-05-05T14:04:44Z</time>
      </trkpt>
      <trkpt lat="59.9485988" lon="17.5360655">
        <ele>28.4962</ele>
        <time>2013-05-05T14:04:45Z</time>
      </trkpt>
      <trkpt lat="59.9486168" lon="17.536141">
        <ele>28.4962</ele>
        <time>2013-05-05T14:04:46Z</time>
      </trkpt>
      <trkpt lat="59.9486341" lon="17.5362146">
        <ele>28.0155</ele>
        <time>2013-05-05T14:04:47Z</time>
      </trkpt>
      <trkpt lat="59.9486512" lon="17.5362887">
        <ele>28.0155</ele>
        <time>2013-05-05T14:04:48Z</time>
      </trkpt>
      <trkpt lat="59.9486685" lon="17.5363597">
        <ele>28.0155</ele>
        <time>2013-05-05T14:04:49Z</time>
      </trkpt>
      <trkpt lat="59.9486852" lon="17.5364256">
        <ele>27.5349</ele>
        <time>2013-05-05T14:04:50Z</time>
      </trkpt>
      <trkpt lat="59.9487015" lon="17.536484">
        <ele>27.5349</ele>
        <time>2013-05-05T14:04:51Z</time>
      </trkpt>
      <trkpt lat="59.9487169" lon="17.5365373">
        <ele>27.5349</ele>
        <time>2013-05-05T14:04:52Z</time>
      </trkpt>
      <trkpt lat="59.9487341" lon="17.5365721">
        <ele>28.0155</ele>
        <time>2013-05-05T14:04:53Z</time>
      </trkpt>
      <trkpt lat="59.9487537" lon="17.5365753">
        <ele>28.0155</ele>
        <time>2013-05-05T14:04:54Z</time>
      </trkpt>
      <trkpt lat="59.948766" lon="17.536545">
        <ele>28.0155</ele>
        <time>2013-05-05T14:04:55Z</time>
      </trkpt>
      <trkpt lat="59.9487599" lon="17.5365088">
        <ele>28.0155</ele>
        <time>2013-05-05T14:04:56Z</time>
      </trkpt>
      <trkpt lat="59.9487408" lon="17.5364747">
        <ele>28.0155</ele>
        <time>2013-05-05T14:04:57Z</time>
      </trkpt>
      <trkpt lat="59.948716" lon="17.5364435">
        <ele>27.5349</ele>
        <time>2013-05-05T14:04:58Z</time>
      </trkpt>
      <trkpt lat="59.9486904" lon="17.5364066">
        <ele>27.5349</ele>
        <time>2013-05-05T14:04:59Z</time>
      </trkpt>
      <trkpt lat="59.9486677" lon="17.5363562">
        <ele>27.0543</ele>
        <time>2013-05-05T14:05:00Z</time>
      </trkpt>
      <trkpt lat="59.9486505" lon="17.5362937">
        <ele>27.0543</ele>
        <time>2013-05-05T14:05:01Z</time>
      </trkpt>
      <trkpt lat="59.9486381" lon="17.5362255">
        <ele>26.5736</ele>
        <time>2013-05-05T14:05:02Z</time>
      </trkpt>
      <trkpt lat="59.948624" lon="17.5361623">
        <ele>26.5736</ele>
        <time>2013-05-05T14:05:03Z</time>
      </trkpt>
      <trkpt lat="59.9486101" lon="17.5361025">
        <ele>26.5736</ele>
        <time>2013-05-05T14:05:04Z</time>
      </trkpt>
      <trkpt lat="59.9485952" lon="17.5360474">
        <ele>26.5736</ele>
        <time>2013-05-05T14:05:05Z</time>
      </trkpt>
      <trkpt lat="59.9485777" lon="17.5359914">
        <ele>26.5736</ele>
        <time>2013-05-05T14:05:06Z</time>
      </trkpt>
      <trkpt lat="59.9485639" lon="17.5359148">
        <ele>26.5736</ele>
        <time>2013-05-05T14:05:07Z</time>
      </trkpt>
      <trkpt lat="59.9485539" lon="17.5358318">
        <ele>27.0543</ele>
        <time>2013-05-05T14:05:08Z</time>
      </trkpt>
      <trkpt lat="59.9485385" lon="17.5357653">
        <ele>27.0543</ele>
        <time>2013-05-05T14:05:09Z</time>
      </trkpt>
      <trkpt lat="59.9485221" lon="17.5357029">
        <ele>26.5736</ele>
        <time>2013-05-05T14:05:10Z</time>
      </trkpt>
      <trkpt lat="59.9485071" lon="17.5356446">
        <ele>26.5736</ele>
        <time>2013-05-05T14:05:11Z</time>
      </trkpt>
      <trkpt lat="59.9484933" lon="17.5355909">
        <ele>26.5736</ele>
        <time>2013-05-05T14:05:12Z</time>
      </trkpt>
      <trkpt lat="59.9484847" lon="17.5355226">
        <ele>27.0543</ele>
        <time>2013-05-05T14:05:13Z</time>
      </trkpt>
      <trkpt lat="59.9484765" lon="17.5354602">
        <ele>27.5349</ele>
        <time>2013-05-05T14:05:14Z</time>
      </trkpt>
      <trkpt lat="59.9484651" lon="17.5354046">
        <ele>27.0543</ele>
        <time>2013-05-05T14:05:15Z</time>
      </trkpt>
      <trkpt lat="59.9484533" lon="17.5353532">
        <ele>26.5736</ele>
        <time>2013-05-05T14:05:16Z</time>
      </trkpt>
      <trkpt lat="59.948446" lon="17.5353009">
        <ele>26.5736</ele>
        <time>2013-05-05T14:05:17Z</time>
      </trkpt>
      <trkpt lat="59.948437" lon="17.5352537">
        <ele>26.0929</ele>
        <time>2013-05-05T14:05:18Z</time>
      </trkpt>
      <trkpt lat="59.9484217" lon="17.535217">
        <ele>25.6123</ele>
        <time>2013-05-05T14:05:19Z</time>
      </trkpt>
      <trkpt lat="59.9484086" lon="17.5351785">
        <ele>25.1317</ele>
        <time>2013-05-05T14:05:20Z</time>
      </trkpt>
      <trkpt lat="59.9483927" lon="17.5351456">
        <ele>24.651</ele>
        <time>2013-05-05T14:05:21Z</time>
      </trkpt>
      <trkpt lat="59.948375" lon="17.535115">
        <ele>24.1703</ele>
        <time>2013-05-05T14:05:22Z</time>
      </trkpt>
      <trkpt lat="59.9483533" lon="17.5350916">
        <ele>23.6896</ele>
        <time>2013-05-05T14:05:23Z</time>
      </trkpt>
      <trkpt lat="59.9483256" lon="17.5350855">
        <ele>23.209</ele>
        <time>2013-05-05T14:05:24Z</time>
      </trkpt>
      <trkpt lat="59.9482937" lon="17.535082">
        <ele>23.209</ele>
        <time>2013-05-05T14:05:25Z</time>
      </trkpt>
      <trkpt lat="59.9482565" lon="17.5350786">
        <ele>23.209</ele>
        <time>2013-05-05T14:05:26Z</time>
      </trkpt>
      <trkpt lat="59.9482134" lon="17.5350755">
        <ele>23.209</ele>
        <time>2013-05-05T14:05:27Z</time>
      </trkpt>
      <trkpt lat="59.9481687" lon="17.5350681">
        <ele>23.209</ele>
        <time>2013-05-05T14:05:28Z</time>
      </trkpt>
      <trkpt lat="59.9481217" lon="17.535062">
        <ele>23.209</ele>
        <time>2013-05-05T14:05:29Z</time>
      </trkpt>
      <trkpt lat="59.9480757" lon="17.5350518">
        <ele>23.209</ele>
        <time>2013-05-05T14:05:30Z</time>
      </trkpt>
      <trkpt lat="59.948027" lon="17.5350526">
        <ele>23.209</ele>
        <time>2013-05-05T14:05:31Z</time>
      </trkpt>
      <trkpt lat="59.9479782" lon="17.5350538">
        <ele>23.209</ele>
        <time>2013-05-05T14:05:32Z</time>
      </trkpt>
      <trkpt lat="59.9479322" lon="17.5350487">
        <ele>23.209</ele>
        <time>2013-05-05T14:05:33Z</time>
      </trkpt>
      <trkpt lat="59.9478856" lon="17.5350475">
        <ele>23.209</ele>
        <time>2013-05-05T14:05:34Z</time>
      </trkpt>
      <trkpt lat="59.9478394" lon="17.535047">
        <ele>23.209</ele>
        <time>2013-05-05T14:05:35Z</time>
      </trkpt>
      <trkpt lat="59.9477933" lon="17.5350454">
        <ele>23.209</ele>
        <time>2013-05-05T14:05:36Z</time>
      </trkpt>
      <trkpt lat="59.947748" lon="17.5350465">
        <ele>23.209</ele>
        <time>2013-05-05T14:05:37Z</time>
      </trkpt>
      <trkpt lat="59.9477" lon="17.5350526">
        <ele>23.209</ele>
        <time>2013-05-05T14:05:38Z</time>
      </trkpt>
      <trkpt lat="59.9476529" lon="17.5350572">
        <ele>23.209</ele>
        <time>2013-05-05T14:05:39Z</time>
      </trkpt>
      <trkpt lat="59.9476045" lon="17.5350577">
        <ele>23.6896</ele>
        <time>2013-05-05T14:05:40Z</time>
      </trkpt>
      <trkpt lat="59.9475509" lon="17.535061">
        <ele>23.6896</ele>
        <time>2013-05-05T14:05:41Z</time>
      </trkpt>
      <trkpt lat="59.9474944" lon="17.5350703">
        <ele>23.6896</ele>
        <time>2013-05-05T14:05:42Z</time>
      </trkpt>
      <trkpt lat="59.9474337" lon="17.535086">
        <ele>23.6896</ele>
        <time>2013-05-05T14:05:43Z</time>
      </trkpt>
      <trkpt lat="59.9473699" lon="17.5350999">
        <ele>23.6896</ele>
        <time>2013-05-05T14:05:44Z</time>
      </trkpt>
      <trkpt lat="59.9473062" lon="17.5351052">
        <ele>23.6896</ele>
        <time>2013-05-05T14:05:45Z</time>
      </trkpt>
      <trkpt lat="59.9472437" lon="17.5351043">
        <ele>23.6896</ele>
        <time>2013-05-05T14:05:46Z</time>
      </trkpt>
      <trkpt lat="59.9471821" lon="17.5351028">
        <ele>23.6896</ele>
        <time>2013-05-05T14:05:47Z</time>
      </trkpt>
      <trkpt lat="59.9471235" lon="17.5350973">
        <ele>24.1703</ele>
        <time>2013-05-05T14:05:48Z</time>
      </trkpt>
      <trkpt lat="59.9470651" lon="17.5350899">
        <ele>24.1703</ele>
        <time>2013-05-05T14:05:49Z</time>
      </trkpt>
      <trkpt lat="59.9470069" lon="17.5350872">
        <ele>24.1703</ele>
        <time>2013-05-05T14:05:50Z</time>
      </trkpt>
      <trkpt lat="59.946951" lon="17.5350905">
        <ele>24.1703</ele>
        <time>2013-05-05T14:05:51Z</time>
      </trkpt>
      <trkpt lat="59.9468975" lon="17.5350956">
        <ele>24.1703</ele>
        <time>2013-05-05T14:05:52Z</time>
      </trkpt>
      <trkpt lat="59.9468474" lon="17.5351019">
        <ele>24.1703</ele>
        <time>2013-05-05T14:05:53Z</time>
      </trkpt>
      <trkpt lat="59.9467977" lon="17.5351108">
        <ele>24.1703</ele>
        <time>2013-05-05T14:05:54Z</time>
      </trkpt>
      <trkpt lat="59.9467438" lon="17.5351169">
        <ele>24.1703</ele>
        <time>2013-05-05T14:05:55Z</time>
      </trkpt>
      <trkpt lat="59.9466894" lon="17.5351164">
        <ele>24.1703</ele>
        <time>2013-05-05T14:05:56Z</time>
      </trkpt>
      <trkpt lat="59.9466338" lon="17.5351145">
        <ele>24.651</ele>
        <time>2013-05-05T14:05:57Z</time>
      </trkpt>
      <trkpt lat="59.9465786" lon="17.5351191">
        <ele>24.651</ele>
        <time>2013-05-05T14:05:58Z</time>
      </trkpt>
      <trkpt lat="59.9465243" lon="17.5351339">
        <ele>24.651</ele>
        <time>2013-05-05T14:05:59Z</time>
      </trkpt>
      <trkpt lat="59.9464729" lon="17.5351575">
        <ele>25.1317</ele>
        <time>2013-05-05T14:06:00Z</time>
      </trkpt>
      <trkpt lat="59.9464238" lon="17.5351922">
        <ele>25.1317</ele>
        <time>2013-05-05T14:06:01Z</time>
      </trkpt>
      <trkpt lat="59.9463781" lon="17.5352376">
        <ele>25.1317</ele>
        <time>2013-05-05T14:06:02Z</time>
      </trkpt>
      <trkpt lat="59.9463425" lon="17.5353004">
        <ele>25.6123</ele>
        <time>2013-05-05T14:06:03Z</time>
      </trkpt>
      <trkpt lat="59.9463246" lon="17.5353827">
        <ele>25.6123</ele>
        <time>2013-05-05T14:06:04Z</time>
      </trkpt>
      <trkpt lat="59.9463282" lon="17.5354657">
        <ele>26.0929</ele>
        <time>2013-05-05T14:06:05Z</time>
      </trkpt>
      <trkpt lat="59.9463424" lon="17.5355465">
        <ele>26.0929</ele>
        <time>2013-05-05T14:06:06Z</time>
      </trkpt>
      <trkpt lat="59.9463558" lon="17.5356287">
        <ele>26.0929</ele>
        <time>2013-05-05T14:06:07Z</time>
      </trkpt>
      <trkpt lat="59.9463657" lon="17.5357151">
        <ele>26.0929</ele>
        <time>2013-05-05T14:06:08Z</time>
      </trkpt>
      <trkpt lat="59.9463738" lon="17.5358071">
        <ele>26.5736</ele>
        <time>2013-05-05T14:06:09Z</time>
      </trkpt>
      <trkpt lat="59.946382" lon="17.5359032">
        <ele>26.5736</ele>
        <time>2013-05-05T14:06:10Z</time>
      </trkpt>
      <trkpt lat="59.9463904" lon="17.5360026">
        <ele>27.0543</ele>
        <time>2013-05-05T14:06:11Z</time>
      </trkpt>
      <trkpt lat="59.9464003" lon="17.5361025">
        <ele>27.0543</ele>
        <time>2013-05-05T14:06:12Z</time>
      </trkpt>
      <trkpt lat="59.9464128" lon="17.5362036">
        <ele>27.0543</ele>
        <time>2013-05-05T14:06:13Z</time>
      </trkpt>
      <trkpt lat="59.9464272" lon="17.5363053">
        <ele>27.0543</ele>
        <time>2013-05-05T14:06:14Z</time>
      </trkpt>
      <trkpt lat="59.9464396" lon="17.5364084">
        <ele>27.0543</ele>
        <time>2013-05-05T14:06:15Z</time>
      </trkpt>
      <trkpt lat="59.946448" lon="17.536513">
        <ele>27.0543</ele>
        <time>2013-05-05T14:06:16Z</time>
      </trkpt>
      <trkpt lat="59.9464554" lon="17.5366176">
        <ele>27.0543</ele>
        <time>2013-05-05T14:06:17Z</time>
      </trkpt>
      <trkpt lat="59.9464639" lon="17.5367218">
        <ele>26.5736</ele>
        <time>2013-05-05T14:06:18Z</time>
      </trkpt>
      <trkpt lat="59.9464714" lon="17.5368267">
        <ele>26.5736</ele>
        <time>2013-05-05T14:06:19Z</time>
      </trkpt>
      <trkpt lat="59.9464765" lon="17.536935">
        <ele>26.5736</ele>
        <time>2013-05-05T14:06:20Z</time>
      </trkpt>
      <trkpt lat="59.9464808" lon="17.5370459">
        <ele>27.0543</ele>
        <time>2013-05-05T14:06:21Z</time>
      </trkpt>
      <trkpt lat="59.9464856" lon="17.5371589">
        <ele>27.0543</ele>
        <time>2013-05-05T14:06:22Z</time>
      </trkpt>
      <trkpt lat="59.9464908" lon="17.5372733">
        <ele>27.0543</ele>
        <time>2013-05-05T14:06:23Z</time>
      </trkpt>
      <trkpt lat="59.9464957" lon="17.5373879">
        <ele>27.0543</ele>
        <time>2013-05-05T14:06:24Z</time>
      </trkpt>
      <trkpt lat="59.9464958" lon="17.537503">
        <ele>27.0543</ele>
        <time>2013-05-05T14:06:25Z</time>
      </trkpt>
      <trkpt lat="59.94649" lon="17.5376138">
        <ele>27.0543</ele>
        <time>2013-05-05T14:06:26Z</time>
      </trkpt>
      <trkpt lat="59.9464829" lon="17.5377213">
        <ele>27.0543</ele>
        <time>2013-05-05T14:06:27Z</time>
      </trkpt>
      <trkpt lat="59.946478" lon="17.5378262">
        <ele>27.0543</ele>
        <time>2013-05-05T14:06:28Z</time>
      </trkpt>
      <trkpt lat="59.9464761" lon="17.5379303">
        <ele>27.0543</ele>
        <time>2013-05-05T14:06:29Z</time>
      </trkpt>
      <trkpt lat="59.9464759" lon="17.5380344">
        <ele>27.0543</ele>
        <time>2013-05-05T14:06:30Z</time>
      </trkpt>
      <trkpt lat="59.9464756" lon="17.5381388">
        <ele>27.5349</ele>
        <time>2013-05-05T14:06:31Z</time>
      </trkpt>
      <trkpt lat="59.946476" lon="17.5382431">
        <ele>27.5349</ele>
        <time>2013-05-05T14:06:32Z</time>
      </trkpt>
      <trkpt lat="59.9464766" lon="17.5383477">
        <ele>27.5349</ele>
        <time>2013-05-05T14:06:33Z</time>
      </trkpt>
      <trkpt lat="59.9464776" lon="17.5384492">
        <ele>27.5349</ele>
        <time>2013-05-05T14:06:34Z</time>
      </trkpt>
      <trkpt lat="59.9464765" lon="17.5385477">
        <ele>27.5349</ele>
        <time>2013-05-05T14:06:35Z</time>
      </trkpt>
      <trkpt lat="59.9464769" lon="17.5386496">
        <ele>27.5349</ele>
        <time>2013-05-05T14:06:36Z</time>
      </trkpt>
      <trkpt lat="59.946476" lon="17.5387523">
        <ele>27.5349</ele>
        <time>2013-05-05T14:06:37Z</time>
      </trkpt>
      <trkpt lat="59.946475" lon="17.5388545">
        <ele>27.5349</ele>
        <time>2013-05-05T14:06:38Z</time>
      </trkpt>
      <trkpt lat="59.9464743" lon="17.5389575">
        <ele>27.5349</ele>
        <time>2013-05-05T14:06:39Z</time>
      </trkpt>
      <trkpt lat="59.9464753" lon="17.539061">
        <ele>27.5349</ele>
        <time>2013-05-05T14:06:40Z</time>
      </trkpt>
      <trkpt lat="59.9464779" lon="17.5391641">
        <ele>27.5349</ele>
        <time>2013-05-05T14:06:41Z</time>
      </trkpt>
      <trkpt lat="59.946481" lon="17.5392677">
        <ele>28.0155</ele>
        <time>2013-05-05T14:06:42Z</time>
      </trkpt>
      <trkpt lat="59.9464825" lon="17.5393724">
        <ele>28.0155</ele>
        <time>2013-05-05T14:06:43Z</time>
      </trkpt>
      <trkpt lat="59.9464832" lon="17.5394784">
        <ele>28.0155</ele>
        <time>2013-05-05T14:06:44Z</time>
      </trkpt>
      <trkpt lat="59.9464842" lon="17.5395822">
        <ele>28.0155</ele>
        <time>2013-05-05T14:06:45Z</time>
      </trkpt>
      <trkpt lat="59.9464873" lon="17.5396847">
        <ele>28.4962</ele>
        <time>2013-05-05T14:06:46Z</time>
      </trkpt>
      <trkpt lat="59.946489" lon="17.5397877">
        <ele>28.4962</ele>
        <time>2013-05-05T14:06:47Z</time>
      </trkpt>
      <trkpt lat="59.946489" lon="17.5398904">
        <ele>28.9769</ele>
        <time>2013-05-05T14:06:48Z</time>
      </trkpt>
      <trkpt lat="59.9464901" lon="17.5399933">
        <ele>28.9769</ele>
        <time>2013-05-05T14:06:49Z</time>
      </trkpt>
      <trkpt lat="59.9464911" lon="17.540093">
        <ele>28.9769</ele>
        <time>2013-05-05T14:06:50Z</time>
      </trkpt>
      <trkpt lat="59.9464925" lon="17.5401894">
        <ele>28.9769</ele>
        <time>2013-05-05T14:06:51Z</time>
      </trkpt>
      <trkpt lat="59.9464941" lon="17.5402856">
        <ele>28.9769</ele>
        <time>2013-05-05T14:06:52Z</time>
      </trkpt>
      <trkpt lat="59.9464945" lon="17.5403815">
        <ele>28.9769</ele>
        <time>2013-05-05T14:06:53Z</time>
      </trkpt>
      <trkpt lat="59.9464941" lon="17.5404776">
        <ele>28.9769</ele>
        <time>2013-05-05T14:06:54Z</time>
      </trkpt>
      <trkpt lat="59.9464937" lon="17.540573">
        <ele>28.9769</ele>
        <time>2013-05-05T14:06:55Z</time>
      </trkpt>
      <trkpt lat="59.9464921" lon="17.5406675">
        <ele>28.9769</ele>
        <time>2013-05-05T14:06:56Z</time>
      </trkpt>
      <trkpt lat="59.9464911" lon="17.5407613">
        <ele>28.9769</ele>
        <time>2013-05-05T14:06:57Z</time>
      </trkpt>
      <trkpt lat="59.9464905" lon="17.5408524">
        <ele>28.4962</ele>
        <time>2013-05-05T14:06:58Z</time>
      </trkpt>
      <trkpt lat="59.9464915" lon="17.5409409">
        <ele>28.4962</ele>
        <time>2013-05-05T14:06:59Z</time>
      </trkpt>
      <trkpt lat="59.946493" lon="17.5410286">
        <ele>28.4962</ele>
        <time>2013-05-05T14:07:00Z</time>
      </trkpt>
      <trkpt lat="59.9464932" lon="17.5411149">
        <ele>28.4962</ele>
        <time>2013-05-05T14:07:01Z</time>
      </trkpt>
      <trkpt lat="59.9464941" lon="17.5412034">
        <ele>28.4962</ele>
        <time>2013-05-05T14:07:02Z</time>
      </trkpt>
      <trkpt lat="59.946497" lon="17.5412985">
        <ele>28.9769</ele>
        <time>2013-05-05T14:07:03Z</time>
      </trkpt>
      <trkpt lat="59.946494" lon="17.5414082">
        <ele>28.9769</ele>
        <time>2013-05-05T14:07:04Z</time>
      </trkpt>
      <trkpt lat="59.946491" lon="17.5415025">
        <ele>28.9769</ele>
        <time>2013-05-05T14:07:05Z</time>
      </trkpt>
      <trkpt lat="59.9464868" lon="17.541609">
        <ele>28.9769</ele>
        <time>2013-05-05T14:07:06Z</time>
      </trkpt>
      <trkpt lat="59.9464843" lon="17.5417107">
        <ele>28.9769</ele>
        <time>2013-05-05T14:07:07Z</time>
      </trkpt>
      <trkpt lat="59.9464869" lon="17.5418179">
        <ele>29.4575</ele>
        <time>2013-05-05T14:07:08Z</time>
      </trkpt>
      <trkpt lat="59.9464891" lon="17.541923">
        <ele>29.4575</ele>
        <time>2013-05-05T14:07:09Z</time>
      </trkpt>
      <trkpt lat="59.9464884" lon="17.5420283">
        <ele>29.4575</ele>
        <time>2013-05-05T14:07:10Z</time>
      </trkpt>
      <trkpt lat="59.9464889" lon="17.5421288">
        <ele>29.9381</ele>
        <time>2013-05-05T14:07:11Z</time>
      </trkpt>
      <trkpt lat="59.9464864" lon="17.5422282">
        <ele>29.9381</ele>
        <time>2013-05-05T14:07:12Z</time>
      </trkpt>
      <trkpt lat="59.9464817" lon="17.5423267">
        <ele>29.9381</ele>
        <time>2013-05-05T14:07:13Z</time>
      </trkpt>
      <trkpt lat="59.9464759" lon="17.5424234">
        <ele>29.9381</ele>
        <time>2013-05-05T14:07:14Z</time>
      </trkpt>
      <trkpt lat="59.9464665" lon="17.5425229">
        <ele>29.9381</ele>
        <time>2013-05-05T14:07:15Z</time>
      </trkpt>
      <trkpt lat="59.9464595" lon="17.5426228">
        <ele>30.4188</ele>
        <time>2013-05-05T14:07:16Z</time>
      </trkpt>
      <trkpt lat="59.9464473" lon="17.5427182">
        <ele>29.9381</ele>
        <time>2013-05-05T14:07:17Z</time>
      </trkpt>
      <trkpt lat="59.9464356" lon="17.5428099">
        <ele>29.9381</ele>
        <time>2013-05-05T14:07:18Z</time>
      </trkpt>
      <trkpt lat="59.9464231" lon="17.5428995">
        <ele>29.9381</ele>
        <time>2013-05-05T14:07:19Z</time>
      </trkpt>
      <trkpt lat="59.9464123" lon="17.5429913">
        <ele>29.9381</ele>
        <time>2013-05-05T14:07:20Z</time>
      </trkpt>
      <trkpt lat="59.9464035" lon="17.5430829">
        <ele>29.9381</ele>
        <time>2013-05-05T14:07:21Z</time>
      </trkpt>
      <trkpt lat="59.9463947" lon="17.5431745">
        <ele>29.4575</ele>
        <time>2013-05-05T14:07:22Z</time>
      </trkpt>
      <trkpt lat="59.9463855" lon="17.5432662">
        <ele>29.4575</ele>
        <time>2013-05-05T14:07:23Z</time>
      </trkpt>
      <trkpt lat="59.946375" lon="17.5433564">
        <ele>29.4575</ele>
        <time>2013-05-05T14:07:24Z</time>
      </trkpt>
      <trkpt lat="59.9463644" lon="17.543445">
        <ele>29.4575</ele>
        <time>2013-05-05T14:07:25Z</time>
      </trkpt>
      <trkpt lat="59.9463543" lon="17.5435313">
        <ele>29.4575</ele>
        <time>2013-05-05T14:07:26Z</time>
      </trkpt>
      <trkpt lat="59.9463407" lon="17.5436123">
        <ele>29.4575</ele>
        <time>2013-05-05T14:07:27Z</time>
      </trkpt>
      <trkpt lat="59.9463266" lon="17.543689">
        <ele>29.4575</ele>
        <time>2013-05-05T14:07:28Z</time>
      </trkpt>
      <trkpt lat="59.946314" lon="17.5437654">
        <ele>29.4575</ele>
        <time>2013-05-05T14:07:29Z</time>
      </trkpt>
      <trkpt lat="59.9463045" lon="17.5438408">
        <ele>29.4575</ele>
        <time>2013-05-05T14:07:30Z</time>
      </trkpt>
      <trkpt lat="59.9462986" lon="17.5439154">
        <ele>29.4575</ele>
        <time>2013-05-05T14:07:31Z</time>
      </trkpt>
      <trkpt lat="59.9462992" lon="17.5439894">
        <ele>29.9381</ele>
        <time>2013-05-05T14:07:32Z</time>
      </trkpt>
      <trkpt lat="59.9463087" lon="17.5440599">
        <ele>29.9381</ele>
        <time>2013-05-05T14:07:33Z</time>
      </trkpt>
      <trkpt lat="59.9463228" lon="17.5441252">
        <ele>29.9381</ele>
        <time>2013-05-05T14:07:34Z</time>
      </trkpt>
      <trkpt lat="59.9463424" lon="17.5441878">
        <ele>29.9381</ele>
        <time>2013-05-05T14:07:35Z</time>
      </trkpt>
      <trkpt lat="59.9463672" lon="17.5442464">
        <ele>29.9381</ele>
        <time>2013-05-05T14:07:36Z</time>
      </trkpt>
      <trkpt lat="59.9463993" lon="17.5442975">
        <ele>29.9381</ele>
        <time>2013-05-05T14:07:37Z</time>
      </trkpt>
      <trkpt lat="59.9464356" lon="17.5443401">
        <ele>29.9381</ele>
        <time>2013-05-05T14:07:38Z</time>
      </trkpt>
      <trkpt lat="59.9464732" lon="17.5443804">
        <ele>29.9381</ele>
        <time>2013-05-05T14:07:39Z</time>
      </trkpt>
      <trkpt lat="59.9465123" lon="17.5444183">
        <ele>29.4575</ele>
        <time>2013-05-05T14:07:40Z</time>
      </trkpt>
      <trkpt lat="59.9465532" lon="17.544451">
        <ele>29.4575</ele>
        <time>2013-05-05T14:07:41Z</time>
      </trkpt>
      <trkpt lat="59.9465937" lon="17.5444827">
        <ele>29.4575</ele>
        <time>2013-05-05T14:07:42Z</time>
      </trkpt>
      <trkpt lat="59.946632" lon="17.5445199">
        <ele>29.4575</ele>
        <time>2013-05-05T14:07:43Z</time>
      </trkpt>
      <trkpt lat="59.9466685" lon="17.5445597">
        <ele>29.4575</ele>
        <time>2013-05-05T14:07:44Z</time>
      </trkpt>
      <trkpt lat="59.9467024" lon="17.544602">
        <ele>29.4575</ele>
        <time>2013-05-05T14:07:45Z</time>
      </trkpt>
      <trkpt lat="59.9467371" lon="17.5446452">
        <ele>28.9769</ele>
        <time>2013-05-05T14:07:46Z</time>
      </trkpt>
      <trkpt lat="59.9467732" lon="17.5446872">
        <ele>28.9769</ele>
        <time>2013-05-05T14:07:47Z</time>
      </trkpt>
      <trkpt lat="59.9468107" lon="17.544729">
        <ele>28.9769</ele>
        <time>2013-05-05T14:07:48Z</time>
      </trkpt>
      <trkpt lat="59.9468496" lon="17.5447714">
        <ele>28.9769</ele>
        <time>2013-05-05T14:07:49Z</time>
      </trkpt>
      <trkpt lat="59.9468907" lon="17.5448155">
        <ele>28.9769</ele>
        <time>2013-05-05T14:07:50Z</time>
      </trkpt>
      <trkpt lat="59.9469317" lon="17.5448629">
        <ele>28.9769</ele>
        <time>2013-05-05T14:07:51Z</time>
      </trkpt>
      <trkpt lat="59.9469712" lon="17.5449172">
        <ele>28.9769</ele>
        <time>2013-05-05T14:07:52Z</time>
      </trkpt>
      <trkpt lat="59.9470109" lon="17.5449767">
        <ele>28.9769</ele>
        <time>2013-05-05T14:07:53Z</time>
      </trkpt>
      <trkpt lat="59.9470498" lon="17.545041">
        <ele>28.9769</ele>
        <time>2013-05-05T14:07:54Z</time>
      </trkpt>
      <trkpt lat="59.9470873" lon="17.5451073">
        <ele>28.4962</ele>
        <time>2013-05-05T14:07:55Z</time>
      </trkpt>
      <trkpt lat="59.9471254" lon="17.5451755">
        <ele>28.4962</ele>
        <time>2013-05-05T14:07:56Z</time>
      </trkpt>
      <trkpt lat="59.9471634" lon="17.5452428">
        <ele>28.9769</ele>
        <time>2013-05-05T14:07:57Z</time>
      </trkpt>
      <trkpt lat="59.9472003" lon="17.545307">
        <ele>28.9769</ele>
        <time>2013-05-05T14:07:58Z</time>
      </trkpt>
      <trkpt lat="59.9472352" lon="17.5453689">
        <ele>28.9769</ele>
        <time>2013-05-05T14:07:59Z</time>
      </trkpt>
      <trkpt lat="59.9472697" lon="17.5454255">
        <ele>28.9769</ele>
        <time>2013-05-05T14:08:00Z</time>
      </trkpt>
      <trkpt lat="59.9473049" lon="17.5454802">
        <ele>28.9769</ele>
        <time>2013-05-05T14:08:01Z</time>
      </trkpt>
      <trkpt lat="59.9473401" lon="17.5455393">
        <ele>28.9769</ele>
        <time>2013-05-05T14:08:02Z</time>
      </trkpt>
      <trkpt lat="59.9473759" lon="17.545603">
        <ele>28.9769</ele>
        <time>2013-05-05T14:08:03Z</time>
      </trkpt>
      <trkpt lat="59.947412" lon="17.54567">
        <ele>28.9769</ele>
        <time>2013-05-05T14:08:04Z</time>
      </trkpt>
      <trkpt lat="59.9474473" lon="17.5457373">
        <ele>29.4575</ele>
        <time>2013-05-05T14:08:05Z</time>
      </trkpt>
      <trkpt lat="59.9474815" lon="17.5458008">
        <ele>29.4575</ele>
        <time>2013-05-05T14:08:06Z</time>
      </trkpt>
      <trkpt lat="59.9475152" lon="17.545861">
        <ele>29.9381</ele>
        <time>2013-05-05T14:08:07Z</time>
      </trkpt>
      <trkpt lat="59.9475474" lon="17.5459199">
        <ele>29.9381</ele>
        <time>2013-05-05T14:08:08Z</time>
      </trkpt>
      <trkpt lat="59.9475786" lon="17.5459796">
        <ele>29.9381</ele>
        <time>2013-05-05T14:08:09Z</time>
      </trkpt>
      <trkpt lat="59.9476105" lon="17.5460407">
        <ele>29.9381</ele>
        <time>2013-05-05T14:08:10Z</time>
      </trkpt>
      <trkpt lat="59.9476436" lon="17.5461022">
        <ele>29.9381</ele>
        <time>2013-05-05T14:08:11Z</time>
      </trkpt>
      <trkpt lat="59.9476778" lon="17.5461646">
        <ele>30.4188</ele>
        <time>2013-05-05T14:08:12Z</time>
      </trkpt>
      <trkpt lat="59.9477115" lon="17.5462292">
        <ele>29.9381</ele>
        <time>2013-05-05T14:08:13Z</time>
      </trkpt>
      <trkpt lat="59.9477446" lon="17.5462928">
        <ele>30.4188</ele>
        <time>2013-05-05T14:08:14Z</time>
      </trkpt>
      <trkpt lat="59.9477778" lon="17.5463541">
        <ele>30.4188</ele>
        <time>2013-05-05T14:08:15Z</time>
      </trkpt>
      <trkpt lat="59.9478103" lon="17.5464122">
        <ele>30.4188</ele>
        <time>2013-05-05T14:08:16Z</time>
      </trkpt>
      <trkpt lat="59.947841" lon="17.5464682">
        <ele>30.8995</ele>
        <time>2013-05-05T14:08:17Z</time>
      </trkpt>
      <trkpt lat="59.9478709" lon="17.5465256">
        <ele>30.8995</ele>
        <time>2013-05-05T14:08:18Z</time>
      </trkpt>
      <trkpt lat="59.9479016" lon="17.5465842">
        <ele>30.8995</ele>
        <time>2013-05-05T14:08:19Z</time>
      </trkpt>
      <trkpt lat="59.9479325" lon="17.5466435">
        <ele>30.8995</ele>
        <time>2013-05-05T14:08:20Z</time>
      </trkpt>
      <trkpt lat="59.9479625" lon="17.5467023">
        <ele>30.8995</ele>
        <time>2013-05-05T14:08:21Z</time>
      </trkpt>
      <trkpt lat="59.9479908" lon="17.5467603">
        <ele>30.8995</ele>
        <time>2013-05-05T14:08:22Z</time>
      </trkpt>
      <trkpt lat="59.9480202" lon="17.5468177">
        <ele>30.8995</ele>
        <time>2013-05-05T14:08:23Z</time>
      </trkpt>
      <trkpt lat="59.9480513" lon="17.5468737">
        <ele>30.8995</ele>
        <time>2013-05-05T14:08:24Z</time>
      </trkpt>
      <trkpt lat="59.9480834" lon="17.5469286">
        <ele>30.8995</ele>
        <time>2013-05-05T14:08:25Z</time>
      </trkpt>
      <trkpt lat="59.9481165" lon="17.546985">
        <ele>30.8995</ele>
        <time>2013-05-05T14:08:26Z</time>
      </trkpt>
      <trkpt lat="59.9481501" lon="17.5470414">
        <ele>30.8995</ele>
        <time>2013-05-05T14:08:27Z</time>
      </trkpt>
      <trkpt lat="59.9481853" lon="17.5470945">
        <ele>30.8995</ele>
        <time>2013-05-05T14:08:28Z</time>
      </trkpt>
      <trkpt lat="59.9482202" lon="17.547145">
        <ele>31.3801</ele>
        <time>2013-05-05T14:08:29Z</time>
      </trkpt>
      <trkpt lat="59.9482549" lon="17.5471958">
        <ele>31.3801</ele>
        <time>2013-05-05T14:08:30Z</time>
      </trkpt>
      <trkpt lat="59.9482897" lon="17.5472492">
        <ele>31.8607</ele>
        <time>2013-05-05T14:08:31Z</time>
      </trkpt>
      <trkpt lat="59.9483242" lon="17.5473055">
        <ele>31.8607</ele>
        <time>2013-05-05T14:08:32Z</time>
      </trkpt>
      <trkpt lat="59.9483604" lon="17.5473623">
        <ele>31.8607</ele>
        <time>2013-05-05T14:08:33Z</time>
      </trkpt>
      <trkpt lat="59.9483982" lon="17.5474195">
        <ele>31.8607</ele>
        <time>2013-05-05T14:08:34Z</time>
      </trkpt>
      <trkpt lat="59.9484367" lon="17.5474749">
        <ele>31.8607</ele>
        <time>2013-05-05T14:08:35Z</time>
      </trkpt>
      <trkpt lat="59.9484753" lon="17.5475262">
        <ele>31.8607</ele>
        <time>2013-05-05T14:08:36Z</time>
      </trkpt>
      <trkpt lat="59.9485128" lon="17.5475745">
        <ele>31.8607</ele>
        <time>2013-05-05T14:08:37Z</time>
      </trkpt>
      <trkpt lat="59.9485507" lon="17.5476217">
        <ele>31.8607</ele>
        <time>2013-05-05T14:08:38Z</time>
      </trkpt>
      <trkpt lat="59.9485921" lon="17.5476632">
        <ele>31.8607</ele>
        <time>2013-05-05T14:08:39Z</time>
      </trkpt>
      <trkpt lat="59.9486354" lon="17.5477005">
        <ele>31.3801</ele>
        <time>2013-05-05T14:08:40Z</time>
      </trkpt>
      <trkpt lat="59.948676" lon="17.5477417">
        <ele>31.3801</ele>
        <time>2013-05-05T14:08:41Z</time>
      </trkpt>
      <trkpt lat="59.9487178" lon="17.5477847">
        <ele>31.3801</ele>
        <time>2013-05-05T14:08:42Z</time>
      </trkpt>
      <trkpt lat="59.9487635" lon="17.5478263">
        <ele>31.3801</ele>
        <time>2013-05-05T14:08:43Z</time>
      </trkpt>
      <trkpt lat="59.948811" lon="17.5478637">
        <ele>31.3801</ele>
        <time>2013-05-05T14:08:44Z</time>
      </trkpt>
      <trkpt lat="59.9488594" lon="17.5478958">
        <ele>30.8995</ele>
        <time>2013-05-05T14:08:45Z</time>
      </trkpt>
      <trkpt lat="59.948908" lon="17.5479245">
        <ele>30.8995</ele>
        <time>2013-05-05T14:08:46Z</time>
      </trkpt>
      <trkpt lat="59.9489563" lon="17.547949">
        <ele>30.4188</ele>
        <time>2013-05-05T14:08:47Z</time>
      </trkpt>
      <trkpt lat="59.9490044" lon="17.5479702">
        <ele>30.4188</ele>
        <time>2013-05-05T14:08:48Z</time>
      </trkpt>
      <trkpt lat="59.9490521" lon="17.5479906">
        <ele>30.4188</ele>
        <time>2013-05-05T14:08:49Z</time>
      </trkpt>
      <trkpt lat="59.9490992" lon="17.5480079">
        <ele>29.9381</ele>
        <time>2013-05-05T14:08:50Z</time>
      </trkpt>
      <trkpt lat="59.9491447" lon="17.5480242">
        <ele>29.9381</ele>
        <time>2013-05-05T14:08:51Z</time>
      </trkpt>
      <trkpt lat="59.9491908" lon="17.5480406">
        <ele>29.9381</ele>
        <time>2013-05-05T14:08:52Z</time>
      </trkpt>
      <trkpt lat="59.9492395" lon="17.5480521">
        <ele>29.9381</ele>
        <time>2013-05-05T14:08:53Z</time>
      </trkpt>
      <trkpt lat="59.9492897" lon="17.5480551">
        <ele>29.9381</ele>
        <time>2013-05-05T14:08:54Z</time>
      </trkpt>
      <trkpt lat="59.9493389" lon="17.5480587">
        <ele>29.9381</ele>
        <time>2013-05-05T14:08:55Z</time>
      </trkpt>
      <trkpt lat="59.9493883" lon="17.5480647">
        <ele>29.9381</ele>
        <time>2013-05-05T14:08:56Z</time>
      </trkpt>
      <trkpt lat="59.9494375" lon="17.5480678">
        <ele>29.4575</ele>
        <time>2013-05-05T14:08:57Z</time>
      </trkpt>
      <trkpt lat="59.9494856" lon="17.5480663">
        <ele>29.4575</ele>
        <time>2013-05-05T14:08:58Z</time>
      </trkpt>
      <trkpt lat="59.9495329" lon="17.5480619">
        <ele>29.4575</ele>
        <time>2013-05-05T14:08:59Z</time>
      </trkpt>
      <trkpt lat="59.949579" lon="17.5480525">
        <ele>28.9769</ele>
        <time>2013-05-05T14:09:00Z</time>
      </trkpt>
      <trkpt lat="59.9496245" lon="17.5480385">
        <ele>28.9769</ele>
        <time>2013-05-05T14:09:01Z</time>
      </trkpt>
      <trkpt lat="59.9496701" lon="17.548024">
        <ele>28.4962</ele>
        <time>2013-05-05T14:09:02Z</time>
      </trkpt>
      <trkpt lat="59.9497166" lon="17.548006">
        <ele>28.4962</ele>
        <time>2013-05-05T14:09:03Z</time>
      </trkpt>
      <trkpt lat="59.9497634" lon="17.5479833">
        <ele>28.4962</ele>
        <time>2013-05-05T14:09:04Z</time>
      </trkpt>
      <trkpt lat="59.9498087" lon="17.5479598">
        <ele>28.0155</ele>
        <time>2013-05-05T14:09:05Z</time>
      </trkpt>
      <trkpt lat="59.9498532" lon="17.5479375">
        <ele>28.0155</ele>
        <time>2013-05-05T14:09:06Z</time>
      </trkpt>
      <trkpt lat="59.9498973" lon="17.5479148">
        <ele>28.0155</ele>
        <time>2013-05-05T14:09:07Z</time>
      </trkpt>
      <trkpt lat="59.9499405" lon="17.5478906">
        <ele>27.5349</ele>
        <time>2013-05-05T14:09:08Z</time>
      </trkpt>
      <trkpt lat="59.9499834" lon="17.5478642">
        <ele>27.5349</ele>
        <time>2013-05-05T14:09:09Z</time>
      </trkpt>
      <trkpt lat="59.9500244" lon="17.547836">
        <ele>27.5349</ele>
        <time>2013-05-05T14:09:10Z</time>
      </trkpt>
      <trkpt lat="59.9500647" lon="17.5478072">
        <ele>27.5349</ele>
        <time>2013-05-05T14:09:11Z</time>
      </trkpt>
      <trkpt lat="59.9501097" lon="17.5477839">
        <ele>27.5349</ele>
        <time>2013-05-05T14:09:12Z</time>
      </trkpt>
      <trkpt lat="59.9501544" lon="17.5477731">
        <ele>27.5349</ele>
        <time>2013-05-05T14:09:13Z</time>
      </trkpt>
      <trkpt lat="59.9501979" lon="17.5477849">
        <ele>27.5349</ele>
        <time>2013-05-05T14:09:14Z</time>
      </trkpt>
      <trkpt lat="59.9502383" lon="17.5478221">
        <ele>27.5349</ele>
        <time>2013-05-05T14:09:15Z</time>
      </trkpt>
      <trkpt lat="59.9502704" lon="17.5478831">
        <ele>27.5349</ele>
        <time>2013-05-05T14:09:16Z</time>
      </trkpt>
      <trkpt lat="59.9502931" lon="17.5479646">
        <ele>27.0543</ele>
        <time>2013-05-05T14:09:17Z</time>
      </trkpt>
      <trkpt lat="59.9503075" lon="17.5480594">
        <ele>27.0543</ele>
        <time>2013-05-05T14:09:18Z</time>
      </trkpt>
      <trkpt lat="59.950316" lon="17.5481592">
        <ele>27.0543</ele>
        <time>2013-05-05T14:09:19Z</time>
      </trkpt>
      <trkpt lat="59.9503251" lon="17.5482603">
        <ele>27.0543</ele>
        <time>2013-05-05T14:09:20Z</time>
      </trkpt>
      <trkpt lat="59.9503352" lon="17.5483607">
        <ele>27.5349</ele>
        <time>2013-05-05T14:09:21Z</time>
      </trkpt>
      <trkpt lat="59.9503457" lon="17.5484604">
        <ele>27.5349</ele>
        <time>2013-05-05T14:09:22Z</time>
      </trkpt>
      <trkpt lat="59.950358" lon="17.5485593">
        <ele>28.0155</ele>
        <time>2013-05-05T14:09:23Z</time>
      </trkpt>
      <trkpt lat="59.950372" lon="17.5486579">
        <ele>28.0155</ele>
        <time>2013-05-05T14:09:24Z</time>
      </trkpt>
      <trkpt lat="59.9503842" lon="17.5487567">
        <ele>28.0155</ele>
        <time>2013-05-05T14:09:25Z</time>
      </trkpt>
      <trkpt lat="59.9503948" lon="17.5488577">
        <ele>28.0155</ele>
        <time>2013-05-05T14:09:26Z</time>
      </trkpt>
      <trkpt lat="59.9504046" lon="17.5489613">
        <ele>28.0155</ele>
        <time>2013-05-05T14:09:27Z</time>
      </trkpt>
      <trkpt lat="59.9504139" lon="17.549067">
        <ele>28.0155</ele>
        <time>2013-05-05T14:09:28Z</time>
      </trkpt>
      <trkpt lat="59.9504242" lon="17.5491742">
        <ele>27.5349</ele>
        <time>2013-05-05T14:09:29Z</time>
      </trkpt>
      <trkpt lat="59.9504372" lon="17.5492809">
        <ele>27.5349</ele>
        <time>2013-05-05T14:09:30Z</time>
      </trkpt>
      <trkpt lat="59.9504491" lon="17.5493865">
        <ele>27.5349</ele>
        <time>2013-05-05T14:09:31Z</time>
      </trkpt>
      <trkpt lat="59.95046" lon="17.5494916">
        <ele>27.0543</ele>
        <time>2013-05-05T14:09:32Z</time>
      </trkpt>
      <trkpt lat="59.9504748" lon="17.5495988">
        <ele>27.0543</ele>
        <time>2013-05-05T14:09:33Z</time>
      </trkpt>
      <trkpt lat="59.9504906" lon="17.549706">
        <ele>27.0543</ele>
        <time>2013-05-05T14:09:34Z</time>
      </trkpt>
      <trkpt lat="59.9505092" lon="17.5498124">
        <ele>27.0543</ele>
        <time>2013-05-05T14:09:35Z</time>
      </trkpt>
      <trkpt lat="59.9505289" lon="17.5499201">
        <ele>26.5736</ele>
        <time>2013-05-05T14:09:36Z</time>
      </trkpt>
      <trkpt lat="59.950551" lon="17.5500305">
        <ele>27.0543</ele>
        <time>2013-05-05T14:09:37Z</time>
      </trkpt>
      <trkpt lat="59.9505746" lon="17.5501417">
        <ele>26.5736</ele>
        <time>2013-05-05T14:09:38Z</time>
      </trkpt>
      <trkpt lat="59.9505989" lon="17.5502537">
        <ele>26.5736</ele>
        <time>2013-05-05T14:09:39Z</time>
      </trkpt>
      <trkpt lat="59.9506273" lon="17.5503646">
        <ele>26.0929</ele>
        <time>2013-05-05T14:09:40Z</time>
      </trkpt>
      <trkpt lat="59.9506608" lon="17.5504723">
        <ele>26.0929</ele>
        <time>2013-05-05T14:09:41Z</time>
      </trkpt>
      <trkpt lat="59.9506983" lon="17.5505771">
        <ele>25.6123</ele>
        <time>2013-05-05T14:09:42Z</time>
      </trkpt>
      <trkpt lat="59.9507391" lon="17.5506789">
        <ele>25.6123</ele>
        <time>2013-05-05T14:09:43Z</time>
      </trkpt>
      <trkpt lat="59.9507815" lon="17.5507784">
        <ele>25.1317</ele>
        <time>2013-05-05T14:09:44Z</time>
      </trkpt>
      <trkpt lat="59.9508247" lon="17.5508759">
        <ele>25.1317</ele>
        <time>2013-05-05T14:09:45Z</time>
      </trkpt>
      <trkpt lat="59.9508686" lon="17.5509696">
        <ele>25.1317</ele>
        <time>2013-05-05T14:09:46Z</time>
      </trkpt>
      <trkpt lat="59.9509149" lon="17.5510587">
        <ele>25.1317</ele>
        <time>2013-05-05T14:09:47Z</time>
      </trkpt>
      <trkpt lat="59.950963" lon="17.5511451">
        <ele>25.1317</ele>
        <time>2013-05-05T14:09:48Z</time>
      </trkpt>
      <trkpt lat="59.9510117" lon="17.5512295">
        <ele>24.651</ele>
        <time>2013-05-05T14:09:49Z</time>
      </trkpt>
      <trkpt lat="59.9510614" lon="17.5513103">
        <ele>24.651</ele>
        <time>2013-05-05T14:09:50Z</time>
      </trkpt>
      <trkpt lat="59.9511118" lon="17.5513886">
        <ele>24.651</ele>
        <time>2013-05-05T14:09:51Z</time>
      </trkpt>
      <trkpt lat="59.9511619" lon="17.5514649">
        <ele>24.651</ele>
        <time>2013-05-05T14:09:52Z</time>
      </trkpt>
      <trkpt lat="59.9512109" lon="17.5515409">
        <ele>25.1317</ele>
        <time>2013-05-05T14:09:53Z</time>
      </trkpt>
      <trkpt lat="59.9512593" lon="17.5516136">
        <ele>25.1317</ele>
        <time>2013-05-05T14:09:54Z</time>
      </trkpt>
      <trkpt lat="59.9513083" lon="17.5516793">
        <ele>24.651</ele>
        <time>2013-05-05T14:09:55Z</time>
      </trkpt>
      <trkpt lat="59.9513578" lon="17.5517392">
        <ele>24.651</ele>
        <time>2013-05-05T14:09:56Z</time>
      </trkpt>
      <trkpt lat="59.9514079" lon="17.5517951">
        <ele>24.651</ele>
        <time>2013-05-05T14:09:57Z</time>
      </trkpt>
      <trkpt lat="59.9514581" lon="17.5518462">
        <ele>24.651</ele>
        <time>2013-05-05T14:09:58Z</time>
      </trkpt>
      <trkpt lat="59.9515085" lon="17.5518926">
        <ele>24.651</ele>
        <time>2013-05-05T14:09:59Z</time>
      </trkpt>
      <trkpt lat="59.9515593" lon="17.5519366">
        <ele>24.651</ele>
        <time>2013-05-05T14:10:00Z</time>
      </trkpt>
      <trkpt lat="59.9516103" lon="17.5519812">
        <ele>24.651</ele>
        <time>2013-05-05T14:10:01Z</time>
      </trkpt>
      <trkpt lat="59.9516617" lon="17.5520236">
        <ele>24.651</ele>
        <time>2013-05-05T14:10:02Z</time>
      </trkpt>
      <trkpt lat="59.9517136" lon="17.5520552">
        <ele>24.1703</ele>
        <time>2013-05-05T14:10:03Z</time>
      </trkpt>
      <trkpt lat="59.9517665" lon="17.5520808">
        <ele>24.1703</ele>
        <time>2013-05-05T14:10:04Z</time>
      </trkpt>
      <trkpt lat="59.9518175" lon="17.5521149">
        <ele>24.1703</ele>
        <time>2013-05-05T14:10:05Z</time>
      </trkpt>
      <trkpt lat="59.9518659" lon="17.5521543">
        <ele>24.1703</ele>
        <time>2013-05-05T14:10:06Z</time>
      </trkpt>
      <trkpt lat="59.9519132" lon="17.552188">
        <ele>24.1703</ele>
        <time>2013-05-05T14:10:07Z</time>
      </trkpt>
      <trkpt lat="59.9519591" lon="17.5522206">
        <ele>24.1703</ele>
        <time>2013-05-05T14:10:08Z</time>
      </trkpt>
      <trkpt lat="59.9520027" lon="17.5522559">
        <ele>24.1703</ele>
        <time>2013-05-05T14:10:09Z</time>
      </trkpt>
      <trkpt lat="59.9520446" lon="17.5522914">
        <ele>23.6896</ele>
        <time>2013-05-05T14:10:10Z</time>
      </trkpt>
      <trkpt lat="59.9520862" lon="17.552322">
        <ele>23.6896</ele>
        <time>2013-05-05T14:10:11Z</time>
      </trkpt>
      <trkpt lat="59.9521279" lon="17.5523495">
        <ele>23.6896</ele>
        <time>2013-05-05T14:10:12Z</time>
      </trkpt>
      <trkpt lat="59.9521684" lon="17.5523787">
        <ele>23.6896</ele>
        <time>2013-05-05T14:10:13Z</time>
      </trkpt>
      <trkpt lat="59.9522078" lon="17.552405">
        <ele>23.6896</ele>
        <time>2013-05-05T14:10:14Z</time>
      </trkpt>
      <trkpt lat="59.9522481" lon="17.5524318">
        <ele>23.6896</ele>
        <time>2013-05-05T14:10:15Z</time>
      </trkpt>
      <trkpt lat="59.9522815" lon="17.5524776">
        <ele>23.6896</ele>
        <time>2013-05-05T14:10:16Z</time>
      </trkpt>
      <trkpt lat="59.9523062" lon="17.5525475">
        <ele>23.6896</ele>
        <time>2013-05-05T14:10:17Z</time>
      </trkpt>
      <trkpt lat="59.952333" lon="17.552625">
        <ele>23.6896</ele>
        <time>2013-05-05T14:10:18Z</time>
      </trkpt>
      <trkpt lat="59.9523695" lon="17.5526893">
        <ele>23.6896</ele>
        <time>2013-05-05T14:10:19Z</time>
      </trkpt>
      <trkpt lat="59.9524153" lon="17.5527365">
        <ele>23.6896</ele>
        <time>2013-05-05T14:10:20Z</time>
      </trkpt>
      <trkpt lat="59.9524653" lon="17.5527759">
        <ele>23.6896</ele>
        <time>2013-05-05T14:10:21Z</time>
      </trkpt>
      <trkpt lat="59.9525155" lon="17.5528157">
        <ele>23.6896</ele>
        <time>2013-05-05T14:10:22Z</time>
      </trkpt>
      <trkpt lat="59.9525632" lon="17.552863">
        <ele>23.6896</ele>
        <time>2013-05-05T14:10:23Z</time>
      </trkpt>
      <trkpt lat="59.952608" lon="17.5529221">
        <ele>23.6896</ele>
        <time>2013-05-05T14:10:24Z</time>
      </trkpt>
      <trkpt lat="59.9526489" lon="17.5529954">
        <ele>23.6896</ele>
        <time>2013-05-05T14:10:25Z</time>
      </trkpt>
      <trkpt lat="59.952687" lon="17.5530793">
        <ele>23.6896</ele>
        <time>2013-05-05T14:10:26Z</time>
      </trkpt>
      <trkpt lat="59.9527223" lon="17.5531717">
        <ele>23.6896</ele>
        <time>2013-05-05T14:10:27Z</time>
      </trkpt>
      <trkpt lat="59.9527533" lon="17.5532725">
        <ele>23.6896</ele>
        <time>2013-05-05T14:10:28Z</time>
      </trkpt>
      <trkpt lat="59.9527785" lon="17.5533778">
        <ele>23.6896</ele>
        <time>2013-05-05T14:10:29Z</time>
      </trkpt>
      <trkpt lat="59.9527989" lon="17.5534857">
        <ele>24.1703</ele>
        <time>2013-05-05T14:10:30Z</time>
      </trkpt>
      <trkpt lat="59.9528189" lon="17.5535929">
        <ele>23.6896</ele>
        <time>2013-05-05T14:10:31Z</time>
      </trkpt>
      <trkpt lat="59.9528401" lon="17.5536983">
        <ele>23.6896</ele>
        <time>2013-05-05T14:10:32Z</time>
      </trkpt>
      <trkpt lat="59.952863" lon="17.5538019">
        <ele>23.6896</ele>
        <time>2013-05-05T14:10:33Z</time>
      </trkpt>
      <trkpt lat="59.9528868" lon="17.5539042">
        <ele>23.6896</ele>
        <time>2013-05-05T14:10:34Z</time>
      </trkpt>
      <trkpt lat="59.9529103" lon="17.5540066">
        <ele>23.6896</ele>
        <time>2013-05-05T14:10:35Z</time>
      </trkpt>
      <trkpt lat="59.9529326" lon="17.5541098">
        <ele>23.6896</ele>
        <time>2013-05-05T14:10:36Z</time>
      </trkpt>
      <trkpt lat="59.9529532" lon="17.5542143">
        <ele>23.6896</ele>
        <time>2013-05-05T14:10:37Z</time>
      </trkpt>
      <trkpt lat="59.9529733" lon="17.5543191">
        <ele>23.6896</ele>
        <time>2013-05-05T14:10:38Z</time>
      </trkpt>
      <trkpt lat="59.9529936" lon="17.5544235">
        <ele>23.6896</ele>
        <time>2013-05-05T14:10:39Z</time>
      </trkpt>
      <trkpt lat="59.9530142" lon="17.5545271">
        <ele>23.6896</ele>
        <time>2013-05-05T14:10:40Z</time>
      </trkpt>
      <trkpt lat="59.9530351" lon="17.5546295">
        <ele>23.6896</ele>
        <time>2013-05-05T14:10:41Z</time>
      </trkpt>
      <trkpt lat="59.9530566" lon="17.5547312">
        <ele>23.6896</ele>
        <time>2013-05-05T14:10:42Z</time>
      </trkpt>
      <trkpt lat="59.9530775" lon="17.5548323">
        <ele>23.6896</ele>
        <time>2013-05-05T14:10:43Z</time>
      </trkpt>
      <trkpt lat="59.9530976" lon="17.5549332">
        <ele>23.6896</ele>
        <time>2013-05-05T14:10:44Z</time>
      </trkpt>
      <trkpt lat="59.9531185" lon="17.5550312">
        <ele>23.6896</ele>
        <time>2013-05-05T14:10:45Z</time>
      </trkpt>
      <trkpt lat="59.9531385" lon="17.5551277">
        <ele>23.6896</ele>
        <time>2013-05-05T14:10:46Z</time>
      </trkpt>
      <trkpt lat="59.9531583" lon="17.5552235">
        <ele>23.6896</ele>
        <time>2013-05-05T14:10:47Z</time>
      </trkpt>
      <trkpt lat="59.9531797" lon="17.5553182">
        <ele>23.6896</ele>
        <time>2013-05-05T14:10:48Z</time>
      </trkpt>
      <trkpt lat="59.9532018" lon="17.5554117">
        <ele>23.6896</ele>
        <time>2013-05-05T14:10:49Z</time>
      </trkpt>
      <trkpt lat="59.9532236" lon="17.5555048">
        <ele>23.6896</ele>
        <time>2013-05-05T14:10:50Z</time>
      </trkpt>
      <trkpt lat="59.9532454" lon="17.5555975">
        <ele>23.6896</ele>
        <time>2013-05-05T14:10:51Z</time>
      </trkpt>
      <trkpt lat="59.9532656" lon="17.5556922">
        <ele>23.6896</ele>
        <time>2013-05-05T14:10:52Z</time>
      </trkpt>
      <trkpt lat="59.9532836" lon="17.5557867">
        <ele>23.6896</ele>
        <time>2013-05-05T14:10:53Z</time>
      </trkpt>
      <trkpt lat="59.9533003" lon="17.5558822">
        <ele>23.6896</ele>
        <time>2013-05-05T14:10:54Z</time>
      </trkpt>
      <trkpt lat="59.9533158" lon="17.5559801">
        <ele>23.6896</ele>
        <time>2013-05-05T14:10:55Z</time>
      </trkpt>
      <trkpt lat="59.9533303" lon="17.5560803">
        <ele>24.1703</ele>
        <time>2013-05-05T14:10:56Z</time>
      </trkpt>
      <trkpt lat="59.9533467" lon="17.5561818">
        <ele>24.1703</ele>
        <time>2013-05-05T14:10:57Z</time>
      </trkpt>
      <trkpt lat="59.9533651" lon="17.5562837">
        <ele>24.1703</ele>
        <time>2013-05-05T14:10:58Z</time>
      </trkpt>
      <trkpt lat="59.953385" lon="17.5563857">
        <ele>24.1703</ele>
        <time>2013-05-05T14:10:59Z</time>
      </trkpt>
      <trkpt lat="59.953406" lon="17.5564869">
        <ele>24.1703</ele>
        <time>2013-05-05T14:11:00Z</time>
      </trkpt>
      <trkpt lat="59.9534271" lon="17.556587">
        <ele>24.1703</ele>
        <time>2013-05-05T14:11:01Z</time>
      </trkpt>
      <trkpt lat="59.9534484" lon="17.5566874">
        <ele>24.651</ele>
        <time>2013-05-05T14:11:02Z</time>
      </trkpt>
      <trkpt lat="59.9534686" lon="17.5567863">
        <ele>25.1317</ele>
        <time>2013-05-05T14:11:03Z</time>
      </trkpt>
      <trkpt lat="59.9534882" lon="17.5568838">
        <ele>25.6123</ele>
        <time>2013-05-05T14:11:04Z</time>
      </trkpt>
      <trkpt lat="59.9535073" lon="17.5569816">
        <ele>26.0929</ele>
        <time>2013-05-05T14:11:05Z</time>
      </trkpt>
      <trkpt lat="59.9535267" lon="17.5570816">
        <ele>26.5736</ele>
        <time>2013-05-05T14:11:06Z</time>
      </trkpt>
      <trkpt lat="59.9535499" lon="17.5571826">
        <ele>26.5736</ele>
        <time>2013-05-05T14:11:07Z</time>
      </trkpt>
      <trkpt lat="59.9535756" lon="17.5572861">
        <ele>27.0543</ele>
        <time>2013-05-05T14:11:08Z</time>
      </trkpt>
      <trkpt lat="59.9535985" lon="17.5573938">
        <ele>27.0543</ele>
        <time>2013-05-05T14:11:09Z</time>
      </trkpt>
      <trkpt lat="59.9536207" lon="17.5575062">
        <ele>27.5349</ele>
        <time>2013-05-05T14:11:10Z</time>
      </trkpt>
      <trkpt lat="59.9536435" lon="17.5576214">
        <ele>28.0155</ele>
        <time>2013-05-05T14:11:11Z</time>
      </trkpt>
      <trkpt lat="59.953665" lon="17.5577362">
        <ele>28.0155</ele>
        <time>2013-05-05T14:11:12Z</time>
      </trkpt>
      <trkpt lat="59.9536862" lon="17.5578492">
        <ele>28.4962</ele>
        <time>2013-05-05T14:11:13Z</time>
      </trkpt>
      <trkpt lat="59.9537077" lon="17.5579586">
        <ele>28.4962</ele>
        <time>2013-05-05T14:11:14Z</time>
      </trkpt>
      <trkpt lat="59.9537292" lon="17.5580679">
        <ele>28.9769</ele>
        <time>2013-05-05T14:11:15Z</time>
      </trkpt>
      <trkpt lat="59.9537515" lon="17.5581792">
        <ele>28.9769</ele>
        <time>2013-05-05T14:11:16Z</time>
      </trkpt>
      <trkpt lat="59.9537749" lon="17.5582938">
        <ele>29.4575</ele>
        <time>2013-05-05T14:11:17Z</time>
      </trkpt>
      <trkpt lat="59.9538005" lon="17.5584122">
        <ele>29.9381</ele>
        <time>2013-05-05T14:11:18Z</time>
      </trkpt>
      <trkpt lat="59.9538255" lon="17.5585363">
        <ele>29.9381</ele>
        <time>2013-05-05T14:11:19Z</time>
      </trkpt>
      <trkpt lat="59.9538489" lon="17.5586611">
        <ele>29.9381</ele>
        <time>2013-05-05T14:11:20Z</time>
      </trkpt>
      <trkpt lat="59.9538727" lon="17.5587842">
        <ele>30.4188</ele>
        <time>2013-05-05T14:11:21Z</time>
      </trkpt>
      <trkpt lat="59.9538975" lon="17.558905">
        <ele>30.4188</ele>
        <time>2013-05-05T14:11:22Z</time>
      </trkpt>
      <trkpt lat="59.9539234" lon="17.5590236">
        <ele>30.4188</ele>
        <time>2013-05-05T14:11:23Z</time>
      </trkpt>
      <trkpt lat="59.9539482" lon="17.5591411">
        <ele>30.8995</ele>
        <time>2013-05-05T14:11:24Z</time>
      </trkpt>
      <trkpt lat="59.9539727" lon="17.5592562">
        <ele>30.8995</ele>
        <time>2013-05-05T14:11:25Z</time>
      </trkpt>
      <trkpt lat="59.9539975" lon="17.5593702">
        <ele>31.3801</ele>
        <time>2013-05-05T14:11:26Z</time>
      </trkpt>
      <trkpt lat="59.9540223" lon="17.5594834">
        <ele>31.3801</ele>
        <time>2013-05-05T14:11:27Z</time>
      </trkpt>
      <trkpt lat="59.9540473" lon="17.5595943">
        <ele>31.8607</ele>
        <time>2013-05-05T14:11:28Z</time>
      </trkpt>
      <trkpt lat="59.9540714" lon="17.5597029">
        <ele>31.8607</ele>
        <time>2013-05-05T14:11:29Z</time>
      </trkpt>
      <trkpt lat="59.9540969" lon="17.5598103">
        <ele>31.8607</ele>
        <time>2013-05-05T14:11:30Z</time>
      </trkpt>
      <trkpt lat="59.9541239" lon="17.5599192">
        <ele>32.3416</ele>
        <time>2013-05-05T14:11:31Z</time>
      </trkpt>
      <trkpt lat="59.9541506" lon="17.5600291">
        <ele>32.8223</ele>
        <time>2013-05-05T14:11:32Z</time>
      </trkpt>
      <trkpt lat="59.9541755" lon="17.5601457">
        <ele>33.3029</ele>
        <time>2013-05-05T14:11:33Z</time>
      </trkpt>
      <trkpt lat="59.9542001" lon="17.5602684">
        <ele>33.3029</ele>
        <time>2013-05-05T14:11:34Z</time>
      </trkpt>
      <trkpt lat="59.9542259" lon="17.5603928">
        <ele>33.7834</ele>
        <time>2013-05-05T14:11:35Z</time>
      </trkpt>
      <trkpt lat="59.9542535" lon="17.5605186">
        <ele>34.2642</ele>
        <time>2013-05-05T14:11:36Z</time>
      </trkpt>
      <trkpt lat="59.954281" lon="17.5606422">
        <ele>34.7449</ele>
        <time>2013-05-05T14:11:37Z</time>
      </trkpt>
      <trkpt lat="59.9543063" lon="17.5607652">
        <ele>34.7449</ele>
        <time>2013-05-05T14:11:38Z</time>
      </trkpt>
      <trkpt lat="59.9543296" lon="17.5608888">
        <ele>35.2255</ele>
        <time>2013-05-05T14:11:39Z</time>
      </trkpt>
      <trkpt lat="59.9543523" lon="17.5610119">
        <ele>35.2255</ele>
        <time>2013-05-05T14:11:40Z</time>
      </trkpt>
      <trkpt lat="59.954375" lon="17.561134">
        <ele>35.7061</ele>
        <time>2013-05-05T14:11:41Z</time>
      </trkpt>
      <trkpt lat="59.954398" lon="17.5612557">
        <ele>35.7061</ele>
        <time>2013-05-05T14:11:42Z</time>
      </trkpt>
      <trkpt lat="59.9544221" lon="17.5613755">
        <ele>35.7061</ele>
        <time>2013-05-05T14:11:43Z</time>
      </trkpt>
      <trkpt lat="59.9544482" lon="17.561492">
        <ele>35.7061</ele>
        <time>2013-05-05T14:11:44Z</time>
      </trkpt>
      <trkpt lat="59.9544736" lon="17.5616114">
        <ele>35.7061</ele>
        <time>2013-05-05T14:11:45Z</time>
      </trkpt>
      <trkpt lat="59.9544948" lon="17.561729">
        <ele>35.7061</ele>
        <time>2013-05-05T14:11:46Z</time>
      </trkpt>
      <trkpt lat="59.9545172" lon="17.5618463">
        <ele>35.7061</ele>
        <time>2013-05-05T14:11:47Z</time>
      </trkpt>
      <trkpt lat="59.9545407" lon="17.5619622">
        <ele>35.7061</ele>
        <time>2013-05-05T14:11:48Z</time>
      </trkpt>
      <trkpt lat="59.954565" lon="17.5620767">
        <ele>35.2255</ele>
        <time>2013-05-05T14:11:49Z</time>
      </trkpt>
      <trkpt lat="59.9545912" lon="17.5621885">
        <ele>35.7061</ele>
        <time>2013-05-05T14:11:50Z</time>
      </trkpt>
      <trkpt lat="59.9546228" lon="17.5622957">
        <ele>35.7061</ele>
        <time>2013-05-05T14:11:51Z</time>
      </trkpt>
      <trkpt lat="59.9546549" lon="17.5623953">
        <ele>35.7061</ele>
        <time>2013-05-05T14:11:52Z</time>
      </trkpt>
      <trkpt lat="59.9546911" lon="17.5624908">
        <ele>35.2255</ele>
        <time>2013-05-05T14:11:53Z</time>
      </trkpt>
      <trkpt lat="59.9547283" lon="17.5625825">
        <ele>35.7061</ele>
        <time>2013-05-05T14:11:54Z</time>
      </trkpt>
      <trkpt lat="59.9547697" lon="17.5626731">
        <ele>35.7061</ele>
        <time>2013-05-05T14:11:55Z</time>
      </trkpt>
      <trkpt lat="59.9548117" lon="17.5627648">
        <ele>35.7061</ele>
        <time>2013-05-05T14:11:56Z</time>
      </trkpt>
      <trkpt lat="59.9548534" lon="17.5628614">
        <ele>35.7061</ele>
        <time>2013-05-05T14:11:57Z</time>
      </trkpt>
      <trkpt lat="59.9548937" lon="17.5629626">
        <ele>35.7061</ele>
        <time>2013-05-05T14:11:58Z</time>
      </trkpt>
      <trkpt lat="59.9549346" lon="17.5630676">
        <ele>35.7061</ele>
        <time>2013-05-05T14:11:59Z</time>
      </trkpt>
      <trkpt lat="59.9549748" lon="17.5631745">
        <ele>35.7061</ele>
        <time>2013-05-05T14:12:00Z</time>
      </trkpt>
      <trkpt lat="59.9550168" lon="17.5632853">
        <ele>35.2255</ele>
        <time>2013-05-05T14:12:01Z</time>
      </trkpt>
      <trkpt lat="59.955062" lon="17.5633946">
        <ele>35.2255</ele>
        <time>2013-05-05T14:12:02Z</time>
      </trkpt>
      <trkpt lat="59.9551081" lon="17.5635018">
        <ele>35.2255</ele>
        <time>2013-05-05T14:12:03Z</time>
      </trkpt>
      <trkpt lat="59.9551522" lon="17.5636074">
        <ele>34.7449</ele>
        <time>2013-05-05T14:12:04Z</time>
      </trkpt>
      <trkpt lat="59.9551944" lon="17.5637127">
        <ele>34.2642</ele>
        <time>2013-05-05T14:12:05Z</time>
      </trkpt>
      <trkpt lat="59.9552357" lon="17.5638167">
        <ele>34.2642</ele>
        <time>2013-05-05T14:12:06Z</time>
      </trkpt>
      <trkpt lat="59.9552775" lon="17.5639184">
        <ele>34.2642</ele>
        <time>2013-05-05T14:12:07Z</time>
      </trkpt>
      <trkpt lat="59.9553193" lon="17.5640186">
        <ele>33.7834</ele>
        <time>2013-05-05T14:12:08Z</time>
      </trkpt>
      <trkpt lat="59.955362" lon="17.564117">
        <ele>33.7834</ele>
        <time>2013-05-05T14:12:09Z</time>
      </trkpt>
      <trkpt lat="59.9554043" lon="17.564215">
        <ele>33.7834</ele>
        <time>2013-05-05T14:12:10Z</time>
      </trkpt>
      <trkpt lat="59.9554429" lon="17.564313">
        <ele>33.7834</ele>
        <time>2013-05-05T14:12:11Z</time>
      </trkpt>
      <trkpt lat="59.955482" lon="17.5644141">
        <ele>33.7834</ele>
        <time>2013-05-05T14:12:12Z</time>
      </trkpt>
      <trkpt lat="59.9555221" lon="17.5645188">
        <ele>33.7834</ele>
        <time>2013-05-05T14:12:13Z</time>
      </trkpt>
      <trkpt lat="59.9555634" lon="17.5646291">
        <ele>33.3029</ele>
        <time>2013-05-05T14:12:14Z</time>
      </trkpt>
      <trkpt lat="59.9556045" lon="17.5647452">
        <ele>33.3029</ele>
        <time>2013-05-05T14:12:15Z</time>
      </trkpt>
      <trkpt lat="59.9556448" lon="17.5648667">
        <ele>33.3029</ele>
        <time>2013-05-05T14:12:16Z</time>
      </trkpt>
      <trkpt lat="59.9556831" lon="17.5649902">
        <ele>33.3029</ele>
        <time>2013-05-05T14:12:17Z</time>
      </trkpt>
      <trkpt lat="59.9557164" lon="17.5651134">
        <ele>33.7834</ele>
        <time>2013-05-05T14:12:18Z</time>
      </trkpt>
      <trkpt lat="59.9557461" lon="17.5652341">
        <ele>33.7834</ele>
        <time>2013-05-05T14:12:19Z</time>
      </trkpt>
      <trkpt lat="59.9557686" lon="17.565349">
        <ele>33.7834</ele>
        <time>2013-05-05T14:12:20Z</time>
      </trkpt>
      <trkpt lat="59.9557909" lon="17.5654569">
        <ele>33.7834</ele>
        <time>2013-05-05T14:12:21Z</time>
      </trkpt>
      <trkpt lat="59.9558135" lon="17.5655583">
        <ele>33.7834</ele>
        <time>2013-05-05T14:12:22Z</time>
      </trkpt>
      <trkpt lat="59.9558365" lon="17.5656573">
        <ele>33.7834</ele>
        <time>2013-05-05T14:12:23Z</time>
      </trkpt>
      <trkpt lat="59.9558622" lon="17.565754">
        <ele>33.7834</ele>
        <time>2013-05-05T14:12:24Z</time>
      </trkpt>
      <trkpt lat="59.9558883" lon="17.5658516">
        <ele>33.7834</ele>
        <time>2013-05-05T14:12:25Z</time>
      </trkpt>
      <trkpt lat="59.9559104" lon="17.5659513">
        <ele>33.7834</ele>
        <time>2013-05-05T14:12:26Z</time>
      </trkpt>
      <trkpt lat="59.9559334" lon="17.5660492">
        <ele>34.2642</ele>
        <time>2013-05-05T14:12:27Z</time>
      </trkpt>
      <trkpt lat="59.9559551" lon="17.5661427">
        <ele>34.2642</ele>
        <time>2013-05-05T14:12:28Z</time>
      </trkpt>
      <trkpt lat="59.9559747" lon="17.5662367">
        <ele>34.2642</ele>
        <time>2013-05-05T14:12:29Z</time>
      </trkpt>
      <trkpt lat="59.9559935" lon="17.5663327">
        <ele>34.2642</ele>
        <time>2013-05-05T14:12:30Z</time>
      </trkpt>
      <trkpt lat="59.9560158" lon="17.5664274">
        <ele>34.2642</ele>
        <time>2013-05-05T14:12:31Z</time>
      </trkpt>
      <trkpt lat="59.9560401" lon="17.5665223">
        <ele>34.2642</ele>
        <time>2013-05-05T14:12:32Z</time>
      </trkpt>
      <trkpt lat="59.9560618" lon="17.5666171">
        <ele>34.2642</ele>
        <time>2013-05-05T14:12:33Z</time>
      </trkpt>
      <trkpt lat="59.9560837" lon="17.56671">
        <ele>34.2642</ele>
        <time>2013-05-05T14:12:34Z</time>
      </trkpt>
      <trkpt lat="59.9561073" lon="17.5668016">
        <ele>34.2642</ele>
        <time>2013-05-05T14:12:35Z</time>
      </trkpt>
      <trkpt lat="59.9561301" lon="17.5668922">
        <ele>34.2642</ele>
        <time>2013-05-05T14:12:36Z</time>
      </trkpt>
      <trkpt lat="59.9561515" lon="17.5669829">
        <ele>34.2642</ele>
        <time>2013-05-05T14:12:37Z</time>
      </trkpt>
      <trkpt lat="59.9561725" lon="17.567073">
        <ele>34.2642</ele>
        <time>2013-05-05T14:12:38Z</time>
      </trkpt>
      <trkpt lat="59.9561938" lon="17.5671638">
        <ele>34.2642</ele>
        <time>2013-05-05T14:12:39Z</time>
      </trkpt>
      <trkpt lat="59.9562163" lon="17.5672565">
        <ele>34.2642</ele>
        <time>2013-05-05T14:12:40Z</time>
      </trkpt>
      <trkpt lat="59.9562405" lon="17.5673507">
        <ele>34.2642</ele>
        <time>2013-05-05T14:12:41Z</time>
      </trkpt>
      <trkpt lat="59.9562641" lon="17.567446">
        <ele>34.2642</ele>
        <time>2013-05-05T14:12:42Z</time>
      </trkpt>
      <trkpt lat="59.956285" lon="17.5675383">
        <ele>34.2642</ele>
        <time>2013-05-05T14:12:43Z</time>
      </trkpt>
      <trkpt lat="59.9563053" lon="17.5676282">
        <ele>34.2642</ele>
        <time>2013-05-05T14:12:44Z</time>
      </trkpt>
      <trkpt lat="59.956325" lon="17.5677153">
        <ele>33.7834</ele>
        <time>2013-05-05T14:12:45Z</time>
      </trkpt>
      <trkpt lat="59.9563449" lon="17.5678029">
        <ele>34.2642</ele>
        <time>2013-05-05T14:12:46Z</time>
      </trkpt>
      <trkpt lat="59.9563682" lon="17.5678872">
        <ele>33.7834</ele>
        <time>2013-05-05T14:12:47Z</time>
      </trkpt>
      <trkpt lat="59.9563903" lon="17.5679706">
        <ele>33.7834</ele>
        <time>2013-05-05T14:12:48Z</time>
      </trkpt>
      <trkpt lat="59.956411" lon="17.5680562">
        <ele>33.7834</ele>
        <time>2013-05-05T14:12:49Z</time>
      </trkpt>
      <trkpt lat="59.9564299" lon="17.5681442">
        <ele>33.7834</ele>
        <time>2013-05-05T14:12:50Z</time>
      </trkpt>
      <trkpt lat="59.9564482" lon="17.5682298">
        <ele>33.3029</ele>
        <time>2013-05-05T14:12:51Z</time>
      </trkpt>
      <trkpt lat="59.9564662" lon="17.5683114">
        <ele>33.3029</ele>
        <time>2013-05-05T14:12:52Z</time>
      </trkpt>
      <trkpt lat="59.956483" lon="17.5683862">
        <ele>33.3029</ele>
        <time>2013-05-05T14:12:53Z</time>
      </trkpt>
      <trkpt lat="59.9565" lon="17.5684601">
        <ele>33.3029</ele>
        <time>2013-05-05T14:12:54Z</time>
      </trkpt>
      <trkpt lat="59.95652" lon="17.5685312">
        <ele>33.3029</ele>
        <time>2013-05-05T14:12:55Z</time>
      </trkpt>
      <trkpt lat="59.9565353" lon="17.5686032">
        <ele>33.3029</ele>
        <time>2013-05-05T14:12:56Z</time>
      </trkpt>
      <trkpt lat="59.9565496" lon="17.5686797">
        <ele>33.3029</ele>
        <time>2013-05-05T14:12:57Z</time>
      </trkpt>
      <trkpt lat="59.9565661" lon="17.5687522">
        <ele>33.3029</ele>
        <time>2013-05-05T14:12:58Z</time>
      </trkpt>
      <trkpt lat="59.9565797" lon="17.5688221">
        <ele>33.3029</ele>
        <time>2013-05-05T14:12:59Z</time>
      </trkpt>
      <trkpt lat="59.9565923" lon="17.5688928">
        <ele>33.3029</ele>
        <time>2013-05-05T14:13:00Z</time>
      </trkpt>
      <trkpt lat="59.9566073" lon="17.5689622">
        <ele>33.3029</ele>
        <time>2013-05-05T14:13:01Z</time>
      </trkpt>
      <trkpt lat="59.9566233" lon="17.5690331">
        <ele>33.3029</ele>
        <time>2013-05-05T14:13:02Z</time>
      </trkpt>
      <trkpt lat="59.9566372" lon="17.5691061">
        <ele>32.8223</ele>
        <time>2013-05-05T14:13:03Z</time>
      </trkpt>
      <trkpt lat="59.9566487" lon="17.5691823">
        <ele>32.8223</ele>
        <time>2013-05-05T14:13:04Z</time>
      </trkpt>
      <trkpt lat="59.9566643" lon="17.5692614">
        <ele>32.8223</ele>
        <time>2013-05-05T14:13:05Z</time>
      </trkpt>
      <trkpt lat="59.9566801" lon="17.5693434">
        <ele>33.3029</ele>
        <time>2013-05-05T14:13:06Z</time>
      </trkpt>
      <trkpt lat="59.9566925" lon="17.5694279">
        <ele>32.8223</ele>
        <time>2013-05-05T14:13:07Z</time>
      </trkpt>
      <trkpt lat="59.9567065" lon="17.5695144">
        <ele>32.8223</ele>
        <time>2013-05-05T14:13:08Z</time>
      </trkpt>
      <trkpt lat="59.9567203" lon="17.5696028">
        <ele>32.8223</ele>
        <time>2013-05-05T14:13:09Z</time>
      </trkpt>
      <trkpt lat="59.9567331" lon="17.5696925">
        <ele>32.8223</ele>
        <time>2013-05-05T14:13:10Z</time>
      </trkpt>
      <trkpt lat="59.9567459" lon="17.5697817">
        <ele>32.8223</ele>
        <time>2013-05-05T14:13:11Z</time>
      </trkpt>
      <trkpt lat="59.9567596" lon="17.5698703">
        <ele>32.8223</ele>
        <time>2013-05-05T14:13:12Z</time>
      </trkpt>
      <trkpt lat="59.9567742" lon="17.5699574">
        <ele>32.8223</ele>
        <time>2013-05-05T14:13:13Z</time>
      </trkpt>
      <trkpt lat="59.9567886" lon="17.5700452">
        <ele>32.8223</ele>
        <time>2013-05-05T14:13:14Z</time>
      </trkpt>
      <trkpt lat="59.9568016" lon="17.5701349">
        <ele>32.8223</ele>
        <time>2013-05-05T14:13:15Z</time>
      </trkpt>
      <trkpt lat="59.9568122" lon="17.570227">
        <ele>32.3416</ele>
        <time>2013-05-05T14:13:16Z</time>
      </trkpt>
      <trkpt lat="59.9568225" lon="17.570321">
        <ele>32.3416</ele>
        <time>2013-05-05T14:13:17Z</time>
      </trkpt>
      <trkpt lat="59.9568357" lon="17.5704157">
        <ele>32.3416</ele>
        <time>2013-05-05T14:13:18Z</time>
      </trkpt>
      <trkpt lat="59.9568497" lon="17.5705121">
        <ele>31.8607</ele>
        <time>2013-05-05T14:13:19Z</time>
      </trkpt>
      <trkpt lat="59.9568627" lon="17.5706104">
        <ele>31.8607</ele>
        <time>2013-05-05T14:13:20Z</time>
      </trkpt>
      <trkpt lat="59.9568745" lon="17.570711">
        <ele>31.3801</ele>
        <time>2013-05-05T14:13:21Z</time>
      </trkpt>
      <trkpt lat="59.9568873" lon="17.570813">
        <ele>31.3801</ele>
        <time>2013-05-05T14:13:22Z</time>
      </trkpt>
      <trkpt lat="59.9569013" lon="17.5709154">
        <ele>30.8995</ele>
        <time>2013-05-05T14:13:23Z</time>
      </trkpt>
      <trkpt lat="59.9569149" lon="17.5710191">
        <ele>30.8995</ele>
        <time>2013-05-05T14:13:24Z</time>
      </trkpt>
      <trkpt lat="59.9569263" lon="17.5711238">
        <ele>30.8995</ele>
        <time>2013-05-05T14:13:25Z</time>
      </trkpt>
      <trkpt lat="59.9569344" lon="17.5712316">
        <ele>30.4188</ele>
        <time>2013-05-05T14:13:26Z</time>
      </trkpt>
      <trkpt lat="59.9569362" lon="17.5713419">
        <ele>30.4188</ele>
        <time>2013-05-05T14:13:27Z</time>
      </trkpt>
      <trkpt lat="59.9569346" lon="17.5714543">
        <ele>30.4188</ele>
        <time>2013-05-05T14:13:28Z</time>
      </trkpt>
      <trkpt lat="59.9569322" lon="17.5715698">
        <ele>29.9381</ele>
        <time>2013-05-05T14:13:29Z</time>
      </trkpt>
      <trkpt lat="59.9569305" lon="17.571688">
        <ele>29.9381</ele>
        <time>2013-05-05T14:13:30Z</time>
      </trkpt>
      <trkpt lat="59.9569252" lon="17.5718076">
        <ele>29.9381</ele>
        <time>2013-05-05T14:13:31Z</time>
      </trkpt>
      <trkpt lat="59.9569098" lon="17.5719252">
        <ele>29.4575</ele>
        <time>2013-05-05T14:13:32Z</time>
      </trkpt>
      <trkpt lat="59.9568878" lon="17.5720396">
        <ele>29.4575</ele>
        <time>2013-05-05T14:13:33Z</time>
      </trkpt>
      <trkpt lat="59.9568632" lon="17.5721537">
        <ele>29.4575</ele>
        <time>2013-05-05T14:13:34Z</time>
      </trkpt>
      <trkpt lat="59.9568408" lon="17.5722676">
        <ele>28.9769</ele>
        <time>2013-05-05T14:13:35Z</time>
      </trkpt>
      <trkpt lat="59.9568185" lon="17.5723812">
        <ele>28.9769</ele>
        <time>2013-05-05T14:13:36Z</time>
      </trkpt>
      <trkpt lat="59.956798" lon="17.5724975">
        <ele>28.9769</ele>
        <time>2013-05-05T14:13:37Z</time>
      </trkpt>
      <trkpt lat="59.9567777" lon="17.5726183">
        <ele>28.9769</ele>
        <time>2013-05-05T14:13:38Z</time>
      </trkpt>
      <trkpt lat="59.9567588" lon="17.5727338">
        <ele>29.4575</ele>
        <time>2013-05-05T14:13:39Z</time>
      </trkpt>
      <trkpt lat="59.9567378" lon="17.572846">
        <ele>29.4575</ele>
        <time>2013-05-05T14:13:40Z</time>
      </trkpt>
      <trkpt lat="59.9567165" lon="17.5729554">
        <ele>29.9381</ele>
        <time>2013-05-05T14:13:41Z</time>
      </trkpt>
      <trkpt lat="59.9566891" lon="17.5730591">
        <ele>30.4188</ele>
        <time>2013-05-05T14:13:42Z</time>
      </trkpt>
      <trkpt lat="59.9566586" lon="17.5731625">
        <ele>30.8995</ele>
        <time>2013-05-05T14:13:43Z</time>
      </trkpt>
      <trkpt lat="59.9566285" lon="17.5732751">
        <ele>31.8607</ele>
        <time>2013-05-05T14:13:44Z</time>
      </trkpt>
      <trkpt lat="59.9566021" lon="17.5733809">
        <ele>32.3416</ele>
        <time>2013-05-05T14:13:45Z</time>
      </trkpt>
      <trkpt lat="59.9565756" lon="17.5734812">
        <ele>32.8223</ele>
        <time>2013-05-05T14:13:46Z</time>
      </trkpt>
      <trkpt lat="59.9565498" lon="17.5735787">
        <ele>33.3029</ele>
        <time>2013-05-05T14:13:47Z</time>
      </trkpt>
      <trkpt lat="59.9565285" lon="17.5736754">
        <ele>34.2642</ele>
        <time>2013-05-05T14:13:48Z</time>
      </trkpt>
      <trkpt lat="59.9565088" lon="17.5737714">
        <ele>34.7449</ele>
        <time>2013-05-05T14:13:49Z</time>
      </trkpt>
      <trkpt lat="59.9564844" lon="17.5738755">
        <ele>34.7449</ele>
        <time>2013-05-05T14:13:50Z</time>
      </trkpt>
      <trkpt lat="59.9564678" lon="17.5739711">
        <ele>35.2255</ele>
        <time>2013-05-05T14:13:51Z</time>
      </trkpt>
      <trkpt lat="59.9564491" lon="17.5740642">
        <ele>36.1868</ele>
        <time>2013-05-05T14:13:52Z</time>
      </trkpt>
      <trkpt lat="59.9564325" lon="17.5741589">
        <ele>36.1868</ele>
        <time>2013-05-05T14:13:53Z</time>
      </trkpt>
      <trkpt lat="59.9564135" lon="17.574253">
        <ele>36.1868</ele>
        <time>2013-05-05T14:13:54Z</time>
      </trkpt>
      <trkpt lat="59.9563905" lon="17.5743454">
        <ele>36.6675</ele>
        <time>2013-05-05T14:13:55Z</time>
      </trkpt>
      <trkpt lat="59.9563685" lon="17.5744363">
        <ele>36.6675</ele>
        <time>2013-05-05T14:13:56Z</time>
      </trkpt>
      <trkpt lat="59.9563477" lon="17.5745262">
        <ele>36.6675</ele>
        <time>2013-05-05T14:13:57Z</time>
      </trkpt>
      <trkpt lat="59.9563285" lon="17.5746147">
        <ele>36.6675</ele>
        <time>2013-05-05T14:13:58Z</time>
      </trkpt>
      <trkpt lat="59.9563099" lon="17.5747013">
        <ele>36.6675</ele>
        <time>2013-05-05T14:13:59Z</time>
      </trkpt>
      <trkpt lat="59.9562927" lon="17.5747857">
        <ele>36.6675</ele>
        <time>2013-05-05T14:14:00Z</time>
      </trkpt>
      <trkpt lat="59.956275" lon="17.5748659">
        <ele>36.1868</ele>
        <time>2013-05-05T14:14:01Z</time>
      </trkpt>
      <trkpt lat="59.9562591" lon="17.5749447">
        <ele>36.1868</ele>
        <time>2013-05-05T14:14:02Z</time>
      </trkpt>
      <trkpt lat="59.9562436" lon="17.5750219">
        <ele>36.1868</ele>
        <time>2013-05-05T14:14:03Z</time>
      </trkpt>
      <trkpt lat="59.9562301" lon="17.5750976">
        <ele>35.7061</ele>
        <time>2013-05-05T14:14:04Z</time>
      </trkpt>
      <trkpt lat="59.9562166" lon="17.5751714">
        <ele>35.2255</ele>
        <time>2013-05-05T14:14:05Z</time>
      </trkpt>
      <trkpt lat="59.9562011" lon="17.5752437">
        <ele>34.7449</ele>
        <time>2013-05-05T14:14:06Z</time>
      </trkpt>
      <trkpt lat="59.9561867" lon="17.5753063">
        <ele>34.7449</ele>
        <time>2013-05-05T14:14:07Z</time>
      </trkpt>
      <trkpt lat="59.956174" lon="17.5753703">
        <ele>34.2642</ele>
        <time>2013-05-05T14:14:08Z</time>
      </trkpt>
      <trkpt lat="59.9561607" lon="17.5754384">
        <ele>34.2642</ele>
        <time>2013-05-05T14:14:09Z</time>
      </trkpt>
      <trkpt lat="59.9561481" lon="17.5755109">
        <ele>33.7834</ele>
        <time>2013-05-05T14:14:10Z</time>
      </trkpt>
      <trkpt lat="59.9561347" lon="17.5755906">
        <ele>33.7834</ele>
        <time>2013-05-05T14:14:11Z</time>
      </trkpt>
      <trkpt lat="59.9561207" lon="17.5756752">
        <ele>33.3029</ele>
        <time>2013-05-05T14:14:12Z</time>
      </trkpt>
      <trkpt lat="59.9561053" lon="17.5757683">
        <ele>32.8223</ele>
        <time>2013-05-05T14:14:13Z</time>
      </trkpt>
      <trkpt lat="59.9560899" lon="17.575864">
        <ele>32.8223</ele>
        <time>2013-05-05T14:14:14Z</time>
      </trkpt>
      <trkpt lat="59.9560761" lon="17.5759625">
        <ele>32.3416</ele>
        <time>2013-05-05T14:14:15Z</time>
      </trkpt>
      <trkpt lat="59.9560639" lon="17.5760636">
        <ele>31.8607</ele>
        <time>2013-05-05T14:14:16Z</time>
      </trkpt>
      <trkpt lat="59.9560551" lon="17.5761646">
        <ele>31.3801</ele>
        <time>2013-05-05T14:14:17Z</time>
      </trkpt>
      <trkpt lat="59.9560512" lon="17.5762692">
        <ele>31.3801</ele>
        <time>2013-05-05T14:14:18Z</time>
      </trkpt>
      <trkpt lat="59.9560505" lon="17.5763759">
        <ele>30.8995</ele>
        <time>2013-05-05T14:14:19Z</time>
      </trkpt>
      <trkpt lat="59.9560498" lon="17.5764842">
        <ele>30.4188</ele>
        <time>2013-05-05T14:14:20Z</time>
      </trkpt>
      <trkpt lat="59.9560529" lon="17.5765914">
        <ele>29.9381</ele>
        <time>2013-05-05T14:14:21Z</time>
      </trkpt>
      <trkpt lat="59.9560592" lon="17.5766976">
        <ele>29.4575</ele>
        <time>2013-05-05T14:14:22Z</time>
      </trkpt>
      <trkpt lat="59.9560691" lon="17.5768017">
        <ele>28.9769</ele>
        <time>2013-05-05T14:14:23Z</time>
      </trkpt>
      <trkpt lat="59.956082" lon="17.5769049">
        <ele>28.4962</ele>
        <time>2013-05-05T14:14:24Z</time>
      </trkpt>
      <trkpt lat="59.9560948" lon="17.5770094">
        <ele>28.0155</ele>
        <time>2013-05-05T14:14:25Z</time>
      </trkpt>
      <trkpt lat="59.9561072" lon="17.5771166">
        <ele>28.0155</ele>
        <time>2013-05-05T14:14:26Z</time>
      </trkpt>
      <trkpt lat="59.9561178" lon="17.5772258">
        <ele>27.5349</ele>
        <time>2013-05-05T14:14:27Z</time>
      </trkpt>
      <trkpt lat="59.9561284" lon="17.5773359">
        <ele>27.0543</ele>
        <time>2013-05-05T14:14:28Z</time>
      </trkpt>
      <trkpt lat="59.9561395" lon="17.5774461">
        <ele>26.5736</ele>
        <time>2013-05-05T14:14:29Z</time>
      </trkpt>
      <trkpt lat="59.9561525" lon="17.5775534">
        <ele>26.5736</ele>
        <time>2013-05-05T14:14:30Z</time>
      </trkpt>
      <trkpt lat="59.9561679" lon="17.5776614">
        <ele>26.5736</ele>
        <time>2013-05-05T14:14:31Z</time>
      </trkpt>
      <trkpt lat="59.9561841" lon="17.5777704">
        <ele>26.5736</ele>
        <time>2013-05-05T14:14:32Z</time>
      </trkpt>
      <trkpt lat="59.9561989" lon="17.5778782">
        <ele>26.0929</ele>
        <time>2013-05-05T14:14:33Z</time>
      </trkpt>
      <trkpt lat="59.9562141" lon="17.5779845">
        <ele>26.0929</ele>
        <time>2013-05-05T14:14:34Z</time>
      </trkpt>
      <trkpt lat="59.9562312" lon="17.5780906">
        <ele>25.6123</ele>
        <time>2013-05-05T14:14:35Z</time>
      </trkpt>
      <trkpt lat="59.9562477" lon="17.5781983">
        <ele>25.6123</ele>
        <time>2013-05-05T14:14:36Z</time>
      </trkpt>
      <trkpt lat="59.9562624" lon="17.5783065">
        <ele>25.6123</ele>
        <time>2013-05-05T14:14:37Z</time>
      </trkpt>
      <trkpt lat="59.9562776" lon="17.5784134">
        <ele>25.1317</ele>
        <time>2013-05-05T14:14:38Z</time>
      </trkpt>
      <trkpt lat="59.9562927" lon="17.5785219">
        <ele>25.1317</ele>
        <time>2013-05-05T14:14:39Z</time>
      </trkpt>
      <trkpt lat="59.9563078" lon="17.5786314">
        <ele>25.1317</ele>
        <time>2013-05-05T14:14:40Z</time>
      </trkpt>
      <trkpt lat="59.9563223" lon="17.5787399">
        <ele>25.1317</ele>
        <time>2013-05-05T14:14:41Z</time>
      </trkpt>
      <trkpt lat="59.9563363" lon="17.5788477">
        <ele>25.1317</ele>
        <time>2013-05-05T14:14:42Z</time>
      </trkpt>
      <trkpt lat="59.9563476" lon="17.5789643">
        <ele>25.6123</ele>
        <time>2013-05-05T14:14:43Z</time>
      </trkpt>
      <trkpt lat="59.9563608" lon="17.5790793">
        <ele>25.6123</ele>
        <time>2013-05-05T14:14:44Z</time>
      </trkpt>
      <trkpt lat="59.9563737" lon="17.5791939">
        <ele>26.0929</ele>
        <time>2013-05-05T14:14:45Z</time>
      </trkpt>
      <trkpt lat="59.956388" lon="17.5793094">
        <ele>26.5736</ele>
        <time>2013-05-05T14:14:46Z</time>
      </trkpt>
      <trkpt lat="59.9564006" lon="17.579427">
        <ele>26.5736</ele>
        <time>2013-05-05T14:14:47Z</time>
      </trkpt>
      <trkpt lat="59.9564123" lon="17.5795456">
        <ele>27.0543</ele>
        <time>2013-05-05T14:14:48Z</time>
      </trkpt>
      <trkpt lat="59.9564253" lon="17.5796632">
        <ele>27.0543</ele>
        <time>2013-05-05T14:14:49Z</time>
      </trkpt>
      <trkpt lat="59.9564382" lon="17.5797792">
        <ele>27.5349</ele>
        <time>2013-05-05T14:14:50Z</time>
      </trkpt>
      <trkpt lat="59.9564497" lon="17.5798923">
        <ele>28.0155</ele>
        <time>2013-05-05T14:14:51Z</time>
      </trkpt>
      <trkpt lat="59.9564591" lon="17.5800045">
        <ele>28.4962</ele>
        <time>2013-05-05T14:14:52Z</time>
      </trkpt>
      <trkpt lat="59.9564716" lon="17.5801132">
        <ele>28.9769</ele>
        <time>2013-05-05T14:14:53Z</time>
      </trkpt>
      <trkpt lat="59.9564846" lon="17.5802197">
        <ele>29.4575</ele>
        <time>2013-05-05T14:14:54Z</time>
      </trkpt>
      <trkpt lat="59.956498" lon="17.5803232">
        <ele>29.9381</ele>
        <time>2013-05-05T14:14:55Z</time>
      </trkpt>
      <trkpt lat="59.9565072" lon="17.5804257">
        <ele>29.9381</ele>
        <time>2013-05-05T14:14:56Z</time>
      </trkpt>
      <trkpt lat="59.9565174" lon="17.5805291">
        <ele>30.4188</ele>
        <time>2013-05-05T14:14:57Z</time>
      </trkpt>
      <trkpt lat="59.9565264" lon="17.5806304">
        <ele>30.8995</ele>
        <time>2013-05-05T14:14:58Z</time>
      </trkpt>
      <trkpt lat="59.9565403" lon="17.5807309">
        <ele>31.3801</ele>
        <time>2013-05-05T14:14:59Z</time>
      </trkpt>
      <trkpt lat="59.9565506" lon="17.5808283">
        <ele>31.3801</ele>
        <time>2013-05-05T14:15:00Z</time>
      </trkpt>
      <trkpt lat="59.9565627" lon="17.5809236">
        <ele>31.8607</ele>
        <time>2013-05-05T14:15:01Z</time>
      </trkpt>
      <trkpt lat="59.9565763" lon="17.5810169">
        <ele>32.3416</ele>
        <time>2013-05-05T14:15:02Z</time>
      </trkpt>
      <trkpt lat="59.9565903" lon="17.581108">
        <ele>32.8223</ele>
        <time>2013-05-05T14:15:03Z</time>
      </trkpt>
      <trkpt lat="59.9566055" lon="17.5811937">
        <ele>32.8223</ele>
        <time>2013-05-05T14:15:04Z</time>
      </trkpt>
      <trkpt lat="59.9566212" lon="17.5812754">
        <ele>33.3029</ele>
        <time>2013-05-05T14:15:05Z</time>
      </trkpt>
      <trkpt lat="59.9566405" lon="17.5813421">
        <ele>33.7834</ele>
        <time>2013-05-05T14:15:06Z</time>
      </trkpt>
      <trkpt lat="59.9566678" lon="17.5813895">
        <ele>33.7834</ele>
        <time>2013-05-05T14:15:07Z</time>
      </trkpt>
      <trkpt lat="59.9566983" lon="17.5814156">
        <ele>34.2642</ele>
        <time>2013-05-05T14:15:08Z</time>
      </trkpt>
      <trkpt lat="59.9567321" lon="17.5814239">
        <ele>34.7449</ele>
        <time>2013-05-05T14:15:09Z</time>
      </trkpt>
      <trkpt lat="59.9567689" lon="17.5814211">
        <ele>35.2255</ele>
        <time>2013-05-05T14:15:10Z</time>
      </trkpt>
      <trkpt lat="59.9568031" lon="17.5814173">
        <ele>35.2255</ele>
        <time>2013-05-05T14:15:11Z</time>
      </trkpt>
      <trkpt lat="59.9568384" lon="17.5814141">
        <ele>35.7061</ele>
        <time>2013-05-05T14:15:12Z</time>
      </trkpt>
      <trkpt lat="59.9568726" lon="17.581403">
        <ele>35.7061</ele>
        <time>2013-05-05T14:15:13Z</time>
      </trkpt>
      <trkpt lat="59.9569062" lon="17.5813829">
        <ele>35.7061</ele>
        <time>2013-05-05T14:15:14Z</time>
      </trkpt>
      <trkpt lat="59.9569381" lon="17.5813585">
        <ele>35.7061</ele>
        <time>2013-05-05T14:15:15Z</time>
      </trkpt>
      <trkpt lat="59.9569715" lon="17.5813352">
        <ele>35.7061</ele>
        <time>2013-05-05T14:15:16Z</time>
      </trkpt>
      <trkpt lat="59.9570054" lon="17.5813146">
        <ele>35.7061</ele>
        <time>2013-05-05T14:15:17Z</time>
      </trkpt>
      <trkpt lat="59.9570409" lon="17.5812954">
        <ele>35.7061</ele>
        <time>2013-05-05T14:15:18Z</time>
      </trkpt>
      <trkpt lat="59.9570811" lon="17.5812779">
        <ele>35.2255</ele>
        <time>2013-05-05T14:15:19Z</time>
      </trkpt>
      <trkpt lat="59.9571169" lon="17.5812483">
        <ele>34.7449</ele>
        <time>2013-05-05T14:15:20Z</time>
      </trkpt>
      <trkpt lat="59.9571556" lon="17.5812218">
        <ele>34.7449</ele>
        <time>2013-05-05T14:15:21Z</time>
      </trkpt>
      <trkpt lat="59.9571952" lon="17.5811915">
        <ele>34.7449</ele>
        <time>2013-05-05T14:15:22Z</time>
      </trkpt>
      <trkpt lat="59.9572342" lon="17.5811597">
        <ele>34.7449</ele>
        <time>2013-05-05T14:15:23Z</time>
      </trkpt>
      <trkpt lat="59.9572729" lon="17.5811324">
        <ele>34.2642</ele>
        <time>2013-05-05T14:15:24Z</time>
      </trkpt>
      <trkpt lat="59.9573132" lon="17.5811079">
        <ele>34.2642</ele>
        <time>2013-05-05T14:15:25Z</time>
      </trkpt>
      <trkpt lat="59.9573536" lon="17.581078">
        <ele>33.7834</ele>
        <time>2013-05-05T14:15:26Z</time>
      </trkpt>
      <trkpt lat="59.9573927" lon="17.5810437">
        <ele>33.7834</ele>
        <time>2013-05-05T14:15:27Z</time>
      </trkpt>
      <trkpt lat="59.9574312" lon="17.58101">
        <ele>33.3029</ele>
        <time>2013-05-05T14:15:28Z</time>
      </trkpt>
      <trkpt lat="59.9574693" lon="17.5809749">
        <ele>33.3029</ele>
        <time>2013-05-05T14:15:29Z</time>
      </trkpt>
      <trkpt lat="59.9575065" lon="17.5809375">
        <ele>33.3029</ele>
        <time>2013-05-05T14:15:30Z</time>
      </trkpt>
      <trkpt lat="59.9575433" lon="17.5809">
        <ele>32.8223</ele>
        <time>2013-05-05T14:15:31Z</time>
      </trkpt>
      <trkpt lat="59.9575828" lon="17.580865">
        <ele>32.8223</ele>
        <time>2013-05-05T14:15:32Z</time>
      </trkpt>
      <trkpt lat="59.957622" lon="17.580828">
        <ele>32.8223</ele>
        <time>2013-05-05T14:15:33Z</time>
      </trkpt>
      <trkpt lat="59.9576571" lon="17.5807914">
        <ele>32.8223</ele>
        <time>2013-05-05T14:15:34Z</time>
      </trkpt>
      <trkpt lat="59.9576934" lon="17.5807551">
        <ele>32.3416</ele>
        <time>2013-05-05T14:15:35Z</time>
      </trkpt>
      <trkpt lat="59.9577342" lon="17.5807226">
        <ele>31.8607</ele>
        <time>2013-05-05T14:15:36Z</time>
      </trkpt>
      <trkpt lat="59.9577762" lon="17.5806854">
        <ele>31.8607</ele>
        <time>2013-05-05T14:15:37Z</time>
      </trkpt>
      <trkpt lat="59.9578211" lon="17.5806465">
        <ele>31.8607</ele>
        <time>2013-05-05T14:15:38Z</time>
      </trkpt>
      <trkpt lat="59.9578665" lon="17.5806045">
        <ele>31.8607</ele>
        <time>2013-05-05T14:15:39Z</time>
      </trkpt>
      <trkpt lat="59.9579124" lon="17.5805638">
        <ele>31.8607</ele>
        <time>2013-05-05T14:15:40Z</time>
      </trkpt>
      <trkpt lat="59.9579594" lon="17.5805238">
        <ele>31.3801</ele>
        <time>2013-05-05T14:15:41Z</time>
      </trkpt>
      <trkpt lat="59.95801" lon="17.5804865">
        <ele>31.3801</ele>
        <time>2013-05-05T14:15:42Z</time>
      </trkpt>
      <trkpt lat="59.9580572" lon="17.5804507">
        <ele>30.8995</ele>
        <time>2013-05-05T14:15:43Z</time>
      </trkpt>
      <trkpt lat="59.9581078" lon="17.5804247">
        <ele>30.8995</ele>
        <time>2013-05-05T14:15:44Z</time>
      </trkpt>
      <trkpt lat="59.9581612" lon="17.5804055">
        <ele>30.8995</ele>
        <time>2013-05-05T14:15:45Z</time>
      </trkpt>
      <trkpt lat="59.9582141" lon="17.5803911">
        <ele>30.4188</ele>
        <time>2013-05-05T14:15:46Z</time>
      </trkpt>
      <trkpt lat="59.9582663" lon="17.5803826">
        <ele>30.4188</ele>
        <time>2013-05-05T14:15:47Z</time>
      </trkpt>
      <trkpt lat="59.9583172" lon="17.5803771">
        <ele>29.9381</ele>
        <time>2013-05-05T14:15:48Z</time>
      </trkpt>
      <trkpt lat="59.9583667" lon="17.5803742">
        <ele>29.9381</ele>
        <time>2013-05-05T14:15:49Z</time>
      </trkpt>
      <trkpt lat="59.9584156" lon="17.5803734">
        <ele>29.4575</ele>
        <time>2013-05-05T14:15:50Z</time>
      </trkpt>
      <trkpt lat="59.9584634" lon="17.5803689">
        <ele>29.4575</ele>
        <time>2013-05-05T14:15:51Z</time>
      </trkpt>
      <trkpt lat="59.9585146" lon="17.5803688">
        <ele>29.4575</ele>
        <time>2013-05-05T14:15:52Z</time>
      </trkpt>
      <trkpt lat="59.9585674" lon="17.580375">
        <ele>29.9381</ele>
        <time>2013-05-05T14:15:53Z</time>
      </trkpt>
      <trkpt lat="59.9586254" lon="17.5803737">
        <ele>30.4188</ele>
        <time>2013-05-05T14:15:54Z</time>
      </trkpt>
      <trkpt lat="59.9586813" lon="17.5803698">
        <ele>30.4188</ele>
        <time>2013-05-05T14:15:55Z</time>
      </trkpt>
      <trkpt lat="59.9587364" lon="17.5803629">
        <ele>30.4188</ele>
        <time>2013-05-05T14:15:56Z</time>
      </trkpt>
      <trkpt lat="59.9587913" lon="17.5803593">
        <ele>30.8995</ele>
        <time>2013-05-05T14:15:57Z</time>
      </trkpt>
      <trkpt lat="59.9588425" lon="17.5803568">
        <ele>30.8995</ele>
        <time>2013-05-05T14:15:58Z</time>
      </trkpt>
      <trkpt lat="59.9588935" lon="17.5803531">
        <ele>31.3801</ele>
        <time>2013-05-05T14:15:59Z</time>
      </trkpt>
      <trkpt lat="59.9589433" lon="17.5803492">
        <ele>31.8607</ele>
        <time>2013-05-05T14:16:00Z</time>
      </trkpt>
      <trkpt lat="59.9589922" lon="17.580344">
        <ele>31.8607</ele>
        <time>2013-05-05T14:16:01Z</time>
      </trkpt>
      <trkpt lat="59.9590409" lon="17.5803386">
        <ele>32.3416</ele>
        <time>2013-05-05T14:16:02Z</time>
      </trkpt>
      <trkpt lat="59.9590881" lon="17.5803324">
        <ele>32.3416</ele>
        <time>2013-05-05T14:16:03Z</time>
      </trkpt>
      <trkpt lat="59.9591346" lon="17.5803231">
        <ele>32.8223</ele>
        <time>2013-05-05T14:16:04Z</time>
      </trkpt>
      <trkpt lat="59.9591822" lon="17.5803171">
        <ele>32.8223</ele>
        <time>2013-05-05T14:16:05Z</time>
      </trkpt>
      <trkpt lat="59.9592283" lon="17.5803268">
        <ele>32.8223</ele>
        <time>2013-05-05T14:16:06Z</time>
      </trkpt>
      <trkpt lat="59.9592745" lon="17.5803559">
        <ele>32.3416</ele>
        <time>2013-05-05T14:16:07Z</time>
      </trkpt>
      <trkpt lat="59.959319" lon="17.580391">
        <ele>32.3416</ele>
        <time>2013-05-05T14:16:08Z</time>
      </trkpt>
      <trkpt lat="59.95936" lon="17.5804221">
        <ele>31.8607</ele>
        <time>2013-05-05T14:16:09Z</time>
      </trkpt>
      <trkpt lat="59.9594053" lon="17.5804428">
        <ele>31.8607</ele>
        <time>2013-05-05T14:16:10Z</time>
      </trkpt>
      <trkpt lat="59.9594547" lon="17.5804573">
        <ele>31.8607</ele>
        <time>2013-05-05T14:16:11Z</time>
      </trkpt>
      <trkpt lat="59.9595041" lon="17.580472">
        <ele>31.8607</ele>
        <time>2013-05-05T14:16:12Z</time>
      </trkpt>
      <trkpt lat="59.9595526" lon="17.5804904">
        <ele>31.3801</ele>
        <time>2013-05-05T14:16:13Z</time>
      </trkpt>
      <trkpt lat="59.9596001" lon="17.5805103">
        <ele>31.3801</ele>
        <time>2013-05-05T14:16:14Z</time>
      </trkpt>
      <trkpt lat="59.9596469" lon="17.5805266">
        <ele>30.8995</ele>
        <time>2013-05-05T14:16:15Z</time>
      </trkpt>
      <trkpt lat="59.9596928" lon="17.5805436">
        <ele>30.4188</ele>
        <time>2013-05-05T14:16:16Z</time>
      </trkpt>
      <trkpt lat="59.9597408" lon="17.5805615">
        <ele>29.9381</ele>
        <time>2013-05-05T14:16:17Z</time>
      </trkpt>
      <trkpt lat="59.9597907" lon="17.5805802">
        <ele>29.9381</ele>
        <time>2013-05-05T14:16:18Z</time>
      </trkpt>
      <trkpt lat="59.9598426" lon="17.5805981">
        <ele>29.9381</ele>
        <time>2013-05-05T14:16:19Z</time>
      </trkpt>
      <trkpt lat="59.9598946" lon="17.5806154">
        <ele>29.9381</ele>
        <time>2013-05-05T14:16:20Z</time>
      </trkpt>
      <trkpt lat="59.9599484" lon="17.580633">
        <ele>29.4575</ele>
        <time>2013-05-05T14:16:21Z</time>
      </trkpt>
      <trkpt lat="59.9600017" lon="17.5806474">
        <ele>29.4575</ele>
        <time>2013-05-05T14:16:22Z</time>
      </trkpt>
      <trkpt lat="59.960056" lon="17.5806542">
        <ele>28.9769</ele>
        <time>2013-05-05T14:16:23Z</time>
      </trkpt>
      <trkpt lat="59.9601142" lon="17.5806485">
        <ele>28.4962</ele>
        <time>2013-05-05T14:16:24Z</time>
      </trkpt>
      <trkpt lat="59.96017" lon="17.5806366">
        <ele>28.0155</ele>
        <time>2013-05-05T14:16:25Z</time>
      </trkpt>
      <trkpt lat="59.9602238" lon="17.5806231">
        <ele>27.5349</ele>
        <time>2013-05-05T14:16:26Z</time>
      </trkpt>
      <trkpt lat="59.9602763" lon="17.5806241">
        <ele>27.0543</ele>
        <time>2013-05-05T14:16:27Z</time>
      </trkpt>
      <trkpt lat="59.9603279" lon="17.5806245">
        <ele>26.0929</ele>
        <time>2013-05-05T14:16:28Z</time>
      </trkpt>
      <trkpt lat="59.9603757" lon="17.580622">
        <ele>24.651</ele>
        <time>2013-05-05T14:16:29Z</time>
      </trkpt>
      <trkpt lat="59.9604255" lon="17.5806183">
        <ele>24.1703</ele>
        <time>2013-05-05T14:16:30Z</time>
      </trkpt>
      <trkpt lat="59.9604716" lon="17.5806122">
        <ele>23.209</ele>
        <time>2013-05-05T14:16:31Z</time>
      </trkpt>
      <trkpt lat="59.9605203" lon="17.5806077">
        <ele>22.2476</ele>
        <time>2013-05-05T14:16:32Z</time>
      </trkpt>
      <trkpt lat="59.96057" lon="17.5806042">
        <ele>21.2864</ele>
        <time>2013-05-05T14:16:33Z</time>
      </trkpt>
      <trkpt lat="59.9606183" lon="17.5805982">
        <ele>20.325</ele>
        <time>2013-05-05T14:16:34Z</time>
      </trkpt>
      <trkpt lat="59.9606668" lon="17.5805903">
        <ele>19.8444</ele>
        <time>2013-05-05T14:16:35Z</time>
      </trkpt>
      <trkpt lat="59.9607152" lon="17.5805817">
        <ele>18.8831</ele>
        <time>2013-05-05T14:16:36Z</time>
      </trkpt>
      <trkpt lat="59.9607642" lon="17.5805722">
        <ele>18.4023</ele>
        <time>2013-05-05T14:16:37Z</time>
      </trkpt>
      <trkpt lat="59.9608149" lon="17.5805609">
        <ele>17.4412</ele>
        <time>2013-05-05T14:16:38Z</time>
      </trkpt>
      <trkpt lat="59.9608688" lon="17.580547">
        <ele>16.9604</ele>
        <time>2013-05-05T14:16:39Z</time>
      </trkpt>
      <trkpt lat="59.9609236" lon="17.5805271">
        <ele>15.999</ele>
        <time>2013-05-05T14:16:40Z</time>
      </trkpt>
      <trkpt lat="59.9609792" lon="17.580504">
        <ele>15.0377</ele>
        <time>2013-05-05T14:16:41Z</time>
      </trkpt>
      <trkpt lat="59.9610321" lon="17.5804836">
        <ele>15.0377</ele>
        <time>2013-05-05T14:16:42Z</time>
      </trkpt>
      <trkpt lat="59.961086" lon="17.5804646">
        <ele>14.557</ele>
        <time>2013-05-05T14:16:43Z</time>
      </trkpt>
      <trkpt lat="59.9611407" lon="17.5804452">
        <ele>14.557</ele>
        <time>2013-05-05T14:16:44Z</time>
      </trkpt>
      <trkpt lat="59.9611963" lon="17.5804216">
        <ele>14.0764</ele>
        <time>2013-05-05T14:16:45Z</time>
      </trkpt>
      <trkpt lat="59.9612512" lon="17.5804004">
        <ele>13.5958</ele>
        <time>2013-05-05T14:16:46Z</time>
      </trkpt>
      <trkpt lat="59.9613062" lon="17.5803779">
        <ele>13.5958</ele>
        <time>2013-05-05T14:16:47Z</time>
      </trkpt>
      <trkpt lat="59.9613621" lon="17.5803526">
        <ele>13.1151</ele>
        <time>2013-05-05T14:16:48Z</time>
      </trkpt>
      <trkpt lat="59.9614173" lon="17.5803293">
        <ele>12.6344</ele>
        <time>2013-05-05T14:16:49Z</time>
      </trkpt>
      <trkpt lat="59.9614724" lon="17.5803064">
        <ele>12.1538</ele>
        <time>2013-05-05T14:16:50Z</time>
      </trkpt>
      <trkpt lat="59.9615268" lon="17.5802776">
        <ele>12.1538</ele>
        <time>2013-05-05T14:16:51Z</time>
      </trkpt>
      <trkpt lat="59.9615802" lon="17.5802486">
        <ele>12.1538</ele>
        <time>2013-05-05T14:16:52Z</time>
      </trkpt>
      <trkpt lat="59.961633" lon="17.5802192">
        <ele>12.1538</ele>
        <time>2013-05-05T14:16:53Z</time>
      </trkpt>
      <trkpt lat="59.9616856" lon="17.5801894">
        <ele>12.1538</ele>
        <time>2013-05-05T14:16:54Z</time>
      </trkpt>
      <trkpt lat="59.9617376" lon="17.580158">
        <ele>12.6344</ele>
        <time>2013-05-05T14:16:55Z</time>
      </trkpt>
      <trkpt lat="59.9617893" lon="17.5801287">
        <ele>12.6344</ele>
        <time>2013-05-05T14:16:56Z</time>
      </trkpt>
      <trkpt lat="59.9618402" lon="17.5801035">
        <ele>12.6344</ele>
        <time>2013-05-05T14:16:57Z</time>
      </trkpt>
      <trkpt lat="59.9618902" lon="17.5800793">
        <ele>12.6344</ele>
        <time>2013-05-05T14:16:58Z</time>
      </trkpt>
      <trkpt lat="59.9619385" lon="17.5800543">
        <ele>12.6344</ele>
        <time>2013-05-05T14:16:59Z</time>
      </trkpt>
      <trkpt lat="59.9619859" lon="17.5800339">
        <ele>12.6344</ele>
        <time>2013-05-05T14:17:00Z</time>
      </trkpt>
      <trkpt lat="59.9620327" lon="17.5800244">
        <ele>12.6344</ele>
        <time>2013-05-05T14:17:01Z</time>
      </trkpt>
      <trkpt lat="59.9620773" lon="17.5800386">
        <ele>12.6344</ele>
        <time>2013-05-05T14:17:02Z</time>
      </trkpt>
      <trkpt lat="59.9621163" lon="17.5800829">
        <ele>12.6344</ele>
        <time>2013-05-05T14:17:03Z</time>
      </trkpt>
      <trkpt lat="59.9621435" lon="17.5801541">
        <ele>12.6344</ele>
        <time>2013-05-05T14:17:04Z</time>
      </trkpt>
      <trkpt lat="59.9621571" lon="17.5802404">
        <ele>12.6344</ele>
        <time>2013-05-05T14:17:05Z</time>
      </trkpt>
      <trkpt lat="59.9621645" lon="17.5803314">
        <ele>12.6344</ele>
        <time>2013-05-05T14:17:06Z</time>
      </trkpt>
      <trkpt lat="59.9621732" lon="17.5804241">
        <ele>12.6344</ele>
        <time>2013-05-05T14:17:07Z</time>
      </trkpt>
      <trkpt lat="59.9621835" lon="17.5805177">
        <ele>12.6344</ele>
        <time>2013-05-05T14:17:08Z</time>
      </trkpt>
      <trkpt lat="59.962194" lon="17.5806157">
        <ele>12.6344</ele>
        <time>2013-05-05T14:17:09Z</time>
      </trkpt>
      <trkpt lat="59.9622033" lon="17.5807172">
        <ele>12.6344</ele>
        <time>2013-05-05T14:17:10Z</time>
      </trkpt>
      <trkpt lat="59.9622126" lon="17.5808197">
        <ele>12.6344</ele>
        <time>2013-05-05T14:17:11Z</time>
      </trkpt>
      <trkpt lat="59.9622245" lon="17.5809247">
        <ele>12.6344</ele>
        <time>2013-05-05T14:17:12Z</time>
      </trkpt>
      <trkpt lat="59.9622361" lon="17.5810352">
        <ele>12.6344</ele>
        <time>2013-05-05T14:17:13Z</time>
      </trkpt>
      <trkpt lat="59.9622479" lon="17.5811485">
        <ele>12.6344</ele>
        <time>2013-05-05T14:17:14Z</time>
      </trkpt>
      <trkpt lat="59.9622596" lon="17.5812644">
        <ele>12.6344</ele>
        <time>2013-05-05T14:17:15Z</time>
      </trkpt>
      <trkpt lat="59.9622712" lon="17.5813815">
        <ele>12.6344</ele>
        <time>2013-05-05T14:17:16Z</time>
      </trkpt>
      <trkpt lat="59.9622831" lon="17.5814996">
        <ele>12.6344</ele>
        <time>2013-05-05T14:17:17Z</time>
      </trkpt>
      <trkpt lat="59.962295" lon="17.5816178">
        <ele>12.6344</ele>
        <time>2013-05-05T14:17:18Z</time>
      </trkpt>
      <trkpt lat="59.962306" lon="17.5817352">
        <ele>12.6344</ele>
        <time>2013-05-05T14:17:19Z</time>
      </trkpt>
      <trkpt lat="59.9623164" lon="17.5818487">
        <ele>12.6344</ele>
        <time>2013-05-05T14:17:20Z</time>
      </trkpt>
      <trkpt lat="59.9623266" lon="17.5819565">
        <ele>12.6344</ele>
        <time>2013-05-05T14:17:21Z</time>
      </trkpt>
      <trkpt lat="59.9623359" lon="17.5820568">
        <ele>12.6344</ele>
        <time>2013-05-05T14:17:22Z</time>
      </trkpt>
      <trkpt lat="59.9623438" lon="17.5821461">
        <ele>12.6344</ele>
        <time>2013-05-05T14:17:23Z</time>
      </trkpt>
      <trkpt lat="59.9623489" lon="17.5822215">
        <ele>12.6344</ele>
        <time>2013-05-05T14:17:24Z</time>
      </trkpt>
      <trkpt lat="59.9623536" lon="17.5822786">
        <ele>13.1151</ele>
        <time>2013-05-05T14:17:25Z</time>
      </trkpt>
      <trkpt lat="59.9623617" lon="17.5823252">
        <ele>13.1151</ele>
        <time>2013-05-05T14:17:26Z</time>
      </trkpt>
      <trkpt lat="59.9623707" lon="17.5823686">
        <ele>13.1151</ele>
        <time>2013-05-05T14:17:27Z</time>
      </trkpt>
      <trkpt lat="59.9623733" lon="17.5824092">
        <ele>13.1151</ele>
        <time>2013-05-05T14:17:28Z</time>
      </trkpt>
      <trkpt lat="59.962367" lon="17.5824451">
        <ele>13.1151</ele>
        <time>2013-05-05T14:17:29Z</time>
      </trkpt>
      <trkpt lat="59.9623603" lon="17.5824767">
        <ele>13.1151</ele>
        <time>2013-05-05T14:17:30Z</time>
      </trkpt>
      <trkpt lat="59.9623588" lon="17.5825129">
        <ele>13.5958</ele>
        <time>2013-05-05T14:17:31Z</time>
      </trkpt>
      <trkpt lat="59.9623581" lon="17.5825537">
        <ele>13.5958</ele>
        <time>2013-05-05T14:17:32Z</time>
      </trkpt>
      <trkpt lat="59.9623585" lon="17.5825952">
        <ele>13.5958</ele>
        <time>2013-05-05T14:17:33Z</time>
      </trkpt>
      <trkpt lat="59.9623655" lon="17.582639">
        <ele>13.5958</ele>
        <time>2013-05-05T14:17:34Z</time>
      </trkpt>
      <trkpt lat="59.9623805" lon="17.5826884">
        <ele>14.0764</ele>
        <time>2013-05-05T14:17:35Z</time>
      </trkpt>
      <trkpt lat="59.9623974" lon="17.5827424">
        <ele>14.0764</ele>
        <time>2013-05-05T14:17:36Z</time>
      </trkpt>
      <trkpt lat="59.9624079" lon="17.5828044">
        <ele>14.0764</ele>
        <time>2013-05-05T14:17:37Z</time>
      </trkpt>
      <trkpt lat="59.9623986" lon="17.5828625">
        <ele>14.557</ele>
        <time>2013-05-05T14:17:38Z</time>
      </trkpt>
      <trkpt lat="59.9623738" lon="17.5828892">
        <ele>14.557</ele>
        <time>2013-05-05T14:17:39Z</time>
      </trkpt>
      <trkpt lat="59.9623446" lon="17.5828938">
        <ele>14.557</ele>
        <time>2013-05-05T14:17:40Z</time>
      </trkpt>
      <trkpt lat="59.9623142" lon="17.5828947">
        <ele>14.557</ele>
        <time>2013-05-05T14:17:41Z</time>
      </trkpt>
      <trkpt lat="59.9622834" lon="17.5828977">
        <ele>15.0377</ele>
        <time>2013-05-05T14:17:42Z</time>
      </trkpt>
      <trkpt lat="59.9622489" lon="17.5829071">
        <ele>15.0377</ele>
        <time>2013-05-05T14:17:43Z</time>
      </trkpt>
      <trkpt lat="59.9622127" lon="17.5829184">
        <ele>15.0377</ele>
        <time>2013-05-05T14:17:44Z</time>
      </trkpt>
      <trkpt lat="59.9621767" lon="17.5829293">
        <ele>15.0377</ele>
        <time>2013-05-05T14:17:45Z</time>
      </trkpt>
      <trkpt lat="59.9621399" lon="17.5829415">
        <ele>15.5184</ele>
        <time>2013-05-05T14:17:46Z</time>
      </trkpt>
      <trkpt lat="59.9621016" lon="17.5829556">
        <ele>15.5184</ele>
        <time>2013-05-05T14:17:47Z</time>
      </trkpt>
      <trkpt lat="59.962061" lon="17.5829714">
        <ele>15.5184</ele>
        <time>2013-05-05T14:17:48Z</time>
      </trkpt>
      <trkpt lat="59.9620183" lon="17.5829888">
        <ele>15.5184</ele>
        <time>2013-05-05T14:17:49Z</time>
      </trkpt>
      <trkpt lat="59.9619729" lon="17.5830085">
        <ele>15.999</ele>
        <time>2013-05-05T14:17:50Z</time>
      </trkpt>
      <trkpt lat="59.9619245" lon="17.5830303">
        <ele>15.999</ele>
        <time>2013-05-05T14:17:51Z</time>
      </trkpt>
      <trkpt lat="59.9618753" lon="17.5830521">
        <ele>15.999</ele>
        <time>2013-05-05T14:17:52Z</time>
      </trkpt>
      <trkpt lat="59.9618257" lon="17.5830743">
        <ele>15.999</ele>
        <time>2013-05-05T14:17:53Z</time>
      </trkpt>
      <trkpt lat="59.9617754" lon="17.5830961">
        <ele>16.4797</ele>
        <time>2013-05-05T14:17:54Z</time>
      </trkpt>
      <trkpt lat="59.9617245" lon="17.5831178">
        <ele>16.4797</ele>
        <time>2013-05-05T14:17:55Z</time>
      </trkpt>
      <trkpt lat="59.9616725" lon="17.5831425">
        <ele>16.4797</ele>
        <time>2013-05-05T14:17:56Z</time>
      </trkpt>
      <trkpt lat="59.9616185" lon="17.5831665">
        <ele>16.4797</ele>
        <time>2013-05-05T14:17:57Z</time>
      </trkpt>
      <trkpt lat="59.961563" lon="17.5831929">
        <ele>16.4797</ele>
        <time>2013-05-05T14:17:58Z</time>
      </trkpt>
      <trkpt lat="59.9615072" lon="17.583222">
        <ele>16.9604</ele>
        <time>2013-05-05T14:17:59Z</time>
      </trkpt>
      <trkpt lat="59.9614507" lon="17.5832484">
        <ele>16.9604</ele>
        <time>2013-05-05T14:18:00Z</time>
      </trkpt>
      <trkpt lat="59.9613947" lon="17.5832743">
        <ele>17.4412</ele>
        <time>2013-05-05T14:18:01Z</time>
      </trkpt>
      <trkpt lat="59.9613414" lon="17.5833012">
        <ele>17.9218</ele>
        <time>2013-05-05T14:18:02Z</time>
      </trkpt>
      <trkpt lat="59.9612895" lon="17.5833228">
        <ele>18.4023</ele>
        <time>2013-05-05T14:18:03Z</time>
      </trkpt>
      <trkpt lat="59.9612383" lon="17.5833456">
        <ele>19.3638</ele>
        <time>2013-05-05T14:18:04Z</time>
      </trkpt>
      <trkpt lat="59.961187" lon="17.5833699">
        <ele>20.325</ele>
        <time>2013-05-05T14:18:05Z</time>
      </trkpt>
      <trkpt lat="59.9611331" lon="17.5833986">
        <ele>20.8057</ele>
        <time>2013-05-05T14:18:06Z</time>
      </trkpt>
      <trkpt lat="59.9610775" lon="17.583425">
        <ele>21.767</ele>
        <time>2013-05-05T14:18:07Z</time>
      </trkpt>
      <trkpt lat="59.9610202" lon="17.5834468">
        <ele>22.2476</ele>
        <time>2013-05-05T14:18:08Z</time>
      </trkpt>
      <trkpt lat="59.9609649" lon="17.5834722">
        <ele>22.7283</ele>
        <time>2013-05-05T14:18:09Z</time>
      </trkpt>
      <trkpt lat="59.9609098" lon="17.5835027">
        <ele>23.209</ele>
        <time>2013-05-05T14:18:10Z</time>
      </trkpt>
      <trkpt lat="59.960853" lon="17.5835256">
        <ele>24.1703</ele>
        <time>2013-05-05T14:18:11Z</time>
      </trkpt>
      <trkpt lat="59.9607954" lon="17.5835452">
        <ele>25.1317</ele>
        <time>2013-05-05T14:18:12Z</time>
      </trkpt>
      <trkpt lat="59.9607399" lon="17.5835721">
        <ele>25.1317</ele>
        <time>2013-05-05T14:18:13Z</time>
      </trkpt>
      <trkpt lat="59.9606834" lon="17.5835954">
        <ele>25.6123</ele>
        <time>2013-05-05T14:18:14Z</time>
      </trkpt>
      <trkpt lat="59.960626" lon="17.5836223">
        <ele>26.0929</ele>
        <time>2013-05-05T14:18:15Z</time>
      </trkpt>
      <trkpt lat="59.9605677" lon="17.5836518">
        <ele>26.5736</ele>
        <time>2013-05-05T14:18:16Z</time>
      </trkpt>
      <trkpt lat="59.9605102" lon="17.5836797">
        <ele>27.0543</ele>
        <time>2013-05-05T14:18:17Z</time>
      </trkpt>
      <trkpt lat="59.9604548" lon="17.5837049">
        <ele>27.5349</ele>
        <time>2013-05-05T14:18:18Z</time>
      </trkpt>
      <trkpt lat="59.9604001" lon="17.5837308">
        <ele>28.0155</ele>
        <time>2013-05-05T14:18:19Z</time>
      </trkpt>
      <trkpt lat="59.960346" lon="17.5837595">
        <ele>28.4962</ele>
        <time>2013-05-05T14:18:20Z</time>
      </trkpt>
      <trkpt lat="59.960295" lon="17.5837824">
        <ele>28.9769</ele>
        <time>2013-05-05T14:18:21Z</time>
      </trkpt>
      <trkpt lat="59.9602451" lon="17.5838024">
        <ele>28.9769</ele>
        <time>2013-05-05T14:18:22Z</time>
      </trkpt>
      <trkpt lat="59.9601945" lon="17.5838228">
        <ele>29.4575</ele>
        <time>2013-05-05T14:18:23Z</time>
      </trkpt>
      <trkpt lat="59.9601432" lon="17.5838435">
        <ele>29.4575</ele>
        <time>2013-05-05T14:18:24Z</time>
      </trkpt>
      <trkpt lat="59.9600925" lon="17.5838621">
        <ele>29.9381</ele>
        <time>2013-05-05T14:18:25Z</time>
      </trkpt>
      <trkpt lat="59.9600406" lon="17.5838876">
        <ele>30.4188</ele>
        <time>2013-05-05T14:18:26Z</time>
      </trkpt>
      <trkpt lat="59.9599868" lon="17.583918">
        <ele>30.8995</ele>
        <time>2013-05-05T14:18:27Z</time>
      </trkpt>
      <trkpt lat="59.9599303" lon="17.5839581">
        <ele>30.8995</ele>
        <time>2013-05-05T14:18:28Z</time>
      </trkpt>
      <trkpt lat="59.9598733" lon="17.5839975">
        <ele>31.3801</ele>
        <time>2013-05-05T14:18:29Z</time>
      </trkpt>
      <trkpt lat="59.9598184" lon="17.5840461">
        <ele>31.3801</ele>
        <time>2013-05-05T14:18:30Z</time>
      </trkpt>
      <trkpt lat="59.9597675" lon="17.584088">
        <ele>31.8607</ele>
        <time>2013-05-05T14:18:31Z</time>
      </trkpt>
      <trkpt lat="59.959718" lon="17.5841298">
        <ele>31.8607</ele>
        <time>2013-05-05T14:18:32Z</time>
      </trkpt>
      <trkpt lat="59.9596675" lon="17.5841674">
        <ele>32.3416</ele>
        <time>2013-05-05T14:18:33Z</time>
      </trkpt>
      <trkpt lat="59.9596199" lon="17.5841946">
        <ele>32.8223</ele>
        <time>2013-05-05T14:18:34Z</time>
      </trkpt>
      <trkpt lat="59.9595725" lon="17.5842174">
        <ele>33.3029</ele>
        <time>2013-05-05T14:18:35Z</time>
      </trkpt>
      <trkpt lat="59.9595245" lon="17.5842351">
        <ele>33.3029</ele>
        <time>2013-05-05T14:18:36Z</time>
      </trkpt>
      <trkpt lat="59.9594729" lon="17.5842522">
        <ele>33.7834</ele>
        <time>2013-05-05T14:18:37Z</time>
      </trkpt>
      <trkpt lat="59.959419" lon="17.5842704">
        <ele>33.7834</ele>
        <time>2013-05-05T14:18:38Z</time>
      </trkpt>
      <trkpt lat="59.959361" lon="17.5842907">
        <ele>33.7834</ele>
        <time>2013-05-05T14:18:39Z</time>
      </trkpt>
      <trkpt lat="59.9592999" lon="17.5843097">
        <ele>33.7834</ele>
        <time>2013-05-05T14:18:40Z</time>
      </trkpt>
      <trkpt lat="59.959232" lon="17.5843295">
        <ele>33.7834</ele>
        <time>2013-05-05T14:18:41Z</time>
      </trkpt>
      <trkpt lat="59.959159" lon="17.5843518">
        <ele>33.3029</ele>
        <time>2013-05-05T14:18:42Z</time>
      </trkpt>
      <trkpt lat="59.959087" lon="17.584374">
        <ele>33.3029</ele>
        <time>2013-05-05T14:18:43Z</time>
      </trkpt>
      <trkpt lat="59.9590222" lon="17.5843974">
        <ele>33.3029</ele>
        <time>2013-05-05T14:18:44Z</time>
      </trkpt>
      <trkpt lat="59.9589621" lon="17.5844218">
        <ele>33.3029</ele>
        <time>2013-05-05T14:18:45Z</time>
      </trkpt>
      <trkpt lat="59.9589056" lon="17.5844446">
        <ele>33.3029</ele>
        <time>2013-05-05T14:18:46Z</time>
      </trkpt>
      <trkpt lat="59.9588513" lon="17.5844719">
        <ele>33.3029</ele>
        <time>2013-05-05T14:18:47Z</time>
      </trkpt>
      <trkpt lat="59.958798" lon="17.5844998">
        <ele>32.8223</ele>
        <time>2013-05-05T14:18:48Z</time>
      </trkpt>
      <trkpt lat="59.9587466" lon="17.5845237">
        <ele>32.3416</ele>
        <time>2013-05-05T14:18:49Z</time>
      </trkpt>
      <trkpt lat="59.9586979" lon="17.5845455">
        <ele>31.8607</ele>
        <time>2013-05-05T14:18:50Z</time>
      </trkpt>
      <trkpt lat="59.9586508" lon="17.5845686">
        <ele>30.8995</ele>
        <time>2013-05-05T14:18:51Z</time>
      </trkpt>
      <trkpt lat="59.9586" lon="17.5845849">
        <ele>30.8995</ele>
        <time>2013-05-05T14:18:52Z</time>
      </trkpt>
      <trkpt lat="59.9585501" lon="17.5846079">
        <ele>30.4188</ele>
        <time>2013-05-05T14:18:53Z</time>
      </trkpt>
      <trkpt lat="59.9584996" lon="17.5846335">
        <ele>29.9381</ele>
        <time>2013-05-05T14:18:54Z</time>
      </trkpt>
      <trkpt lat="59.9584506" lon="17.5846557">
        <ele>29.4575</ele>
        <time>2013-05-05T14:18:55Z</time>
      </trkpt>
      <trkpt lat="59.9584031" lon="17.5846791">
        <ele>28.9769</ele>
        <time>2013-05-05T14:18:56Z</time>
      </trkpt>
      <trkpt lat="59.9583544" lon="17.584704">
        <ele>28.9769</ele>
        <time>2013-05-05T14:18:57Z</time>
      </trkpt>
      <trkpt lat="59.9583067" lon="17.5847268">
        <ele>28.4962</ele>
        <time>2013-05-05T14:18:58Z</time>
      </trkpt>
      <trkpt lat="59.9582598" lon="17.5847522">
        <ele>28.0155</ele>
        <time>2013-05-05T14:18:59Z</time>
      </trkpt>
      <trkpt lat="59.9582139" lon="17.5847779">
        <ele>27.5349</ele>
        <time>2013-05-05T14:19:00Z</time>
      </trkpt>
      <trkpt lat="59.9581686" lon="17.5847973">
        <ele>27.0543</ele>
        <time>2013-05-05T14:19:01Z</time>
      </trkpt>
      <trkpt lat="59.9581243" lon="17.5848169">
        <ele>26.5736</ele>
        <time>2013-05-05T14:19:02Z</time>
      </trkpt>
      <trkpt lat="59.95808" lon="17.5848392">
        <ele>26.5736</ele>
        <time>2013-05-05T14:19:03Z</time>
      </trkpt>
      <trkpt lat="59.9580358" lon="17.5848594">
        <ele>26.5736</ele>
        <time>2013-05-05T14:19:04Z</time>
      </trkpt>
      <trkpt lat="59.9579919" lon="17.5848791">
        <ele>26.5736</ele>
        <time>2013-05-05T14:19:05Z</time>
      </trkpt>
      <trkpt lat="59.9579487" lon="17.5848988">
        <ele>26.0929</ele>
        <time>2013-05-05T14:19:06Z</time>
      </trkpt>
      <trkpt lat="59.9579057" lon="17.5849154">
        <ele>26.0929</ele>
        <time>2013-05-05T14:19:07Z</time>
      </trkpt>
      <trkpt lat="59.9578639" lon="17.5849336">
        <ele>26.0929</ele>
        <time>2013-05-05T14:19:08Z</time>
      </trkpt>
      <trkpt lat="59.9578234" lon="17.5849546">
        <ele>26.0929</ele>
        <time>2013-05-05T14:19:09Z</time>
      </trkpt>
      <trkpt lat="59.9577836" lon="17.5849744">
        <ele>25.6123</ele>
        <time>2013-05-05T14:19:10Z</time>
      </trkpt>
      <trkpt lat="59.9577443" lon="17.5849914">
        <ele>25.6123</ele>
        <time>2013-05-05T14:19:11Z</time>
      </trkpt>
      <trkpt lat="59.9577058" lon="17.585007">
        <ele>25.6123</ele>
        <time>2013-05-05T14:19:12Z</time>
      </trkpt>
      <trkpt lat="59.9576677" lon="17.5850236">
        <ele>25.6123</ele>
        <time>2013-05-05T14:19:13Z</time>
      </trkpt>
      <trkpt lat="59.9576302" lon="17.5850411">
        <ele>25.6123</ele>
        <time>2013-05-05T14:19:14Z</time>
      </trkpt>
      <trkpt lat="59.9575925" lon="17.5850593">
        <ele>25.6123</ele>
        <time>2013-05-05T14:19:15Z</time>
      </trkpt>
      <trkpt lat="59.9575552" lon="17.585076">
        <ele>25.6123</ele>
        <time>2013-05-05T14:19:16Z</time>
      </trkpt>
      <trkpt lat="59.9575187" lon="17.585092">
        <ele>25.6123</ele>
        <time>2013-05-05T14:19:17Z</time>
      </trkpt>
      <trkpt lat="59.957483" lon="17.5851091">
        <ele>25.1317</ele>
        <time>2013-05-05T14:19:18Z</time>
      </trkpt>
      <trkpt lat="59.9574483" lon="17.5851263">
        <ele>25.1317</ele>
        <time>2013-05-05T14:19:19Z</time>
      </trkpt>
      <trkpt lat="59.9574144" lon="17.5851426">
        <ele>25.1317</ele>
        <time>2013-05-05T14:19:20Z</time>
      </trkpt>
      <trkpt lat="59.957382" lon="17.5851586">
        <ele>25.6123</ele>
        <time>2013-05-05T14:19:21Z</time>
      </trkpt>
      <trkpt lat="59.9573509" lon="17.5851717">
        <ele>25.6123</ele>
        <time>2013-05-05T14:19:22Z</time>
      </trkpt>
      <trkpt lat="59.9573207" lon="17.5851817">
        <ele>25.6123</ele>
        <time>2013-05-05T14:19:23Z</time>
      </trkpt>
      <trkpt lat="59.9572914" lon="17.5851915">
        <ele>25.6123</ele>
        <time>2013-05-05T14:19:24Z</time>
      </trkpt>
      <trkpt lat="59.9572634" lon="17.5851974">
        <ele>26.0929</ele>
        <time>2013-05-05T14:19:25Z</time>
      </trkpt>
      <trkpt lat="59.957235" lon="17.5851981">
        <ele>26.0929</ele>
        <time>2013-05-05T14:19:26Z</time>
      </trkpt>
      <trkpt lat="59.9572065" lon="17.5851943">
        <ele>26.0929</ele>
        <time>2013-05-05T14:19:27Z</time>
      </trkpt>
      <trkpt lat="59.9571792" lon="17.5851841">
        <ele>26.0929</ele>
        <time>2013-05-05T14:19:28Z</time>
      </trkpt>
      <trkpt lat="59.9571525" lon="17.5851703">
        <ele>26.5736</ele>
        <time>2013-05-05T14:19:29Z</time>
      </trkpt>
      <trkpt lat="59.9571256" lon="17.5851592">
        <ele>26.5736</ele>
        <time>2013-05-05T14:19:30Z</time>
      </trkpt>
      <trkpt lat="59.9570994" lon="17.5851542">
        <ele>27.0543</ele>
        <time>2013-05-05T14:19:31Z</time>
      </trkpt>
      <trkpt lat="59.9570765" lon="17.5851542">
        <ele>27.0543</ele>
        <time>2013-05-05T14:19:32Z</time>
      </trkpt>
      <trkpt lat="59.9570532" lon="17.5851588">
        <ele>27.5349</ele>
        <time>2013-05-05T14:19:33Z</time>
      </trkpt>
      <trkpt lat="59.957029" lon="17.5851686">
        <ele>27.5349</ele>
        <time>2013-05-05T14:19:34Z</time>
      </trkpt>
      <trkpt lat="59.9570047" lon="17.5851795">
        <ele>28.4962</ele>
        <time>2013-05-05T14:19:35Z</time>
      </trkpt>
      <trkpt lat="59.9569796" lon="17.5851909">
        <ele>28.9769</ele>
        <time>2013-05-05T14:19:36Z</time>
      </trkpt>
      <trkpt lat="59.9569534" lon="17.5852014">
        <ele>29.4575</ele>
        <time>2013-05-05T14:19:37Z</time>
      </trkpt>
      <trkpt lat="59.9569235" lon="17.5852063">
        <ele>29.9381</ele>
        <time>2013-05-05T14:19:38Z</time>
      </trkpt>
      <trkpt lat="59.9568928" lon="17.5852119">
        <ele>30.8995</ele>
        <time>2013-05-05T14:19:39Z</time>
      </trkpt>
      <trkpt lat="59.9568616" lon="17.5852185">
        <ele>31.3801</ele>
        <time>2013-05-05T14:19:40Z</time>
      </trkpt>
      <trkpt lat="59.9568299" lon="17.5852267">
        <ele>31.8607</ele>
        <time>2013-05-05T14:19:41Z</time>
      </trkpt>
      <trkpt lat="59.956797" lon="17.5852376">
        <ele>32.3416</ele>
        <time>2013-05-05T14:19:42Z</time>
      </trkpt>
      <trkpt lat="59.9567632" lon="17.5852503">
        <ele>32.8223</ele>
        <time>2013-05-05T14:19:43Z</time>
      </trkpt>
      <trkpt lat="59.9567274" lon="17.5852619">
        <ele>33.7834</ele>
        <time>2013-05-05T14:19:44Z</time>
      </trkpt>
      <trkpt lat="59.95669" lon="17.5852723">
        <ele>34.2642</ele>
        <time>2013-05-05T14:19:45Z</time>
      </trkpt>
      <trkpt lat="59.9566539" lon="17.5852847">
        <ele>34.7449</ele>
        <time>2013-05-05T14:19:46Z</time>
      </trkpt>
      <trkpt lat="59.9566192" lon="17.5853013">
        <ele>35.2255</ele>
        <time>2013-05-05T14:19:47Z</time>
      </trkpt>
      <trkpt lat="59.9565828" lon="17.5853184">
        <ele>35.2255</ele>
        <time>2013-05-05T14:19:48Z</time>
      </trkpt>
      <trkpt lat="59.9565454" lon="17.5853332">
        <ele>35.2255</ele>
        <time>2013-05-05T14:19:49Z</time>
      </trkpt>
      <trkpt lat="59.9565078" lon="17.5853474">
        <ele>35.7061</ele>
        <time>2013-05-05T14:19:50Z</time>
      </trkpt>
      <trkpt lat="59.9564709" lon="17.5853616">
        <ele>36.1868</ele>
        <time>2013-05-05T14:19:51Z</time>
      </trkpt>
      <trkpt lat="59.9564348" lon="17.5853769">
        <ele>36.1868</ele>
        <time>2013-05-05T14:19:52Z</time>
      </trkpt>
      <trkpt lat="59.9563978" lon="17.5853923">
        <ele>36.6675</ele>
        <time>2013-05-05T14:19:53Z</time>
      </trkpt>
      <trkpt lat="59.9563602" lon="17.5854069">
        <ele>36.6675</ele>
        <time>2013-05-05T14:19:54Z</time>
      </trkpt>
      <trkpt lat="59.9563221" lon="17.5854225">
        <ele>37.1481</ele>
        <time>2013-05-05T14:19:55Z</time>
      </trkpt>
      <trkpt lat="59.9562833" lon="17.5854388">
        <ele>37.1481</ele>
        <time>2013-05-05T14:19:56Z</time>
      </trkpt>
      <trkpt lat="59.9562446" lon="17.5854565">
        <ele>37.1481</ele>
        <time>2013-05-05T14:19:57Z</time>
      </trkpt>
      <trkpt lat="59.9562047" lon="17.5854717">
        <ele>37.6287</ele>
        <time>2013-05-05T14:19:58Z</time>
      </trkpt>
      <trkpt lat="59.9561638" lon="17.5854861">
        <ele>37.6287</ele>
        <time>2013-05-05T14:19:59Z</time>
      </trkpt>
      <trkpt lat="59.9561237" lon="17.5855021">
        <ele>37.6287</ele>
        <time>2013-05-05T14:20:00Z</time>
      </trkpt>
      <trkpt lat="59.9560841" lon="17.58552">
        <ele>38.1094</ele>
        <time>2013-05-05T14:20:01Z</time>
      </trkpt>
      <trkpt lat="59.9560456" lon="17.585541">
        <ele>38.1094</ele>
        <time>2013-05-05T14:20:02Z</time>
      </trkpt>
      <trkpt lat="59.9560077" lon="17.5855607">
        <ele>38.1094</ele>
        <time>2013-05-05T14:20:03Z</time>
      </trkpt>
      <trkpt lat="59.95597" lon="17.5855779">
        <ele>38.1094</ele>
        <time>2013-05-05T14:20:04Z</time>
      </trkpt>
      <trkpt lat="59.9559333" lon="17.5855955">
        <ele>38.1094</ele>
        <time>2013-05-05T14:20:05Z</time>
      </trkpt>
      <trkpt lat="59.9558984" lon="17.5856132">
        <ele>38.1094</ele>
        <time>2013-05-05T14:20:06Z</time>
      </trkpt>
      <trkpt lat="59.9558644" lon="17.5856318">
        <ele>38.5901</ele>
        <time>2013-05-05T14:20:07Z</time>
      </trkpt>
      <trkpt lat="59.9558323" lon="17.5856538">
        <ele>38.5901</ele>
        <time>2013-05-05T14:20:08Z</time>
      </trkpt>
      <trkpt lat="59.9558015" lon="17.5856804">
        <ele>38.5901</ele>
        <time>2013-05-05T14:20:09Z</time>
      </trkpt>
      <trkpt lat="59.9557727" lon="17.5857162">
        <ele>38.5901</ele>
        <time>2013-05-05T14:20:10Z</time>
      </trkpt>
      <trkpt lat="59.9557427" lon="17.5857637">
        <ele>38.5901</ele>
        <time>2013-05-05T14:20:11Z</time>
      </trkpt>
      <trkpt lat="59.9557128" lon="17.5858202">
        <ele>38.5901</ele>
        <time>2013-05-05T14:20:12Z</time>
      </trkpt>
      <trkpt lat="59.9556846" lon="17.5858864">
        <ele>38.5901</ele>
        <time>2013-05-05T14:20:13Z</time>
      </trkpt>
      <trkpt lat="59.9556591" lon="17.5859612">
        <ele>38.1094</ele>
        <time>2013-05-05T14:20:14Z</time>
      </trkpt>
      <trkpt lat="59.9556354" lon="17.5860418">
        <ele>38.1094</ele>
        <time>2013-05-05T14:20:15Z</time>
      </trkpt>
      <trkpt lat="59.9556107" lon="17.5861248">
        <ele>38.1094</ele>
        <time>2013-05-05T14:20:16Z</time>
      </trkpt>
      <trkpt lat="59.9555837" lon="17.5862105">
        <ele>37.6287</ele>
        <time>2013-05-05T14:20:17Z</time>
      </trkpt>
      <trkpt lat="59.9555535" lon="17.586298">
        <ele>37.6287</ele>
        <time>2013-05-05T14:20:18Z</time>
      </trkpt>
      <trkpt lat="59.9555153" lon="17.5863751">
        <ele>37.6287</ele>
        <time>2013-05-05T14:20:19Z</time>
      </trkpt>
      <trkpt lat="59.955467" lon="17.5864347">
        <ele>37.1481</ele>
        <time>2013-05-05T14:20:20Z</time>
      </trkpt>
      <trkpt lat="59.9554106" lon="17.5864774">
        <ele>37.1481</ele>
        <time>2013-05-05T14:20:21Z</time>
      </trkpt>
      <trkpt lat="59.955347" lon="17.5864968">
        <ele>36.6675</ele>
        <time>2013-05-05T14:20:22Z</time>
      </trkpt>
      <trkpt lat="59.9552807" lon="17.586494">
        <ele>36.1868</ele>
        <time>2013-05-05T14:20:23Z</time>
      </trkpt>
      <trkpt lat="59.9552133" lon="17.5864787">
        <ele>36.1868</ele>
        <time>2013-05-05T14:20:24Z</time>
      </trkpt>
      <trkpt lat="59.9551454" lon="17.5864599">
        <ele>36.1868</ele>
        <time>2013-05-05T14:20:25Z</time>
      </trkpt>
      <trkpt lat="59.9550802" lon="17.5864434">
        <ele>36.6675</ele>
        <time>2013-05-05T14:20:26Z</time>
      </trkpt>
      <trkpt lat="59.9550201" lon="17.5864279">
        <ele>36.6675</ele>
        <time>2013-05-05T14:20:27Z</time>
      </trkpt>
      <trkpt lat="59.9549657" lon="17.5864142">
        <ele>37.1481</ele>
        <time>2013-05-05T14:20:28Z</time>
      </trkpt>
      <trkpt lat="59.9549159" lon="17.5864052">
        <ele>37.6287</ele>
        <time>2013-05-05T14:20:29Z</time>
      </trkpt>
      <trkpt lat="59.9548697" lon="17.5863999">
        <ele>38.1094</ele>
        <time>2013-05-05T14:20:30Z</time>
      </trkpt>
      <trkpt lat="59.9548263" lon="17.586397">
        <ele>38.1094</ele>
        <time>2013-05-05T14:20:31Z</time>
      </trkpt>
      <trkpt lat="59.9547849" lon="17.5863958">
        <ele>38.1094</ele>
        <time>2013-05-05T14:20:32Z</time>
      </trkpt>
      <trkpt lat="59.9547438" lon="17.586399">
        <ele>38.1094</ele>
        <time>2013-05-05T14:20:33Z</time>
      </trkpt>
      <trkpt lat="59.9547013" lon="17.5864078">
        <ele>38.1094</ele>
        <time>2013-05-05T14:20:34Z</time>
      </trkpt>
      <trkpt lat="59.9546562" lon="17.5864139">
        <ele>37.6287</ele>
        <time>2013-05-05T14:20:35Z</time>
      </trkpt>
      <trkpt lat="59.9546083" lon="17.5864169">
        <ele>37.6287</ele>
        <time>2013-05-05T14:20:36Z</time>
      </trkpt>
      <trkpt lat="59.9545585" lon="17.5864284">
        <ele>37.6287</ele>
        <time>2013-05-05T14:20:37Z</time>
      </trkpt>
      <trkpt lat="59.9545065" lon="17.5864456">
        <ele>37.1481</ele>
        <time>2013-05-05T14:20:38Z</time>
      </trkpt>
      <trkpt lat="59.9544534" lon="17.5864678">
        <ele>37.1481</ele>
        <time>2013-05-05T14:20:39Z</time>
      </trkpt>
      <trkpt lat="59.9544" lon="17.5864937">
        <ele>36.6675</ele>
        <time>2013-05-05T14:20:40Z</time>
      </trkpt>
      <trkpt lat="59.9543467" lon="17.5865206">
        <ele>36.6675</ele>
        <time>2013-05-05T14:20:41Z</time>
      </trkpt>
      <trkpt lat="59.9542921" lon="17.5865467">
        <ele>36.6675</ele>
        <time>2013-05-05T14:20:42Z</time>
      </trkpt>
      <trkpt lat="59.9542358" lon="17.586575">
        <ele>36.6675</ele>
        <time>2013-05-05T14:20:43Z</time>
      </trkpt>
      <trkpt lat="59.9541779" lon="17.5866066">
        <ele>36.6675</ele>
        <time>2013-05-05T14:20:44Z</time>
      </trkpt>
      <trkpt lat="59.9541209" lon="17.5866424">
        <ele>36.6675</ele>
        <time>2013-05-05T14:20:45Z</time>
      </trkpt>
      <trkpt lat="59.9540632" lon="17.5866764">
        <ele>36.6675</ele>
        <time>2013-05-05T14:20:46Z</time>
      </trkpt>
      <trkpt lat="59.9540044" lon="17.5867066">
        <ele>36.1868</ele>
        <time>2013-05-05T14:20:47Z</time>
      </trkpt>
      <trkpt lat="59.9539421" lon="17.5867325">
        <ele>36.1868</ele>
        <time>2013-05-05T14:20:48Z</time>
      </trkpt>
      <trkpt lat="59.9538835" lon="17.5867453">
        <ele>36.1868</ele>
        <time>2013-05-05T14:20:49Z</time>
      </trkpt>
      <trkpt lat="59.9538271" lon="17.5867447">
        <ele>36.6675</ele>
        <time>2013-05-05T14:20:50Z</time>
      </trkpt>
      <trkpt lat="59.9537711" lon="17.5867422">
        <ele>36.1868</ele>
        <time>2013-05-05T14:20:51Z</time>
      </trkpt>
      <trkpt lat="59.9537172" lon="17.5867404">
        <ele>36.1868</ele>
        <time>2013-05-05T14:20:52Z</time>
      </trkpt>
      <trkpt lat="59.953665" lon="17.5867439">
        <ele>35.7061</ele>
        <time>2013-05-05T14:20:53Z</time>
      </trkpt>
      <trkpt lat="59.9536157" lon="17.5867543">
        <ele>35.7061</ele>
        <time>2013-05-05T14:20:54Z</time>
      </trkpt>
      <trkpt lat="59.9535669" lon="17.5867727">
        <ele>34.7449</ele>
        <time>2013-05-05T14:20:55Z</time>
      </trkpt>
      <trkpt lat="59.9535153" lon="17.5867864">
        <ele>34.7449</ele>
        <time>2013-05-05T14:20:56Z</time>
      </trkpt>
      <trkpt lat="59.9534609" lon="17.5868">
        <ele>33.7834</ele>
        <time>2013-05-05T14:20:57Z</time>
      </trkpt>
      <trkpt lat="59.9534065" lon="17.5868057">
        <ele>32.8223</ele>
        <time>2013-05-05T14:20:58Z</time>
      </trkpt>
      <trkpt lat="59.9533504" lon="17.58681">
        <ele>31.8607</ele>
        <time>2013-05-05T14:20:59Z</time>
      </trkpt>
      <trkpt lat="59.953293" lon="17.5868126">
        <ele>30.8995</ele>
        <time>2013-05-05T14:21:00Z</time>
      </trkpt>
      <trkpt lat="59.9532351" lon="17.5868193">
        <ele>29.9381</ele>
        <time>2013-05-05T14:21:01Z</time>
      </trkpt>
      <trkpt lat="59.9531775" lon="17.5868325">
        <ele>28.9769</ele>
        <time>2013-05-05T14:21:02Z</time>
      </trkpt>
      <trkpt lat="59.9531185" lon="17.5868475">
        <ele>28.0155</ele>
        <time>2013-05-05T14:21:03Z</time>
      </trkpt>
      <trkpt lat="59.9530573" lon="17.5868656">
        <ele>26.5736</ele>
        <time>2013-05-05T14:21:04Z</time>
      </trkpt>
      <trkpt lat="59.9529919" lon="17.586882">
        <ele>25.6123</ele>
        <time>2013-05-05T14:21:05Z</time>
      </trkpt>
      <trkpt lat="59.9529276" lon="17.586905">
        <ele>24.651</ele>
        <time>2013-05-05T14:21:06Z</time>
      </trkpt>
      <trkpt lat="59.9528616" lon="17.5869256">
        <ele>23.6896</ele>
        <time>2013-05-05T14:21:07Z</time>
      </trkpt>
      <trkpt lat="59.9527941" lon="17.5869471">
        <ele>22.7283</ele>
        <time>2013-05-05T14:21:08Z</time>
      </trkpt>
      <trkpt lat="59.9527248" lon="17.5869729">
        <ele>21.767</ele>
        <time>2013-05-05T14:21:09Z</time>
      </trkpt>
      <trkpt lat="59.9526542" lon="17.5870002">
        <ele>20.8057</ele>
        <time>2013-05-05T14:21:10Z</time>
      </trkpt>
      <trkpt lat="59.9525826" lon="17.5870283">
        <ele>19.8444</ele>
        <time>2013-05-05T14:21:11Z</time>
      </trkpt>
      <trkpt lat="59.9525097" lon="17.5870587">
        <ele>18.8831</ele>
        <time>2013-05-05T14:21:12Z</time>
      </trkpt>
      <trkpt lat="59.9524356" lon="17.5870906">
        <ele>17.9218</ele>
        <time>2013-05-05T14:21:13Z</time>
      </trkpt>
      <trkpt lat="59.9523611" lon="17.5871231">
        <ele>17.4412</ele>
        <time>2013-05-05T14:21:14Z</time>
      </trkpt>
      <trkpt lat="59.9522855" lon="17.5871583">
        <ele>16.4797</ele>
        <time>2013-05-05T14:21:15Z</time>
      </trkpt>
      <trkpt lat="59.9522097" lon="17.5871954">
        <ele>15.999</ele>
        <time>2013-05-05T14:21:16Z</time>
      </trkpt>
      <trkpt lat="59.9521342" lon="17.5872309">
        <ele>15.0377</ele>
        <time>2013-05-05T14:21:17Z</time>
      </trkpt>
      <trkpt lat="59.9520586" lon="17.5872665">
        <ele>14.0764</ele>
        <time>2013-05-05T14:21:18Z</time>
      </trkpt>
      <trkpt lat="59.9519824" lon="17.5873039">
        <ele>13.5958</ele>
        <time>2013-05-05T14:21:19Z</time>
      </trkpt>
      <trkpt lat="59.9519063" lon="17.587342">
        <ele>13.1151</ele>
        <time>2013-05-05T14:21:20Z</time>
      </trkpt>
      <trkpt lat="59.9518312" lon="17.5873799">
        <ele>12.1538</ele>
        <time>2013-05-05T14:21:21Z</time>
      </trkpt>
      <trkpt lat="59.9517551" lon="17.5874146">
        <ele>12.1538</ele>
        <time>2013-05-05T14:21:22Z</time>
      </trkpt>
      <trkpt lat="59.9516792" lon="17.5874446">
        <ele>11.6732</ele>
        <time>2013-05-05T14:21:23Z</time>
      </trkpt>
      <trkpt lat="59.9516043" lon="17.5874701">
        <ele>11.1925</ele>
        <time>2013-05-05T14:21:24Z</time>
      </trkpt>
      <trkpt lat="59.9515296" lon="17.5874938">
        <ele>11.1925</ele>
        <time>2013-05-05T14:21:25Z</time>
      </trkpt>
      <trkpt lat="59.9514557" lon="17.587523">
        <ele>11.1925</ele>
        <time>2013-05-05T14:21:26Z</time>
      </trkpt>
      <trkpt lat="59.9513825" lon="17.5875539">
        <ele>10.7118</ele>
        <time>2013-05-05T14:21:27Z</time>
      </trkpt>
      <trkpt lat="59.9513096" lon="17.5875845">
        <ele>10.7118</ele>
        <time>2013-05-05T14:21:28Z</time>
      </trkpt>
      <trkpt lat="59.9512368" lon="17.5876155">
        <ele>10.2312</ele>
        <time>2013-05-05T14:21:29Z</time>
      </trkpt>
      <trkpt lat="59.951164" lon="17.5876446">
        <ele>10.2312</ele>
        <time>2013-05-05T14:21:30Z</time>
      </trkpt>
      <trkpt lat="59.9510914" lon="17.5876738">
        <ele>9.75061</ele>
        <time>2013-05-05T14:21:31Z</time>
      </trkpt>
      <trkpt lat="59.9510205" lon="17.5877067">
        <ele>9.75061</ele>
        <time>2013-05-05T14:21:32Z</time>
      </trkpt>
      <trkpt lat="59.9509506" lon="17.5877385">
        <ele>9.2699</ele>
        <time>2013-05-05T14:21:33Z</time>
      </trkpt>
      <trkpt lat="59.9508822" lon="17.5877705">
        <ele>9.2699</ele>
        <time>2013-05-05T14:21:34Z</time>
      </trkpt>
      <trkpt lat="59.950815" lon="17.5878038">
        <ele>9.2699</ele>
        <time>2013-05-05T14:21:35Z</time>
      </trkpt>
      <trkpt lat="59.9507491" lon="17.5878353">
        <ele>8.78918</ele>
        <time>2013-05-05T14:21:36Z</time>
      </trkpt>
      <trkpt lat="59.9506849" lon="17.5878647">
        <ele>8.78918</ele>
        <time>2013-05-05T14:21:37Z</time>
      </trkpt>
      <trkpt lat="59.9506225" lon="17.5878937">
        <ele>8.78918</ele>
        <time>2013-05-05T14:21:38Z</time>
      </trkpt>
      <trkpt lat="59.9505616" lon="17.5879227">
        <ele>8.78918</ele>
        <time>2013-05-05T14:21:39Z</time>
      </trkpt>
      <trkpt lat="59.950502" lon="17.5879509">
        <ele>8.78918</ele>
        <time>2013-05-05T14:21:40Z</time>
      </trkpt>
      <trkpt lat="59.9504438" lon="17.5879789">
        <ele>8.30859</ele>
        <time>2013-05-05T14:21:41Z</time>
      </trkpt>
      <trkpt lat="59.9503865" lon="17.5880061">
        <ele>8.30859</ele>
        <time>2013-05-05T14:21:42Z</time>
      </trkpt>
      <trkpt lat="59.9503311" lon="17.5880306">
        <ele>8.30859</ele>
        <time>2013-05-05T14:21:43Z</time>
      </trkpt>
      <trkpt lat="59.9502747" lon="17.5880543">
        <ele>8.30859</ele>
        <time>2013-05-05T14:21:44Z</time>
      </trkpt>
      <trkpt lat="59.9502172" lon="17.5880792">
        <ele>8.30859</ele>
        <time>2013-05-05T14:21:45Z</time>
      </trkpt>
      <trkpt lat="59.9501575" lon="17.5881056">
        <ele>8.30859</ele>
        <time>2013-05-05T14:21:46Z</time>
      </trkpt>
      <trkpt lat="59.9500968" lon="17.5881352">
        <ele>8.30859</ele>
        <time>2013-05-05T14:21:47Z</time>
      </trkpt>
      <trkpt lat="59.9500384" lon="17.5881674">
        <ele>8.30859</ele>
        <time>2013-05-05T14:21:48Z</time>
      </trkpt>
      <trkpt lat="59.9499814" lon="17.5881995">
        <ele>8.30859</ele>
        <time>2013-05-05T14:21:49Z</time>
      </trkpt>
      <trkpt lat="59.949924" lon="17.5882265">
        <ele>8.30859</ele>
        <time>2013-05-05T14:21:50Z</time>
      </trkpt>
      <trkpt lat="59.9498631" lon="17.5882501">
        <ele>8.30859</ele>
        <time>2013-05-05T14:21:51Z</time>
      </trkpt>
      <trkpt lat="59.9498015" lon="17.5882736">
        <ele>8.78918</ele>
        <time>2013-05-05T14:21:52Z</time>
      </trkpt>
      <trkpt lat="59.9497422" lon="17.5882968">
        <ele>8.78918</ele>
        <time>2013-05-05T14:21:53Z</time>
      </trkpt>
      <trkpt lat="59.949683" lon="17.5883239">
        <ele>8.78918</ele>
        <time>2013-05-05T14:21:54Z</time>
      </trkpt>
      <trkpt lat="59.9496239" lon="17.5883529">
        <ele>9.2699</ele>
        <time>2013-05-05T14:21:55Z</time>
      </trkpt>
      <trkpt lat="59.949565" lon="17.5883799">
        <ele>9.2699</ele>
        <time>2013-05-05T14:21:56Z</time>
      </trkpt>
      <trkpt lat="59.9495069" lon="17.588407">
        <ele>9.75061</ele>
        <time>2013-05-05T14:21:57Z</time>
      </trkpt>
      <trkpt lat="59.9494484" lon="17.5884357">
        <ele>9.75061</ele>
        <time>2013-05-05T14:21:58Z</time>
      </trkpt>
      <trkpt lat="59.9493888" lon="17.5884647">
        <ele>10.2312</ele>
        <time>2013-05-05T14:21:59Z</time>
      </trkpt>
      <trkpt lat="59.9493296" lon="17.5884922">
        <ele>10.2312</ele>
        <time>2013-05-05T14:22:00Z</time>
      </trkpt>
      <trkpt lat="59.9492707" lon="17.5885191">
        <ele>10.2312</ele>
        <time>2013-05-05T14:22:01Z</time>
      </trkpt>
      <trkpt lat="59.9492121" lon="17.5885475">
        <ele>10.7118</ele>
        <time>2013-05-05T14:22:02Z</time>
      </trkpt>
      <trkpt lat="59.9491535" lon="17.5885762">
        <ele>10.7118</ele>
        <time>2013-05-05T14:22:03Z</time>
      </trkpt>
      <trkpt lat="59.949094" lon="17.5886052">
        <ele>11.1925</ele>
        <time>2013-05-05T14:22:04Z</time>
      </trkpt>
      <trkpt lat="59.9490334" lon="17.5886335">
        <ele>11.1925</ele>
        <time>2013-05-05T14:22:05Z</time>
      </trkpt>
      <trkpt lat="59.9489732" lon="17.5886605">
        <ele>11.1925</ele>
        <time>2013-05-05T14:22:06Z</time>
      </trkpt>
      <trkpt lat="59.948911" lon="17.5886921">
        <ele>11.6732</ele>
        <time>2013-05-05T14:22:07Z</time>
      </trkpt>
      <trkpt lat="59.9488522" lon="17.5887218">
        <ele>12.1538</ele>
        <time>2013-05-05T14:22:08Z</time>
      </trkpt>
      <trkpt lat="59.9487936" lon="17.5887507">
        <ele>12.1538</ele>
        <time>2013-05-05T14:22:09Z</time>
      </trkpt>
      <trkpt lat="59.9487346" lon="17.5887787">
        <ele>12.1538</ele>
        <time>2013-05-05T14:22:10Z</time>
      </trkpt>
      <trkpt lat="59.9486766" lon="17.5888066">
        <ele>12.1538</ele>
        <time>2013-05-05T14:22:11Z</time>
      </trkpt>
      <trkpt lat="59.9486181" lon="17.5888366">
        <ele>12.6344</ele>
        <time>2013-05-05T14:22:12Z</time>
      </trkpt>
      <trkpt lat="59.9485589" lon="17.5888691">
        <ele>12.6344</ele>
        <time>2013-05-05T14:22:13Z</time>
      </trkpt>
      <trkpt lat="59.9484981" lon="17.5888995">
        <ele>13.1151</ele>
        <time>2013-05-05T14:22:14Z</time>
      </trkpt>
      <trkpt lat="59.9484372" lon="17.5889268">
        <ele>13.1151</ele>
        <time>2013-05-05T14:22:15Z</time>
      </trkpt>
      <trkpt lat="59.9483767" lon="17.5889561">
        <ele>13.5958</ele>
        <time>2013-05-05T14:22:16Z</time>
      </trkpt>
      <trkpt lat="59.9483156" lon="17.5889863">
        <ele>13.5958</ele>
        <time>2013-05-05T14:22:17Z</time>
      </trkpt>
      <trkpt lat="59.948255" lon="17.5890152">
        <ele>13.5958</ele>
        <time>2013-05-05T14:22:18Z</time>
      </trkpt>
      <trkpt lat="59.9481956" lon="17.5890447">
        <ele>14.0764</ele>
        <time>2013-05-05T14:22:19Z</time>
      </trkpt>
      <trkpt lat="59.9481381" lon="17.5890751">
        <ele>14.0764</ele>
        <time>2013-05-05T14:22:20Z</time>
      </trkpt>
      <trkpt lat="59.9480816" lon="17.589105">
        <ele>14.0764</ele>
        <time>2013-05-05T14:22:21Z</time>
      </trkpt>
      <trkpt lat="59.9480259" lon="17.5891345">
        <ele>14.557</ele>
        <time>2013-05-05T14:22:22Z</time>
      </trkpt>
      <trkpt lat="59.9479688" lon="17.5891644">
        <ele>14.557</ele>
        <time>2013-05-05T14:22:23Z</time>
      </trkpt>
      <trkpt lat="59.9479093" lon="17.5891925">
        <ele>14.557</ele>
        <time>2013-05-05T14:22:24Z</time>
      </trkpt>
      <trkpt lat="59.9478506" lon="17.5892169">
        <ele>15.0377</ele>
        <time>2013-05-05T14:22:25Z</time>
      </trkpt>
      <trkpt lat="59.9477928" lon="17.5892412">
        <ele>15.0377</ele>
        <time>2013-05-05T14:22:26Z</time>
      </trkpt>
      <trkpt lat="59.9477353" lon="17.5892683">
        <ele>15.5184</ele>
        <time>2013-05-05T14:22:27Z</time>
      </trkpt>
      <trkpt lat="59.9476804" lon="17.5892952">
        <ele>15.5184</ele>
        <time>2013-05-05T14:22:28Z</time>
      </trkpt>
      <trkpt lat="59.9476282" lon="17.5893203">
        <ele>15.999</ele>
        <time>2013-05-05T14:22:29Z</time>
      </trkpt>
      <trkpt lat="59.9475764" lon="17.5893457">
        <ele>15.999</ele>
        <time>2013-05-05T14:22:30Z</time>
      </trkpt>
      <trkpt lat="59.9475228" lon="17.5893729">
        <ele>15.999</ele>
        <time>2013-05-05T14:22:31Z</time>
      </trkpt>
      <trkpt lat="59.9474679" lon="17.5894008">
        <ele>16.4797</ele>
        <time>2013-05-05T14:22:32Z</time>
      </trkpt>
      <trkpt lat="59.9474125" lon="17.5894288">
        <ele>16.4797</ele>
        <time>2013-05-05T14:22:33Z</time>
      </trkpt>
      <trkpt lat="59.9473578" lon="17.5894561">
        <ele>16.9604</ele>
        <time>2013-05-05T14:22:34Z</time>
      </trkpt>
      <trkpt lat="59.9473033" lon="17.5894832">
        <ele>16.9604</ele>
        <time>2013-05-05T14:22:35Z</time>
      </trkpt>
      <trkpt lat="59.9472468" lon="17.5895121">
        <ele>17.4412</ele>
        <time>2013-05-05T14:22:36Z</time>
      </trkpt>
      <trkpt lat="59.9471902" lon="17.5895392">
        <ele>17.4412</ele>
        <time>2013-05-05T14:22:37Z</time>
      </trkpt>
      <trkpt lat="59.9471334" lon="17.5895634">
        <ele>17.9218</ele>
        <time>2013-05-05T14:22:38Z</time>
      </trkpt>
      <trkpt lat="59.9470789" lon="17.5895871">
        <ele>17.9218</ele>
        <time>2013-05-05T14:22:39Z</time>
      </trkpt>
      <trkpt lat="59.9470251" lon="17.589612">
        <ele>17.9218</ele>
        <time>2013-05-05T14:22:40Z</time>
      </trkpt>
      <trkpt lat="59.9469724" lon="17.5896379">
        <ele>18.4023</ele>
        <time>2013-05-05T14:22:41Z</time>
      </trkpt>
      <trkpt lat="59.9469214" lon="17.5896644">
        <ele>18.4023</ele>
        <time>2013-05-05T14:22:42Z</time>
      </trkpt>
      <trkpt lat="59.9468708" lon="17.5896902">
        <ele>18.8831</ele>
        <time>2013-05-05T14:22:43Z</time>
      </trkpt>
      <trkpt lat="59.9468215" lon="17.5897158">
        <ele>18.8831</ele>
        <time>2013-05-05T14:22:44Z</time>
      </trkpt>
      <trkpt lat="59.9467731" lon="17.5897401">
        <ele>18.8831</ele>
        <time>2013-05-05T14:22:45Z</time>
      </trkpt>
      <trkpt lat="59.9467255" lon="17.5897625">
        <ele>19.3638</ele>
        <time>2013-05-05T14:22:46Z</time>
      </trkpt>
      <trkpt lat="59.9466787" lon="17.5897852">
        <ele>19.3638</ele>
        <time>2013-05-05T14:22:47Z</time>
      </trkpt>
      <trkpt lat="59.946633" lon="17.5898075">
        <ele>19.8444</ele>
        <time>2013-05-05T14:22:48Z</time>
      </trkpt>
      <trkpt lat="59.9465882" lon="17.5898282">
        <ele>19.8444</ele>
        <time>2013-05-05T14:22:49Z</time>
      </trkpt>
      <trkpt lat="59.9465444" lon="17.5898492">
        <ele>19.8444</ele>
        <time>2013-05-05T14:22:50Z</time>
      </trkpt>
      <trkpt lat="59.9465008" lon="17.5898707">
        <ele>20.325</ele>
        <time>2013-05-05T14:22:51Z</time>
      </trkpt>
      <trkpt lat="59.9464568" lon="17.5898923">
        <ele>20.325</ele>
        <time>2013-05-05T14:22:52Z</time>
      </trkpt>
      <trkpt lat="59.9464137" lon="17.5899146">
        <ele>20.8057</ele>
        <time>2013-05-05T14:22:53Z</time>
      </trkpt>
      <trkpt lat="59.9463712" lon="17.589938">
        <ele>20.8057</ele>
        <time>2013-05-05T14:22:54Z</time>
      </trkpt>
      <trkpt lat="59.9463294" lon="17.5899598">
        <ele>20.8057</ele>
        <time>2013-05-05T14:22:55Z</time>
      </trkpt>
      <trkpt lat="59.946288" lon="17.5899805">
        <ele>21.2864</ele>
        <time>2013-05-05T14:22:56Z</time>
      </trkpt>
      <trkpt lat="59.9462471" lon="17.5900005">
        <ele>21.2864</ele>
        <time>2013-05-05T14:22:57Z</time>
      </trkpt>
      <trkpt lat="59.9462061" lon="17.5900199">
        <ele>21.767</ele>
        <time>2013-05-05T14:22:58Z</time>
      </trkpt>
      <trkpt lat="59.9461657" lon="17.5900379">
        <ele>21.767</ele>
        <time>2013-05-05T14:22:59Z</time>
      </trkpt>
      <trkpt lat="59.9461253" lon="17.5900567">
        <ele>21.767</ele>
        <time>2013-05-05T14:23:00Z</time>
      </trkpt>
      <trkpt lat="59.9460849" lon="17.5900778">
        <ele>21.767</ele>
        <time>2013-05-05T14:23:01Z</time>
      </trkpt>
      <trkpt lat="59.9460441" lon="17.590097">
        <ele>22.2476</ele>
        <time>2013-05-05T14:23:02Z</time>
      </trkpt>
      <trkpt lat="59.9460035" lon="17.5901147">
        <ele>22.2476</ele>
        <time>2013-05-05T14:23:03Z</time>
      </trkpt>
      <trkpt lat="59.945963" lon="17.5901341">
        <ele>22.2476</ele>
        <time>2013-05-05T14:23:04Z</time>
      </trkpt>
      <trkpt lat="59.9459223" lon="17.5901546">
        <ele>22.7283</ele>
        <time>2013-05-05T14:23:05Z</time>
      </trkpt>
      <trkpt lat="59.9458813" lon="17.5901746">
        <ele>22.7283</ele>
        <time>2013-05-05T14:23:06Z</time>
      </trkpt>
      <trkpt lat="59.9458403" lon="17.5901943">
        <ele>22.7283</ele>
        <time>2013-05-05T14:23:07Z</time>
      </trkpt>
      <trkpt lat="59.9457988" lon="17.5902161">
        <ele>22.7283</ele>
        <time>2013-05-05T14:23:08Z</time>
      </trkpt>
      <trkpt lat="59.945757" lon="17.5902385">
        <ele>23.209</ele>
        <time>2013-05-05T14:23:09Z</time>
      </trkpt>
      <trkpt lat="59.9457148" lon="17.5902597">
        <ele>23.209</ele>
        <time>2013-05-05T14:23:10Z</time>
      </trkpt>
      <trkpt lat="59.9456713" lon="17.5902798">
        <ele>23.209</ele>
        <time>2013-05-05T14:23:11Z</time>
      </trkpt>
      <trkpt lat="59.945627" lon="17.5903009">
        <ele>23.209</ele>
        <time>2013-05-05T14:23:12Z</time>
      </trkpt>
      <trkpt lat="59.9455826" lon="17.5903244">
        <ele>23.6896</ele>
        <time>2013-05-05T14:23:13Z</time>
      </trkpt>
      <trkpt lat="59.9455375" lon="17.5903494">
        <ele>23.6896</ele>
        <time>2013-05-05T14:23:14Z</time>
      </trkpt>
      <trkpt lat="59.9454913" lon="17.5903732">
        <ele>23.6896</ele>
        <time>2013-05-05T14:23:15Z</time>
      </trkpt>
      <trkpt lat="59.945446" lon="17.5903959">
        <ele>23.6896</ele>
        <time>2013-05-05T14:23:16Z</time>
      </trkpt>
      <trkpt lat="59.9454018" lon="17.5904174">
        <ele>24.1703</ele>
        <time>2013-05-05T14:23:17Z</time>
      </trkpt>
      <trkpt lat="59.945358" lon="17.5904378">
        <ele>24.1703</ele>
        <time>2013-05-05T14:23:18Z</time>
      </trkpt>
      <trkpt lat="59.9453141" lon="17.590459">
        <ele>24.1703</ele>
        <time>2013-05-05T14:23:19Z</time>
      </trkpt>
      <trkpt lat="59.9452697" lon="17.5904828">
        <ele>24.1703</ele>
        <time>2013-05-05T14:23:20Z</time>
      </trkpt>
      <trkpt lat="59.9452249" lon="17.5905079">
        <ele>24.1703</ele>
        <time>2013-05-05T14:23:21Z</time>
      </trkpt>
      <trkpt lat="59.9451782" lon="17.5905306">
        <ele>24.651</ele>
        <time>2013-05-05T14:23:22Z</time>
      </trkpt>
      <trkpt lat="59.9451314" lon="17.5905522">
        <ele>24.651</ele>
        <time>2013-05-05T14:23:23Z</time>
      </trkpt>
      <trkpt lat="59.9450841" lon="17.5905715">
        <ele>24.651</ele>
        <time>2013-05-05T14:23:24Z</time>
      </trkpt>
      <trkpt lat="59.9450365" lon="17.5905918">
        <ele>24.651</ele>
        <time>2013-05-05T14:23:25Z</time>
      </trkpt>
      <trkpt lat="59.9449891" lon="17.5906138">
        <ele>24.651</ele>
        <time>2013-05-05T14:23:26Z</time>
      </trkpt>
      <trkpt lat="59.9449428" lon="17.5906332">
        <ele>24.651</ele>
        <time>2013-05-05T14:23:27Z</time>
      </trkpt>
      <trkpt lat="59.9448971" lon="17.5906518">
        <ele>24.651</ele>
        <time>2013-05-05T14:23:28Z</time>
      </trkpt>
      <trkpt lat="59.9448501" lon="17.5906739">
        <ele>24.651</ele>
        <time>2013-05-05T14:23:29Z</time>
      </trkpt>
      <trkpt lat="59.9448013" lon="17.590699">
        <ele>24.651</ele>
        <time>2013-05-05T14:23:30Z</time>
      </trkpt>
      <trkpt lat="59.9447513" lon="17.5907236">
        <ele>24.651</ele>
        <time>2013-05-05T14:23:31Z</time>
      </trkpt>
      <trkpt lat="59.9447008" lon="17.5907464">
        <ele>24.651</ele>
        <time>2013-05-05T14:23:32Z</time>
      </trkpt>
      <trkpt lat="59.9446506" lon="17.5907684">
        <ele>24.651</ele>
        <time>2013-05-05T14:23:33Z</time>
      </trkpt>
      <trkpt lat="59.9446012" lon="17.5907922">
        <ele>24.651</ele>
        <time>2013-05-05T14:23:34Z</time>
      </trkpt>
      <trkpt lat="59.9445515" lon="17.5908166">
        <ele>24.651</ele>
        <time>2013-05-05T14:23:35Z</time>
      </trkpt>
      <trkpt lat="59.9444999" lon="17.5908409">
        <ele>25.1317</ele>
        <time>2013-05-05T14:23:36Z</time>
      </trkpt>
      <trkpt lat="59.9444481" lon="17.5908663">
        <ele>25.1317</ele>
        <time>2013-05-05T14:23:37Z</time>
      </trkpt>
      <trkpt lat="59.9443958" lon="17.5908922">
        <ele>25.1317</ele>
        <time>2013-05-05T14:23:38Z</time>
      </trkpt>
      <trkpt lat="59.9443439" lon="17.5909183">
        <ele>25.1317</ele>
        <time>2013-05-05T14:23:39Z</time>
      </trkpt>
      <trkpt lat="59.9442921" lon="17.5909443">
        <ele>25.1317</ele>
        <time>2013-05-05T14:23:40Z</time>
      </trkpt>
      <trkpt lat="59.9442392" lon="17.5909724">
        <ele>25.6123</ele>
        <time>2013-05-05T14:23:41Z</time>
      </trkpt>
      <trkpt lat="59.9441886" lon="17.5909968">
        <ele>25.6123</ele>
        <time>2013-05-05T14:23:42Z</time>
      </trkpt>
      <trkpt lat="59.9441386" lon="17.5910186">
        <ele>25.6123</ele>
        <time>2013-05-05T14:23:43Z</time>
      </trkpt>
      <trkpt lat="59.9440876" lon="17.5910403">
        <ele>25.6123</ele>
        <time>2013-05-05T14:23:44Z</time>
      </trkpt>
      <trkpt lat="59.9440352" lon="17.5910631">
        <ele>25.6123</ele>
        <time>2013-05-05T14:23:45Z</time>
      </trkpt>
      <trkpt lat="59.9439814" lon="17.5910896">
        <ele>25.6123</ele>
        <time>2013-05-05T14:23:46Z</time>
      </trkpt>
      <trkpt lat="59.9439269" lon="17.5911168">
        <ele>25.1317</ele>
        <time>2013-05-05T14:23:47Z</time>
      </trkpt>
      <trkpt lat="59.943872" lon="17.5911439">
        <ele>25.1317</ele>
        <time>2013-05-05T14:23:48Z</time>
      </trkpt>
      <trkpt lat="59.9438177" lon="17.5911708">
        <ele>25.1317</ele>
        <time>2013-05-05T14:23:49Z</time>
      </trkpt>
      <trkpt lat="59.9437625" lon="17.5911986">
        <ele>25.1317</ele>
        <time>2013-05-05T14:23:50Z</time>
      </trkpt>
      <trkpt lat="59.9437061" lon="17.5912257">
        <ele>24.651</ele>
        <time>2013-05-05T14:23:51Z</time>
      </trkpt>
      <trkpt lat="59.9436488" lon="17.591252">
        <ele>24.651</ele>
        <time>2013-05-05T14:23:52Z</time>
      </trkpt>
      <trkpt lat="59.943592" lon="17.5912792">
        <ele>24.651</ele>
        <time>2013-05-05T14:23:53Z</time>
      </trkpt>
      <trkpt lat="59.9435353" lon="17.5913079">
        <ele>24.651</ele>
        <time>2013-05-05T14:23:54Z</time>
      </trkpt>
      <trkpt lat="59.9434787" lon="17.5913355">
        <ele>24.651</ele>
        <time>2013-05-05T14:23:55Z</time>
      </trkpt>
      <trkpt lat="59.9434223" lon="17.5913618">
        <ele>24.1703</ele>
        <time>2013-05-05T14:23:56Z</time>
      </trkpt>
      <trkpt lat="59.9433659" lon="17.5913875">
        <ele>24.1703</ele>
        <time>2013-05-05T14:23:57Z</time>
      </trkpt>
      <trkpt lat="59.9433098" lon="17.5914137">
        <ele>24.1703</ele>
        <time>2013-05-05T14:23:58Z</time>
      </trkpt>
      <trkpt lat="59.9432544" lon="17.5914402">
        <ele>23.6896</ele>
        <time>2013-05-05T14:23:59Z</time>
      </trkpt>
      <trkpt lat="59.943199" lon="17.591467">
        <ele>23.6896</ele>
        <time>2013-05-05T14:24:00Z</time>
      </trkpt>
      <trkpt lat="59.9431424" lon="17.5914941">
        <ele>23.6896</ele>
        <time>2013-05-05T14:24:01Z</time>
      </trkpt>
      <trkpt lat="59.9430831" lon="17.591523">
        <ele>23.6896</ele>
        <time>2013-05-05T14:24:02Z</time>
      </trkpt>
      <trkpt lat="59.943024" lon="17.5915526">
        <ele>23.6896</ele>
        <time>2013-05-05T14:24:03Z</time>
      </trkpt>
      <trkpt lat="59.9429649" lon="17.5915826">
        <ele>23.6896</ele>
        <time>2013-05-05T14:24:04Z</time>
      </trkpt>
      <trkpt lat="59.9429058" lon="17.5916106">
        <ele>23.209</ele>
        <time>2013-05-05T14:24:05Z</time>
      </trkpt>
      <trkpt lat="59.9428454" lon="17.5916382">
        <ele>23.209</ele>
        <time>2013-05-05T14:24:06Z</time>
      </trkpt>
      <trkpt lat="59.9427841" lon="17.5916675">
        <ele>23.209</ele>
        <time>2013-05-05T14:24:07Z</time>
      </trkpt>
      <trkpt lat="59.9427215" lon="17.5916995">
        <ele>23.209</ele>
        <time>2013-05-05T14:24:08Z</time>
      </trkpt>
      <trkpt lat="59.9426577" lon="17.5917323">
        <ele>23.209</ele>
        <time>2013-05-05T14:24:09Z</time>
      </trkpt>
      <trkpt lat="59.9425912" lon="17.5917655">
        <ele>23.209</ele>
        <time>2013-05-05T14:24:10Z</time>
      </trkpt>
      <trkpt lat="59.9425251" lon="17.591797">
        <ele>23.209</ele>
        <time>2013-05-05T14:24:11Z</time>
      </trkpt>
      <trkpt lat="59.9424609" lon="17.591826">
        <ele>22.7283</ele>
        <time>2013-05-05T14:24:12Z</time>
      </trkpt>
      <trkpt lat="59.9423977" lon="17.5918552">
        <ele>22.7283</ele>
        <time>2013-05-05T14:24:13Z</time>
      </trkpt>
      <trkpt lat="59.9423356" lon="17.5918857">
        <ele>22.7283</ele>
        <time>2013-05-05T14:24:14Z</time>
      </trkpt>
      <trkpt lat="59.9422742" lon="17.5919157">
        <ele>22.7283</ele>
        <time>2013-05-05T14:24:15Z</time>
      </trkpt>
      <trkpt lat="59.9422122" lon="17.5919453">
        <ele>22.7283</ele>
        <time>2013-05-05T14:24:16Z</time>
      </trkpt>
      <trkpt lat="59.9421506" lon="17.5919753">
        <ele>22.7283</ele>
        <time>2013-05-05T14:24:17Z</time>
      </trkpt>
      <trkpt lat="59.9420901" lon="17.5920049">
        <ele>22.7283</ele>
        <time>2013-05-05T14:24:18Z</time>
      </trkpt>
      <trkpt lat="59.9420304" lon="17.5920337">
        <ele>22.7283</ele>
        <time>2013-05-05T14:24:19Z</time>
      </trkpt>
      <trkpt lat="59.9419715" lon="17.5920617">
        <ele>22.7283</ele>
        <time>2013-05-05T14:24:20Z</time>
      </trkpt>
      <trkpt lat="59.9419134" lon="17.5920901">
        <ele>22.7283</ele>
        <time>2013-05-05T14:24:21Z</time>
      </trkpt>
      <trkpt lat="59.9418554" lon="17.5921183">
        <ele>22.7283</ele>
        <time>2013-05-05T14:24:22Z</time>
      </trkpt>
      <trkpt lat="59.9417974" lon="17.5921462">
        <ele>22.7283</ele>
        <time>2013-05-05T14:24:23Z</time>
      </trkpt>
      <trkpt lat="59.94174" lon="17.5921736">
        <ele>22.7283</ele>
        <time>2013-05-05T14:24:24Z</time>
      </trkpt>
      <trkpt lat="59.9416829" lon="17.5922006">
        <ele>22.7283</ele>
        <time>2013-05-05T14:24:25Z</time>
      </trkpt>
      <trkpt lat="59.9416264" lon="17.5922284">
        <ele>22.7283</ele>
        <time>2013-05-05T14:24:26Z</time>
      </trkpt>
      <trkpt lat="59.9415701" lon="17.5922571">
        <ele>22.7283</ele>
        <time>2013-05-05T14:24:27Z</time>
      </trkpt>
      <trkpt lat="59.9415145" lon="17.5922869">
        <ele>22.7283</ele>
        <time>2013-05-05T14:24:28Z</time>
      </trkpt>
      <trkpt lat="59.9414594" lon="17.5923151">
        <ele>22.7283</ele>
        <time>2013-05-05T14:24:29Z</time>
      </trkpt>
      <trkpt lat="59.9414052" lon="17.5923409">
        <ele>22.7283</ele>
        <time>2013-05-05T14:24:30Z</time>
      </trkpt>
      <trkpt lat="59.9413514" lon="17.5923672">
        <ele>22.7283</ele>
        <time>2013-05-05T14:24:31Z</time>
      </trkpt>
      <trkpt lat="59.9412978" lon="17.5923933">
        <ele>22.7283</ele>
        <time>2013-05-05T14:24:32Z</time>
      </trkpt>
      <trkpt lat="59.9412437" lon="17.5924181">
        <ele>22.7283</ele>
        <time>2013-05-05T14:24:33Z</time>
      </trkpt>
      <trkpt lat="59.9411903" lon="17.5924424">
        <ele>22.7283</ele>
        <time>2013-05-05T14:24:34Z</time>
      </trkpt>
      <trkpt lat="59.9411379" lon="17.5924658">
        <ele>23.209</ele>
        <time>2013-05-05T14:24:35Z</time>
      </trkpt>
      <trkpt lat="59.9410859" lon="17.592489">
        <ele>23.209</ele>
        <time>2013-05-05T14:24:36Z</time>
      </trkpt>
      <trkpt lat="59.9410352" lon="17.5925136">
        <ele>23.209</ele>
        <time>2013-05-05T14:24:37Z</time>
      </trkpt>
      <trkpt lat="59.9409841" lon="17.5925389">
        <ele>23.209</ele>
        <time>2013-05-05T14:24:38Z</time>
      </trkpt>
      <trkpt lat="59.9409321" lon="17.5925635">
        <ele>23.209</ele>
        <time>2013-05-05T14:24:39Z</time>
      </trkpt>
      <trkpt lat="59.9408789" lon="17.5925887">
        <ele>23.6896</ele>
        <time>2013-05-05T14:24:40Z</time>
      </trkpt>
      <trkpt lat="59.9408271" lon="17.5926145">
        <ele>23.6896</ele>
        <time>2013-05-05T14:24:41Z</time>
      </trkpt>
      <trkpt lat="59.9407772" lon="17.5926377">
        <ele>23.6896</ele>
        <time>2013-05-05T14:24:42Z</time>
      </trkpt>
      <trkpt lat="59.9407282" lon="17.5926607">
        <ele>23.6896</ele>
        <time>2013-05-05T14:24:43Z</time>
      </trkpt>
      <trkpt lat="59.9406808" lon="17.5926839">
        <ele>23.6896</ele>
        <time>2013-05-05T14:24:44Z</time>
      </trkpt>
      <trkpt lat="59.9406334" lon="17.5927083">
        <ele>24.1703</ele>
        <time>2013-05-05T14:24:45Z</time>
      </trkpt>
      <trkpt lat="59.9405873" lon="17.5927338">
        <ele>24.1703</ele>
        <time>2013-05-05T14:24:46Z</time>
      </trkpt>
      <trkpt lat="59.9405411" lon="17.5927555">
        <ele>24.1703</ele>
        <time>2013-05-05T14:24:47Z</time>
      </trkpt>
      <trkpt lat="59.9404934" lon="17.5927792">
        <ele>24.1703</ele>
        <time>2013-05-05T14:24:48Z</time>
      </trkpt>
      <trkpt lat="59.9404439" lon="17.5928066">
        <ele>24.1703</ele>
        <time>2013-05-05T14:24:49Z</time>
      </trkpt>
      <trkpt lat="59.9403935" lon="17.5928291">
        <ele>24.1703</ele>
        <time>2013-05-05T14:24:50Z</time>
      </trkpt>
      <trkpt lat="59.9403443" lon="17.5928487">
        <ele>24.651</ele>
        <time>2013-05-05T14:24:51Z</time>
      </trkpt>
      <trkpt lat="59.9402977" lon="17.5928709">
        <ele>24.651</ele>
        <time>2013-05-05T14:24:52Z</time>
      </trkpt>
      <trkpt lat="59.940253" lon="17.5928968">
        <ele>24.651</ele>
        <time>2013-05-05T14:24:53Z</time>
      </trkpt>
      <trkpt lat="59.9402064" lon="17.5929222">
        <ele>24.651</ele>
        <time>2013-05-05T14:24:54Z</time>
      </trkpt>
      <trkpt lat="59.9401568" lon="17.5929446">
        <ele>25.1317</ele>
        <time>2013-05-05T14:24:55Z</time>
      </trkpt>
      <trkpt lat="59.9401072" lon="17.592966">
        <ele>25.1317</ele>
        <time>2013-05-05T14:24:56Z</time>
      </trkpt>
      <trkpt lat="59.9400588" lon="17.5929896">
        <ele>25.1317</ele>
        <time>2013-05-05T14:24:57Z</time>
      </trkpt>
      <trkpt lat="59.9400112" lon="17.5930142">
        <ele>25.1317</ele>
        <time>2013-05-05T14:24:58Z</time>
      </trkpt>
      <trkpt lat="59.939962" lon="17.5930387">
        <ele>25.1317</ele>
        <time>2013-05-05T14:24:59Z</time>
      </trkpt>
      <trkpt lat="59.9399103" lon="17.5930637">
        <ele>25.6123</ele>
        <time>2013-05-05T14:25:00Z</time>
      </trkpt>
      <trkpt lat="59.9398588" lon="17.5930886">
        <ele>25.6123</ele>
        <time>2013-05-05T14:25:01Z</time>
      </trkpt>
      <trkpt lat="59.9398087" lon="17.5931119">
        <ele>25.6123</ele>
        <time>2013-05-05T14:25:02Z</time>
      </trkpt>
      <trkpt lat="59.9397586" lon="17.5931371">
        <ele>25.6123</ele>
        <time>2013-05-05T14:25:03Z</time>
      </trkpt>
      <trkpt lat="59.939709" lon="17.5931637">
        <ele>25.6123</ele>
        <time>2013-05-05T14:25:04Z</time>
      </trkpt>
      <trkpt lat="59.9396611" lon="17.5931879">
        <ele>26.0929</ele>
        <time>2013-05-05T14:25:05Z</time>
      </trkpt>
      <trkpt lat="59.9396138" lon="17.5932093">
        <ele>26.0929</ele>
        <time>2013-05-05T14:25:06Z</time>
      </trkpt>
      <trkpt lat="59.9395654" lon="17.593232">
        <ele>26.0929</ele>
        <time>2013-05-05T14:25:07Z</time>
      </trkpt>
      <trkpt lat="59.939516" lon="17.5932579">
        <ele>26.0929</ele>
        <time>2013-05-05T14:25:08Z</time>
      </trkpt>
      <trkpt lat="59.9394638" lon="17.5932843">
        <ele>26.0929</ele>
        <time>2013-05-05T14:25:09Z</time>
      </trkpt>
      <trkpt lat="59.9394114" lon="17.5933097">
        <ele>26.0929</ele>
        <time>2013-05-05T14:25:10Z</time>
      </trkpt>
      <trkpt lat="59.939361" lon="17.5933336">
        <ele>26.5736</ele>
        <time>2013-05-05T14:25:11Z</time>
      </trkpt>
      <trkpt lat="59.9393118" lon="17.5933572">
        <ele>26.5736</ele>
        <time>2013-05-05T14:25:12Z</time>
      </trkpt>
      <trkpt lat="59.9392569" lon="17.5933796">
        <ele>26.0929</ele>
        <time>2013-05-05T14:25:13Z</time>
      </trkpt>
      <trkpt lat="59.9392027" lon="17.5934076">
        <ele>26.0929</ele>
        <time>2013-05-05T14:25:14Z</time>
      </trkpt>
      <trkpt lat="59.9391511" lon="17.5934354">
        <ele>26.0929</ele>
        <time>2013-05-05T14:25:15Z</time>
      </trkpt>
      <trkpt lat="59.9391009" lon="17.5934595">
        <ele>26.0929</ele>
        <time>2013-05-05T14:25:16Z</time>
      </trkpt>
      <trkpt lat="59.9390499" lon="17.5934846">
        <ele>26.0929</ele>
        <time>2013-05-05T14:25:17Z</time>
      </trkpt>
      <trkpt lat="59.9389981" lon="17.5935096">
        <ele>26.0929</ele>
        <time>2013-05-05T14:25:18Z</time>
      </trkpt>
      <trkpt lat="59.9389462" lon="17.5935324">
        <ele>26.0929</ele>
        <time>2013-05-05T14:25:19Z</time>
      </trkpt>
      <trkpt lat="59.9388955" lon="17.5935553">
        <ele>26.0929</ele>
        <time>2013-05-05T14:25:20Z</time>
      </trkpt>
      <trkpt lat="59.9388468" lon="17.5935789">
        <ele>26.0929</ele>
        <time>2013-05-05T14:25:21Z</time>
      </trkpt>
      <trkpt lat="59.9387987" lon="17.5936025">
        <ele>26.0929</ele>
        <time>2013-05-05T14:25:22Z</time>
      </trkpt>
      <trkpt lat="59.9387489" lon="17.5936281">
        <ele>26.0929</ele>
        <time>2013-05-05T14:25:23Z</time>
      </trkpt>
      <trkpt lat="59.9386987" lon="17.5936532">
        <ele>26.0929</ele>
        <time>2013-05-05T14:25:24Z</time>
      </trkpt>
      <trkpt lat="59.9386494" lon="17.5936765">
        <ele>26.0929</ele>
        <time>2013-05-05T14:25:25Z</time>
      </trkpt>
      <trkpt lat="59.9386015" lon="17.5936967">
        <ele>26.0929</ele>
        <time>2013-05-05T14:25:26Z</time>
      </trkpt>
      <trkpt lat="59.9385541" lon="17.5937123">
        <ele>26.0929</ele>
        <time>2013-05-05T14:25:27Z</time>
      </trkpt>
      <trkpt lat="59.938508" lon="17.5937254">
        <ele>26.0929</ele>
        <time>2013-05-05T14:25:28Z</time>
      </trkpt>
      <trkpt lat="59.9384644" lon="17.5937469">
        <ele>26.0929</ele>
        <time>2013-05-05T14:25:29Z</time>
      </trkpt>
      <trkpt lat="59.9384218" lon="17.5937727">
        <ele>25.6123</ele>
        <time>2013-05-05T14:25:30Z</time>
      </trkpt>
      <trkpt lat="59.9383799" lon="17.5937952">
        <ele>26.0929</ele>
        <time>2013-05-05T14:25:31Z</time>
      </trkpt>
      <trkpt lat="59.9383384" lon="17.5938142">
        <ele>26.0929</ele>
        <time>2013-05-05T14:25:32Z</time>
      </trkpt>
      <trkpt lat="59.9382973" lon="17.593833">
        <ele>25.6123</ele>
        <time>2013-05-05T14:25:33Z</time>
      </trkpt>
      <trkpt lat="59.9382584" lon="17.5938566">
        <ele>26.0929</ele>
        <time>2013-05-05T14:25:34Z</time>
      </trkpt>
      <trkpt lat="59.9382205" lon="17.593882">
        <ele>26.0929</ele>
        <time>2013-05-05T14:25:35Z</time>
      </trkpt>
      <trkpt lat="59.9381822" lon="17.5939029">
        <ele>26.0929</ele>
        <time>2013-05-05T14:25:36Z</time>
      </trkpt>
      <trkpt lat="59.9381445" lon="17.5939241">
        <ele>26.0929</ele>
        <time>2013-05-05T14:25:37Z</time>
      </trkpt>
      <trkpt lat="59.9381071" lon="17.5939484">
        <ele>26.0929</ele>
        <time>2013-05-05T14:25:38Z</time>
      </trkpt>
      <trkpt lat="59.9380713" lon="17.593977">
        <ele>26.0929</ele>
        <time>2013-05-05T14:25:39Z</time>
      </trkpt>
      <trkpt lat="59.9380355" lon="17.5940135">
        <ele>26.5736</ele>
        <time>2013-05-05T14:25:40Z</time>
      </trkpt>
      <trkpt lat="59.9379996" lon="17.5940565">
        <ele>26.5736</ele>
        <time>2013-05-05T14:25:41Z</time>
      </trkpt>
      <trkpt lat="59.9379649" lon="17.5941115">
        <ele>26.5736</ele>
        <time>2013-05-05T14:25:42Z</time>
      </trkpt>
      <trkpt lat="59.9379325" lon="17.5941744">
        <ele>26.5736</ele>
        <time>2013-05-05T14:25:43Z</time>
      </trkpt>
      <trkpt lat="59.9379014" lon="17.59424">
        <ele>26.5736</ele>
        <time>2013-05-05T14:25:44Z</time>
      </trkpt>
      <trkpt lat="59.9378708" lon="17.5943101">
        <ele>26.5736</ele>
        <time>2013-05-05T14:25:45Z</time>
      </trkpt>
      <trkpt lat="59.9378456" lon="17.5943911">
        <ele>26.0929</ele>
        <time>2013-05-05T14:25:46Z</time>
      </trkpt>
      <trkpt lat="59.9378321" lon="17.5944849">
        <ele>26.0929</ele>
        <time>2013-05-05T14:25:47Z</time>
      </trkpt>
      <trkpt lat="59.9378333" lon="17.5945825">
        <ele>26.0929</ele>
        <time>2013-05-05T14:25:48Z</time>
      </trkpt>
      <trkpt lat="59.9378453" lon="17.5946801">
        <ele>26.0929</ele>
        <time>2013-05-05T14:25:49Z</time>
      </trkpt>
      <trkpt lat="59.937862" lon="17.5947788">
        <ele>26.0929</ele>
        <time>2013-05-05T14:25:50Z</time>
      </trkpt>
      <trkpt lat="59.9378811" lon="17.5948776">
        <ele>26.0929</ele>
        <time>2013-05-05T14:25:51Z</time>
      </trkpt>
      <trkpt lat="59.9379024" lon="17.5949728">
        <ele>26.0929</ele>
        <time>2013-05-05T14:25:52Z</time>
      </trkpt>
      <trkpt lat="59.9379242" lon="17.5950657">
        <ele>26.0929</ele>
        <time>2013-05-05T14:25:53Z</time>
      </trkpt>
      <trkpt lat="59.937946" lon="17.5951581">
        <ele>26.0929</ele>
        <time>2013-05-05T14:25:54Z</time>
      </trkpt>
      <trkpt lat="59.9379685" lon="17.5952484">
        <ele>26.0929</ele>
        <time>2013-05-05T14:25:55Z</time>
      </trkpt>
      <trkpt lat="59.9379888" lon="17.5953428">
        <ele>26.0929</ele>
        <time>2013-05-05T14:25:56Z</time>
      </trkpt>
      <trkpt lat="59.9380085" lon="17.5954461">
        <ele>26.0929</ele>
        <time>2013-05-05T14:25:57Z</time>
      </trkpt>
      <trkpt lat="59.9380312" lon="17.5955514">
        <ele>26.0929</ele>
        <time>2013-05-05T14:25:58Z</time>
      </trkpt>
      <trkpt lat="59.9380545" lon="17.5956521">
        <ele>26.0929</ele>
        <time>2013-05-05T14:25:59Z</time>
      </trkpt>
      <trkpt lat="59.9380781" lon="17.5957506">
        <ele>26.0929</ele>
        <time>2013-05-05T14:26:00Z</time>
      </trkpt>
      <trkpt lat="59.9381023" lon="17.5958467">
        <ele>25.6123</ele>
        <time>2013-05-05T14:26:01Z</time>
      </trkpt>
      <trkpt lat="59.9381272" lon="17.5959463">
        <ele>25.6123</ele>
        <time>2013-05-05T14:26:02Z</time>
      </trkpt>
      <trkpt lat="59.9381531" lon="17.5960516">
        <ele>25.6123</ele>
        <time>2013-05-05T14:26:03Z</time>
      </trkpt>
      <trkpt lat="59.9381795" lon="17.5961601">
        <ele>25.6123</ele>
        <time>2013-05-05T14:26:04Z</time>
      </trkpt>
      <trkpt lat="59.9382058" lon="17.5962675">
        <ele>25.6123</ele>
        <time>2013-05-05T14:26:05Z</time>
      </trkpt>
      <trkpt lat="59.9382325" lon="17.5963737">
        <ele>25.6123</ele>
        <time>2013-05-05T14:26:06Z</time>
      </trkpt>
      <trkpt lat="59.9382592" lon="17.5964794">
        <ele>25.6123</ele>
        <time>2013-05-05T14:26:07Z</time>
      </trkpt>
      <trkpt lat="59.9382857" lon="17.5965857">
        <ele>25.1317</ele>
        <time>2013-05-05T14:26:08Z</time>
      </trkpt>
      <trkpt lat="59.9383118" lon="17.5966927">
        <ele>25.1317</ele>
        <time>2013-05-05T14:26:09Z</time>
      </trkpt>
      <trkpt lat="59.9383376" lon="17.5967985">
        <ele>25.1317</ele>
        <time>2013-05-05T14:26:10Z</time>
      </trkpt>
      <trkpt lat="59.9383645" lon="17.5969029">
        <ele>25.1317</ele>
        <time>2013-05-05T14:26:11Z</time>
      </trkpt>
      <trkpt lat="59.9383921" lon="17.5970063">
        <ele>25.1317</ele>
        <time>2013-05-05T14:26:12Z</time>
      </trkpt>
      <trkpt lat="59.9384198" lon="17.5971114">
        <ele>24.651</ele>
        <time>2013-05-05T14:26:13Z</time>
      </trkpt>
      <trkpt lat="59.9384458" lon="17.5972196">
        <ele>24.651</ele>
        <time>2013-05-05T14:26:14Z</time>
      </trkpt>
      <trkpt lat="59.9384723" lon="17.5973284">
        <ele>24.651</ele>
        <time>2013-05-05T14:26:15Z</time>
      </trkpt>
      <trkpt lat="59.9384995" lon="17.5974377">
        <ele>24.651</ele>
        <time>2013-05-05T14:26:16Z</time>
      </trkpt>
      <trkpt lat="59.9385271" lon="17.5975475">
        <ele>24.651</ele>
        <time>2013-05-05T14:26:17Z</time>
      </trkpt>
      <trkpt lat="59.9385552" lon="17.5976583">
        <ele>24.1703</ele>
        <time>2013-05-05T14:26:18Z</time>
      </trkpt>
      <trkpt lat="59.9385832" lon="17.5977716">
        <ele>24.1703</ele>
        <time>2013-05-05T14:26:19Z</time>
      </trkpt>
      <trkpt lat="59.9386121" lon="17.5978869">
        <ele>24.1703</ele>
        <time>2013-05-05T14:26:20Z</time>
      </trkpt>
      <trkpt lat="59.9386436" lon="17.5980044">
        <ele>23.6896</ele>
        <time>2013-05-05T14:26:21Z</time>
      </trkpt>
      <trkpt lat="59.9386753" lon="17.598125">
        <ele>23.6896</ele>
        <time>2013-05-05T14:26:22Z</time>
      </trkpt>
      <trkpt lat="59.9387073" lon="17.5982483">
        <ele>23.209</ele>
        <time>2013-05-05T14:26:23Z</time>
      </trkpt>
      <trkpt lat="59.9387404" lon="17.5983736">
        <ele>23.209</ele>
        <time>2013-05-05T14:26:24Z</time>
      </trkpt>
      <trkpt lat="59.9387742" lon="17.598501">
        <ele>22.7283</ele>
        <time>2013-05-05T14:26:25Z</time>
      </trkpt>
      <trkpt lat="59.9388118" lon="17.5986296">
        <ele>22.2476</ele>
        <time>2013-05-05T14:26:26Z</time>
      </trkpt>
      <trkpt lat="59.9388529" lon="17.5987607">
        <ele>22.2476</ele>
        <time>2013-05-05T14:26:27Z</time>
      </trkpt>
      <trkpt lat="59.9388975" lon="17.5988954">
        <ele>21.767</ele>
        <time>2013-05-05T14:26:28Z</time>
      </trkpt>
      <trkpt lat="59.9389452" lon="17.599031">
        <ele>21.767</ele>
        <time>2013-05-05T14:26:29Z</time>
      </trkpt>
      <trkpt lat="59.9389949" lon="17.5991646">
        <ele>21.2864</ele>
        <time>2013-05-05T14:26:30Z</time>
      </trkpt>
      <trkpt lat="59.9390463" lon="17.5992953">
        <ele>20.8057</ele>
        <time>2013-05-05T14:26:31Z</time>
      </trkpt>
      <trkpt lat="59.9391001" lon="17.5994208">
        <ele>20.8057</ele>
        <time>2013-05-05T14:26:32Z</time>
      </trkpt>
      <trkpt lat="59.9391555" lon="17.5995396">
        <ele>20.325</ele>
        <time>2013-05-05T14:26:33Z</time>
      </trkpt>
      <trkpt lat="59.9392131" lon="17.5996532">
        <ele>19.8444</ele>
        <time>2013-05-05T14:26:34Z</time>
      </trkpt>
      <trkpt lat="59.939272" lon="17.5997636">
        <ele>19.8444</ele>
        <time>2013-05-05T14:26:35Z</time>
      </trkpt>
      <trkpt lat="59.9393324" lon="17.5998683">
        <ele>19.3638</ele>
        <time>2013-05-05T14:26:36Z</time>
      </trkpt>
      <trkpt lat="59.9393938" lon="17.5999657">
        <ele>19.3638</ele>
        <time>2013-05-05T14:26:37Z</time>
      </trkpt>
      <trkpt lat="59.9394557" lon="17.6000583">
        <ele>19.3638</ele>
        <time>2013-05-05T14:26:38Z</time>
      </trkpt>
      <trkpt lat="59.9395182" lon="17.6001469">
        <ele>18.8831</ele>
        <time>2013-05-05T14:26:39Z</time>
      </trkpt>
      <trkpt lat="59.9395826" lon="17.6002293">
        <ele>18.8831</ele>
        <time>2013-05-05T14:26:40Z</time>
      </trkpt>
      <trkpt lat="59.9396476" lon="17.600307">
        <ele>18.8831</ele>
        <time>2013-05-05T14:26:41Z</time>
      </trkpt>
      <trkpt lat="59.9397125" lon="17.6003815">
        <ele>18.8831</ele>
        <time>2013-05-05T14:26:42Z</time>
      </trkpt>
      <trkpt lat="59.9397781" lon="17.6004525">
        <ele>18.4023</ele>
        <time>2013-05-05T14:26:43Z</time>
      </trkpt>
      <trkpt lat="59.9398438" lon="17.6005207">
        <ele>18.4023</ele>
        <time>2013-05-05T14:26:44Z</time>
      </trkpt>
      <trkpt lat="59.9399087" lon="17.6005851">
        <ele>18.4023</ele>
        <time>2013-05-05T14:26:45Z</time>
      </trkpt>
      <trkpt lat="59.9399732" lon="17.6006466">
        <ele>18.4023</ele>
        <time>2013-05-05T14:26:46Z</time>
      </trkpt>
      <trkpt lat="59.9400369" lon="17.6007057">
        <ele>18.4023</ele>
        <time>2013-05-05T14:26:47Z</time>
      </trkpt>
      <trkpt lat="59.9400997" lon="17.6007623">
        <ele>18.4023</ele>
        <time>2013-05-05T14:26:48Z</time>
      </trkpt>
      <trkpt lat="59.9401616" lon="17.6008187">
        <ele>18.4023</ele>
        <time>2013-05-05T14:26:49Z</time>
      </trkpt>
      <trkpt lat="59.9402226" lon="17.6008757">
        <ele>18.4023</ele>
        <time>2013-05-05T14:26:50Z</time>
      </trkpt>
      <trkpt lat="59.9402828" lon="17.6009304">
        <ele>18.4023</ele>
        <time>2013-05-05T14:26:51Z</time>
      </trkpt>
      <trkpt lat="59.9403427" lon="17.6009839">
        <ele>18.4023</ele>
        <time>2013-05-05T14:26:52Z</time>
      </trkpt>
      <trkpt lat="59.940403" lon="17.6010379">
        <ele>18.4023</ele>
        <time>2013-05-05T14:26:53Z</time>
      </trkpt>
      <trkpt lat="59.940464" lon="17.6010918">
        <ele>18.4023</ele>
        <time>2013-05-05T14:26:54Z</time>
      </trkpt>
      <trkpt lat="59.9405241" lon="17.6011472">
        <ele>18.4023</ele>
        <time>2013-05-05T14:26:55Z</time>
      </trkpt>
      <trkpt lat="59.9405837" lon="17.6012009">
        <ele>18.4023</ele>
        <time>2013-05-05T14:26:56Z</time>
      </trkpt>
      <trkpt lat="59.9406435" lon="17.6012524">
        <ele>18.4023</ele>
        <time>2013-05-05T14:26:57Z</time>
      </trkpt>
      <trkpt lat="59.9407023" lon="17.6013062">
        <ele>18.4023</ele>
        <time>2013-05-05T14:26:58Z</time>
      </trkpt>
      <trkpt lat="59.9407609" lon="17.6013595">
        <ele>18.4023</ele>
        <time>2013-05-05T14:26:59Z</time>
      </trkpt>
      <trkpt lat="59.9408197" lon="17.6014102">
        <ele>18.4023</ele>
        <time>2013-05-05T14:27:00Z</time>
      </trkpt>
      <trkpt lat="59.9408785" lon="17.6014622">
        <ele>18.4023</ele>
        <time>2013-05-05T14:27:01Z</time>
      </trkpt>
      <trkpt lat="59.9409375" lon="17.6015132">
        <ele>18.4023</ele>
        <time>2013-05-05T14:27:02Z</time>
      </trkpt>
      <trkpt lat="59.9409973" lon="17.6015635">
        <ele>18.4023</ele>
        <time>2013-05-05T14:27:03Z</time>
      </trkpt>
      <trkpt lat="59.9410576" lon="17.6016164">
        <ele>18.4023</ele>
        <time>2013-05-05T14:27:04Z</time>
      </trkpt>
      <trkpt lat="59.9411171" lon="17.6016668">
        <ele>18.8831</ele>
        <time>2013-05-05T14:27:05Z</time>
      </trkpt>
      <trkpt lat="59.9411752" lon="17.6017139">
        <ele>18.8831</ele>
        <time>2013-05-05T14:27:06Z</time>
      </trkpt>
      <trkpt lat="59.941232" lon="17.6017595">
        <ele>18.8831</ele>
        <time>2013-05-05T14:27:07Z</time>
      </trkpt>
      <trkpt lat="59.9412872" lon="17.6018024">
        <ele>18.8831</ele>
        <time>2013-05-05T14:27:08Z</time>
      </trkpt>
      <trkpt lat="59.9413425" lon="17.6018465">
        <ele>18.8831</ele>
        <time>2013-05-05T14:27:09Z</time>
      </trkpt>
      <trkpt lat="59.9413984" lon="17.6018899">
        <ele>18.8831</ele>
        <time>2013-05-05T14:27:10Z</time>
      </trkpt>
      <trkpt lat="59.9414532" lon="17.6019295">
        <ele>19.3638</ele>
        <time>2013-05-05T14:27:11Z</time>
      </trkpt>
      <trkpt lat="59.9415055" lon="17.6019677">
        <ele>19.3638</ele>
        <time>2013-05-05T14:27:12Z</time>
      </trkpt>
      <trkpt lat="59.9415578" lon="17.6020056">
        <ele>19.3638</ele>
        <time>2013-05-05T14:27:13Z</time>
      </trkpt>
      <trkpt lat="59.9416108" lon="17.6020411">
        <ele>19.3638</ele>
        <time>2013-05-05T14:27:14Z</time>
      </trkpt>
      <trkpt lat="59.9416646" lon="17.6020739">
        <ele>19.3638</ele>
        <time>2013-05-05T14:27:15Z</time>
      </trkpt>
      <trkpt lat="59.9417182" lon="17.6021084">
        <ele>19.3638</ele>
        <time>2013-05-05T14:27:16Z</time>
      </trkpt>
      <trkpt lat="59.9417709" lon="17.6021422">
        <ele>19.3638</ele>
        <time>2013-05-05T14:27:17Z</time>
      </trkpt>
      <trkpt lat="59.9418243" lon="17.6021723">
        <ele>19.3638</ele>
        <time>2013-05-05T14:27:18Z</time>
      </trkpt>
      <trkpt lat="59.9418805" lon="17.6022007">
        <ele>19.3638</ele>
        <time>2013-05-05T14:27:19Z</time>
      </trkpt>
      <trkpt lat="59.9419377" lon="17.6022291">
        <ele>19.3638</ele>
        <time>2013-05-05T14:27:20Z</time>
      </trkpt>
      <trkpt lat="59.941994" lon="17.6022558">
        <ele>19.3638</ele>
        <time>2013-05-05T14:27:21Z</time>
      </trkpt>
      <trkpt lat="59.9420492" lon="17.6022826">
        <ele>19.3638</ele>
        <time>2013-05-05T14:27:22Z</time>
      </trkpt>
      <trkpt lat="59.9421054" lon="17.6023075">
        <ele>19.3638</ele>
        <time>2013-05-05T14:27:23Z</time>
      </trkpt>
      <trkpt lat="59.9421623" lon="17.6023306">
        <ele>19.3638</ele>
        <time>2013-05-05T14:27:24Z</time>
      </trkpt>
      <trkpt lat="59.942219" lon="17.6023521">
        <ele>19.3638</ele>
        <time>2013-05-05T14:27:25Z</time>
      </trkpt>
      <trkpt lat="59.9422745" lon="17.6023733">
        <ele>19.3638</ele>
        <time>2013-05-05T14:27:26Z</time>
      </trkpt>
      <trkpt lat="59.9423286" lon="17.6023956">
        <ele>19.3638</ele>
        <time>2013-05-05T14:27:27Z</time>
      </trkpt>
      <trkpt lat="59.9423811" lon="17.6024179">
        <ele>19.3638</ele>
        <time>2013-05-05T14:27:28Z</time>
      </trkpt>
      <trkpt lat="59.9424322" lon="17.6024385">
        <ele>19.3638</ele>
        <time>2013-05-05T14:27:29Z</time>
      </trkpt>
      <trkpt lat="59.9424814" lon="17.6024572">
        <ele>19.3638</ele>
        <time>2013-05-05T14:27:30Z</time>
      </trkpt>
      <trkpt lat="59.9425281" lon="17.6024763">
        <ele>19.3638</ele>
        <time>2013-05-05T14:27:31Z</time>
      </trkpt>
      <trkpt lat="59.9425731" lon="17.6024959">
        <ele>18.8831</ele>
        <time>2013-05-05T14:27:32Z</time>
      </trkpt>
      <trkpt lat="59.9426192" lon="17.602513">
        <ele>19.3638</ele>
        <time>2013-05-05T14:27:33Z</time>
      </trkpt>
      <trkpt lat="59.9426661" lon="17.6025309">
        <ele>19.3638</ele>
        <time>2013-05-05T14:27:34Z</time>
      </trkpt>
      <trkpt lat="59.9427119" lon="17.6025479">
        <ele>19.3638</ele>
        <time>2013-05-05T14:27:35Z</time>
      </trkpt>
      <trkpt lat="59.9427576" lon="17.6025646">
        <ele>19.3638</ele>
        <time>2013-05-05T14:27:36Z</time>
      </trkpt>
      <trkpt lat="59.9428049" lon="17.6025847">
        <ele>19.3638</ele>
        <time>2013-05-05T14:27:37Z</time>
      </trkpt>
      <trkpt lat="59.9428524" lon="17.6026038">
        <ele>19.3638</ele>
        <time>2013-05-05T14:27:38Z</time>
      </trkpt>
      <trkpt lat="59.9428979" lon="17.6026204">
        <ele>19.3638</ele>
        <time>2013-05-05T14:27:39Z</time>
      </trkpt>
      <trkpt lat="59.9429417" lon="17.6026388">
        <ele>19.3638</ele>
        <time>2013-05-05T14:27:40Z</time>
      </trkpt>
      <trkpt lat="59.9429862" lon="17.6026575">
        <ele>19.3638</ele>
        <time>2013-05-05T14:27:41Z</time>
      </trkpt>
      <trkpt lat="59.943031" lon="17.6026765">
        <ele>19.3638</ele>
        <time>2013-05-05T14:27:42Z</time>
      </trkpt>
      <trkpt lat="59.9430741" lon="17.602696">
        <ele>19.3638</ele>
        <time>2013-05-05T14:27:43Z</time>
      </trkpt>
      <trkpt lat="59.9431192" lon="17.6027127">
        <ele>19.8444</ele>
        <time>2013-05-05T14:27:44Z</time>
      </trkpt>
      <trkpt lat="59.9431645" lon="17.602729">
        <ele>19.8444</ele>
        <time>2013-05-05T14:27:45Z</time>
      </trkpt>
      <trkpt lat="59.9432082" lon="17.6027482">
        <ele>19.3638</ele>
        <time>2013-05-05T14:27:46Z</time>
      </trkpt>
      <trkpt lat="59.9432528" lon="17.6027678">
        <ele>19.3638</ele>
        <time>2013-05-05T14:27:47Z</time>
      </trkpt>
      <trkpt lat="59.9432974" lon="17.6027877">
        <ele>19.3638</ele>
        <time>2013-05-05T14:27:48Z</time>
      </trkpt>
      <trkpt lat="59.943341" lon="17.6028073">
        <ele>19.3638</ele>
        <time>2013-05-05T14:27:49Z</time>
      </trkpt>
      <trkpt lat="59.9433829" lon="17.6028262">
        <ele>19.8444</ele>
        <time>2013-05-05T14:27:50Z</time>
      </trkpt>
      <trkpt lat="59.9434229" lon="17.6028463">
        <ele>19.8444</ele>
        <time>2013-05-05T14:27:51Z</time>
      </trkpt>
      <trkpt lat="59.9434621" lon="17.6028635">
        <ele>19.8444</ele>
        <time>2013-05-05T14:27:52Z</time>
      </trkpt>
      <trkpt lat="59.9435" lon="17.602879">
        <ele>19.8444</ele>
        <time>2013-05-05T14:27:53Z</time>
      </trkpt>
      <trkpt lat="59.9435372" lon="17.602897">
        <ele>19.8444</ele>
        <time>2013-05-05T14:27:54Z</time>
      </trkpt>
      <trkpt lat="59.9435746" lon="17.6029189">
        <ele>19.8444</ele>
        <time>2013-05-05T14:27:55Z</time>
      </trkpt>
      <trkpt lat="59.9436131" lon="17.6029395">
        <ele>20.325</ele>
        <time>2013-05-05T14:27:56Z</time>
      </trkpt>
      <trkpt lat="59.9436522" lon="17.6029585">
        <ele>20.325</ele>
        <time>2013-05-05T14:27:57Z</time>
      </trkpt>
      <trkpt lat="59.9436917" lon="17.6029774">
        <ele>20.325</ele>
        <time>2013-05-05T14:27:58Z</time>
      </trkpt>
      <trkpt lat="59.9437312" lon="17.602999">
        <ele>20.325</ele>
        <time>2013-05-05T14:27:59Z</time>
      </trkpt>
      <trkpt lat="59.9437708" lon="17.6030225">
        <ele>20.325</ele>
        <time>2013-05-05T14:28:00Z</time>
      </trkpt>
      <trkpt lat="59.9438098" lon="17.6030479">
        <ele>20.8057</ele>
        <time>2013-05-05T14:28:01Z</time>
      </trkpt>
      <trkpt lat="59.9438474" lon="17.6030794">
        <ele>20.8057</ele>
        <time>2013-05-05T14:28:02Z</time>
      </trkpt>
      <trkpt lat="59.9438837" lon="17.6031157">
        <ele>20.8057</ele>
        <time>2013-05-05T14:28:03Z</time>
      </trkpt>
      <trkpt lat="59.9439201" lon="17.6031545">
        <ele>20.8057</ele>
        <time>2013-05-05T14:28:04Z</time>
      </trkpt>
      <trkpt lat="59.9439575" lon="17.6031931">
        <ele>20.8057</ele>
        <time>2013-05-05T14:28:05Z</time>
      </trkpt>
      <trkpt lat="59.9439953" lon="17.6032306">
        <ele>20.325</ele>
        <time>2013-05-05T14:28:06Z</time>
      </trkpt>
      <trkpt lat="59.9440344" lon="17.6032687">
        <ele>20.325</ele>
        <time>2013-05-05T14:28:07Z</time>
      </trkpt>
      <trkpt lat="59.9440734" lon="17.6033086">
        <ele>20.325</ele>
        <time>2013-05-05T14:28:08Z</time>
      </trkpt>
      <trkpt lat="59.9441118" lon="17.6033497">
        <ele>20.325</ele>
        <time>2013-05-05T14:28:09Z</time>
      </trkpt>
      <trkpt lat="59.9441531" lon="17.6033911">
        <ele>20.325</ele>
        <time>2013-05-05T14:28:10Z</time>
      </trkpt>
      <trkpt lat="59.9441947" lon="17.6034321">
        <ele>20.325</ele>
        <time>2013-05-05T14:28:11Z</time>
      </trkpt>
      <trkpt lat="59.9442367" lon="17.6034737">
        <ele>20.325</ele>
        <time>2013-05-05T14:28:12Z</time>
      </trkpt>
      <trkpt lat="59.9442786" lon="17.6035189">
        <ele>20.325</ele>
        <time>2013-05-05T14:28:13Z</time>
      </trkpt>
      <trkpt lat="59.944319" lon="17.6035657">
        <ele>20.325</ele>
        <time>2013-05-05T14:28:14Z</time>
      </trkpt>
      <trkpt lat="59.9443589" lon="17.6036096">
        <ele>20.325</ele>
        <time>2013-05-05T14:28:15Z</time>
      </trkpt>
      <trkpt lat="59.9443981" lon="17.6036518">
        <ele>20.325</ele>
        <time>2013-05-05T14:28:16Z</time>
      </trkpt>
      <trkpt lat="59.9444366" lon="17.6036923">
        <ele>20.325</ele>
        <time>2013-05-05T14:28:17Z</time>
      </trkpt>
      <trkpt lat="59.9444748" lon="17.6037316">
        <ele>20.8057</ele>
        <time>2013-05-05T14:28:18Z</time>
      </trkpt>
      <trkpt lat="59.9445134" lon="17.6037722">
        <ele>20.8057</ele>
        <time>2013-05-05T14:28:19Z</time>
      </trkpt>
      <trkpt lat="59.9445528" lon="17.6038153">
        <ele>20.8057</ele>
        <time>2013-05-05T14:28:20Z</time>
      </trkpt>
      <trkpt lat="59.9445928" lon="17.6038604">
        <ele>20.8057</ele>
        <time>2013-05-05T14:28:21Z</time>
      </trkpt>
      <trkpt lat="59.9446327" lon="17.6039041">
        <ele>20.8057</ele>
        <time>2013-05-05T14:28:22Z</time>
      </trkpt>
      <trkpt lat="59.9446713" lon="17.6039459">
        <ele>20.8057</ele>
        <time>2013-05-05T14:28:23Z</time>
      </trkpt>
      <trkpt lat="59.9447086" lon="17.6039877">
        <ele>20.8057</ele>
        <time>2013-05-05T14:28:24Z</time>
      </trkpt>
      <trkpt lat="59.9447443" lon="17.6040284">
        <ele>20.8057</ele>
        <time>2013-05-05T14:28:25Z</time>
      </trkpt>
      <trkpt lat="59.9447806" lon="17.6040667">
        <ele>20.8057</ele>
        <time>2013-05-05T14:28:26Z</time>
      </trkpt>
      <trkpt lat="59.9448179" lon="17.6041049">
        <ele>20.8057</ele>
        <time>2013-05-05T14:28:27Z</time>
      </trkpt>
      <trkpt lat="59.944856" lon="17.6041454">
        <ele>20.8057</ele>
        <time>2013-05-05T14:28:28Z</time>
      </trkpt>
      <trkpt lat="59.9448949" lon="17.6041878">
        <ele>20.8057</ele>
        <time>2013-05-05T14:28:29Z</time>
      </trkpt>
      <trkpt lat="59.9449352" lon="17.6042304">
        <ele>20.8057</ele>
        <time>2013-05-05T14:28:30Z</time>
      </trkpt>
      <trkpt lat="59.9449767" lon="17.6042734">
        <ele>20.8057</ele>
        <time>2013-05-05T14:28:31Z</time>
      </trkpt>
      <trkpt lat="59.9450177" lon="17.6043174">
        <ele>20.8057</ele>
        <time>2013-05-05T14:28:32Z</time>
      </trkpt>
      <trkpt lat="59.9450577" lon="17.6043609">
        <ele>20.8057</ele>
        <time>2013-05-05T14:28:33Z</time>
      </trkpt>
      <trkpt lat="59.9450981" lon="17.6044065">
        <ele>20.8057</ele>
        <time>2013-05-05T14:28:34Z</time>
      </trkpt>
      <trkpt lat="59.9451405" lon="17.604453">
        <ele>20.8057</ele>
        <time>2013-05-05T14:28:35Z</time>
      </trkpt>
      <trkpt lat="59.9451841" lon="17.6044981">
        <ele>20.8057</ele>
        <time>2013-05-05T14:28:36Z</time>
      </trkpt>
      <trkpt lat="59.945227" lon="17.6045422">
        <ele>20.8057</ele>
        <time>2013-05-05T14:28:37Z</time>
      </trkpt>
      <trkpt lat="59.945269" lon="17.6045863">
        <ele>21.2864</ele>
        <time>2013-05-05T14:28:38Z</time>
      </trkpt>
      <trkpt lat="59.94531" lon="17.6046299">
        <ele>21.2864</ele>
        <time>2013-05-05T14:28:39Z</time>
      </trkpt>
      <trkpt lat="59.9453515" lon="17.6046738">
        <ele>21.2864</ele>
        <time>2013-05-05T14:28:40Z</time>
      </trkpt>
      <trkpt lat="59.9453934" lon="17.6047171">
        <ele>21.2864</ele>
        <time>2013-05-05T14:28:41Z</time>
      </trkpt>
      <trkpt lat="59.9454343" lon="17.6047594">
        <ele>21.2864</ele>
        <time>2013-05-05T14:28:42Z</time>
      </trkpt>
      <trkpt lat="59.9454755" lon="17.6048022">
        <ele>21.2864</ele>
        <time>2013-05-05T14:28:43Z</time>
      </trkpt>
      <trkpt lat="59.9455171" lon="17.6048451">
        <ele>21.2864</ele>
        <time>2013-05-05T14:28:44Z</time>
      </trkpt>
      <trkpt lat="59.9455603" lon="17.6048892">
        <ele>21.2864</ele>
        <time>2013-05-05T14:28:45Z</time>
      </trkpt>
      <trkpt lat="59.945604" lon="17.6049364">
        <ele>21.2864</ele>
        <time>2013-05-05T14:28:46Z</time>
      </trkpt>
      <trkpt lat="59.9456467" lon="17.6049855">
        <ele>21.2864</ele>
        <time>2013-05-05T14:28:47Z</time>
      </trkpt>
      <trkpt lat="59.9456893" lon="17.6050328">
        <ele>20.8057</ele>
        <time>2013-05-05T14:28:48Z</time>
      </trkpt>
      <trkpt lat="59.9457322" lon="17.6050773">
        <ele>20.8057</ele>
        <time>2013-05-05T14:28:49Z</time>
      </trkpt>
      <trkpt lat="59.9457747" lon="17.6051215">
        <ele>21.2864</ele>
        <time>2013-05-05T14:28:50Z</time>
      </trkpt>
      <trkpt lat="59.9458174" lon="17.6051658">
        <ele>21.2864</ele>
        <time>2013-05-05T14:28:51Z</time>
      </trkpt>
      <trkpt lat="59.9458594" lon="17.6052093">
        <ele>20.8057</ele>
        <time>2013-05-05T14:28:52Z</time>
      </trkpt>
      <trkpt lat="59.945901" lon="17.6052528">
        <ele>20.8057</ele>
        <time>2013-05-05T14:28:53Z</time>
      </trkpt>
      <trkpt lat="59.945943" lon="17.6052975">
        <ele>20.8057</ele>
        <time>2013-05-05T14:28:54Z</time>
      </trkpt>
      <trkpt lat="59.9459861" lon="17.605344">
        <ele>20.8057</ele>
        <time>2013-05-05T14:28:55Z</time>
      </trkpt>
      <trkpt lat="59.9460295" lon="17.6053906">
        <ele>20.8057</ele>
        <time>2013-05-05T14:28:56Z</time>
      </trkpt>
      <trkpt lat="59.9460728" lon="17.6054385">
        <ele>20.8057</ele>
        <time>2013-05-05T14:28:57Z</time>
      </trkpt>
      <trkpt lat="59.9461169" lon="17.6054864">
        <ele>20.8057</ele>
        <time>2013-05-05T14:28:58Z</time>
      </trkpt>
      <trkpt lat="59.9461607" lon="17.6055331">
        <ele>20.8057</ele>
        <time>2013-05-05T14:28:59Z</time>
      </trkpt>
      <trkpt lat="59.9462039" lon="17.6055797">
        <ele>20.8057</ele>
        <time>2013-05-05T14:29:00Z</time>
      </trkpt>
      <trkpt lat="59.9462476" lon="17.6056265">
        <ele>20.8057</ele>
        <time>2013-05-05T14:29:01Z</time>
      </trkpt>
      <trkpt lat="59.9462921" lon="17.6056739">
        <ele>20.8057</ele>
        <time>2013-05-05T14:29:02Z</time>
      </trkpt>
      <trkpt lat="59.9463367" lon="17.6057215">
        <ele>20.8057</ele>
        <time>2013-05-05T14:29:03Z</time>
      </trkpt>
      <trkpt lat="59.9463803" lon="17.6057689">
        <ele>20.8057</ele>
        <time>2013-05-05T14:29:04Z</time>
      </trkpt>
      <trkpt lat="59.9464237" lon="17.6058151">
        <ele>20.8057</ele>
        <time>2013-05-05T14:29:05Z</time>
      </trkpt>
      <trkpt lat="59.9464677" lon="17.6058599">
        <ele>20.8057</ele>
        <time>2013-05-05T14:29:06Z</time>
      </trkpt>
      <trkpt lat="59.9465118" lon="17.6059045">
        <ele>20.8057</ele>
        <time>2013-05-05T14:29:07Z</time>
      </trkpt>
      <trkpt lat="59.9465545" lon="17.6059501">
        <ele>20.8057</ele>
        <time>2013-05-05T14:29:08Z</time>
      </trkpt>
      <trkpt lat="59.9465958" lon="17.6059959">
        <ele>20.8057</ele>
        <time>2013-05-05T14:29:09Z</time>
      </trkpt>
      <trkpt lat="59.9466371" lon="17.6060407">
        <ele>20.8057</ele>
        <time>2013-05-05T14:29:10Z</time>
      </trkpt>
      <trkpt lat="59.9466785" lon="17.6060868">
        <ele>20.8057</ele>
        <time>2013-05-05T14:29:11Z</time>
      </trkpt>
      <trkpt lat="59.9467206" lon="17.6061351">
        <ele>20.8057</ele>
        <time>2013-05-05T14:29:12Z</time>
      </trkpt>
      <trkpt lat="59.9467631" lon="17.6061848">
        <ele>20.8057</ele>
        <time>2013-05-05T14:29:13Z</time>
      </trkpt>
      <trkpt lat="59.9468066" lon="17.6062344">
        <ele>20.8057</ele>
        <time>2013-05-05T14:29:14Z</time>
      </trkpt>
      <trkpt lat="59.9468505" lon="17.6062851">
        <ele>20.8057</ele>
        <time>2013-05-05T14:29:15Z</time>
      </trkpt>
      <trkpt lat="59.9468935" lon="17.606337">
        <ele>20.8057</ele>
        <time>2013-05-05T14:29:16Z</time>
      </trkpt>
      <trkpt lat="59.9469377" lon="17.606391">
        <ele>20.8057</ele>
        <time>2013-05-05T14:29:17Z</time>
      </trkpt>
      <trkpt lat="59.9469819" lon="17.6064493">
        <ele>20.8057</ele>
        <time>2013-05-05T14:29:18Z</time>
      </trkpt>
      <trkpt lat="59.9470242" lon="17.6065087">
        <ele>20.8057</ele>
        <time>2013-05-05T14:29:19Z</time>
      </trkpt>
      <trkpt lat="59.9470655" lon="17.6065674">
        <ele>20.8057</ele>
        <time>2013-05-05T14:29:20Z</time>
      </trkpt>
      <trkpt lat="59.9471055" lon="17.6066241">
        <ele>21.2864</ele>
        <time>2013-05-05T14:29:21Z</time>
      </trkpt>
      <trkpt lat="59.9471442" lon="17.6066789">
        <ele>21.2864</ele>
        <time>2013-05-05T14:29:22Z</time>
      </trkpt>
      <trkpt lat="59.9471809" lon="17.6067318">
        <ele>21.2864</ele>
        <time>2013-05-05T14:29:23Z</time>
      </trkpt>
      <trkpt lat="59.9472178" lon="17.6067857">
        <ele>21.2864</ele>
        <time>2013-05-05T14:29:24Z</time>
      </trkpt>
      <trkpt lat="59.9472557" lon="17.6068401">
        <ele>21.2864</ele>
        <time>2013-05-05T14:29:25Z</time>
      </trkpt>
      <trkpt lat="59.9472943" lon="17.6068971">
        <ele>21.2864</ele>
        <time>2013-05-05T14:29:26Z</time>
      </trkpt>
      <trkpt lat="59.9473324" lon="17.6069571">
        <ele>21.2864</ele>
        <time>2013-05-05T14:29:27Z</time>
      </trkpt>
      <trkpt lat="59.9473711" lon="17.6070162">
        <ele>21.2864</ele>
        <time>2013-05-05T14:29:28Z</time>
      </trkpt>
      <trkpt lat="59.9474104" lon="17.6070758">
        <ele>21.2864</ele>
        <time>2013-05-05T14:29:29Z</time>
      </trkpt>
      <trkpt lat="59.9474514" lon="17.6071393">
        <ele>21.2864</ele>
        <time>2013-05-05T14:29:30Z</time>
      </trkpt>
      <trkpt lat="59.9474934" lon="17.6072051">
        <ele>21.767</ele>
        <time>2013-05-05T14:29:31Z</time>
      </trkpt>
      <trkpt lat="59.9475344" lon="17.6072688">
        <ele>21.767</ele>
        <time>2013-05-05T14:29:32Z</time>
      </trkpt>
      <trkpt lat="59.9475742" lon="17.6073327">
        <ele>21.767</ele>
        <time>2013-05-05T14:29:33Z</time>
      </trkpt>
      <trkpt lat="59.9476149" lon="17.6073968">
        <ele>21.767</ele>
        <time>2013-05-05T14:29:34Z</time>
      </trkpt>
      <trkpt lat="59.9476563" lon="17.6074589">
        <ele>21.767</ele>
        <time>2013-05-05T14:29:35Z</time>
      </trkpt>
      <trkpt lat="59.9476976" lon="17.6075218">
        <ele>21.767</ele>
        <time>2013-05-05T14:29:36Z</time>
      </trkpt>
      <trkpt lat="59.9477388" lon="17.6075848">
        <ele>21.767</ele>
        <time>2013-05-05T14:29:37Z</time>
      </trkpt>
      <trkpt lat="59.9477782" lon="17.6076441">
        <ele>21.767</ele>
        <time>2013-05-05T14:29:38Z</time>
      </trkpt>
      <trkpt lat="59.9478152" lon="17.607701">
        <ele>21.767</ele>
        <time>2013-05-05T14:29:39Z</time>
      </trkpt>
      <trkpt lat="59.9478518" lon="17.6077555">
        <ele>21.767</ele>
        <time>2013-05-05T14:29:40Z</time>
      </trkpt>
      <trkpt lat="59.9478871" lon="17.6078086">
        <ele>21.767</ele>
        <time>2013-05-05T14:29:41Z</time>
      </trkpt>
      <trkpt lat="59.9479211" lon="17.6078596">
        <ele>21.767</ele>
        <time>2013-05-05T14:29:42Z</time>
      </trkpt>
      <trkpt lat="59.947955" lon="17.6079087">
        <ele>21.767</ele>
        <time>2013-05-05T14:29:43Z</time>
      </trkpt>
      <trkpt lat="59.9479901" lon="17.6079585">
        <ele>21.767</ele>
        <time>2013-05-05T14:29:44Z</time>
      </trkpt>
      <trkpt lat="59.9480284" lon="17.6080104">
        <ele>21.767</ele>
        <time>2013-05-05T14:29:45Z</time>
      </trkpt>
      <trkpt lat="59.9480684" lon="17.6080612">
        <ele>21.767</ele>
        <time>2013-05-05T14:29:46Z</time>
      </trkpt>
      <trkpt lat="59.9481076" lon="17.6081096">
        <ele>21.767</ele>
        <time>2013-05-05T14:29:47Z</time>
      </trkpt>
      <trkpt lat="59.9481456" lon="17.6081574">
        <ele>21.767</ele>
        <time>2013-05-05T14:29:48Z</time>
      </trkpt>
      <trkpt lat="59.9481834" lon="17.6082031">
        <ele>21.767</ele>
        <time>2013-05-05T14:29:49Z</time>
      </trkpt>
      <trkpt lat="59.9482207" lon="17.6082455">
        <ele>21.767</ele>
        <time>2013-05-05T14:29:50Z</time>
      </trkpt>
      <trkpt lat="59.9482576" lon="17.6082859">
        <ele>21.767</ele>
        <time>2013-05-05T14:29:51Z</time>
      </trkpt>
      <trkpt lat="59.9482953" lon="17.6083224">
        <ele>21.767</ele>
        <time>2013-05-05T14:29:52Z</time>
      </trkpt>
      <trkpt lat="59.9483322" lon="17.6083557">
        <ele>21.2864</ele>
        <time>2013-05-05T14:29:53Z</time>
      </trkpt>
      <trkpt lat="59.9483696" lon="17.60839">
        <ele>21.2864</ele>
        <time>2013-05-05T14:29:54Z</time>
      </trkpt>
      <trkpt lat="59.9484083" lon="17.6084278">
        <ele>21.2864</ele>
        <time>2013-05-05T14:29:55Z</time>
      </trkpt>
      <trkpt lat="59.9484499" lon="17.6084678">
        <ele>21.2864</ele>
        <time>2013-05-05T14:29:56Z</time>
      </trkpt>
      <trkpt lat="59.9484951" lon="17.6085071">
        <ele>21.2864</ele>
        <time>2013-05-05T14:29:57Z</time>
      </trkpt>
      <trkpt lat="59.9485421" lon="17.6085468">
        <ele>21.2864</ele>
        <time>2013-05-05T14:29:58Z</time>
      </trkpt>
      <trkpt lat="59.94859" lon="17.6085874">
        <ele>21.2864</ele>
        <time>2013-05-05T14:29:59Z</time>
      </trkpt>
      <trkpt lat="59.9486377" lon="17.6086278">
        <ele>21.2864</ele>
        <time>2013-05-05T14:30:00Z</time>
      </trkpt>
      <trkpt lat="59.9486858" lon="17.6086664">
        <ele>21.2864</ele>
        <time>2013-05-05T14:30:01Z</time>
      </trkpt>
      <trkpt lat="59.9487375" lon="17.6087064">
        <ele>21.2864</ele>
        <time>2013-05-05T14:30:02Z</time>
      </trkpt>
      <trkpt lat="59.9487882" lon="17.608748">
        <ele>21.2864</ele>
        <time>2013-05-05T14:30:03Z</time>
      </trkpt>
      <trkpt lat="59.9488386" lon="17.608789">
        <ele>21.2864</ele>
        <time>2013-05-05T14:30:04Z</time>
      </trkpt>
      <trkpt lat="59.9488908" lon="17.6088297">
        <ele>21.2864</ele>
        <time>2013-05-05T14:30:05Z</time>
      </trkpt>
      <trkpt lat="59.9489423" lon="17.6088697">
        <ele>21.2864</ele>
        <time>2013-05-05T14:30:06Z</time>
      </trkpt>
      <trkpt lat="59.9489911" lon="17.6089083">
        <ele>21.2864</ele>
        <time>2013-05-05T14:30:07Z</time>
      </trkpt>
      <trkpt lat="59.94904" lon="17.6089457">
        <ele>21.2864</ele>
        <time>2013-05-05T14:30:08Z</time>
      </trkpt>
      <trkpt lat="59.9490856" lon="17.6089834">
        <ele>21.2864</ele>
        <time>2013-05-05T14:30:09Z</time>
      </trkpt>
      <trkpt lat="59.9491289" lon="17.6090205">
        <ele>21.2864</ele>
        <time>2013-05-05T14:30:10Z</time>
      </trkpt>
      <trkpt lat="59.949172" lon="17.6090577">
        <ele>21.2864</ele>
        <time>2013-05-05T14:30:11Z</time>
      </trkpt>
      <trkpt lat="59.9492147" lon="17.6090946">
        <ele>20.8057</ele>
        <time>2013-05-05T14:30:12Z</time>
      </trkpt>
      <trkpt lat="59.9492577" lon="17.6091313">
        <ele>20.8057</ele>
        <time>2013-05-05T14:30:13Z</time>
      </trkpt>
      <trkpt lat="59.9492997" lon="17.6091674">
        <ele>20.8057</ele>
        <time>2013-05-05T14:30:14Z</time>
      </trkpt>
      <trkpt lat="59.9493438" lon="17.6092018">
        <ele>20.8057</ele>
        <time>2013-05-05T14:30:15Z</time>
      </trkpt>
      <trkpt lat="59.9493924" lon="17.60924">
        <ele>21.2864</ele>
        <time>2013-05-05T14:30:16Z</time>
      </trkpt>
      <trkpt lat="59.9494401" lon="17.6092802">
        <ele>21.2864</ele>
        <time>2013-05-05T14:30:17Z</time>
      </trkpt>
      <trkpt lat="59.9494865" lon="17.6093188">
        <ele>21.767</ele>
        <time>2013-05-05T14:30:18Z</time>
      </trkpt>
      <trkpt lat="59.9495302" lon="17.6093581">
        <ele>21.767</ele>
        <time>2013-05-05T14:30:19Z</time>
      </trkpt>
      <trkpt lat="59.9495732" lon="17.6094004">
        <ele>21.767</ele>
        <time>2013-05-05T14:30:20Z</time>
      </trkpt>
      <trkpt lat="59.9496158" lon="17.6094443">
        <ele>21.767</ele>
        <time>2013-05-05T14:30:21Z</time>
      </trkpt>
      <trkpt lat="59.9496582" lon="17.6094923">
        <ele>21.767</ele>
        <time>2013-05-05T14:30:22Z</time>
      </trkpt>
      <trkpt lat="59.949701" lon="17.60954">
        <ele>21.2864</ele>
        <time>2013-05-05T14:30:23Z</time>
      </trkpt>
      <trkpt lat="59.9497419" lon="17.6095841">
        <ele>21.2864</ele>
        <time>2013-05-05T14:30:24Z</time>
      </trkpt>
      <trkpt lat="59.949783" lon="17.6096327">
        <ele>21.767</ele>
        <time>2013-05-05T14:30:25Z</time>
      </trkpt>
      <trkpt lat="59.9498244" lon="17.6096835">
        <ele>21.767</ele>
        <time>2013-05-05T14:30:26Z</time>
      </trkpt>
      <trkpt lat="59.9498651" lon="17.6097356">
        <ele>21.767</ele>
        <time>2013-05-05T14:30:27Z</time>
      </trkpt>
      <trkpt lat="59.9499037" lon="17.6097915">
        <ele>21.767</ele>
        <time>2013-05-05T14:30:28Z</time>
      </trkpt>
      <trkpt lat="59.9499405" lon="17.609848">
        <ele>21.767</ele>
        <time>2013-05-05T14:30:29Z</time>
      </trkpt>
      <trkpt lat="59.9499779" lon="17.6099026">
        <ele>22.2476</ele>
        <time>2013-05-05T14:30:30Z</time>
      </trkpt>
      <trkpt lat="59.950015" lon="17.6099596">
        <ele>22.2476</ele>
        <time>2013-05-05T14:30:31Z</time>
      </trkpt>
      <trkpt lat="59.9500511" lon="17.6100187">
        <ele>22.2476</ele>
        <time>2013-05-05T14:30:32Z</time>
      </trkpt>
      <trkpt lat="59.9500864" lon="17.610078">
        <ele>22.2476</ele>
        <time>2013-05-05T14:30:33Z</time>
      </trkpt>
      <trkpt lat="59.9501211" lon="17.6101393">
        <ele>22.2476</ele>
        <time>2013-05-05T14:30:34Z</time>
      </trkpt>
      <trkpt lat="59.9501569" lon="17.6102014">
        <ele>22.2476</ele>
        <time>2013-05-05T14:30:35Z</time>
      </trkpt>
      <trkpt lat="59.9501923" lon="17.6102658">
        <ele>22.2476</ele>
        <time>2013-05-05T14:30:36Z</time>
      </trkpt>
      <trkpt lat="59.9502288" lon="17.6103349">
        <ele>22.7283</ele>
        <time>2013-05-05T14:30:37Z</time>
      </trkpt>
      <trkpt lat="59.9502638" lon="17.6104039">
        <ele>22.7283</ele>
        <time>2013-05-05T14:30:38Z</time>
      </trkpt>
      <trkpt lat="59.9502989" lon="17.6104711">
        <ele>22.7283</ele>
        <time>2013-05-05T14:30:39Z</time>
      </trkpt>
      <trkpt lat="59.9503361" lon="17.6105398">
        <ele>22.7283</ele>
        <time>2013-05-05T14:30:40Z</time>
      </trkpt>
      <trkpt lat="59.9503729" lon="17.6106097">
        <ele>22.7283</ele>
        <time>2013-05-05T14:30:41Z</time>
      </trkpt>
      <trkpt lat="59.9504094" lon="17.6106848">
        <ele>22.7283</ele>
        <time>2013-05-05T14:30:42Z</time>
      </trkpt>
      <trkpt lat="59.9504459" lon="17.61076">
        <ele>23.209</ele>
        <time>2013-05-05T14:30:43Z</time>
      </trkpt>
      <trkpt lat="59.9504803" lon="17.6108291">
        <ele>23.209</ele>
        <time>2013-05-05T14:30:44Z</time>
      </trkpt>
      <trkpt lat="59.9505133" lon="17.6108938">
        <ele>23.209</ele>
        <time>2013-05-05T14:30:45Z</time>
      </trkpt>
      <trkpt lat="59.9505445" lon="17.6109561">
        <ele>23.209</ele>
        <time>2013-05-05T14:30:46Z</time>
      </trkpt>
      <trkpt lat="59.9505756" lon="17.6110189">
        <ele>23.209</ele>
        <time>2013-05-05T14:30:47Z</time>
      </trkpt>
      <trkpt lat="59.9506092" lon="17.6110826">
        <ele>23.209</ele>
        <time>2013-05-05T14:30:48Z</time>
      </trkpt>
      <trkpt lat="59.9506443" lon="17.6111474">
        <ele>23.209</ele>
        <time>2013-05-05T14:30:49Z</time>
      </trkpt>
      <trkpt lat="59.9506806" lon="17.6112152">
        <ele>23.209</ele>
        <time>2013-05-05T14:30:50Z</time>
      </trkpt>
      <trkpt lat="59.9507174" lon="17.6112862">
        <ele>23.6896</ele>
        <time>2013-05-05T14:30:51Z</time>
      </trkpt>
      <trkpt lat="59.9507556" lon="17.6113591">
        <ele>23.6896</ele>
        <time>2013-05-05T14:30:52Z</time>
      </trkpt>
      <trkpt lat="59.9507942" lon="17.6114286">
        <ele>23.6896</ele>
        <time>2013-05-05T14:30:53Z</time>
      </trkpt>
      <trkpt lat="59.9508292" lon="17.6114944">
        <ele>23.6896</ele>
        <time>2013-05-05T14:30:54Z</time>
      </trkpt>
      <trkpt lat="59.9508633" lon="17.6115596">
        <ele>24.1703</ele>
        <time>2013-05-05T14:30:55Z</time>
      </trkpt>
      <trkpt lat="59.9508968" lon="17.6116238">
        <ele>24.1703</ele>
        <time>2013-05-05T14:30:56Z</time>
      </trkpt>
      <trkpt lat="59.9509292" lon="17.6116874">
        <ele>24.1703</ele>
        <time>2013-05-05T14:30:57Z</time>
      </trkpt>
      <trkpt lat="59.9509616" lon="17.6117493">
        <ele>24.1703</ele>
        <time>2013-05-05T14:30:58Z</time>
      </trkpt>
      <trkpt lat="59.9509956" lon="17.6118083">
        <ele>24.651</ele>
        <time>2013-05-05T14:30:59Z</time>
      </trkpt>
      <trkpt lat="59.9510299" lon="17.6118679">
        <ele>24.651</ele>
        <time>2013-05-05T14:31:00Z</time>
      </trkpt>
      <trkpt lat="59.9510645" lon="17.6119297">
        <ele>24.651</ele>
        <time>2013-05-05T14:31:01Z</time>
      </trkpt>
      <trkpt lat="59.9511003" lon="17.6119917">
        <ele>24.651</ele>
        <time>2013-05-05T14:31:02Z</time>
      </trkpt>
      <trkpt lat="59.9511379" lon="17.6120522">
        <ele>24.651</ele>
        <time>2013-05-05T14:31:03Z</time>
      </trkpt>
      <trkpt lat="59.9511765" lon="17.6121124">
        <ele>24.651</ele>
        <time>2013-05-05T14:31:04Z</time>
      </trkpt>
      <trkpt lat="59.9512156" lon="17.6121745">
        <ele>24.651</ele>
        <time>2013-05-05T14:31:05Z</time>
      </trkpt>
      <trkpt lat="59.9512555" lon="17.6122371">
        <ele>24.651</ele>
        <time>2013-05-05T14:31:06Z</time>
      </trkpt>
      <trkpt lat="59.9512965" lon="17.6122969">
        <ele>24.651</ele>
        <time>2013-05-05T14:31:07Z</time>
      </trkpt>
      <trkpt lat="59.9513386" lon="17.6123539">
        <ele>24.651</ele>
        <time>2013-05-05T14:31:08Z</time>
      </trkpt>
      <trkpt lat="59.9513805" lon="17.6124072">
        <ele>25.1317</ele>
        <time>2013-05-05T14:31:09Z</time>
      </trkpt>
      <trkpt lat="59.9514216" lon="17.6124558">
        <ele>24.651</ele>
        <time>2013-05-05T14:31:10Z</time>
      </trkpt>
      <trkpt lat="59.9514602" lon="17.6125029">
        <ele>24.651</ele>
        <time>2013-05-05T14:31:11Z</time>
      </trkpt>
      <trkpt lat="59.9514996" lon="17.6125518">
        <ele>24.651</ele>
        <time>2013-05-05T14:31:12Z</time>
      </trkpt>
      <trkpt lat="59.951539" lon="17.6126041">
        <ele>24.651</ele>
        <time>2013-05-05T14:31:13Z</time>
      </trkpt>
      <trkpt lat="59.9515803" lon="17.6126554">
        <ele>24.651</ele>
        <time>2013-05-05T14:31:14Z</time>
      </trkpt>
      <trkpt lat="59.9516226" lon="17.6127029">
        <ele>24.651</ele>
        <time>2013-05-05T14:31:15Z</time>
      </trkpt>
      <trkpt lat="59.9516653" lon="17.6127495">
        <ele>24.651</ele>
        <time>2013-05-05T14:31:16Z</time>
      </trkpt>
      <trkpt lat="59.9517085" lon="17.6127977">
        <ele>24.1703</ele>
        <time>2013-05-05T14:31:17Z</time>
      </trkpt>
      <trkpt lat="59.9517525" lon="17.612847">
        <ele>24.1703</ele>
        <time>2013-05-05T14:31:18Z</time>
      </trkpt>
      <trkpt lat="59.9517975" lon="17.6128951">
        <ele>24.1703</ele>
        <time>2013-05-05T14:31:19Z</time>
      </trkpt>
      <trkpt lat="59.9518435" lon="17.6129427">
        <ele>24.1703</ele>
        <time>2013-05-05T14:31:20Z</time>
      </trkpt>
      <trkpt lat="59.9518877" lon="17.6129931">
        <ele>24.1703</ele>
        <time>2013-05-05T14:31:21Z</time>
      </trkpt>
      <trkpt lat="59.9519317" lon="17.6130428">
        <ele>24.1703</ele>
        <time>2013-05-05T14:31:22Z</time>
      </trkpt>
      <trkpt lat="59.9519757" lon="17.6130864">
        <ele>24.1703</ele>
        <time>2013-05-05T14:31:23Z</time>
      </trkpt>
      <trkpt lat="59.9520177" lon="17.6131293">
        <ele>24.1703</ele>
        <time>2013-05-05T14:31:24Z</time>
      </trkpt>
      <trkpt lat="59.9520581" lon="17.6131749">
        <ele>24.1703</ele>
        <time>2013-05-05T14:31:25Z</time>
      </trkpt>
      <trkpt lat="59.9520989" lon="17.6132204">
        <ele>24.1703</ele>
        <time>2013-05-05T14:31:26Z</time>
      </trkpt>
      <trkpt lat="59.9521405" lon="17.613265">
        <ele>24.1703</ele>
        <time>2013-05-05T14:31:27Z</time>
      </trkpt>
      <trkpt lat="59.9521822" lon="17.6133086">
        <ele>24.1703</ele>
        <time>2013-05-05T14:31:28Z</time>
      </trkpt>
      <trkpt lat="59.9522228" lon="17.6133536">
        <ele>24.1703</ele>
        <time>2013-05-05T14:31:29Z</time>
      </trkpt>
      <trkpt lat="59.9522633" lon="17.6134007">
        <ele>24.1703</ele>
        <time>2013-05-05T14:31:30Z</time>
      </trkpt>
      <trkpt lat="59.9523045" lon="17.6134466">
        <ele>24.1703</ele>
        <time>2013-05-05T14:31:31Z</time>
      </trkpt>
      <trkpt lat="59.9523455" lon="17.6134924">
        <ele>24.1703</ele>
        <time>2013-05-05T14:31:32Z</time>
      </trkpt>
      <trkpt lat="59.9523856" lon="17.6135406">
        <ele>24.1703</ele>
        <time>2013-05-05T14:31:33Z</time>
      </trkpt>
      <trkpt lat="59.9524263" lon="17.6135891">
        <ele>24.1703</ele>
        <time>2013-05-05T14:31:34Z</time>
      </trkpt>
      <trkpt lat="59.9524668" lon="17.6136354">
        <ele>24.1703</ele>
        <time>2013-05-05T14:31:35Z</time>
      </trkpt>
      <trkpt lat="59.9525058" lon="17.6136809">
        <ele>24.1703</ele>
        <time>2013-05-05T14:31:36Z</time>
      </trkpt>
      <trkpt lat="59.9525443" lon="17.6137281">
        <ele>24.1703</ele>
        <time>2013-05-05T14:31:37Z</time>
      </trkpt>
      <trkpt lat="59.9525824" lon="17.6137768">
        <ele>24.1703</ele>
        <time>2013-05-05T14:31:38Z</time>
      </trkpt>
      <trkpt lat="59.9526207" lon="17.613825">
        <ele>24.1703</ele>
        <time>2013-05-05T14:31:39Z</time>
      </trkpt>
      <trkpt lat="59.9526591" lon="17.6138735">
        <ele>24.1703</ele>
        <time>2013-05-05T14:31:40Z</time>
      </trkpt>
      <trkpt lat="59.9526968" lon="17.6139227">
        <ele>24.1703</ele>
        <time>2013-05-05T14:31:41Z</time>
      </trkpt>
      <trkpt lat="59.9527344" lon="17.6139704">
        <ele>24.1703</ele>
        <time>2013-05-05T14:31:42Z</time>
      </trkpt>
      <trkpt lat="59.9527709" lon="17.6140156">
        <ele>24.651</ele>
        <time>2013-05-05T14:31:43Z</time>
      </trkpt>
      <trkpt lat="59.9528059" lon="17.6140612">
        <ele>24.651</ele>
        <time>2013-05-05T14:31:44Z</time>
      </trkpt>
      <trkpt lat="59.9528404" lon="17.6141076">
        <ele>24.651</ele>
        <time>2013-05-05T14:31:45Z</time>
      </trkpt>
      <trkpt lat="59.9528754" lon="17.6141529">
        <ele>24.651</ele>
        <time>2013-05-05T14:31:46Z</time>
      </trkpt>
      <trkpt lat="59.9529107" lon="17.6141984">
        <ele>24.651</ele>
        <time>2013-05-05T14:31:47Z</time>
      </trkpt>
      <trkpt lat="59.9529468" lon="17.6142457">
        <ele>24.651</ele>
        <time>2013-05-05T14:31:48Z</time>
      </trkpt>
      <trkpt lat="59.9529834" lon="17.6142938">
        <ele>24.651</ele>
        <time>2013-05-05T14:31:49Z</time>
      </trkpt>
      <trkpt lat="59.9530209" lon="17.6143419">
        <ele>24.651</ele>
        <time>2013-05-05T14:31:50Z</time>
      </trkpt>
      <trkpt lat="59.9530588" lon="17.6143902">
        <ele>24.651</ele>
        <time>2013-05-05T14:31:51Z</time>
      </trkpt>
      <trkpt lat="59.953097" lon="17.6144392">
        <ele>24.651</ele>
        <time>2013-05-05T14:31:52Z</time>
      </trkpt>
      <trkpt lat="59.9531348" lon="17.614489">
        <ele>24.651</ele>
        <time>2013-05-05T14:31:53Z</time>
      </trkpt>
      <trkpt lat="59.9531728" lon="17.6145375">
        <ele>24.651</ele>
        <time>2013-05-05T14:31:54Z</time>
      </trkpt>
      <trkpt lat="59.9532111" lon="17.6145844">
        <ele>24.651</ele>
        <time>2013-05-05T14:31:55Z</time>
      </trkpt>
      <trkpt lat="59.9532481" lon="17.6146331">
        <ele>24.651</ele>
        <time>2013-05-05T14:31:56Z</time>
      </trkpt>
      <trkpt lat="59.9532847" lon="17.6146833">
        <ele>24.651</ele>
        <time>2013-05-05T14:31:57Z</time>
      </trkpt>
      <trkpt lat="59.953321" lon="17.6147364">
        <ele>24.651</ele>
        <time>2013-05-05T14:31:58Z</time>
      </trkpt>
      <trkpt lat="59.9533566" lon="17.614795">
        <ele>24.651</ele>
        <time>2013-05-05T14:31:59Z</time>
      </trkpt>
      <trkpt lat="59.953392" lon="17.6148568">
        <ele>24.651</ele>
        <time>2013-05-05T14:32:00Z</time>
      </trkpt>
      <trkpt lat="59.9534287" lon="17.6149185">
        <ele>24.651</ele>
        <time>2013-05-05T14:32:01Z</time>
      </trkpt>
      <trkpt lat="59.953465" lon="17.6149807">
        <ele>24.651</ele>
        <time>2013-05-05T14:32:02Z</time>
      </trkpt>
      <trkpt lat="59.9535001" lon="17.6150467">
        <ele>24.651</ele>
        <time>2013-05-05T14:32:03Z</time>
      </trkpt>
      <trkpt lat="59.9535328" lon="17.6151161">
        <ele>24.651</ele>
        <time>2013-05-05T14:32:04Z</time>
      </trkpt>
      <trkpt lat="59.9535645" lon="17.6151869">
        <ele>25.1317</ele>
        <time>2013-05-05T14:32:05Z</time>
      </trkpt>
      <trkpt lat="59.9535941" lon="17.6152605">
        <ele>25.1317</ele>
        <time>2013-05-05T14:32:06Z</time>
      </trkpt>
      <trkpt lat="59.9536235" lon="17.6153359">
        <ele>25.1317</ele>
        <time>2013-05-05T14:32:07Z</time>
      </trkpt>
      <trkpt lat="59.9536524" lon="17.6154106">
        <ele>25.1317</ele>
        <time>2013-05-05T14:32:08Z</time>
      </trkpt>
      <trkpt lat="59.9536813" lon="17.6154857">
        <ele>25.1317</ele>
        <time>2013-05-05T14:32:09Z</time>
      </trkpt>
      <trkpt lat="59.9537093" lon="17.6155622">
        <ele>25.1317</ele>
        <time>2013-05-05T14:32:10Z</time>
      </trkpt>
      <trkpt lat="59.9537378" lon="17.6156407">
        <ele>25.1317</ele>
        <time>2013-05-05T14:32:11Z</time>
      </trkpt>
      <trkpt lat="59.9537671" lon="17.6157208">
        <ele>25.1317</ele>
        <time>2013-05-05T14:32:12Z</time>
      </trkpt>
      <trkpt lat="59.9537964" lon="17.615799">
        <ele>25.1317</ele>
        <time>2013-05-05T14:32:13Z</time>
      </trkpt>
      <trkpt lat="59.9538256" lon="17.6158753">
        <ele>25.1317</ele>
        <time>2013-05-05T14:32:14Z</time>
      </trkpt>
      <trkpt lat="59.9538559" lon="17.615953">
        <ele>25.1317</ele>
        <time>2013-05-05T14:32:15Z</time>
      </trkpt>
      <trkpt lat="59.9538866" lon="17.6160322">
        <ele>25.1317</ele>
        <time>2013-05-05T14:32:16Z</time>
      </trkpt>
      <trkpt lat="59.9539179" lon="17.6161104">
        <ele>25.1317</ele>
        <time>2013-05-05T14:32:17Z</time>
      </trkpt>
      <trkpt lat="59.9539492" lon="17.6161856">
        <ele>25.1317</ele>
        <time>2013-05-05T14:32:18Z</time>
      </trkpt>
      <trkpt lat="59.9539797" lon="17.616259">
        <ele>25.1317</ele>
        <time>2013-05-05T14:32:19Z</time>
      </trkpt>
      <trkpt lat="59.9540094" lon="17.6163309">
        <ele>25.1317</ele>
        <time>2013-05-05T14:32:20Z</time>
      </trkpt>
      <trkpt lat="59.954039" lon="17.6164003">
        <ele>25.1317</ele>
        <time>2013-05-05T14:32:21Z</time>
      </trkpt>
      <trkpt lat="59.9540698" lon="17.6164699">
        <ele>25.1317</ele>
        <time>2013-05-05T14:32:22Z</time>
      </trkpt>
      <trkpt lat="59.9541017" lon="17.6165409">
        <ele>25.1317</ele>
        <time>2013-05-05T14:32:23Z</time>
      </trkpt>
      <trkpt lat="59.9541346" lon="17.6166135">
        <ele>25.1317</ele>
        <time>2013-05-05T14:32:24Z</time>
      </trkpt>
      <trkpt lat="59.9541678" lon="17.6166876">
        <ele>24.651</ele>
        <time>2013-05-05T14:32:25Z</time>
      </trkpt>
      <trkpt lat="59.9542016" lon="17.6167589">
        <ele>24.651</ele>
        <time>2013-05-05T14:32:26Z</time>
      </trkpt>
      <trkpt lat="59.9542347" lon="17.6168284">
        <ele>24.651</ele>
        <time>2013-05-05T14:32:27Z</time>
      </trkpt>
      <trkpt lat="59.9542668" lon="17.6168974">
        <ele>24.651</ele>
        <time>2013-05-05T14:32:28Z</time>
      </trkpt>
      <trkpt lat="59.9542989" lon="17.6169647">
        <ele>24.651</ele>
        <time>2013-05-05T14:32:29Z</time>
      </trkpt>
      <trkpt lat="59.9543309" lon="17.6170309">
        <ele>24.651</ele>
        <time>2013-05-05T14:32:30Z</time>
      </trkpt>
      <trkpt lat="59.9543625" lon="17.6170949">
        <ele>24.1703</ele>
        <time>2013-05-05T14:32:31Z</time>
      </trkpt>
      <trkpt lat="59.9543948" lon="17.6171573">
        <ele>24.1703</ele>
        <time>2013-05-05T14:32:32Z</time>
      </trkpt>
      <trkpt lat="59.9544281" lon="17.6172196">
        <ele>24.1703</ele>
        <time>2013-05-05T14:32:33Z</time>
      </trkpt>
      <trkpt lat="59.9544616" lon="17.6172816">
        <ele>24.1703</ele>
        <time>2013-05-05T14:32:34Z</time>
      </trkpt>
      <trkpt lat="59.9544946" lon="17.6173431">
        <ele>24.1703</ele>
        <time>2013-05-05T14:32:35Z</time>
      </trkpt>
      <trkpt lat="59.954528" lon="17.6174049">
        <ele>24.1703</ele>
        <time>2013-05-05T14:32:36Z</time>
      </trkpt>
      <trkpt lat="59.954564" lon="17.6174667">
        <ele>24.1703</ele>
        <time>2013-05-05T14:32:37Z</time>
      </trkpt>
      <trkpt lat="59.9546006" lon="17.6175293">
        <ele>24.1703</ele>
        <time>2013-05-05T14:32:38Z</time>
      </trkpt>
      <trkpt lat="59.9546373" lon="17.617595">
        <ele>24.1703</ele>
        <time>2013-05-05T14:32:39Z</time>
      </trkpt>
      <trkpt lat="59.9546741" lon="17.6176625">
        <ele>24.1703</ele>
        <time>2013-05-05T14:32:40Z</time>
      </trkpt>
      <trkpt lat="59.9547107" lon="17.6177298">
        <ele>24.1703</ele>
        <time>2013-05-05T14:32:41Z</time>
      </trkpt>
      <trkpt lat="59.9547467" lon="17.6177956">
        <ele>24.1703</ele>
        <time>2013-05-05T14:32:42Z</time>
      </trkpt>
      <trkpt lat="59.9547827" lon="17.6178587">
        <ele>24.1703</ele>
        <time>2013-05-05T14:32:43Z</time>
      </trkpt>
      <trkpt lat="59.9548179" lon="17.6179202">
        <ele>24.1703</ele>
        <time>2013-05-05T14:32:44Z</time>
      </trkpt>
      <trkpt lat="59.9548515" lon="17.6179818">
        <ele>24.1703</ele>
        <time>2013-05-05T14:32:45Z</time>
      </trkpt>
      <trkpt lat="59.9548841" lon="17.618045">
        <ele>24.1703</ele>
        <time>2013-05-05T14:32:46Z</time>
      </trkpt>
      <trkpt lat="59.954917" lon="17.6181106">
        <ele>24.1703</ele>
        <time>2013-05-05T14:32:47Z</time>
      </trkpt>
      <trkpt lat="59.9549507" lon="17.6181773">
        <ele>24.1703</ele>
        <time>2013-05-05T14:32:48Z</time>
      </trkpt>
      <trkpt lat="59.9549847" lon="17.6182462">
        <ele>24.1703</ele>
        <time>2013-05-05T14:32:49Z</time>
      </trkpt>
      <trkpt lat="59.9550186" lon="17.6183167">
        <ele>24.1703</ele>
        <time>2013-05-05T14:32:50Z</time>
      </trkpt>
      <trkpt lat="59.9550527" lon="17.618387">
        <ele>24.1703</ele>
        <time>2013-05-05T14:32:51Z</time>
      </trkpt>
      <trkpt lat="59.955086" lon="17.618457">
        <ele>24.651</ele>
        <time>2013-05-05T14:32:52Z</time>
      </trkpt>
      <trkpt lat="59.955118" lon="17.6185276">
        <ele>24.651</ele>
        <time>2013-05-05T14:32:53Z</time>
      </trkpt>
      <trkpt lat="59.9551497" lon="17.6185984">
        <ele>24.651</ele>
        <time>2013-05-05T14:32:54Z</time>
      </trkpt>
      <trkpt lat="59.9551818" lon="17.6186707">
        <ele>24.651</ele>
        <time>2013-05-05T14:32:55Z</time>
      </trkpt>
      <trkpt lat="59.9552133" lon="17.6187459">
        <ele>24.651</ele>
        <time>2013-05-05T14:32:56Z</time>
      </trkpt>
      <trkpt lat="59.955245" lon="17.6188237">
        <ele>24.651</ele>
        <time>2013-05-05T14:32:57Z</time>
      </trkpt>
      <trkpt lat="59.9552773" lon="17.6189025">
        <ele>24.651</ele>
        <time>2013-05-05T14:32:58Z</time>
      </trkpt>
      <trkpt lat="59.9553089" lon="17.6189797">
        <ele>24.651</ele>
        <time>2013-05-05T14:32:59Z</time>
      </trkpt>
      <trkpt lat="59.9553395" lon="17.6190552">
        <ele>24.651</ele>
        <time>2013-05-05T14:33:00Z</time>
      </trkpt>
      <trkpt lat="59.9553686" lon="17.6191321">
        <ele>24.651</ele>
        <time>2013-05-05T14:33:01Z</time>
      </trkpt>
      <trkpt lat="59.9553966" lon="17.6192121">
        <ele>24.651</ele>
        <time>2013-05-05T14:33:02Z</time>
      </trkpt>
      <trkpt lat="59.9554237" lon="17.6192946">
        <ele>24.651</ele>
        <time>2013-05-05T14:33:03Z</time>
      </trkpt>
      <trkpt lat="59.9554505" lon="17.6193794">
        <ele>24.651</ele>
        <time>2013-05-05T14:33:04Z</time>
      </trkpt>
      <trkpt lat="59.9554759" lon="17.619466">
        <ele>24.651</ele>
        <time>2013-05-05T14:33:05Z</time>
      </trkpt>
      <trkpt lat="59.9554988" lon="17.619556">
        <ele>24.651</ele>
        <time>2013-05-05T14:33:06Z</time>
      </trkpt>
      <trkpt lat="59.9555201" lon="17.6196457">
        <ele>24.651</ele>
        <time>2013-05-05T14:33:07Z</time>
      </trkpt>
      <trkpt lat="59.9555396" lon="17.6197342">
        <ele>24.651</ele>
        <time>2013-05-05T14:33:08Z</time>
      </trkpt>
      <trkpt lat="59.9555574" lon="17.619824">
        <ele>24.651</ele>
        <time>2013-05-05T14:33:09Z</time>
      </trkpt>
      <trkpt lat="59.9555734" lon="17.6199161">
        <ele>24.651</ele>
        <time>2013-05-05T14:33:10Z</time>
      </trkpt>
      <trkpt lat="59.9555877" lon="17.6200096">
        <ele>24.651</ele>
        <time>2013-05-05T14:33:11Z</time>
      </trkpt>
      <trkpt lat="59.9556001" lon="17.6201053">
        <ele>24.651</ele>
        <time>2013-05-05T14:33:12Z</time>
      </trkpt>
      <trkpt lat="59.9556115" lon="17.6202032">
        <ele>24.651</ele>
        <time>2013-05-05T14:33:13Z</time>
      </trkpt>
      <trkpt lat="59.955623" lon="17.6203016">
        <ele>24.651</ele>
        <time>2013-05-05T14:33:14Z</time>
      </trkpt>
      <trkpt lat="59.9556349" lon="17.620401">
        <ele>24.651</ele>
        <time>2013-05-05T14:33:15Z</time>
      </trkpt>
      <trkpt lat="59.9556485" lon="17.6205004">
        <ele>24.651</ele>
        <time>2013-05-05T14:33:16Z</time>
      </trkpt>
      <trkpt lat="59.955664" lon="17.6206">
        <ele>25.1317</ele>
        <time>2013-05-05T14:33:17Z</time>
      </trkpt>
      <trkpt lat="59.9556801" lon="17.6207008">
        <ele>25.1317</ele>
        <time>2013-05-05T14:33:18Z</time>
      </trkpt>
      <trkpt lat="59.9556986" lon="17.6208025">
        <ele>25.1317</ele>
        <time>2013-05-05T14:33:19Z</time>
      </trkpt>
      <trkpt lat="59.95572" lon="17.620903">
        <ele>25.1317</ele>
        <time>2013-05-05T14:33:20Z</time>
      </trkpt>
      <trkpt lat="59.9557443" lon="17.620999">
        <ele>25.1317</ele>
        <time>2013-05-05T14:33:21Z</time>
      </trkpt>
      <trkpt lat="59.9557706" lon="17.6210904">
        <ele>25.1317</ele>
        <time>2013-05-05T14:33:22Z</time>
      </trkpt>
      <trkpt lat="59.955799" lon="17.6211775">
        <ele>25.1317</ele>
        <time>2013-05-05T14:33:23Z</time>
      </trkpt>
      <trkpt lat="59.9558297" lon="17.6212594">
        <ele>25.1317</ele>
        <time>2013-05-05T14:33:24Z</time>
      </trkpt>
      <trkpt lat="59.9558629" lon="17.6213396">
        <ele>25.1317</ele>
        <time>2013-05-05T14:33:25Z</time>
      </trkpt>
      <trkpt lat="59.9558976" lon="17.6214211">
        <ele>25.1317</ele>
        <time>2013-05-05T14:33:26Z</time>
      </trkpt>
      <trkpt lat="59.9559336" lon="17.6215023">
        <ele>25.1317</ele>
        <time>2013-05-05T14:33:27Z</time>
      </trkpt>
      <trkpt lat="59.9559709" lon="17.6215807">
        <ele>25.1317</ele>
        <time>2013-05-05T14:33:28Z</time>
      </trkpt>
      <trkpt lat="59.9560074" lon="17.6216543">
        <ele>25.1317</ele>
        <time>2013-05-05T14:33:29Z</time>
      </trkpt>
      <trkpt lat="59.9560432" lon="17.6217241">
        <ele>25.1317</ele>
        <time>2013-05-05T14:33:30Z</time>
      </trkpt>
      <trkpt lat="59.9560774" lon="17.6217935">
        <ele>25.6123</ele>
        <time>2013-05-05T14:33:31Z</time>
      </trkpt>
      <trkpt lat="59.956111" lon="17.6218633">
        <ele>25.6123</ele>
        <time>2013-05-05T14:33:32Z</time>
      </trkpt>
      <trkpt lat="59.9561439" lon="17.6219314">
        <ele>25.6123</ele>
        <time>2013-05-05T14:33:33Z</time>
      </trkpt>
      <trkpt lat="59.9561758" lon="17.6219976">
        <ele>25.6123</ele>
        <time>2013-05-05T14:33:34Z</time>
      </trkpt>
      <trkpt lat="59.9562066" lon="17.6220617">
        <ele>25.6123</ele>
        <time>2013-05-05T14:33:35Z</time>
      </trkpt>
      <trkpt lat="59.9562374" lon="17.622124">
        <ele>25.6123</ele>
        <time>2013-05-05T14:33:36Z</time>
      </trkpt>
      <trkpt lat="59.9562679" lon="17.6221867">
        <ele>25.6123</ele>
        <time>2013-05-05T14:33:37Z</time>
      </trkpt>
      <trkpt lat="59.9562984" lon="17.6222504">
        <ele>25.6123</ele>
        <time>2013-05-05T14:33:38Z</time>
      </trkpt>
      <trkpt lat="59.9563297" lon="17.6223136">
        <ele>25.6123</ele>
        <time>2013-05-05T14:33:39Z</time>
      </trkpt>
      <trkpt lat="59.9563618" lon="17.6223773">
        <ele>25.6123</ele>
        <time>2013-05-05T14:33:40Z</time>
      </trkpt>
      <trkpt lat="59.9563938" lon="17.6224421">
        <ele>25.6123</ele>
        <time>2013-05-05T14:33:41Z</time>
      </trkpt>
      <trkpt lat="59.9564254" lon="17.6225097">
        <ele>25.6123</ele>
        <time>2013-05-05T14:33:42Z</time>
      </trkpt>
      <trkpt lat="59.9564573" lon="17.6225798">
        <ele>25.6123</ele>
        <time>2013-05-05T14:33:43Z</time>
      </trkpt>
      <trkpt lat="59.9564897" lon="17.6226511">
        <ele>25.6123</ele>
        <time>2013-05-05T14:33:44Z</time>
      </trkpt>
      <trkpt lat="59.9565249" lon="17.6227208">
        <ele>25.6123</ele>
        <time>2013-05-05T14:33:45Z</time>
      </trkpt>
      <trkpt lat="59.95656" lon="17.6227886">
        <ele>25.6123</ele>
        <time>2013-05-05T14:33:46Z</time>
      </trkpt>
      <trkpt lat="59.9565932" lon="17.6228589">
        <ele>25.6123</ele>
        <time>2013-05-05T14:33:47Z</time>
      </trkpt>
      <trkpt lat="59.9566253" lon="17.6229324">
        <ele>25.6123</ele>
        <time>2013-05-05T14:33:48Z</time>
      </trkpt>
      <trkpt lat="59.9566591" lon="17.6230051">
        <ele>25.1317</ele>
        <time>2013-05-05T14:33:49Z</time>
      </trkpt>
      <trkpt lat="59.9566939" lon="17.6230781">
        <ele>25.1317</ele>
        <time>2013-05-05T14:33:50Z</time>
      </trkpt>
      <trkpt lat="59.9567285" lon="17.6231538">
        <ele>25.1317</ele>
        <time>2013-05-05T14:33:51Z</time>
      </trkpt>
      <trkpt lat="59.9567642" lon="17.6232318">
        <ele>25.1317</ele>
        <time>2013-05-05T14:33:52Z</time>
      </trkpt>
      <trkpt lat="59.9567989" lon="17.6233097">
        <ele>25.1317</ele>
        <time>2013-05-05T14:33:53Z</time>
      </trkpt>
      <trkpt lat="59.9568326" lon="17.6233854">
        <ele>25.1317</ele>
        <time>2013-05-05T14:33:54Z</time>
      </trkpt>
      <trkpt lat="59.9568668" lon="17.6234592">
        <ele>25.1317</ele>
        <time>2013-05-05T14:33:55Z</time>
      </trkpt>
      <trkpt lat="59.9569013" lon="17.623532">
        <ele>25.1317</ele>
        <time>2013-05-05T14:33:56Z</time>
      </trkpt>
      <trkpt lat="59.956936" lon="17.623605">
        <ele>25.1317</ele>
        <time>2013-05-05T14:33:57Z</time>
      </trkpt>
      <trkpt lat="59.9569709" lon="17.6236795">
        <ele>25.1317</ele>
        <time>2013-05-05T14:33:58Z</time>
      </trkpt>
      <trkpt lat="59.9570042" lon="17.6237579">
        <ele>24.651</ele>
        <time>2013-05-05T14:33:59Z</time>
      </trkpt>
      <trkpt lat="59.9570363" lon="17.6238375">
        <ele>24.651</ele>
        <time>2013-05-05T14:34:00Z</time>
      </trkpt>
      <trkpt lat="59.9570671" lon="17.6239194">
        <ele>24.1703</ele>
        <time>2013-05-05T14:34:01Z</time>
      </trkpt>
      <trkpt lat="59.9570968" lon="17.6240032">
        <ele>24.1703</ele>
        <time>2013-05-05T14:34:02Z</time>
      </trkpt>
      <trkpt lat="59.9571253" lon="17.6240893">
        <ele>24.1703</ele>
        <time>2013-05-05T14:34:03Z</time>
      </trkpt>
      <trkpt lat="59.9571543" lon="17.6241768">
        <ele>24.1703</ele>
        <time>2013-05-05T14:34:04Z</time>
      </trkpt>
      <trkpt lat="59.9571838" lon="17.6242634">
        <ele>24.1703</ele>
        <time>2013-05-05T14:34:05Z</time>
      </trkpt>
      <trkpt lat="59.9572142" lon="17.6243515">
        <ele>24.1703</ele>
        <time>2013-05-05T14:34:06Z</time>
      </trkpt>
      <trkpt lat="59.9572454" lon="17.6244416">
        <ele>24.1703</ele>
        <time>2013-05-05T14:34:07Z</time>
      </trkpt>
      <trkpt lat="59.9572795" lon="17.6245302">
        <ele>24.1703</ele>
        <time>2013-05-05T14:34:08Z</time>
      </trkpt>
      <trkpt lat="59.9573123" lon="17.6246208">
        <ele>24.1703</ele>
        <time>2013-05-05T14:34:09Z</time>
      </trkpt>
      <trkpt lat="59.9573433" lon="17.6247102">
        <ele>23.6896</ele>
        <time>2013-05-05T14:34:10Z</time>
      </trkpt>
      <trkpt lat="59.9573753" lon="17.6247983">
        <ele>23.6896</ele>
        <time>2013-05-05T14:34:11Z</time>
      </trkpt>
      <trkpt lat="59.957411" lon="17.6248858">
        <ele>23.6896</ele>
        <time>2013-05-05T14:34:12Z</time>
      </trkpt>
      <trkpt lat="59.9574465" lon="17.624972">
        <ele>23.6896</ele>
        <time>2013-05-05T14:34:13Z</time>
      </trkpt>
      <trkpt lat="59.9574825" lon="17.6250575">
        <ele>23.6896</ele>
        <time>2013-05-05T14:34:14Z</time>
      </trkpt>
      <trkpt lat="59.9575162" lon="17.6251419">
        <ele>23.209</ele>
        <time>2013-05-05T14:34:15Z</time>
      </trkpt>
      <trkpt lat="59.9575489" lon="17.6252278">
        <ele>23.209</ele>
        <time>2013-05-05T14:34:16Z</time>
      </trkpt>
      <trkpt lat="59.9575815" lon="17.6253121">
        <ele>22.7283</ele>
        <time>2013-05-05T14:34:17Z</time>
      </trkpt>
      <trkpt lat="59.9576139" lon="17.6253976">
        <ele>22.7283</ele>
        <time>2013-05-05T14:34:18Z</time>
      </trkpt>
      <trkpt lat="59.9576454" lon="17.6254848">
        <ele>22.2476</ele>
        <time>2013-05-05T14:34:19Z</time>
      </trkpt>
      <trkpt lat="59.9576769" lon="17.6255735">
        <ele>22.2476</ele>
        <time>2013-05-05T14:34:20Z</time>
      </trkpt>
      <trkpt lat="59.9577061" lon="17.6256611">
        <ele>22.2476</ele>
        <time>2013-05-05T14:34:21Z</time>
      </trkpt>
      <trkpt lat="59.9577312" lon="17.6257533">
        <ele>22.2476</ele>
        <time>2013-05-05T14:34:22Z</time>
      </trkpt>
      <trkpt lat="59.9577532" lon="17.625847">
        <ele>21.767</ele>
        <time>2013-05-05T14:34:23Z</time>
      </trkpt>
      <trkpt lat="59.9577712" lon="17.6259448">
        <ele>21.767</ele>
        <time>2013-05-05T14:34:24Z</time>
      </trkpt>
      <trkpt lat="59.9577846" lon="17.6260462">
        <ele>21.767</ele>
        <time>2013-05-05T14:34:25Z</time>
      </trkpt>
      <trkpt lat="59.9577961" lon="17.6261498">
        <ele>21.767</ele>
        <time>2013-05-05T14:34:26Z</time>
      </trkpt>
      <trkpt lat="59.957805" lon="17.6262534">
        <ele>21.2864</ele>
        <time>2013-05-05T14:34:27Z</time>
      </trkpt>
      <trkpt lat="59.9578102" lon="17.6263542">
        <ele>21.2864</ele>
        <time>2013-05-05T14:34:28Z</time>
      </trkpt>
      <trkpt lat="59.9578147" lon="17.6264549">
        <ele>21.767</ele>
        <time>2013-05-05T14:34:29Z</time>
      </trkpt>
      <trkpt lat="59.9578163" lon="17.6265556">
        <ele>21.767</ele>
        <time>2013-05-05T14:34:30Z</time>
      </trkpt>
      <trkpt lat="59.9578158" lon="17.6266554">
        <ele>21.767</ele>
        <time>2013-05-05T14:34:31Z</time>
      </trkpt>
      <trkpt lat="59.9578136" lon="17.6267529">
        <ele>22.2476</ele>
        <time>2013-05-05T14:34:32Z</time>
      </trkpt>
      <trkpt lat="59.9578091" lon="17.6268498">
        <ele>22.2476</ele>
        <time>2013-05-05T14:34:33Z</time>
      </trkpt>
      <trkpt lat="59.9578028" lon="17.6269476">
        <ele>22.7283</ele>
        <time>2013-05-05T14:34:34Z</time>
      </trkpt>
      <trkpt lat="59.9577952" lon="17.6270485">
        <ele>22.7283</ele>
        <time>2013-05-05T14:34:35Z</time>
      </trkpt>
      <trkpt lat="59.9577883" lon="17.6271511">
        <ele>23.209</ele>
        <time>2013-05-05T14:34:36Z</time>
      </trkpt>
      <trkpt lat="59.9577816" lon="17.6272531">
        <ele>23.209</ele>
        <time>2013-05-05T14:34:37Z</time>
      </trkpt>
      <trkpt lat="59.9577749" lon="17.6273541">
        <ele>23.209</ele>
        <time>2013-05-05T14:34:38Z</time>
      </trkpt>
      <trkpt lat="59.9577695" lon="17.6274546">
        <ele>23.6896</ele>
        <time>2013-05-05T14:34:39Z</time>
      </trkpt>
      <trkpt lat="59.9577644" lon="17.6275574">
        <ele>23.6896</ele>
        <time>2013-05-05T14:34:40Z</time>
      </trkpt>
      <trkpt lat="59.9577597" lon="17.62766">
        <ele>23.6896</ele>
        <time>2013-05-05T14:34:41Z</time>
      </trkpt>
      <trkpt lat="59.9577537" lon="17.6277626">
        <ele>23.6896</ele>
        <time>2013-05-05T14:34:42Z</time>
      </trkpt>
      <trkpt lat="59.9577472" lon="17.6278662">
        <ele>23.209</ele>
        <time>2013-05-05T14:34:43Z</time>
      </trkpt>
      <trkpt lat="59.9577399" lon="17.62797">
        <ele>23.209</ele>
        <time>2013-05-05T14:34:44Z</time>
      </trkpt>
      <trkpt lat="59.9577339" lon="17.6280753">
        <ele>23.209</ele>
        <time>2013-05-05T14:34:45Z</time>
      </trkpt>
      <trkpt lat="59.9577287" lon="17.6281801">
        <ele>23.209</ele>
        <time>2013-05-05T14:34:46Z</time>
      </trkpt>
      <trkpt lat="59.9577225" lon="17.6282891">
        <ele>23.209</ele>
        <time>2013-05-05T14:34:47Z</time>
      </trkpt>
      <trkpt lat="59.9577167" lon="17.6283981">
        <ele>23.209</ele>
        <time>2013-05-05T14:34:48Z</time>
      </trkpt>
      <trkpt lat="59.9577111" lon="17.6285073">
        <ele>23.209</ele>
        <time>2013-05-05T14:34:49Z</time>
      </trkpt>
      <trkpt lat="59.957705" lon="17.6286163">
        <ele>23.209</ele>
        <time>2013-05-05T14:34:50Z</time>
      </trkpt>
      <trkpt lat="59.9576993" lon="17.628725">
        <ele>22.7283</ele>
        <time>2013-05-05T14:34:51Z</time>
      </trkpt>
      <trkpt lat="59.9576938" lon="17.6288337">
        <ele>22.7283</ele>
        <time>2013-05-05T14:34:52Z</time>
      </trkpt>
      <trkpt lat="59.9576888" lon="17.6289419">
        <ele>22.7283</ele>
        <time>2013-05-05T14:34:53Z</time>
      </trkpt>
      <trkpt lat="59.9576831" lon="17.6290497">
        <ele>22.7283</ele>
        <time>2013-05-05T14:34:54Z</time>
      </trkpt>
      <trkpt lat="59.9576764" lon="17.6291571">
        <ele>22.7283</ele>
        <time>2013-05-05T14:34:55Z</time>
      </trkpt>
      <trkpt lat="59.9576707" lon="17.6292649">
        <ele>22.7283</ele>
        <time>2013-05-05T14:34:56Z</time>
      </trkpt>
      <trkpt lat="59.9576665" lon="17.6293734">
        <ele>22.7283</ele>
        <time>2013-05-05T14:34:57Z</time>
      </trkpt>
      <trkpt lat="59.9576618" lon="17.6294821">
        <ele>22.7283</ele>
        <time>2013-05-05T14:34:58Z</time>
      </trkpt>
      <trkpt lat="59.9576557" lon="17.6295904">
        <ele>22.7283</ele>
        <time>2013-05-05T14:34:59Z</time>
      </trkpt>
      <trkpt lat="59.9576496" lon="17.6296982">
        <ele>22.7283</ele>
        <time>2013-05-05T14:35:00Z</time>
      </trkpt>
      <trkpt lat="59.9576446" lon="17.6298061">
        <ele>22.7283</ele>
        <time>2013-05-05T14:35:01Z</time>
      </trkpt>
      <trkpt lat="59.9576398" lon="17.6299144">
        <ele>22.7283</ele>
        <time>2013-05-05T14:35:02Z</time>
      </trkpt>
      <trkpt lat="59.9576343" lon="17.6300227">
        <ele>22.7283</ele>
        <time>2013-05-05T14:35:03Z</time>
      </trkpt>
      <trkpt lat="59.9576286" lon="17.6301309">
        <ele>22.7283</ele>
        <time>2013-05-05T14:35:04Z</time>
      </trkpt>
      <trkpt lat="59.9576237" lon="17.630235">
        <ele>22.7283</ele>
        <time>2013-05-05T14:35:05Z</time>
      </trkpt>
      <trkpt lat="59.9576209" lon="17.6303392">
        <ele>23.209</ele>
        <time>2013-05-05T14:35:06Z</time>
      </trkpt>
      <trkpt lat="59.957619" lon="17.6304427">
        <ele>23.209</ele>
        <time>2013-05-05T14:35:07Z</time>
      </trkpt>
      <trkpt lat="59.9576178" lon="17.6305457">
        <ele>23.6896</ele>
        <time>2013-05-05T14:35:08Z</time>
      </trkpt>
      <trkpt lat="59.9576179" lon="17.6306483">
        <ele>23.6896</ele>
        <time>2013-05-05T14:35:09Z</time>
      </trkpt>
      <trkpt lat="59.9576185" lon="17.6307502">
        <ele>24.1703</ele>
        <time>2013-05-05T14:35:10Z</time>
      </trkpt>
      <trkpt lat="59.9576204" lon="17.6308518">
        <ele>24.1703</ele>
        <time>2013-05-05T14:35:11Z</time>
      </trkpt>
      <trkpt lat="59.9576246" lon="17.6309525">
        <ele>24.1703</ele>
        <time>2013-05-05T14:35:12Z</time>
      </trkpt>
      <trkpt lat="59.9576306" lon="17.6310528">
        <ele>24.651</ele>
        <time>2013-05-05T14:35:13Z</time>
      </trkpt>
      <trkpt lat="59.9576371" lon="17.6311529">
        <ele>24.651</ele>
        <time>2013-05-05T14:35:14Z</time>
      </trkpt>
      <trkpt lat="59.9576453" lon="17.631253">
        <ele>24.651</ele>
        <time>2013-05-05T14:35:15Z</time>
      </trkpt>
      <trkpt lat="59.9576567" lon="17.6313533">
        <ele>24.651</ele>
        <time>2013-05-05T14:35:16Z</time>
      </trkpt>
      <trkpt lat="59.9576703" lon="17.6314539">
        <ele>25.1317</ele>
        <time>2013-05-05T14:35:17Z</time>
      </trkpt>
      <trkpt lat="59.9576837" lon="17.6315554">
        <ele>25.1317</ele>
        <time>2013-05-05T14:35:18Z</time>
      </trkpt>
      <trkpt lat="59.957696" lon="17.6316572">
        <ele>25.6123</ele>
        <time>2013-05-05T14:35:19Z</time>
      </trkpt>
      <trkpt lat="59.9577096" lon="17.6317598">
        <ele>25.6123</ele>
        <time>2013-05-05T14:35:20Z</time>
      </trkpt>
      <trkpt lat="59.9577252" lon="17.6318646">
        <ele>25.6123</ele>
        <time>2013-05-05T14:35:21Z</time>
      </trkpt>
      <trkpt lat="59.9577415" lon="17.6319728">
        <ele>26.0929</ele>
        <time>2013-05-05T14:35:22Z</time>
      </trkpt>
      <trkpt lat="59.9577601" lon="17.6320872">
        <ele>26.0929</ele>
        <time>2013-05-05T14:35:23Z</time>
      </trkpt>
      <trkpt lat="59.957779" lon="17.6322065">
        <ele>26.0929</ele>
        <time>2013-05-05T14:35:24Z</time>
      </trkpt>
      <trkpt lat="59.957796" lon="17.6323304">
        <ele>26.0929</ele>
        <time>2013-05-05T14:35:25Z</time>
      </trkpt>
      <trkpt lat="59.9578132" lon="17.6324541">
        <ele>26.0929</ele>
        <time>2013-05-05T14:35:26Z</time>
      </trkpt>
      <trkpt lat="59.9578309" lon="17.6325752">
        <ele>26.0929</ele>
        <time>2013-05-05T14:35:27Z</time>
      </trkpt>
      <trkpt lat="59.9578487" lon="17.6326964">
        <ele>26.0929</ele>
        <time>2013-05-05T14:35:28Z</time>
      </trkpt>
      <trkpt lat="59.9578654" lon="17.6328178">
        <ele>26.0929</ele>
        <time>2013-05-05T14:35:29Z</time>
      </trkpt>
      <trkpt lat="59.9578814" lon="17.6329399">
        <ele>26.0929</ele>
        <time>2013-05-05T14:35:30Z</time>
      </trkpt>
      <trkpt lat="59.9578976" lon="17.6330621">
        <ele>26.0929</ele>
        <time>2013-05-05T14:35:31Z</time>
      </trkpt>
      <trkpt lat="59.9579143" lon="17.633184">
        <ele>26.0929</ele>
        <time>2013-05-05T14:35:32Z</time>
      </trkpt>
      <trkpt lat="59.9579313" lon="17.6333061">
        <ele>26.0929</ele>
        <time>2013-05-05T14:35:33Z</time>
      </trkpt>
      <trkpt lat="59.9579479" lon="17.6334283">
        <ele>26.0929</ele>
        <time>2013-05-05T14:35:34Z</time>
      </trkpt>
      <trkpt lat="59.957964" lon="17.6335507">
        <ele>26.5736</ele>
        <time>2013-05-05T14:35:35Z</time>
      </trkpt>
      <trkpt lat="59.9579798" lon="17.6336731">
        <ele>26.5736</ele>
        <time>2013-05-05T14:35:36Z</time>
      </trkpt>
      <trkpt lat="59.957995" lon="17.6337948">
        <ele>26.5736</ele>
        <time>2013-05-05T14:35:37Z</time>
      </trkpt>
      <trkpt lat="59.9580116" lon="17.6339149">
        <ele>27.0543</ele>
        <time>2013-05-05T14:35:38Z</time>
      </trkpt>
      <trkpt lat="59.9580276" lon="17.6340345">
        <ele>27.0543</ele>
        <time>2013-05-05T14:35:39Z</time>
      </trkpt>
      <trkpt lat="59.9580374" lon="17.6341543">
        <ele>27.0543</ele>
        <time>2013-05-05T14:35:40Z</time>
      </trkpt>
      <trkpt lat="59.9580452" lon="17.6342775">
        <ele>27.0543</ele>
        <time>2013-05-05T14:35:41Z</time>
      </trkpt>
      <trkpt lat="59.9580526" lon="17.6344025">
        <ele>27.0543</ele>
        <time>2013-05-05T14:35:42Z</time>
      </trkpt>
      <trkpt lat="59.9580597" lon="17.6345257">
        <ele>27.0543</ele>
        <time>2013-05-05T14:35:43Z</time>
      </trkpt>
      <trkpt lat="59.9580691" lon="17.6346475">
        <ele>27.0543</ele>
        <time>2013-05-05T14:35:44Z</time>
      </trkpt>
      <trkpt lat="59.958081" lon="17.63477">
        <ele>27.0543</ele>
        <time>2013-05-05T14:35:45Z</time>
      </trkpt>
      <trkpt lat="59.9580929" lon="17.6348943">
        <ele>27.0543</ele>
        <time>2013-05-05T14:35:46Z</time>
      </trkpt>
      <trkpt lat="59.9581038" lon="17.6350219">
        <ele>26.5736</ele>
        <time>2013-05-05T14:35:47Z</time>
      </trkpt>
      <trkpt lat="59.9581143" lon="17.6351509">
        <ele>26.5736</ele>
        <time>2013-05-05T14:35:48Z</time>
      </trkpt>
      <trkpt lat="59.9581253" lon="17.635281">
        <ele>26.5736</ele>
        <time>2013-05-05T14:35:49Z</time>
      </trkpt>
      <trkpt lat="59.9581359" lon="17.6354126">
        <ele>26.0929</ele>
        <time>2013-05-05T14:35:50Z</time>
      </trkpt>
      <trkpt lat="59.9581466" lon="17.635546">
        <ele>26.0929</ele>
        <time>2013-05-05T14:35:51Z</time>
      </trkpt>
      <trkpt lat="59.9581574" lon="17.6356802">
        <ele>25.6123</ele>
        <time>2013-05-05T14:35:52Z</time>
      </trkpt>
      <trkpt lat="59.9581675" lon="17.6358149">
        <ele>25.6123</ele>
        <time>2013-05-05T14:35:53Z</time>
      </trkpt>
      <trkpt lat="59.9581789" lon="17.6359498">
        <ele>25.6123</ele>
        <time>2013-05-05T14:35:54Z</time>
      </trkpt>
      <trkpt lat="59.958192" lon="17.6360853">
        <ele>25.1317</ele>
        <time>2013-05-05T14:35:55Z</time>
      </trkpt>
      <trkpt lat="59.9582073" lon="17.6362228">
        <ele>25.1317</ele>
        <time>2013-05-05T14:35:56Z</time>
      </trkpt>
      <trkpt lat="59.9582256" lon="17.6363594">
        <ele>25.1317</ele>
        <time>2013-05-05T14:35:57Z</time>
      </trkpt>
      <trkpt lat="59.9582478" lon="17.6364955">
        <ele>25.1317</ele>
        <time>2013-05-05T14:35:58Z</time>
      </trkpt>
      <trkpt lat="59.9582722" lon="17.6366302">
        <ele>25.1317</ele>
        <time>2013-05-05T14:35:59Z</time>
      </trkpt>
      <trkpt lat="59.958298" lon="17.6367631">
        <ele>25.1317</ele>
        <time>2013-05-05T14:36:00Z</time>
      </trkpt>
      <trkpt lat="59.9583255" lon="17.6368946">
        <ele>25.1317</ele>
        <time>2013-05-05T14:36:01Z</time>
      </trkpt>
      <trkpt lat="59.9583549" lon="17.6370245">
        <ele>25.1317</ele>
        <time>2013-05-05T14:36:02Z</time>
      </trkpt>
      <trkpt lat="59.9583857" lon="17.6371529">
        <ele>25.1317</ele>
        <time>2013-05-05T14:36:03Z</time>
      </trkpt>
      <trkpt lat="59.9584185" lon="17.6372797">
        <ele>25.1317</ele>
        <time>2013-05-05T14:36:04Z</time>
      </trkpt>
      <trkpt lat="59.958454" lon="17.6374042">
        <ele>25.1317</ele>
        <time>2013-05-05T14:36:05Z</time>
      </trkpt>
      <trkpt lat="59.9584924" lon="17.6375255">
        <ele>25.1317</ele>
        <time>2013-05-05T14:36:06Z</time>
      </trkpt>
      <trkpt lat="59.9585341" lon="17.6376426">
        <ele>25.1317</ele>
        <time>2013-05-05T14:36:07Z</time>
      </trkpt>
      <trkpt lat="59.9585772" lon="17.637757">
        <ele>25.1317</ele>
        <time>2013-05-05T14:36:08Z</time>
      </trkpt>
      <trkpt lat="59.9586212" lon="17.6378721">
        <ele>25.6123</ele>
        <time>2013-05-05T14:36:09Z</time>
      </trkpt>
      <trkpt lat="59.9586644" lon="17.6379854">
        <ele>25.6123</ele>
        <time>2013-05-05T14:36:10Z</time>
      </trkpt>
      <trkpt lat="59.9587057" lon="17.6380984">
        <ele>25.6123</ele>
        <time>2013-05-05T14:36:11Z</time>
      </trkpt>
      <trkpt lat="59.9587435" lon="17.6382092">
        <ele>25.6123</ele>
        <time>2013-05-05T14:36:12Z</time>
      </trkpt>
      <trkpt lat="59.9587791" lon="17.6383236">
        <ele>25.6123</ele>
        <time>2013-05-05T14:36:13Z</time>
      </trkpt>
      <trkpt lat="59.9588122" lon="17.6384429">
        <ele>25.1317</ele>
        <time>2013-05-05T14:36:14Z</time>
      </trkpt>
      <trkpt lat="59.9588431" lon="17.6385646">
        <ele>25.1317</ele>
        <time>2013-05-05T14:36:15Z</time>
      </trkpt>
      <trkpt lat="59.9588723" lon="17.6386877">
        <ele>25.1317</ele>
        <time>2013-05-05T14:36:16Z</time>
      </trkpt>
      <trkpt lat="59.9588995" lon="17.6388116">
        <ele>24.651</ele>
        <time>2013-05-05T14:36:17Z</time>
      </trkpt>
      <trkpt lat="59.958926" lon="17.6389364">
        <ele>24.651</ele>
        <time>2013-05-05T14:36:18Z</time>
      </trkpt>
      <trkpt lat="59.958951" lon="17.6390627">
        <ele>24.1703</ele>
        <time>2013-05-05T14:36:19Z</time>
      </trkpt>
      <trkpt lat="59.9589747" lon="17.6391912">
        <ele>24.1703</ele>
        <time>2013-05-05T14:36:20Z</time>
      </trkpt>
      <trkpt lat="59.9589985" lon="17.63932">
        <ele>24.1703</ele>
        <time>2013-05-05T14:36:21Z</time>
      </trkpt>
      <trkpt lat="59.9590215" lon="17.6394499">
        <ele>23.6896</ele>
        <time>2013-05-05T14:36:22Z</time>
      </trkpt>
      <trkpt lat="59.959043" lon="17.6395818">
        <ele>23.6896</ele>
        <time>2013-05-05T14:36:23Z</time>
      </trkpt>
      <trkpt lat="59.959065" lon="17.6397144">
        <ele>23.209</ele>
        <time>2013-05-05T14:36:24Z</time>
      </trkpt>
      <trkpt lat="59.9590879" lon="17.6398467">
        <ele>23.209</ele>
        <time>2013-05-05T14:36:25Z</time>
      </trkpt>
      <trkpt lat="59.9591116" lon="17.6399776">
        <ele>23.209</ele>
        <time>2013-05-05T14:36:26Z</time>
      </trkpt>
      <trkpt lat="59.9591352" lon="17.6401076">
        <ele>22.7283</ele>
        <time>2013-05-05T14:36:27Z</time>
      </trkpt>
      <trkpt lat="59.9591578" lon="17.6402386">
        <ele>22.7283</ele>
        <time>2013-05-05T14:36:28Z</time>
      </trkpt>
      <trkpt lat="59.9591803" lon="17.6403709">
        <ele>22.7283</ele>
        <time>2013-05-05T14:36:29Z</time>
      </trkpt>
      <trkpt lat="59.9592041" lon="17.6405028">
        <ele>22.7283</ele>
        <time>2013-05-05T14:36:30Z</time>
      </trkpt>
      <trkpt lat="59.959228" lon="17.6406344">
        <ele>22.2476</ele>
        <time>2013-05-05T14:36:31Z</time>
      </trkpt>
      <trkpt lat="59.9592512" lon="17.6407649">
        <ele>22.2476</ele>
        <time>2013-05-05T14:36:32Z</time>
      </trkpt>
      <trkpt lat="59.9592736" lon="17.6408905">
        <ele>22.2476</ele>
        <time>2013-05-05T14:36:33Z</time>
      </trkpt>
      <trkpt lat="59.9592962" lon="17.6410115">
        <ele>22.2476</ele>
        <time>2013-05-05T14:36:34Z</time>
      </trkpt>
      <trkpt lat="59.9593186" lon="17.6411302">
        <ele>22.2476</ele>
        <time>2013-05-05T14:36:35Z</time>
      </trkpt>
      <trkpt lat="59.9593406" lon="17.641248">
        <ele>21.767</ele>
        <time>2013-05-05T14:36:36Z</time>
      </trkpt>
      <trkpt lat="59.959361" lon="17.6413659">
        <ele>21.767</ele>
        <time>2013-05-05T14:36:37Z</time>
      </trkpt>
      <trkpt lat="59.9593812" lon="17.6414831">
        <ele>21.767</ele>
        <time>2013-05-05T14:36:38Z</time>
      </trkpt>
      <trkpt lat="59.959402" lon="17.6416011">
        <ele>21.767</ele>
        <time>2013-05-05T14:36:39Z</time>
      </trkpt>
      <trkpt lat="59.9594232" lon="17.6417209">
        <ele>21.767</ele>
        <time>2013-05-05T14:36:40Z</time>
      </trkpt>
      <trkpt lat="59.9594443" lon="17.6418421">
        <ele>21.767</ele>
        <time>2013-05-05T14:36:41Z</time>
      </trkpt>
      <trkpt lat="59.9594642" lon="17.6419633">
        <ele>21.767</ele>
        <time>2013-05-05T14:36:42Z</time>
      </trkpt>
      <trkpt lat="59.9594832" lon="17.6420827">
        <ele>21.767</ele>
        <time>2013-05-05T14:36:43Z</time>
      </trkpt>
      <trkpt lat="59.9595029" lon="17.642201">
        <ele>21.767</ele>
        <time>2013-05-05T14:36:44Z</time>
      </trkpt>
      <trkpt lat="59.9595227" lon="17.6423181">
        <ele>21.2864</ele>
        <time>2013-05-05T14:36:45Z</time>
      </trkpt>
      <trkpt lat="59.9595423" lon="17.6424376">
        <ele>21.2864</ele>
        <time>2013-05-05T14:36:46Z</time>
      </trkpt>
      <trkpt lat="59.959562" lon="17.6425575">
        <ele>21.2864</ele>
        <time>2013-05-05T14:36:47Z</time>
      </trkpt>
      <trkpt lat="59.9595816" lon="17.6426765">
        <ele>21.2864</ele>
        <time>2013-05-05T14:36:48Z</time>
      </trkpt>
      <trkpt lat="59.9596003" lon="17.6427952">
        <ele>21.2864</ele>
        <time>2013-05-05T14:36:49Z</time>
      </trkpt>
      <trkpt lat="59.9596189" lon="17.6429132">
        <ele>21.2864</ele>
        <time>2013-05-05T14:36:50Z</time>
      </trkpt>
      <trkpt lat="59.9596371" lon="17.6430302">
        <ele>21.2864</ele>
        <time>2013-05-05T14:36:51Z</time>
      </trkpt>
      <trkpt lat="59.9596552" lon="17.6431463">
        <ele>21.2864</ele>
        <time>2013-05-05T14:36:52Z</time>
      </trkpt>
      <trkpt lat="59.9596722" lon="17.6432615">
        <ele>21.2864</ele>
        <time>2013-05-05T14:36:53Z</time>
      </trkpt>
      <trkpt lat="59.9596885" lon="17.6433774">
        <ele>21.2864</ele>
        <time>2013-05-05T14:36:54Z</time>
      </trkpt>
      <trkpt lat="59.9597051" lon="17.6434932">
        <ele>21.2864</ele>
        <time>2013-05-05T14:36:55Z</time>
      </trkpt>
      <trkpt lat="59.959722" lon="17.6436095">
        <ele>21.2864</ele>
        <time>2013-05-05T14:36:56Z</time>
      </trkpt>
      <trkpt lat="59.9597385" lon="17.6437267">
        <ele>20.8057</ele>
        <time>2013-05-05T14:36:57Z</time>
      </trkpt>
      <trkpt lat="59.9597542" lon="17.643846">
        <ele>20.8057</ele>
        <time>2013-05-05T14:36:58Z</time>
      </trkpt>
      <trkpt lat="59.9597686" lon="17.6439664">
        <ele>20.8057</ele>
        <time>2013-05-05T14:36:59Z</time>
      </trkpt>
      <trkpt lat="59.9597824" lon="17.6440897">
        <ele>20.325</ele>
        <time>2013-05-05T14:37:00Z</time>
      </trkpt>
      <trkpt lat="59.9597964" lon="17.6442166">
        <ele>20.325</ele>
        <time>2013-05-05T14:37:01Z</time>
      </trkpt>
      <trkpt lat="59.9598111" lon="17.6443461">
        <ele>20.325</ele>
        <time>2013-05-05T14:37:02Z</time>
      </trkpt>
      <trkpt lat="59.9598262" lon="17.6444788">
        <ele>19.8444</ele>
        <time>2013-05-05T14:37:03Z</time>
      </trkpt>
      <trkpt lat="59.95984" lon="17.6446158">
        <ele>19.8444</ele>
        <time>2013-05-05T14:37:04Z</time>
      </trkpt>
      <trkpt lat="59.9598531" lon="17.6447564">
        <ele>19.3638</ele>
        <time>2013-05-05T14:37:05Z</time>
      </trkpt>
      <trkpt lat="59.9598658" lon="17.6448977">
        <ele>18.8831</ele>
        <time>2013-05-05T14:37:06Z</time>
      </trkpt>
      <trkpt lat="59.9598769" lon="17.6450283">
        <ele>18.8831</ele>
        <time>2013-05-05T14:37:07Z</time>
      </trkpt>
      <trkpt lat="59.9598883" lon="17.64513">
        <ele>18.4023</ele>
        <time>2013-05-05T14:37:08Z</time>
      </trkpt>
      <trkpt lat="59.9598975" lon="17.6452012">
        <ele>18.4023</ele>
        <time>2013-05-05T14:37:09Z</time>
      </trkpt>
      <trkpt lat="59.9599034" lon="17.6452548">
        <ele>18.4023</ele>
        <time>2013-05-05T14:37:10Z</time>
      </trkpt>
      <trkpt lat="59.9599058" lon="17.6452915">
        <ele>18.4023</ele>
        <time>2013-05-05T14:37:11Z</time>
      </trkpt>
      <trkpt lat="59.959906" lon="17.6453044">
        <ele>17.9218</ele>
        <time>2013-05-05T14:37:12Z</time>
      </trkpt>
      <trkpt lat="59.9599065" lon="17.6453042">
        <ele>17.9218</ele>
        <time>2013-05-05T14:37:13Z</time>
      </trkpt>
      <trkpt lat="59.9599068" lon="17.6453106">
        <ele>17.9218</ele>
        <time>2013-05-05T14:37:14Z</time>
      </trkpt>
      <trkpt lat="59.9599089" lon="17.6453372">
        <ele>17.9218</ele>
        <time>2013-05-05T14:37:15Z</time>
      </trkpt>
      <trkpt lat="59.9599117" lon="17.6453802">
        <ele>17.9218</ele>
        <time>2013-05-05T14:37:16Z</time>
      </trkpt>
      <trkpt lat="59.959918" lon="17.6454348">
        <ele>17.9218</ele>
        <time>2013-05-05T14:37:17Z</time>
      </trkpt>
      <trkpt lat="59.9599252" lon="17.6455049">
        <ele>17.9218</ele>
        <time>2013-05-05T14:37:18Z</time>
      </trkpt>
      <trkpt lat="59.9599333" lon="17.6455853">
        <ele>17.4412</ele>
        <time>2013-05-05T14:37:19Z</time>
      </trkpt>
      <trkpt lat="59.959943" lon="17.6456726">
        <ele>17.4412</ele>
        <time>2013-05-05T14:37:20Z</time>
      </trkpt>
      <trkpt lat="59.9599534" lon="17.6457634">
        <ele>16.9604</ele>
        <time>2013-05-05T14:37:21Z</time>
      </trkpt>
      <trkpt lat="59.9599632" lon="17.6458569">
        <ele>16.9604</ele>
        <time>2013-05-05T14:37:22Z</time>
      </trkpt>
      <trkpt lat="59.9599708" lon="17.6459529">
        <ele>16.9604</ele>
        <time>2013-05-05T14:37:23Z</time>
      </trkpt>
      <trkpt lat="59.959978" lon="17.6460523">
        <ele>16.4797</ele>
        <time>2013-05-05T14:37:24Z</time>
      </trkpt>
      <trkpt lat="59.9599873" lon="17.6461618">
        <ele>16.4797</ele>
        <time>2013-05-05T14:37:25Z</time>
      </trkpt>
      <trkpt lat="59.9599983" lon="17.6462862">
        <ele>16.4797</ele>
        <time>2013-05-05T14:37:26Z</time>
      </trkpt>
      <trkpt lat="59.9600106" lon="17.6464229">
        <ele>16.4797</ele>
        <time>2013-05-05T14:37:27Z</time>
      </trkpt>
      <trkpt lat="59.9600234" lon="17.6465715">
        <ele>15.999</ele>
        <time>2013-05-05T14:37:28Z</time>
      </trkpt>
      <trkpt lat="59.9600361" lon="17.6467303">
        <ele>15.999</ele>
        <time>2013-05-05T14:37:29Z</time>
      </trkpt>
      <trkpt lat="59.9600505" lon="17.6468984">
        <ele>15.999</ele>
        <time>2013-05-05T14:37:30Z</time>
      </trkpt>
      <trkpt lat="59.9600687" lon="17.6470734">
        <ele>15.999</ele>
        <time>2013-05-05T14:37:31Z</time>
      </trkpt>
      <trkpt lat="59.9600883" lon="17.6472538">
        <ele>16.4797</ele>
        <time>2013-05-05T14:37:32Z</time>
      </trkpt>
      <trkpt lat="59.9601095" lon="17.6474462">
        <ele>15.999</ele>
        <time>2013-05-05T14:37:33Z</time>
      </trkpt>
      <trkpt lat="59.960139" lon="17.6476327">
        <ele>16.4797</ele>
        <time>2013-05-05T14:37:34Z</time>
      </trkpt>
      <trkpt lat="59.9601695" lon="17.6478207">
        <ele>16.4797</ele>
        <time>2013-05-05T14:37:35Z</time>
      </trkpt>
      <trkpt lat="59.9602137" lon="17.6479966">
        <ele>17.9218</ele>
        <time>2013-05-05T14:37:36Z</time>
      </trkpt>
      <trkpt lat="59.9602507" lon="17.6481813">
        <ele>17.9218</ele>
        <time>2013-05-05T14:37:37Z</time>
      </trkpt>
      <trkpt lat="59.9602758" lon="17.6483685">
        <ele>17.9218</ele>
        <time>2013-05-05T14:37:38Z</time>
      </trkpt>
      <trkpt lat="59.9603015" lon="17.6485508">
        <ele>17.9218</ele>
        <time>2013-05-05T14:37:39Z</time>
      </trkpt>
      <trkpt lat="59.9603271" lon="17.6487249">
        <ele>18.4023</ele>
        <time>2013-05-05T14:37:40Z</time>
      </trkpt>
      <trkpt lat="59.960354" lon="17.6488885">
        <ele>18.4023</ele>
        <time>2013-05-05T14:37:41Z</time>
      </trkpt>
      <trkpt lat="59.9603814" lon="17.649042">
        <ele>18.8831</ele>
        <time>2013-05-05T14:37:42Z</time>
      </trkpt>
      <trkpt lat="59.9604082" lon="17.6491884">
        <ele>19.3638</ele>
        <time>2013-05-05T14:37:43Z</time>
      </trkpt>
      <trkpt lat="59.9604334" lon="17.6493262">
        <ele>19.3638</ele>
        <time>2013-05-05T14:37:44Z</time>
      </trkpt>
      <trkpt lat="59.9604579" lon="17.6494599">
        <ele>19.8444</ele>
        <time>2013-05-05T14:37:45Z</time>
      </trkpt>
      <trkpt lat="59.9604843" lon="17.6495902">
        <ele>20.325</ele>
        <time>2013-05-05T14:37:46Z</time>
      </trkpt>
      <trkpt lat="59.960514" lon="17.6497148">
        <ele>20.8057</ele>
        <time>2013-05-05T14:37:47Z</time>
      </trkpt>
      <trkpt lat="59.9605446" lon="17.6498345">
        <ele>21.2864</ele>
        <time>2013-05-05T14:37:48Z</time>
      </trkpt>
      <trkpt lat="59.9605721" lon="17.6499546">
        <ele>21.2864</ele>
        <time>2013-05-05T14:37:49Z</time>
      </trkpt>
      <trkpt lat="59.9605968" lon="17.6500699">
        <ele>21.767</ele>
        <time>2013-05-05T14:37:50Z</time>
      </trkpt>
      <trkpt lat="59.9606178" lon="17.6501758">
        <ele>21.767</ele>
        <time>2013-05-05T14:37:51Z</time>
      </trkpt>
      <trkpt lat="59.9606363" lon="17.6502732">
        <ele>22.2476</ele>
        <time>2013-05-05T14:37:52Z</time>
      </trkpt>
      <trkpt lat="59.9606554" lon="17.6503618">
        <ele>22.2476</ele>
        <time>2013-05-05T14:37:53Z</time>
      </trkpt>
      <trkpt lat="59.9606761" lon="17.6504424">
        <ele>22.2476</ele>
        <time>2013-05-05T14:37:54Z</time>
      </trkpt>
      <trkpt lat="59.9606969" lon="17.6505167">
        <ele>22.2476</ele>
        <time>2013-05-05T14:37:55Z</time>
      </trkpt>
      <trkpt lat="59.9607157" lon="17.6505872">
        <ele>22.2476</ele>
        <time>2013-05-05T14:37:56Z</time>
      </trkpt>
      <trkpt lat="59.9607321" lon="17.6506571">
        <ele>22.2476</ele>
        <time>2013-05-05T14:37:57Z</time>
      </trkpt>
      <trkpt lat="59.9607477" lon="17.6507257">
        <ele>22.2476</ele>
        <time>2013-05-05T14:37:58Z</time>
      </trkpt>
      <trkpt lat="59.9607654" lon="17.6507901">
        <ele>22.2476</ele>
        <time>2013-05-05T14:37:59Z</time>
      </trkpt>
      <trkpt lat="59.960784" lon="17.6508524">
        <ele>22.2476</ele>
        <time>2013-05-05T14:38:00Z</time>
      </trkpt>
      <trkpt lat="59.9608005" lon="17.6509163">
        <ele>22.2476</ele>
        <time>2013-05-05T14:38:01Z</time>
      </trkpt>
      <trkpt lat="59.9608155" lon="17.6509813">
        <ele>22.2476</ele>
        <time>2013-05-05T14:38:02Z</time>
      </trkpt>
      <trkpt lat="59.9608296" lon="17.6510465">
        <ele>22.2476</ele>
        <time>2013-05-05T14:38:03Z</time>
      </trkpt>
      <trkpt lat="59.9608434" lon="17.6511118">
        <ele>22.2476</ele>
        <time>2013-05-05T14:38:04Z</time>
      </trkpt>
      <trkpt lat="59.9608579" lon="17.6511771">
        <ele>22.2476</ele>
        <time>2013-05-05T14:38:05Z</time>
      </trkpt>
      <trkpt lat="59.9608729" lon="17.6512424">
        <ele>22.2476</ele>
        <time>2013-05-05T14:38:06Z</time>
      </trkpt>
      <trkpt lat="59.9608874" lon="17.6513098">
        <ele>22.2476</ele>
        <time>2013-05-05T14:38:07Z</time>
      </trkpt>
      <trkpt lat="59.960901" lon="17.6513786">
        <ele>22.2476</ele>
        <time>2013-05-05T14:38:08Z</time>
      </trkpt>
      <trkpt lat="59.960914" lon="17.6514475">
        <ele>22.2476</ele>
        <time>2013-05-05T14:38:09Z</time>
      </trkpt>
      <trkpt lat="59.9609259" lon="17.6515169">
        <ele>22.2476</ele>
        <time>2013-05-05T14:38:10Z</time>
      </trkpt>
      <trkpt lat="59.9609357" lon="17.6515884">
        <ele>22.2476</ele>
        <time>2013-05-05T14:38:11Z</time>
      </trkpt>
      <trkpt lat="59.9609447" lon="17.651662">
        <ele>22.2476</ele>
        <time>2013-05-05T14:38:12Z</time>
      </trkpt>
      <trkpt lat="59.9609529" lon="17.6517391">
        <ele>22.2476</ele>
        <time>2013-05-05T14:38:13Z</time>
      </trkpt>
      <trkpt lat="59.9609594" lon="17.6518189">
        <ele>22.2476</ele>
        <time>2013-05-05T14:38:14Z</time>
      </trkpt>
      <trkpt lat="59.9609642" lon="17.6519002">
        <ele>22.2476</ele>
        <time>2013-05-05T14:38:15Z</time>
      </trkpt>
      <trkpt lat="59.9609668" lon="17.651982">
        <ele>22.2476</ele>
        <time>2013-05-05T14:38:16Z</time>
      </trkpt>
      <trkpt lat="59.9609658" lon="17.6520651">
        <ele>22.2476</ele>
        <time>2013-05-05T14:38:17Z</time>
      </trkpt>
      <trkpt lat="59.9609632" lon="17.6521497">
        <ele>22.2476</ele>
        <time>2013-05-05T14:38:18Z</time>
      </trkpt>
      <trkpt lat="59.9609592" lon="17.6522358">
        <ele>22.2476</ele>
        <time>2013-05-05T14:38:19Z</time>
      </trkpt>
      <trkpt lat="59.9609534" lon="17.6523224">
        <ele>22.2476</ele>
        <time>2013-05-05T14:38:20Z</time>
      </trkpt>
      <trkpt lat="59.9609461" lon="17.6524077">
        <ele>22.2476</ele>
        <time>2013-05-05T14:38:21Z</time>
      </trkpt>
      <trkpt lat="59.9609371" lon="17.6524938">
        <ele>22.2476</ele>
        <time>2013-05-05T14:38:22Z</time>
      </trkpt>
      <trkpt lat="59.9609281" lon="17.652582">
        <ele>22.2476</ele>
        <time>2013-05-05T14:38:23Z</time>
      </trkpt>
      <trkpt lat="59.960921" lon="17.6526736">
        <ele>21.767</ele>
        <time>2013-05-05T14:38:24Z</time>
      </trkpt>
      <trkpt lat="59.9609141" lon="17.6527703">
        <ele>22.2476</ele>
        <time>2013-05-05T14:38:25Z</time>
      </trkpt>
      <trkpt lat="59.9609079" lon="17.6528699">
        <ele>22.2476</ele>
        <time>2013-05-05T14:38:26Z</time>
      </trkpt>
      <trkpt lat="59.9609046" lon="17.6529723">
        <ele>22.2476</ele>
        <time>2013-05-05T14:38:27Z</time>
      </trkpt>
      <trkpt lat="59.9609031" lon="17.6530759">
        <ele>22.2476</ele>
        <time>2013-05-05T14:38:28Z</time>
      </trkpt>
      <trkpt lat="59.9609051" lon="17.6531781">
        <ele>22.2476</ele>
        <time>2013-05-05T14:38:29Z</time>
      </trkpt>
      <trkpt lat="59.9609109" lon="17.6532781">
        <ele>22.2476</ele>
        <time>2013-05-05T14:38:30Z</time>
      </trkpt>
      <trkpt lat="59.9609202" lon="17.6533764">
        <ele>22.2476</ele>
        <time>2013-05-05T14:38:31Z</time>
      </trkpt>
      <trkpt lat="59.9609322" lon="17.6534729">
        <ele>22.2476</ele>
        <time>2013-05-05T14:38:32Z</time>
      </trkpt>
      <trkpt lat="59.9609455" lon="17.6535675">
        <ele>22.2476</ele>
        <time>2013-05-05T14:38:33Z</time>
      </trkpt>
      <trkpt lat="59.9609599" lon="17.6536593">
        <ele>22.7283</ele>
        <time>2013-05-05T14:38:34Z</time>
      </trkpt>
      <trkpt lat="59.9609756" lon="17.6537493">
        <ele>22.7283</ele>
        <time>2013-05-05T14:38:35Z</time>
      </trkpt>
      <trkpt lat="59.9609926" lon="17.6538387">
        <ele>22.7283</ele>
        <time>2013-05-05T14:38:36Z</time>
      </trkpt>
      <trkpt lat="59.9610103" lon="17.6539293">
        <ele>22.7283</ele>
        <time>2013-05-05T14:38:37Z</time>
      </trkpt>
      <trkpt lat="59.9610275" lon="17.6540211">
        <ele>23.209</ele>
        <time>2013-05-05T14:38:38Z</time>
      </trkpt>
      <trkpt lat="59.9610441" lon="17.6541142">
        <ele>23.209</ele>
        <time>2013-05-05T14:38:39Z</time>
      </trkpt>
      <trkpt lat="59.9610597" lon="17.6542083">
        <ele>23.209</ele>
        <time>2013-05-05T14:38:40Z</time>
      </trkpt>
      <trkpt lat="59.9610735" lon="17.6543036">
        <ele>23.209</ele>
        <time>2013-05-05T14:38:41Z</time>
      </trkpt>
      <trkpt lat="59.9610868" lon="17.6544001">
        <ele>23.209</ele>
        <time>2013-05-05T14:38:42Z</time>
      </trkpt>
      <trkpt lat="59.9610993" lon="17.654497">
        <ele>23.209</ele>
        <time>2013-05-05T14:38:43Z</time>
      </trkpt>
      <trkpt lat="59.9611106" lon="17.6545916">
        <ele>23.209</ele>
        <time>2013-05-05T14:38:44Z</time>
      </trkpt>
      <trkpt lat="59.9611203" lon="17.6546839">
        <ele>23.209</ele>
        <time>2013-05-05T14:38:45Z</time>
      </trkpt>
      <trkpt lat="59.9611284" lon="17.6547743">
        <ele>23.209</ele>
        <time>2013-05-05T14:38:46Z</time>
      </trkpt>
      <trkpt lat="59.9611352" lon="17.6548632">
        <ele>23.209</ele>
        <time>2013-05-05T14:38:47Z</time>
      </trkpt>
      <trkpt lat="59.9611414" lon="17.6549504">
        <ele>23.209</ele>
        <time>2013-05-05T14:38:48Z</time>
      </trkpt>
      <trkpt lat="59.961148" lon="17.6550356">
        <ele>23.209</ele>
        <time>2013-05-05T14:38:49Z</time>
      </trkpt>
      <trkpt lat="59.9611541" lon="17.6551184">
        <ele>23.209</ele>
        <time>2013-05-05T14:38:50Z</time>
      </trkpt>
      <trkpt lat="59.961157" lon="17.6551996">
        <ele>23.209</ele>
        <time>2013-05-05T14:38:51Z</time>
      </trkpt>
      <trkpt lat="59.9611585" lon="17.6552797">
        <ele>23.6896</ele>
        <time>2013-05-05T14:38:52Z</time>
      </trkpt>
      <trkpt lat="59.96116" lon="17.6553583">
        <ele>23.6896</ele>
        <time>2013-05-05T14:38:53Z</time>
      </trkpt>
      <trkpt lat="59.9611611" lon="17.6554351">
        <ele>23.6896</ele>
        <time>2013-05-05T14:38:54Z</time>
      </trkpt>
      <trkpt lat="59.9611625" lon="17.6555116">
        <ele>23.6896</ele>
        <time>2013-05-05T14:38:55Z</time>
      </trkpt>
      <trkpt lat="59.9611651" lon="17.6555888">
        <ele>23.6896</ele>
        <time>2013-05-05T14:38:56Z</time>
      </trkpt>
      <trkpt lat="59.9611679" lon="17.6556689">
        <ele>23.209</ele>
        <time>2013-05-05T14:38:57Z</time>
      </trkpt>
      <trkpt lat="59.961171" lon="17.6557533">
        <ele>23.209</ele>
        <time>2013-05-05T14:38:58Z</time>
      </trkpt>
      <trkpt lat="59.9611746" lon="17.6558413">
        <ele>23.209</ele>
        <time>2013-05-05T14:38:59Z</time>
      </trkpt>
      <trkpt lat="59.9611782" lon="17.6559325">
        <ele>23.209</ele>
        <time>2013-05-05T14:39:00Z</time>
      </trkpt>
      <trkpt lat="59.9611818" lon="17.6560267">
        <ele>23.209</ele>
        <time>2013-05-05T14:39:01Z</time>
      </trkpt>
      <trkpt lat="59.9611858" lon="17.6561234">
        <ele>23.209</ele>
        <time>2013-05-05T14:39:02Z</time>
      </trkpt>
      <trkpt lat="59.9611891" lon="17.6562216">
        <ele>23.209</ele>
        <time>2013-05-05T14:39:03Z</time>
      </trkpt>
      <trkpt lat="59.9611912" lon="17.6563213">
        <ele>23.209</ele>
        <time>2013-05-05T14:39:04Z</time>
      </trkpt>
      <trkpt lat="59.9611942" lon="17.6564218">
        <ele>22.7283</ele>
        <time>2013-05-05T14:39:05Z</time>
      </trkpt>
      <trkpt lat="59.9611989" lon="17.6565219">
        <ele>22.7283</ele>
        <time>2013-05-05T14:39:06Z</time>
      </trkpt>
      <trkpt lat="59.961204" lon="17.6566222">
        <ele>23.209</ele>
        <time>2013-05-05T14:39:07Z</time>
      </trkpt>
      <trkpt lat="59.9612068" lon="17.656723">
        <ele>23.209</ele>
        <time>2013-05-05T14:39:08Z</time>
      </trkpt>
      <trkpt lat="59.9612083" lon="17.6568235">
        <ele>23.209</ele>
        <time>2013-05-05T14:39:09Z</time>
      </trkpt>
      <trkpt lat="59.9612106" lon="17.6569234">
        <ele>23.209</ele>
        <time>2013-05-05T14:39:10Z</time>
      </trkpt>
      <trkpt lat="59.9612139" lon="17.657024">
        <ele>23.209</ele>
        <time>2013-05-05T14:39:11Z</time>
      </trkpt>
      <trkpt lat="59.9612177" lon="17.6571264">
        <ele>23.209</ele>
        <time>2013-05-05T14:39:12Z</time>
      </trkpt>
      <trkpt lat="59.9612217" lon="17.6572312">
        <ele>23.209</ele>
        <time>2013-05-05T14:39:13Z</time>
      </trkpt>
      <trkpt lat="59.9612246" lon="17.6573384">
        <ele>23.209</ele>
        <time>2013-05-05T14:39:14Z</time>
      </trkpt>
      <trkpt lat="59.9612274" lon="17.657447">
        <ele>23.209</ele>
        <time>2013-05-05T14:39:15Z</time>
      </trkpt>
      <trkpt lat="59.9612313" lon="17.6575567">
        <ele>23.209</ele>
        <time>2013-05-05T14:39:16Z</time>
      </trkpt>
      <trkpt lat="59.9612358" lon="17.6576661">
        <ele>23.209</ele>
        <time>2013-05-05T14:39:17Z</time>
      </trkpt>
      <trkpt lat="59.9612402" lon="17.657774">
        <ele>23.209</ele>
        <time>2013-05-05T14:39:18Z</time>
      </trkpt>
      <trkpt lat="59.9612435" lon="17.657881">
        <ele>23.209</ele>
        <time>2013-05-05T14:39:19Z</time>
      </trkpt>
      <trkpt lat="59.9612465" lon="17.6579867">
        <ele>23.209</ele>
        <time>2013-05-05T14:39:20Z</time>
      </trkpt>
      <trkpt lat="59.9612497" lon="17.658091">
        <ele>23.209</ele>
        <time>2013-05-05T14:39:21Z</time>
      </trkpt>
      <trkpt lat="59.9612538" lon="17.6581961">
        <ele>23.6896</ele>
        <time>2013-05-05T14:39:22Z</time>
      </trkpt>
      <trkpt lat="59.9612573" lon="17.6583018">
        <ele>23.6896</ele>
        <time>2013-05-05T14:39:23Z</time>
      </trkpt>
      <trkpt lat="59.9612611" lon="17.6584089">
        <ele>23.6896</ele>
        <time>2013-05-05T14:39:24Z</time>
      </trkpt>
      <trkpt lat="59.9612657" lon="17.6585173">
        <ele>23.6896</ele>
        <time>2013-05-05T14:39:25Z</time>
      </trkpt>
      <trkpt lat="59.9612704" lon="17.6586259">
        <ele>23.6896</ele>
        <time>2013-05-05T14:39:26Z</time>
      </trkpt>
      <trkpt lat="59.9612741" lon="17.6587343">
        <ele>23.6896</ele>
        <time>2013-05-05T14:39:27Z</time>
      </trkpt>
      <trkpt lat="59.9612777" lon="17.6588419">
        <ele>23.6896</ele>
        <time>2013-05-05T14:39:28Z</time>
      </trkpt>
      <trkpt lat="59.9612817" lon="17.6589483">
        <ele>23.6896</ele>
        <time>2013-05-05T14:39:29Z</time>
      </trkpt>
      <trkpt lat="59.9612852" lon="17.6590535">
        <ele>23.6896</ele>
        <time>2013-05-05T14:39:30Z</time>
      </trkpt>
      <trkpt lat="59.9612885" lon="17.6591576">
        <ele>23.6896</ele>
        <time>2013-05-05T14:39:31Z</time>
      </trkpt>
      <trkpt lat="59.961292" lon="17.6592612">
        <ele>23.6896</ele>
        <time>2013-05-05T14:39:32Z</time>
      </trkpt>
      <trkpt lat="59.9612952" lon="17.6593664">
        <ele>23.6896</ele>
        <time>2013-05-05T14:39:33Z</time>
      </trkpt>
      <trkpt lat="59.961299" lon="17.6594742">
        <ele>23.6896</ele>
        <time>2013-05-05T14:39:34Z</time>
      </trkpt>
      <trkpt lat="59.961303" lon="17.6595847">
        <ele>23.6896</ele>
        <time>2013-05-05T14:39:35Z</time>
      </trkpt>
      <trkpt lat="59.9613075" lon="17.6596967">
        <ele>23.6896</ele>
        <time>2013-05-05T14:39:36Z</time>
      </trkpt>
      <trkpt lat="59.9613108" lon="17.6598102">
        <ele>23.6896</ele>
        <time>2013-05-05T14:39:37Z</time>
      </trkpt>
      <trkpt lat="59.9613138" lon="17.6599251">
        <ele>23.6896</ele>
        <time>2013-05-05T14:39:38Z</time>
      </trkpt>
      <trkpt lat="59.9613174" lon="17.6600387">
        <ele>23.6896</ele>
        <time>2013-05-05T14:39:39Z</time>
      </trkpt>
      <trkpt lat="59.9613217" lon="17.6601506">
        <ele>24.1703</ele>
        <time>2013-05-05T14:39:40Z</time>
      </trkpt>
      <trkpt lat="59.9613247" lon="17.6602609">
        <ele>24.1703</ele>
        <time>2013-05-05T14:39:41Z</time>
      </trkpt>
      <trkpt lat="59.9613263" lon="17.66037">
        <ele>24.1703</ele>
        <time>2013-05-05T14:39:42Z</time>
      </trkpt>
      <trkpt lat="59.9613268" lon="17.660479">
        <ele>24.651</ele>
        <time>2013-05-05T14:39:43Z</time>
      </trkpt>
      <trkpt lat="59.9613262" lon="17.6605873">
        <ele>24.651</ele>
        <time>2013-05-05T14:39:44Z</time>
      </trkpt>
      <trkpt lat="59.9613248" lon="17.660695">
        <ele>24.651</ele>
        <time>2013-05-05T14:39:45Z</time>
      </trkpt>
      <trkpt lat="59.9613237" lon="17.6608029">
        <ele>25.1317</ele>
        <time>2013-05-05T14:39:46Z</time>
      </trkpt>
      <trkpt lat="59.9613223" lon="17.6609117">
        <ele>25.1317</ele>
        <time>2013-05-05T14:39:47Z</time>
      </trkpt>
      <trkpt lat="59.9613212" lon="17.6610232">
        <ele>25.1317</ele>
        <time>2013-05-05T14:39:48Z</time>
      </trkpt>
      <trkpt lat="59.96132" lon="17.661137">
        <ele>25.1317</ele>
        <time>2013-05-05T14:39:49Z</time>
      </trkpt>
      <trkpt lat="59.9613183" lon="17.6612524">
        <ele>24.651</ele>
        <time>2013-05-05T14:39:50Z</time>
      </trkpt>
      <trkpt lat="59.961317" lon="17.6613679">
        <ele>24.651</ele>
        <time>2013-05-05T14:39:51Z</time>
      </trkpt>
      <trkpt lat="59.9613154" lon="17.6614855">
        <ele>24.651</ele>
        <time>2013-05-05T14:39:52Z</time>
      </trkpt>
      <trkpt lat="59.9613134" lon="17.6616016">
        <ele>24.651</ele>
        <time>2013-05-05T14:39:53Z</time>
      </trkpt>
      <trkpt lat="59.9613123" lon="17.6617169">
        <ele>24.651</ele>
        <time>2013-05-05T14:39:54Z</time>
      </trkpt>
      <trkpt lat="59.9613121" lon="17.6618381">
        <ele>24.651</ele>
        <time>2013-05-05T14:39:55Z</time>
      </trkpt>
      <trkpt lat="59.9613098" lon="17.6619616">
        <ele>24.651</ele>
        <time>2013-05-05T14:39:56Z</time>
      </trkpt>
      <trkpt lat="59.9613056" lon="17.6620855">
        <ele>24.1703</ele>
        <time>2013-05-05T14:39:57Z</time>
      </trkpt>
      <trkpt lat="59.9613014" lon="17.6622107">
        <ele>24.1703</ele>
        <time>2013-05-05T14:39:58Z</time>
      </trkpt>
      <trkpt lat="59.9612954" lon="17.6623371">
        <ele>24.1703</ele>
        <time>2013-05-05T14:39:59Z</time>
      </trkpt>
      <trkpt lat="59.9612845" lon="17.6624635">
        <ele>23.6896</ele>
        <time>2013-05-05T14:40:00Z</time>
      </trkpt>
      <trkpt lat="59.9612723" lon="17.662591">
        <ele>23.6896</ele>
        <time>2013-05-05T14:40:01Z</time>
      </trkpt>
      <trkpt lat="59.9612589" lon="17.6627219">
        <ele>23.6896</ele>
        <time>2013-05-05T14:40:02Z</time>
      </trkpt>
      <trkpt lat="59.9612424" lon="17.6628561">
        <ele>23.6896</ele>
        <time>2013-05-05T14:40:03Z</time>
      </trkpt>
      <trkpt lat="59.9612231" lon="17.6629913">
        <ele>23.6896</ele>
        <time>2013-05-05T14:40:04Z</time>
      </trkpt>
      <trkpt lat="59.961201" lon="17.6631254">
        <ele>23.6896</ele>
        <time>2013-05-05T14:40:05Z</time>
      </trkpt>
      <trkpt lat="59.9611743" lon="17.6632584">
        <ele>23.6896</ele>
        <time>2013-05-05T14:40:06Z</time>
      </trkpt>
      <trkpt lat="59.9611441" lon="17.6633896">
        <ele>23.6896</ele>
        <time>2013-05-05T14:40:07Z</time>
      </trkpt>
      <trkpt lat="59.9611097" lon="17.6635175">
        <ele>23.6896</ele>
        <time>2013-05-05T14:40:08Z</time>
      </trkpt>
      <trkpt lat="59.961071" lon="17.6636428">
        <ele>23.6896</ele>
        <time>2013-05-05T14:40:09Z</time>
      </trkpt>
      <trkpt lat="59.9610281" lon="17.6637647">
        <ele>23.6896</ele>
        <time>2013-05-05T14:40:10Z</time>
      </trkpt>
      <trkpt lat="59.9609803" lon="17.6638786">
        <ele>23.209</ele>
        <time>2013-05-05T14:40:11Z</time>
      </trkpt>
      <trkpt lat="59.9609285" lon="17.6639874">
        <ele>23.209</ele>
        <time>2013-05-05T14:40:12Z</time>
      </trkpt>
      <trkpt lat="59.9608735" lon="17.6640915">
        <ele>22.7283</ele>
        <time>2013-05-05T14:40:13Z</time>
      </trkpt>
      <trkpt lat="59.9608169" lon="17.6641926">
        <ele>22.7283</ele>
        <time>2013-05-05T14:40:14Z</time>
      </trkpt>
      <trkpt lat="59.9607595" lon="17.6642924">
        <ele>22.2476</ele>
        <time>2013-05-05T14:40:15Z</time>
      </trkpt>
      <trkpt lat="59.9607014" lon="17.6643914">
        <ele>22.2476</ele>
        <time>2013-05-05T14:40:16Z</time>
      </trkpt>
      <trkpt lat="59.9606436" lon="17.6644909">
        <ele>22.2476</ele>
        <time>2013-05-05T14:40:17Z</time>
      </trkpt>
      <trkpt lat="59.9605861" lon="17.6645892">
        <ele>22.2476</ele>
        <time>2013-05-05T14:40:18Z</time>
      </trkpt>
      <trkpt lat="59.960529" lon="17.6646872">
        <ele>22.2476</ele>
        <time>2013-05-05T14:40:19Z</time>
      </trkpt>
      <trkpt lat="59.9604727" lon="17.6647868">
        <ele>21.767</ele>
        <time>2013-05-05T14:40:20Z</time>
      </trkpt>
      <trkpt lat="59.9604183" lon="17.6648893">
        <ele>21.767</ele>
        <time>2013-05-05T14:40:21Z</time>
      </trkpt>
      <trkpt lat="59.9603637" lon="17.6649908">
        <ele>21.767</ele>
        <time>2013-05-05T14:40:22Z</time>
      </trkpt>
      <trkpt lat="59.960307" lon="17.6650892">
        <ele>21.767</ele>
        <time>2013-05-05T14:40:23Z</time>
      </trkpt>
      <trkpt lat="59.9602497" lon="17.6651887">
        <ele>21.767</ele>
        <time>2013-05-05T14:40:24Z</time>
      </trkpt>
      <trkpt lat="59.9601929" lon="17.6652892">
        <ele>21.767</ele>
        <time>2013-05-05T14:40:25Z</time>
      </trkpt>
      <trkpt lat="59.9601371" lon="17.6653897">
        <ele>21.767</ele>
        <time>2013-05-05T14:40:26Z</time>
      </trkpt>
      <trkpt lat="59.9600821" lon="17.66549">
        <ele>21.767</ele>
        <time>2013-05-05T14:40:27Z</time>
      </trkpt>
      <trkpt lat="59.9600278" lon="17.6655902">
        <ele>21.767</ele>
        <time>2013-05-05T14:40:28Z</time>
      </trkpt>
      <trkpt lat="59.9599739" lon="17.6656892">
        <ele>21.767</ele>
        <time>2013-05-05T14:40:29Z</time>
      </trkpt>
      <trkpt lat="59.9599208" lon="17.6657866">
        <ele>22.2476</ele>
        <time>2013-05-05T14:40:30Z</time>
      </trkpt>
      <trkpt lat="59.9598686" lon="17.6658842">
        <ele>21.767</ele>
        <time>2013-05-05T14:40:31Z</time>
      </trkpt>
      <trkpt lat="59.959817" lon="17.6659823">
        <ele>21.767</ele>
        <time>2013-05-05T14:40:32Z</time>
      </trkpt>
      <trkpt lat="59.959764" lon="17.6660793">
        <ele>21.767</ele>
        <time>2013-05-05T14:40:33Z</time>
      </trkpt>
      <trkpt lat="59.9597101" lon="17.666178">
        <ele>21.767</ele>
        <time>2013-05-05T14:40:34Z</time>
      </trkpt>
      <trkpt lat="59.9596557" lon="17.6662774">
        <ele>21.767</ele>
        <time>2013-05-05T14:40:35Z</time>
      </trkpt>
      <trkpt lat="59.9596056" lon="17.6663807">
        <ele>21.2864</ele>
        <time>2013-05-05T14:40:36Z</time>
      </trkpt>
      <trkpt lat="59.9595521" lon="17.6664758">
        <ele>21.2864</ele>
        <time>2013-05-05T14:40:37Z</time>
      </trkpt>
      <trkpt lat="59.9594981" lon="17.6665699">
        <ele>21.2864</ele>
        <time>2013-05-05T14:40:38Z</time>
      </trkpt>
      <trkpt lat="59.9594445" lon="17.666664">
        <ele>21.2864</ele>
        <time>2013-05-05T14:40:39Z</time>
      </trkpt>
      <trkpt lat="59.9593911" lon="17.6667603">
        <ele>21.2864</ele>
        <time>2013-05-05T14:40:40Z</time>
      </trkpt>
      <trkpt lat="59.9593402" lon="17.6668519">
        <ele>21.2864</ele>
        <time>2013-05-05T14:40:41Z</time>
      </trkpt>
      <trkpt lat="59.959288" lon="17.6669376">
        <ele>21.2864</ele>
        <time>2013-05-05T14:40:42Z</time>
      </trkpt>
      <trkpt lat="59.9592361" lon="17.6670235">
        <ele>21.2864</ele>
        <time>2013-05-05T14:40:43Z</time>
      </trkpt>
      <trkpt lat="59.959187" lon="17.6671085">
        <ele>21.2864</ele>
        <time>2013-05-05T14:40:44Z</time>
      </trkpt>
      <trkpt lat="59.959136" lon="17.6671929">
        <ele>21.2864</ele>
        <time>2013-05-05T14:40:45Z</time>
      </trkpt>
      <trkpt lat="59.9590864" lon="17.667277">
        <ele>21.2864</ele>
        <time>2013-05-05T14:40:46Z</time>
      </trkpt>
      <trkpt lat="59.9590352" lon="17.6673577">
        <ele>21.2864</ele>
        <time>2013-05-05T14:40:47Z</time>
      </trkpt>
      <trkpt lat="59.9589858" lon="17.66744">
        <ele>21.767</ele>
        <time>2013-05-05T14:40:48Z</time>
      </trkpt>
      <trkpt lat="59.9589366" lon="17.6675113">
        <ele>21.2864</ele>
        <time>2013-05-05T14:40:49Z</time>
      </trkpt>
      <trkpt lat="59.9588875" lon="17.6675903">
        <ele>21.2864</ele>
        <time>2013-05-05T14:40:50Z</time>
      </trkpt>
      <trkpt lat="59.9588383" lon="17.6676714">
        <ele>21.2864</ele>
        <time>2013-05-05T14:40:51Z</time>
      </trkpt>
      <trkpt lat="59.9587863" lon="17.6677488">
        <ele>21.2864</ele>
        <time>2013-05-05T14:40:52Z</time>
      </trkpt>
      <trkpt lat="59.9587355" lon="17.6678263">
        <ele>21.2864</ele>
        <time>2013-05-05T14:40:53Z</time>
      </trkpt>
      <trkpt lat="59.9586851" lon="17.6679021">
        <ele>21.767</ele>
        <time>2013-05-05T14:40:54Z</time>
      </trkpt>
      <trkpt lat="59.9586369" lon="17.6679785">
        <ele>21.767</ele>
        <time>2013-05-05T14:40:55Z</time>
      </trkpt>
      <trkpt lat="59.9585887" lon="17.6680545">
        <ele>21.767</ele>
        <time>2013-05-05T14:40:56Z</time>
      </trkpt>
      <trkpt lat="59.9585404" lon="17.6681288">
        <ele>21.767</ele>
        <time>2013-05-05T14:40:57Z</time>
      </trkpt>
      <trkpt lat="59.9584932" lon="17.6682046">
        <ele>21.767</ele>
        <time>2013-05-05T14:40:58Z</time>
      </trkpt>
      <trkpt lat="59.9584473" lon="17.6682803">
        <ele>22.2476</ele>
        <time>2013-05-05T14:40:59Z</time>
      </trkpt>
      <trkpt lat="59.958401" lon="17.6683553">
        <ele>22.2476</ele>
        <time>2013-05-05T14:41:00Z</time>
      </trkpt>
      <trkpt lat="59.958358" lon="17.6684304">
        <ele>22.2476</ele>
        <time>2013-05-05T14:41:01Z</time>
      </trkpt>
      <trkpt lat="59.9583132" lon="17.6685175">
        <ele>22.7283</ele>
        <time>2013-05-05T14:41:02Z</time>
      </trkpt>
      <trkpt lat="59.9582738" lon="17.6686048">
        <ele>22.7283</ele>
        <time>2013-05-05T14:41:03Z</time>
      </trkpt>
      <trkpt lat="59.9582375" lon="17.6686801">
        <ele>22.7283</ele>
        <time>2013-05-05T14:41:04Z</time>
      </trkpt>
      <trkpt lat="59.9582041" lon="17.6687489">
        <ele>23.209</ele>
        <time>2013-05-05T14:41:05Z</time>
      </trkpt>
      <trkpt lat="59.9581728" lon="17.6688139">
        <ele>23.209</ele>
        <time>2013-05-05T14:41:06Z</time>
      </trkpt>
      <trkpt lat="59.9581429" lon="17.6688728">
        <ele>23.209</ele>
        <time>2013-05-05T14:41:07Z</time>
      </trkpt>
      <trkpt lat="59.9581114" lon="17.6689257">
        <ele>23.209</ele>
        <time>2013-05-05T14:41:08Z</time>
      </trkpt>
      <trkpt lat="59.9580778" lon="17.6689686">
        <ele>23.6896</ele>
        <time>2013-05-05T14:41:09Z</time>
      </trkpt>
      <trkpt lat="59.9580404" lon="17.6689941">
        <ele>23.6896</ele>
        <time>2013-05-05T14:41:10Z</time>
      </trkpt>
      <trkpt lat="59.9579993" lon="17.6689968">
        <ele>23.6896</ele>
        <time>2013-05-05T14:41:11Z</time>
      </trkpt>
      <trkpt lat="59.9579582" lon="17.6689826">
        <ele>24.1703</ele>
        <time>2013-05-05T14:41:12Z</time>
      </trkpt>
      <trkpt lat="59.9579167" lon="17.6689593">
        <ele>24.1703</ele>
        <time>2013-05-05T14:41:13Z</time>
      </trkpt>
      <trkpt lat="59.9578734" lon="17.6689319">
        <ele>24.1703</ele>
        <time>2013-05-05T14:41:14Z</time>
      </trkpt>
      <trkpt lat="59.9578302" lon="17.6689049">
        <ele>24.1703</ele>
        <time>2013-05-05T14:41:15Z</time>
      </trkpt>
      <trkpt lat="59.9577882" lon="17.668878">
        <ele>24.1703</ele>
        <time>2013-05-05T14:41:16Z</time>
      </trkpt>
      <trkpt lat="59.9577468" lon="17.6688516">
        <ele>24.1703</ele>
        <time>2013-05-05T14:41:17Z</time>
      </trkpt>
      <trkpt lat="59.9577059" lon="17.6688231">
        <ele>24.1703</ele>
        <time>2013-05-05T14:41:18Z</time>
      </trkpt>
      <trkpt lat="59.9576659" lon="17.6687937">
        <ele>24.1703</ele>
        <time>2013-05-05T14:41:19Z</time>
      </trkpt>
      <trkpt lat="59.9576247" lon="17.6687664">
        <ele>24.1703</ele>
        <time>2013-05-05T14:41:20Z</time>
      </trkpt>
      <trkpt lat="59.9575821" lon="17.6687392">
        <ele>24.1703</ele>
        <time>2013-05-05T14:41:21Z</time>
      </trkpt>
      <trkpt lat="59.9575386" lon="17.6687142">
        <ele>24.1703</ele>
        <time>2013-05-05T14:41:22Z</time>
      </trkpt>
      <trkpt lat="59.9574937" lon="17.6686916">
        <ele>23.6896</ele>
        <time>2013-05-05T14:41:23Z</time>
      </trkpt>
      <trkpt lat="59.9574475" lon="17.6686689">
        <ele>23.6896</ele>
        <time>2013-05-05T14:41:24Z</time>
      </trkpt>
      <trkpt lat="59.9574012" lon="17.668644">
        <ele>23.6896</ele>
        <time>2013-05-05T14:41:25Z</time>
      </trkpt>
      <trkpt lat="59.9573557" lon="17.6686185">
        <ele>23.6896</ele>
        <time>2013-05-05T14:41:26Z</time>
      </trkpt>
      <trkpt lat="59.9573108" lon="17.6685968">
        <ele>23.6896</ele>
        <time>2013-05-05T14:41:27Z</time>
      </trkpt>
      <trkpt lat="59.9572661" lon="17.6685827">
        <ele>23.6896</ele>
        <time>2013-05-05T14:41:28Z</time>
      </trkpt>
      <trkpt lat="59.9572211" lon="17.668572">
        <ele>23.6896</ele>
        <time>2013-05-05T14:41:29Z</time>
      </trkpt>
      <trkpt lat="59.9571749" lon="17.6685557">
        <ele>23.6896</ele>
        <time>2013-05-05T14:41:30Z</time>
      </trkpt>
      <trkpt lat="59.9571279" lon="17.6685356">
        <ele>23.6896</ele>
        <time>2013-05-05T14:41:31Z</time>
      </trkpt>
      <trkpt lat="59.9570802" lon="17.6685149">
        <ele>23.6896</ele>
        <time>2013-05-05T14:41:32Z</time>
      </trkpt>
      <trkpt lat="59.9570325" lon="17.6684943">
        <ele>23.6896</ele>
        <time>2013-05-05T14:41:33Z</time>
      </trkpt>
      <trkpt lat="59.956985" lon="17.6684753">
        <ele>23.6896</ele>
        <time>2013-05-05T14:41:34Z</time>
      </trkpt>
      <trkpt lat="59.9569377" lon="17.6684559">
        <ele>23.6896</ele>
        <time>2013-05-05T14:41:35Z</time>
      </trkpt>
      <trkpt lat="59.9568916" lon="17.6684355">
        <ele>23.6896</ele>
        <time>2013-05-05T14:41:36Z</time>
      </trkpt>
      <trkpt lat="59.9568454" lon="17.668416">
        <ele>23.6896</ele>
        <time>2013-05-05T14:41:37Z</time>
      </trkpt>
      <trkpt lat="59.956798" lon="17.6683983">
        <ele>23.6896</ele>
        <time>2013-05-05T14:41:38Z</time>
      </trkpt>
      <trkpt lat="59.9567497" lon="17.6683796">
        <ele>23.6896</ele>
        <time>2013-05-05T14:41:39Z</time>
      </trkpt>
      <trkpt lat="59.9567004" lon="17.6683627">
        <ele>23.6896</ele>
        <time>2013-05-05T14:41:40Z</time>
      </trkpt>
      <trkpt lat="59.9566511" lon="17.6683469">
        <ele>23.6896</ele>
        <time>2013-05-05T14:41:41Z</time>
      </trkpt>
      <trkpt lat="59.9566016" lon="17.6683294">
        <ele>23.6896</ele>
        <time>2013-05-05T14:41:42Z</time>
      </trkpt>
      <trkpt lat="59.9565529" lon="17.6683129">
        <ele>23.6896</ele>
        <time>2013-05-05T14:41:43Z</time>
      </trkpt>
      <trkpt lat="59.9565024" lon="17.6682958">
        <ele>23.6896</ele>
        <time>2013-05-05T14:41:44Z</time>
      </trkpt>
      <trkpt lat="59.9564493" lon="17.6682797">
        <ele>23.6896</ele>
        <time>2013-05-05T14:41:45Z</time>
      </trkpt>
      <trkpt lat="59.9563937" lon="17.6682642">
        <ele>23.6896</ele>
        <time>2013-05-05T14:41:46Z</time>
      </trkpt>
      <trkpt lat="59.9563361" lon="17.6682477">
        <ele>23.6896</ele>
        <time>2013-05-05T14:41:47Z</time>
      </trkpt>
      <trkpt lat="59.9562766" lon="17.6682315">
        <ele>23.6896</ele>
        <time>2013-05-05T14:41:48Z</time>
      </trkpt>
      <trkpt lat="59.9562151" lon="17.668217">
        <ele>23.6896</ele>
        <time>2013-05-05T14:41:49Z</time>
      </trkpt>
      <trkpt lat="59.9561519" lon="17.6682032">
        <ele>23.6896</ele>
        <time>2013-05-05T14:41:50Z</time>
      </trkpt>
      <trkpt lat="59.956088" lon="17.6681899">
        <ele>23.6896</ele>
        <time>2013-05-05T14:41:51Z</time>
      </trkpt>
      <trkpt lat="59.9560238" lon="17.668178">
        <ele>23.6896</ele>
        <time>2013-05-05T14:41:52Z</time>
      </trkpt>
      <trkpt lat="59.9559592" lon="17.6681668">
        <ele>23.6896</ele>
        <time>2013-05-05T14:41:53Z</time>
      </trkpt>
      <trkpt lat="59.955896" lon="17.6681529">
        <ele>23.6896</ele>
        <time>2013-05-05T14:41:54Z</time>
      </trkpt>
      <trkpt lat="59.9558323" lon="17.6681405">
        <ele>23.209</ele>
        <time>2013-05-05T14:41:55Z</time>
      </trkpt>
      <trkpt lat="59.9557689" lon="17.66813">
        <ele>23.209</ele>
        <time>2013-05-05T14:41:56Z</time>
      </trkpt>
      <trkpt lat="59.9557053" lon="17.6681191">
        <ele>23.209</ele>
        <time>2013-05-05T14:41:57Z</time>
      </trkpt>
      <trkpt lat="59.9556408" lon="17.6681092">
        <ele>23.209</ele>
        <time>2013-05-05T14:41:58Z</time>
      </trkpt>
      <trkpt lat="59.9555762" lon="17.6680984">
        <ele>23.209</ele>
        <time>2013-05-05T14:41:59Z</time>
      </trkpt>
      <trkpt lat="59.9555112" lon="17.668087">
        <ele>23.209</ele>
        <time>2013-05-05T14:42:00Z</time>
      </trkpt>
      <trkpt lat="59.9554459" lon="17.6680765">
        <ele>23.209</ele>
        <time>2013-05-05T14:42:01Z</time>
      </trkpt>
      <trkpt lat="59.9553801" lon="17.6680668">
        <ele>22.7283</ele>
        <time>2013-05-05T14:42:02Z</time>
      </trkpt>
      <trkpt lat="59.9553143" lon="17.668057">
        <ele>22.7283</ele>
        <time>2013-05-05T14:42:03Z</time>
      </trkpt>
      <trkpt lat="59.9552481" lon="17.6680465">
        <ele>22.7283</ele>
        <time>2013-05-05T14:42:04Z</time>
      </trkpt>
      <trkpt lat="59.955182" lon="17.6680373">
        <ele>22.7283</ele>
        <time>2013-05-05T14:42:05Z</time>
      </trkpt>
      <trkpt lat="59.9551157" lon="17.668028">
        <ele>22.7283</ele>
        <time>2013-05-05T14:42:06Z</time>
      </trkpt>
      <trkpt lat="59.9550491" lon="17.6680175">
        <ele>22.7283</ele>
        <time>2013-05-05T14:42:07Z</time>
      </trkpt>
      <trkpt lat="59.954982" lon="17.6680072">
        <ele>22.7283</ele>
        <time>2013-05-05T14:42:08Z</time>
      </trkpt>
      <trkpt lat="59.9549139" lon="17.6679973">
        <ele>22.7283</ele>
        <time>2013-05-05T14:42:09Z</time>
      </trkpt>
      <trkpt lat="59.9548455" lon="17.6679866">
        <ele>22.7283</ele>
        <time>2013-05-05T14:42:10Z</time>
      </trkpt>
      <trkpt lat="59.9547764" lon="17.6679756">
        <ele>22.7283</ele>
        <time>2013-05-05T14:42:11Z</time>
      </trkpt>
      <trkpt lat="59.9547067" lon="17.6679654">
        <ele>22.7283</ele>
        <time>2013-05-05T14:42:12Z</time>
      </trkpt>
      <trkpt lat="59.9546362" lon="17.667955">
        <ele>22.7283</ele>
        <time>2013-05-05T14:42:13Z</time>
      </trkpt>
      <trkpt lat="59.9545653" lon="17.6679444">
        <ele>22.7283</ele>
        <time>2013-05-05T14:42:14Z</time>
      </trkpt>
      <trkpt lat="59.9544943" lon="17.6679352">
        <ele>22.2476</ele>
        <time>2013-05-05T14:42:15Z</time>
      </trkpt>
      <trkpt lat="59.9544239" lon="17.6679269">
        <ele>22.2476</ele>
        <time>2013-05-05T14:42:16Z</time>
      </trkpt>
      <trkpt lat="59.9543534" lon="17.6679192">
        <ele>22.2476</ele>
        <time>2013-05-05T14:42:17Z</time>
      </trkpt>
      <trkpt lat="59.9542822" lon="17.6679099">
        <ele>21.767</ele>
        <time>2013-05-05T14:42:18Z</time>
      </trkpt>
      <trkpt lat="59.9542112" lon="17.667898">
        <ele>21.767</ele>
        <time>2013-05-05T14:42:19Z</time>
      </trkpt>
      <trkpt lat="59.9541403" lon="17.6678867">
        <ele>21.767</ele>
        <time>2013-05-05T14:42:20Z</time>
      </trkpt>
      <trkpt lat="59.9540699" lon="17.6678766">
        <ele>21.767</ele>
        <time>2013-05-05T14:42:21Z</time>
      </trkpt>
      <trkpt lat="59.954" lon="17.6678667">
        <ele>21.767</ele>
        <time>2013-05-05T14:42:22Z</time>
      </trkpt>
      <trkpt lat="59.9539307" lon="17.6678555">
        <ele>21.767</ele>
        <time>2013-05-05T14:42:23Z</time>
      </trkpt>
      <trkpt lat="59.9538626" lon="17.6678425">
        <ele>21.767</ele>
        <time>2013-05-05T14:42:24Z</time>
      </trkpt>
      <trkpt lat="59.9537949" lon="17.6678309">
        <ele>21.767</ele>
        <time>2013-05-05T14:42:25Z</time>
      </trkpt>
      <trkpt lat="59.9537276" lon="17.6678213">
        <ele>21.767</ele>
        <time>2013-05-05T14:42:26Z</time>
      </trkpt>
      <trkpt lat="59.9536598" lon="17.667813">
        <ele>21.767</ele>
        <time>2013-05-05T14:42:27Z</time>
      </trkpt>
      <trkpt lat="59.9535909" lon="17.6678031">
        <ele>21.767</ele>
        <time>2013-05-05T14:42:28Z</time>
      </trkpt>
      <trkpt lat="59.9535214" lon="17.66779">
        <ele>22.2476</ele>
        <time>2013-05-05T14:42:29Z</time>
      </trkpt>
      <trkpt lat="59.9534515" lon="17.6677788">
        <ele>22.2476</ele>
        <time>2013-05-05T14:42:30Z</time>
      </trkpt>
      <trkpt lat="59.9533831" lon="17.6677695">
        <ele>22.7283</ele>
        <time>2013-05-05T14:42:31Z</time>
      </trkpt>
      <trkpt lat="59.9533161" lon="17.6677608">
        <ele>22.7283</ele>
        <time>2013-05-05T14:42:32Z</time>
      </trkpt>
      <trkpt lat="59.9532507" lon="17.6677534">
        <ele>22.7283</ele>
        <time>2013-05-05T14:42:33Z</time>
      </trkpt>
      <trkpt lat="59.9531862" lon="17.6677488">
        <ele>23.209</ele>
        <time>2013-05-05T14:42:34Z</time>
      </trkpt>
      <trkpt lat="59.9531221" lon="17.6677467">
        <ele>22.7283</ele>
        <time>2013-05-05T14:42:35Z</time>
      </trkpt>
      <trkpt lat="59.9530603" lon="17.6677465">
        <ele>22.7283</ele>
        <time>2013-05-05T14:42:36Z</time>
      </trkpt>
      <trkpt lat="59.9529987" lon="17.66774">
        <ele>22.7283</ele>
        <time>2013-05-05T14:42:37Z</time>
      </trkpt>
      <trkpt lat="59.9529352" lon="17.667731">
        <ele>22.2476</ele>
        <time>2013-05-05T14:42:38Z</time>
      </trkpt>
      <trkpt lat="59.9528723" lon="17.6677279">
        <ele>22.2476</ele>
        <time>2013-05-05T14:42:39Z</time>
      </trkpt>
      <trkpt lat="59.9528118" lon="17.6677294">
        <ele>22.2476</ele>
        <time>2013-05-05T14:42:40Z</time>
      </trkpt>
      <trkpt lat="59.9527532" lon="17.6677311">
        <ele>22.2476</ele>
        <time>2013-05-05T14:42:41Z</time>
      </trkpt>
      <trkpt lat="59.9526974" lon="17.667739">
        <ele>21.767</ele>
        <time>2013-05-05T14:42:42Z</time>
      </trkpt>
      <trkpt lat="59.9526451" lon="17.6677582">
        <ele>21.767</ele>
        <time>2013-05-05T14:42:43Z</time>
      </trkpt>
      <trkpt lat="59.9525964" lon="17.6677882">
        <ele>21.2864</ele>
        <time>2013-05-05T14:42:44Z</time>
      </trkpt>
      <trkpt lat="59.952549" lon="17.6678275">
        <ele>21.2864</ele>
        <time>2013-05-05T14:42:45Z</time>
      </trkpt>
      <trkpt lat="59.952499" lon="17.6678719">
        <ele>21.2864</ele>
        <time>2013-05-05T14:42:46Z</time>
      </trkpt>
      <trkpt lat="59.9524456" lon="17.667917">
        <ele>21.2864</ele>
        <time>2013-05-05T14:42:47Z</time>
      </trkpt>
      <trkpt lat="59.9523907" lon="17.6679533">
        <ele>21.2864</ele>
        <time>2013-05-05T14:42:48Z</time>
      </trkpt>
      <trkpt lat="59.9523378" lon="17.6679837">
        <ele>21.2864</ele>
        <time>2013-05-05T14:42:49Z</time>
      </trkpt>
      <trkpt lat="59.9522926" lon="17.6680291">
        <ele>21.2864</ele>
        <time>2013-05-05T14:42:50Z</time>
      </trkpt>
      <trkpt lat="59.9522648" lon="17.6681023">
        <ele>21.2864</ele>
        <time>2013-05-05T14:42:51Z</time>
      </trkpt>
      <trkpt lat="59.9522517" lon="17.6681909">
        <ele>21.2864</ele>
        <time>2013-05-05T14:42:52Z</time>
      </trkpt>
      <trkpt lat="59.952235" lon="17.668273">
        <ele>21.2864</ele>
        <time>2013-05-05T14:42:53Z</time>
      </trkpt>
      <trkpt lat="59.9522079" lon="17.6683351">
        <ele>21.2864</ele>
        <time>2013-05-05T14:42:54Z</time>
      </trkpt>
      <trkpt lat="59.9521761" lon="17.668379">
        <ele>21.2864</ele>
        <time>2013-05-05T14:42:55Z</time>
      </trkpt>
      <trkpt lat="59.952143" lon="17.6684171">
        <ele>21.2864</ele>
        <time>2013-05-05T14:42:56Z</time>
      </trkpt>
      <trkpt lat="59.9521061" lon="17.6684468">
        <ele>21.2864</ele>
        <time>2013-05-05T14:42:57Z</time>
      </trkpt>
      <trkpt lat="59.9520662" lon="17.6684618">
        <ele>21.2864</ele>
        <time>2013-05-05T14:42:58Z</time>
      </trkpt>
      <trkpt lat="59.9520281" lon="17.6684636">
        <ele>21.2864</ele>
        <time>2013-05-05T14:42:59Z</time>
      </trkpt>
      <trkpt lat="59.9519943" lon="17.6684515">
        <ele>21.767</ele>
        <time>2013-05-05T14:43:00Z</time>
      </trkpt>
      <trkpt lat="59.9519648" lon="17.6684263">
        <ele>21.2864</ele>
        <time>2013-05-05T14:43:01Z</time>
      </trkpt>
      <trkpt lat="59.9519363" lon="17.6683999">
        <ele>21.2864</ele>
        <time>2013-05-05T14:43:02Z</time>
      </trkpt>
      <trkpt lat="59.9519041" lon="17.6683816">
        <ele>21.2864</ele>
        <time>2013-05-05T14:43:03Z</time>
      </trkpt>
      <trkpt lat="59.9518688" lon="17.6683757">
        <ele>21.2864</ele>
        <time>2013-05-05T14:43:04Z</time>
      </trkpt>
      <trkpt lat="59.9518328" lon="17.6683823">
        <ele>21.2864</ele>
        <time>2013-05-05T14:43:05Z</time>
      </trkpt>
      <trkpt lat="59.9517981" lon="17.6684005">
        <ele>20.8057</ele>
        <time>2013-05-05T14:43:06Z</time>
      </trkpt>
      <trkpt lat="59.9517674" lon="17.6684354">
        <ele>20.8057</ele>
        <time>2013-05-05T14:43:07Z</time>
      </trkpt>
      <trkpt lat="59.9517509" lon="17.668487">
        <ele>21.2864</ele>
        <time>2013-05-05T14:43:08Z</time>
      </trkpt>
      <trkpt lat="59.9517504" lon="17.6685479">
        <ele>21.2864</ele>
        <time>2013-05-05T14:43:09Z</time>
      </trkpt>
      <trkpt lat="59.9517592" lon="17.6686065">
        <ele>21.2864</ele>
        <time>2013-05-05T14:43:10Z</time>
      </trkpt>
      <trkpt lat="59.9517709" lon="17.6686605">
        <ele>21.2864</ele>
        <time>2013-05-05T14:43:11Z</time>
      </trkpt>
      <trkpt lat="59.9517811" lon="17.6687141">
        <ele>21.2864</ele>
        <time>2013-05-05T14:43:12Z</time>
      </trkpt>
      <trkpt lat="59.9517893" lon="17.6687702">
        <ele>21.2864</ele>
        <time>2013-05-05T14:43:13Z</time>
      </trkpt>
      <trkpt lat="59.9517955" lon="17.6688294">
        <ele>21.2864</ele>
        <time>2013-05-05T14:43:14Z</time>
      </trkpt>
      <trkpt lat="59.9517979" lon="17.6688914">
        <ele>21.2864</ele>
        <time>2013-05-05T14:43:15Z</time>
      </trkpt>
      <trkpt lat="59.9517969" lon="17.6689551">
        <ele>21.2864</ele>
        <time>2013-05-05T14:43:16Z</time>
      </trkpt>
      <trkpt lat="59.9517939" lon="17.6690209">
        <ele>21.2864</ele>
        <time>2013-05-05T14:43:17Z</time>
      </trkpt>
      <trkpt lat="59.9517904" lon="17.6690886">
        <ele>21.2864</ele>
        <time>2013-05-05T14:43:18Z</time>
      </trkpt>
      <trkpt lat="59.9517875" lon="17.6691579">
        <ele>21.767</ele>
        <time>2013-05-05T14:43:19Z</time>
      </trkpt>
      <trkpt lat="59.9517854" lon="17.6692306">
        <ele>21.2864</ele>
        <time>2013-05-05T14:43:20Z</time>
      </trkpt>
      <trkpt lat="59.9517836" lon="17.6693069">
        <ele>21.2864</ele>
        <time>2013-05-05T14:43:21Z</time>
      </trkpt>
      <trkpt lat="59.951781" lon="17.6693865">
        <ele>21.2864</ele>
        <time>2013-05-05T14:43:22Z</time>
      </trkpt>
      <trkpt lat="59.9517776" lon="17.6694691">
        <ele>21.2864</ele>
        <time>2013-05-05T14:43:23Z</time>
      </trkpt>
      <trkpt lat="59.9517738" lon="17.6695559">
        <ele>21.2864</ele>
        <time>2013-05-05T14:43:24Z</time>
      </trkpt>
      <trkpt lat="59.9517691" lon="17.6696467">
        <ele>21.2864</ele>
        <time>2013-05-05T14:43:25Z</time>
      </trkpt>
      <trkpt lat="59.9517637" lon="17.6697409">
        <ele>21.2864</ele>
        <time>2013-05-05T14:43:26Z</time>
      </trkpt>
      <trkpt lat="59.9517592" lon="17.6698362">
        <ele>21.2864</ele>
        <time>2013-05-05T14:43:27Z</time>
      </trkpt>
      <trkpt lat="59.9517552" lon="17.6699326">
        <ele>21.2864</ele>
        <time>2013-05-05T14:43:28Z</time>
      </trkpt>
      <trkpt lat="59.9517499" lon="17.6700297">
        <ele>21.2864</ele>
        <time>2013-05-05T14:43:29Z</time>
      </trkpt>
      <trkpt lat="59.9517438" lon="17.6701259">
        <ele>21.767</ele>
        <time>2013-05-05T14:43:30Z</time>
      </trkpt>
      <trkpt lat="59.9517336" lon="17.6702325">
        <ele>21.767</ele>
        <time>2013-05-05T14:43:31Z</time>
      </trkpt>
      <trkpt lat="59.9517194" lon="17.6703366">
        <ele>21.767</ele>
        <time>2013-05-05T14:43:32Z</time>
      </trkpt>
      <trkpt lat="59.9517131" lon="17.6704341">
        <ele>21.767</ele>
        <time>2013-05-05T14:43:33Z</time>
      </trkpt>
      <trkpt lat="59.9517077" lon="17.6705324">
        <ele>21.767</ele>
        <time>2013-05-05T14:43:34Z</time>
      </trkpt>
      <trkpt lat="59.9517021" lon="17.6706382">
        <ele>22.2476</ele>
        <time>2013-05-05T14:43:35Z</time>
      </trkpt>
      <trkpt lat="59.951697" lon="17.6707521">
        <ele>22.2476</ele>
        <time>2013-05-05T14:43:36Z</time>
      </trkpt>
      <trkpt lat="59.951693" lon="17.6708818">
        <ele>22.2476</ele>
        <time>2013-05-05T14:43:37Z</time>
      </trkpt>
      <trkpt lat="59.9517083" lon="17.6709988">
        <ele>22.7283</ele>
        <time>2013-05-05T14:43:38Z</time>
      </trkpt>
      <trkpt lat="59.9517297" lon="17.6711194">
        <ele>22.7283</ele>
        <time>2013-05-05T14:43:39Z</time>
      </trkpt>
      <trkpt lat="59.951754" lon="17.6712381">
        <ele>23.209</ele>
        <time>2013-05-05T14:43:40Z</time>
      </trkpt>
      <trkpt lat="59.9517746" lon="17.671358">
        <ele>23.6896</ele>
        <time>2013-05-05T14:43:41Z</time>
      </trkpt>
      <trkpt lat="59.9517911" lon="17.6714831">
        <ele>24.1703</ele>
        <time>2013-05-05T14:43:42Z</time>
      </trkpt>
      <trkpt lat="59.9517984" lon="17.671612">
        <ele>24.651</ele>
        <time>2013-05-05T14:43:43Z</time>
      </trkpt>
      <trkpt lat="59.9517986" lon="17.6717432">
        <ele>24.651</ele>
        <time>2013-05-05T14:43:44Z</time>
      </trkpt>
      <trkpt lat="59.951799" lon="17.6718782">
        <ele>25.1317</ele>
        <time>2013-05-05T14:43:45Z</time>
      </trkpt>
      <trkpt lat="59.9518053" lon="17.6720203">
        <ele>25.1317</ele>
        <time>2013-05-05T14:43:46Z</time>
      </trkpt>
      <trkpt lat="59.9518168" lon="17.6721643">
        <ele>25.1317</ele>
        <time>2013-05-05T14:43:47Z</time>
      </trkpt>
      <trkpt lat="59.9518312" lon="17.6723099">
        <ele>25.6123</ele>
        <time>2013-05-05T14:43:48Z</time>
      </trkpt>
      <trkpt lat="59.9518467" lon="17.6724542">
        <ele>25.6123</ele>
        <time>2013-05-05T14:43:49Z</time>
      </trkpt>
      <trkpt lat="59.9518624" lon="17.6725974">
        <ele>26.0929</ele>
        <time>2013-05-05T14:43:50Z</time>
      </trkpt>
      <trkpt lat="59.9518784" lon="17.672737">
        <ele>26.0929</ele>
        <time>2013-05-05T14:43:51Z</time>
      </trkpt>
      <trkpt lat="59.9518955" lon="17.672868">
        <ele>26.5736</ele>
        <time>2013-05-05T14:43:52Z</time>
      </trkpt>
      <trkpt lat="59.9519144" lon="17.6729955">
        <ele>26.5736</ele>
        <time>2013-05-05T14:43:53Z</time>
      </trkpt>
      <trkpt lat="59.9519332" lon="17.6731209">
        <ele>26.5736</ele>
        <time>2013-05-05T14:43:54Z</time>
      </trkpt>
      <trkpt lat="59.9519517" lon="17.6732454">
        <ele>26.5736</ele>
        <time>2013-05-05T14:43:55Z</time>
      </trkpt>
      <trkpt lat="59.9519705" lon="17.6733679">
        <ele>27.0543</ele>
        <time>2013-05-05T14:43:56Z</time>
      </trkpt>
      <trkpt lat="59.9519888" lon="17.6734881">
        <ele>27.0543</ele>
        <time>2013-05-05T14:43:57Z</time>
      </trkpt>
      <trkpt lat="59.9520058" lon="17.6736072">
        <ele>27.0543</ele>
        <time>2013-05-05T14:43:58Z</time>
      </trkpt>
      <trkpt lat="59.952023" lon="17.6737233">
        <ele>27.0543</ele>
        <time>2013-05-05T14:43:59Z</time>
      </trkpt>
      <trkpt lat="59.9520421" lon="17.6738334">
        <ele>27.5349</ele>
        <time>2013-05-05T14:44:00Z</time>
      </trkpt>
      <trkpt lat="59.9520629" lon="17.6739352">
        <ele>27.5349</ele>
        <time>2013-05-05T14:44:01Z</time>
      </trkpt>
      <trkpt lat="59.9520844" lon="17.6740284">
        <ele>27.5349</ele>
        <time>2013-05-05T14:44:02Z</time>
      </trkpt>
      <trkpt lat="59.9521037" lon="17.6741176">
        <ele>28.0155</ele>
        <time>2013-05-05T14:44:03Z</time>
      </trkpt>
      <trkpt lat="59.9521217" lon="17.6742052">
        <ele>28.0155</ele>
        <time>2013-05-05T14:44:04Z</time>
      </trkpt>
      <trkpt lat="59.9521414" lon="17.6742919">
        <ele>28.0155</ele>
        <time>2013-05-05T14:44:05Z</time>
      </trkpt>
      <trkpt lat="59.9521627" lon="17.6743773">
        <ele>28.0155</ele>
        <time>2013-05-05T14:44:06Z</time>
      </trkpt>
      <trkpt lat="59.9521844" lon="17.6744648">
        <ele>28.4962</ele>
        <time>2013-05-05T14:44:07Z</time>
      </trkpt>
      <trkpt lat="59.9522042" lon="17.6745564">
        <ele>28.9769</ele>
        <time>2013-05-05T14:44:08Z</time>
      </trkpt>
      <trkpt lat="59.9522167" lon="17.6746512">
        <ele>28.9769</ele>
        <time>2013-05-05T14:44:09Z</time>
      </trkpt>
      <trkpt lat="59.9522273" lon="17.6747439">
        <ele>29.4575</ele>
        <time>2013-05-05T14:44:10Z</time>
      </trkpt>
      <trkpt lat="59.9522381" lon="17.6748299">
        <ele>29.9381</ele>
        <time>2013-05-05T14:44:11Z</time>
      </trkpt>
      <trkpt lat="59.9522492" lon="17.674908">
        <ele>29.9381</ele>
        <time>2013-05-05T14:44:12Z</time>
      </trkpt>
      <trkpt lat="59.9522618" lon="17.6749791">
        <ele>30.4188</ele>
        <time>2013-05-05T14:44:13Z</time>
      </trkpt>
      <trkpt lat="59.9522757" lon="17.6750486">
        <ele>30.4188</ele>
        <time>2013-05-05T14:44:14Z</time>
      </trkpt>
      <trkpt lat="59.952291" lon="17.675119">
        <ele>30.4188</ele>
        <time>2013-05-05T14:44:15Z</time>
      </trkpt>
      <trkpt lat="59.9523081" lon="17.6751884">
        <ele>30.4188</ele>
        <time>2013-05-05T14:44:16Z</time>
      </trkpt>
      <trkpt lat="59.9523279" lon="17.6752577">
        <ele>30.4188</ele>
        <time>2013-05-05T14:44:17Z</time>
      </trkpt>
      <trkpt lat="59.9523495" lon="17.6753298">
        <ele>30.4188</ele>
        <time>2013-05-05T14:44:18Z</time>
      </trkpt>
      <trkpt lat="59.9523736" lon="17.6754055">
        <ele>30.4188</ele>
        <time>2013-05-05T14:44:19Z</time>
      </trkpt>
      <trkpt lat="59.9524011" lon="17.6754821">
        <ele>30.4188</ele>
        <time>2013-05-05T14:44:20Z</time>
      </trkpt>
      <trkpt lat="59.9524324" lon="17.6755583">
        <ele>29.9381</ele>
        <time>2013-05-05T14:44:21Z</time>
      </trkpt>
      <trkpt lat="59.9524668" lon="17.6756361">
        <ele>29.4575</ele>
        <time>2013-05-05T14:44:22Z</time>
      </trkpt>
      <trkpt lat="59.9525041" lon="17.6757197">
        <ele>29.4575</ele>
        <time>2013-05-05T14:44:23Z</time>
      </trkpt>
      <trkpt lat="59.9525424" lon="17.6758091">
        <ele>28.9769</ele>
        <time>2013-05-05T14:44:24Z</time>
      </trkpt>
      <trkpt lat="59.9525788" lon="17.6759062">
        <ele>28.9769</ele>
        <time>2013-05-05T14:44:25Z</time>
      </trkpt>
      <trkpt lat="59.9526128" lon="17.6760105">
        <ele>28.4962</ele>
        <time>2013-05-05T14:44:26Z</time>
      </trkpt>
      <trkpt lat="59.952647" lon="17.6761161">
        <ele>28.4962</ele>
        <time>2013-05-05T14:44:27Z</time>
      </trkpt>
      <trkpt lat="59.9526827" lon="17.6762183">
        <ele>28.4962</ele>
        <time>2013-05-05T14:44:28Z</time>
      </trkpt>
      <trkpt lat="59.952718" lon="17.6763183">
        <ele>28.0155</ele>
        <time>2013-05-05T14:44:29Z</time>
      </trkpt>
      <trkpt lat="59.952753" lon="17.6764156">
        <ele>28.0155</ele>
        <time>2013-05-05T14:44:30Z</time>
      </trkpt>
      <trkpt lat="59.9527903" lon="17.6765084">
        <ele>28.0155</ele>
        <time>2013-05-05T14:44:31Z</time>
      </trkpt>
      <trkpt lat="59.9528294" lon="17.6766005">
        <ele>28.0155</ele>
        <time>2013-05-05T14:44:32Z</time>
      </trkpt>
      <trkpt lat="59.9528687" lon="17.6766932">
        <ele>28.0155</ele>
        <time>2013-05-05T14:44:33Z</time>
      </trkpt>
      <trkpt lat="59.9529066" lon="17.6767843">
        <ele>28.0155</ele>
        <time>2013-05-05T14:44:34Z</time>
      </trkpt>
      <trkpt lat="59.9529434" lon="17.676875">
        <ele>28.4962</ele>
        <time>2013-05-05T14:44:35Z</time>
      </trkpt>
      <trkpt lat="59.9529791" lon="17.6769667">
        <ele>28.4962</ele>
        <time>2013-05-05T14:44:36Z</time>
      </trkpt>
      <trkpt lat="59.9530157" lon="17.6770574">
        <ele>28.9769</ele>
        <time>2013-05-05T14:44:37Z</time>
      </trkpt>
      <trkpt lat="59.9530502" lon="17.6771474">
        <ele>28.9769</ele>
        <time>2013-05-05T14:44:38Z</time>
      </trkpt>
      <trkpt lat="59.953083" lon="17.6772362">
        <ele>29.4575</ele>
        <time>2013-05-05T14:44:39Z</time>
      </trkpt>
      <trkpt lat="59.9531143" lon="17.6773237">
        <ele>29.4575</ele>
        <time>2013-05-05T14:44:40Z</time>
      </trkpt>
      <trkpt lat="59.9531459" lon="17.6774095">
        <ele>29.4575</ele>
        <time>2013-05-05T14:44:41Z</time>
      </trkpt>
      <trkpt lat="59.9531769" lon="17.6774951">
        <ele>29.4575</ele>
        <time>2013-05-05T14:44:42Z</time>
      </trkpt>
      <trkpt lat="59.9532074" lon="17.6775805">
        <ele>29.4575</ele>
        <time>2013-05-05T14:44:43Z</time>
      </trkpt>
      <trkpt lat="59.9532376" lon="17.6776646">
        <ele>29.9381</ele>
        <time>2013-05-05T14:44:44Z</time>
      </trkpt>
      <trkpt lat="59.9532677" lon="17.6777483">
        <ele>29.9381</ele>
        <time>2013-05-05T14:44:45Z</time>
      </trkpt>
      <trkpt lat="59.9532988" lon="17.6778342">
        <ele>29.4575</ele>
        <time>2013-05-05T14:44:46Z</time>
      </trkpt>
      <trkpt lat="59.9533306" lon="17.6779187">
        <ele>29.4575</ele>
        <time>2013-05-05T14:44:47Z</time>
      </trkpt>
      <trkpt lat="59.9533623" lon="17.6780043">
        <ele>29.9381</ele>
        <time>2013-05-05T14:44:48Z</time>
      </trkpt>
      <trkpt lat="59.9533924" lon="17.6780909">
        <ele>29.9381</ele>
        <time>2013-05-05T14:44:49Z</time>
      </trkpt>
      <trkpt lat="59.953422" lon="17.6781768">
        <ele>29.9381</ele>
        <time>2013-05-05T14:44:50Z</time>
      </trkpt>
      <trkpt lat="59.9534521" lon="17.6782607">
        <ele>30.4188</ele>
        <time>2013-05-05T14:44:51Z</time>
      </trkpt>
      <trkpt lat="59.9534803" lon="17.6783479">
        <ele>30.4188</ele>
        <time>2013-05-05T14:44:52Z</time>
      </trkpt>
      <trkpt lat="59.9535085" lon="17.6784358">
        <ele>30.4188</ele>
        <time>2013-05-05T14:44:53Z</time>
      </trkpt>
      <trkpt lat="59.953537" lon="17.678527">
        <ele>30.4188</ele>
        <time>2013-05-05T14:44:54Z</time>
      </trkpt>
      <trkpt lat="59.9535671" lon="17.6786172">
        <ele>30.4188</ele>
        <time>2013-05-05T14:44:55Z</time>
      </trkpt>
      <trkpt lat="59.9536001" lon="17.6787063">
        <ele>30.4188</ele>
        <time>2013-05-05T14:44:56Z</time>
      </trkpt>
      <trkpt lat="59.9536337" lon="17.6787974">
        <ele>30.8995</ele>
        <time>2013-05-05T14:44:57Z</time>
      </trkpt>
      <trkpt lat="59.9536649" lon="17.6788891">
        <ele>30.8995</ele>
        <time>2013-05-05T14:44:58Z</time>
      </trkpt>
      <trkpt lat="59.9536945" lon="17.6789804">
        <ele>30.8995</ele>
        <time>2013-05-05T14:44:59Z</time>
      </trkpt>
      <trkpt lat="59.953725" lon="17.6790725">
        <ele>30.8995</ele>
        <time>2013-05-05T14:45:00Z</time>
      </trkpt>
      <trkpt lat="59.9537557" lon="17.6791657">
        <ele>30.8995</ele>
        <time>2013-05-05T14:45:01Z</time>
      </trkpt>
      <trkpt lat="59.9537872" lon="17.6792593">
        <ele>30.8995</ele>
        <time>2013-05-05T14:45:02Z</time>
      </trkpt>
      <trkpt lat="59.9538184" lon="17.679352">
        <ele>30.8995</ele>
        <time>2013-05-05T14:45:03Z</time>
      </trkpt>
      <trkpt lat="59.9538463" lon="17.6794449">
        <ele>30.4188</ele>
        <time>2013-05-05T14:45:04Z</time>
      </trkpt>
      <trkpt lat="59.9538731" lon="17.6795376">
        <ele>30.4188</ele>
        <time>2013-05-05T14:45:05Z</time>
      </trkpt>
      <trkpt lat="59.9539017" lon="17.6796282">
        <ele>30.4188</ele>
        <time>2013-05-05T14:45:06Z</time>
      </trkpt>
      <trkpt lat="59.9539308" lon="17.6797174">
        <ele>29.9381</ele>
        <time>2013-05-05T14:45:07Z</time>
      </trkpt>
      <trkpt lat="59.9539606" lon="17.6798073">
        <ele>29.9381</ele>
        <time>2013-05-05T14:45:08Z</time>
      </trkpt>
      <trkpt lat="59.9539906" lon="17.6798972">
        <ele>29.9381</ele>
        <time>2013-05-05T14:45:09Z</time>
      </trkpt>
      <trkpt lat="59.9540208" lon="17.6799866">
        <ele>29.9381</ele>
        <time>2013-05-05T14:45:10Z</time>
      </trkpt>
      <trkpt lat="59.954052" lon="17.6800739">
        <ele>29.9381</ele>
        <time>2013-05-05T14:45:11Z</time>
      </trkpt>
      <trkpt lat="59.9540813" lon="17.6801623">
        <ele>29.4575</ele>
        <time>2013-05-05T14:45:12Z</time>
      </trkpt>
      <trkpt lat="59.9541097" lon="17.680251">
        <ele>28.9769</ele>
        <time>2013-05-05T14:45:13Z</time>
      </trkpt>
      <trkpt lat="59.9541384" lon="17.680338">
        <ele>28.4962</ele>
        <time>2013-05-05T14:45:14Z</time>
      </trkpt>
      <trkpt lat="59.954167" lon="17.6804229">
        <ele>28.4962</ele>
        <time>2013-05-05T14:45:15Z</time>
      </trkpt>
      <trkpt lat="59.9541954" lon="17.6805063">
        <ele>28.0155</ele>
        <time>2013-05-05T14:45:16Z</time>
      </trkpt>
      <trkpt lat="59.9542234" lon="17.6805879">
        <ele>28.0155</ele>
        <time>2013-05-05T14:45:17Z</time>
      </trkpt>
      <trkpt lat="59.9542513" lon="17.6806683">
        <ele>27.5349</ele>
        <time>2013-05-05T14:45:18Z</time>
      </trkpt>
      <trkpt lat="59.9542776" lon="17.6807494">
        <ele>27.5349</ele>
        <time>2013-05-05T14:45:19Z</time>
      </trkpt>
      <trkpt lat="59.9543033" lon="17.6808288">
        <ele>27.0543</ele>
        <time>2013-05-05T14:45:20Z</time>
      </trkpt>
      <trkpt lat="59.954328" lon="17.6809086">
        <ele>27.0543</ele>
        <time>2013-05-05T14:45:21Z</time>
      </trkpt>
      <trkpt lat="59.9543513" lon="17.6809917">
        <ele>26.5736</ele>
        <time>2013-05-05T14:45:22Z</time>
      </trkpt>
      <trkpt lat="59.9543742" lon="17.681075">
        <ele>26.5736</ele>
        <time>2013-05-05T14:45:23Z</time>
      </trkpt>
      <trkpt lat="59.9543979" lon="17.6811554">
        <ele>26.5736</ele>
        <time>2013-05-05T14:45:24Z</time>
      </trkpt>
      <trkpt lat="59.9544214" lon="17.6812318">
        <ele>26.5736</ele>
        <time>2013-05-05T14:45:25Z</time>
      </trkpt>
      <trkpt lat="59.9544462" lon="17.681303">
        <ele>26.5736</ele>
        <time>2013-05-05T14:45:26Z</time>
      </trkpt>
      <trkpt lat="59.9544731" lon="17.6813698">
        <ele>26.5736</ele>
        <time>2013-05-05T14:45:27Z</time>
      </trkpt>
      <trkpt lat="59.954497" lon="17.6814361">
        <ele>26.5736</ele>
        <time>2013-05-05T14:45:28Z</time>
      </trkpt>
      <trkpt lat="59.9545166" lon="17.6815046">
        <ele>26.5736</ele>
        <time>2013-05-05T14:45:29Z</time>
      </trkpt>
      <trkpt lat="59.9545347" lon="17.6815696">
        <ele>26.0929</ele>
        <time>2013-05-05T14:45:30Z</time>
      </trkpt>
      <trkpt lat="59.9545539" lon="17.6816286">
        <ele>26.0929</ele>
        <time>2013-05-05T14:45:31Z</time>
      </trkpt>
      <trkpt lat="59.9545728" lon="17.6816844">
        <ele>26.0929</ele>
        <time>2013-05-05T14:45:32Z</time>
      </trkpt>
      <trkpt lat="59.9545905" lon="17.6817384">
        <ele>26.0929</ele>
        <time>2013-05-05T14:45:33Z</time>
      </trkpt>
      <trkpt lat="59.9546076" lon="17.6817903">
        <ele>26.0929</ele>
        <time>2013-05-05T14:45:34Z</time>
      </trkpt>
      <trkpt lat="59.9546253" lon="17.6818398">
        <ele>26.0929</ele>
        <time>2013-05-05T14:45:35Z</time>
      </trkpt>
      <trkpt lat="59.954646" lon="17.6818827">
        <ele>26.0929</ele>
        <time>2013-05-05T14:45:36Z</time>
      </trkpt>
      <trkpt lat="59.9546702" lon="17.6819154">
        <ele>26.0929</ele>
        <time>2013-05-05T14:45:37Z</time>
      </trkpt>
      <trkpt lat="59.9546974" lon="17.681941">
        <ele>26.0929</ele>
        <time>2013-05-05T14:45:38Z</time>
      </trkpt>
      <trkpt lat="59.9547263" lon="17.6819586">
        <ele>26.0929</ele>
        <time>2013-05-05T14:45:39Z</time>
      </trkpt>
      <trkpt lat="59.9547537" lon="17.681977">
        <ele>25.6123</ele>
        <time>2013-05-05T14:45:40Z</time>
      </trkpt>
      <trkpt lat="59.9547766" lon="17.6820064">
        <ele>25.6123</ele>
        <time>2013-05-05T14:45:41Z</time>
      </trkpt>
      <trkpt lat="59.9547945" lon="17.6820428">
        <ele>25.6123</ele>
        <time>2013-05-05T14:45:42Z</time>
      </trkpt>
      <trkpt lat="59.9548082" lon="17.6820808">
        <ele>25.6123</ele>
        <time>2013-05-05T14:45:43Z</time>
      </trkpt>
      <trkpt lat="59.9548204" lon="17.6821171">
        <ele>25.6123</ele>
        <time>2013-05-05T14:45:44Z</time>
      </trkpt>
      <trkpt lat="59.9548311" lon="17.6821557">
        <ele>25.6123</ele>
        <time>2013-05-05T14:45:45Z</time>
      </trkpt>
      <trkpt lat="59.9548415" lon="17.6822">
        <ele>25.6123</ele>
        <time>2013-05-05T14:45:46Z</time>
      </trkpt>
      <trkpt lat="59.9548549" lon="17.6822489">
        <ele>25.6123</ele>
        <time>2013-05-05T14:45:47Z</time>
      </trkpt>
      <trkpt lat="59.9548728" lon="17.6823038">
        <ele>25.6123</ele>
        <time>2013-05-05T14:45:48Z</time>
      </trkpt>
      <trkpt lat="59.9548937" lon="17.6823656">
        <ele>25.6123</ele>
        <time>2013-05-05T14:45:49Z</time>
      </trkpt>
      <trkpt lat="59.9549165" lon="17.6824338">
        <ele>25.6123</ele>
        <time>2013-05-05T14:45:50Z</time>
      </trkpt>
      <trkpt lat="59.9549423" lon="17.6825065">
        <ele>25.6123</ele>
        <time>2013-05-05T14:45:51Z</time>
      </trkpt>
      <trkpt lat="59.9549698" lon="17.6825886">
        <ele>26.0929</ele>
        <time>2013-05-05T14:45:52Z</time>
      </trkpt>
      <trkpt lat="59.9550014" lon="17.6826763">
        <ele>26.0929</ele>
        <time>2013-05-05T14:45:53Z</time>
      </trkpt>
      <trkpt lat="59.9550325" lon="17.6827701">
        <ele>26.5736</ele>
        <time>2013-05-05T14:45:54Z</time>
      </trkpt>
      <trkpt lat="59.9550623" lon="17.6828626">
        <ele>27.0543</ele>
        <time>2013-05-05T14:45:55Z</time>
      </trkpt>
      <trkpt lat="59.955086" lon="17.682956">
        <ele>27.0543</ele>
        <time>2013-05-05T14:45:56Z</time>
      </trkpt>
      <trkpt lat="59.9551112" lon="17.6830545">
        <ele>27.0543</ele>
        <time>2013-05-05T14:45:57Z</time>
      </trkpt>
      <trkpt lat="59.9551374" lon="17.6831575">
        <ele>26.5736</ele>
        <time>2013-05-05T14:45:58Z</time>
      </trkpt>
      <trkpt lat="59.9551639" lon="17.6832606">
        <ele>26.5736</ele>
        <time>2013-05-05T14:45:59Z</time>
      </trkpt>
      <trkpt lat="59.9551901" lon="17.6833647">
        <ele>26.5736</ele>
        <time>2013-05-05T14:46:00Z</time>
      </trkpt>
      <trkpt lat="59.9552143" lon="17.6834705">
        <ele>26.5736</ele>
        <time>2013-05-05T14:46:01Z</time>
      </trkpt>
      <trkpt lat="59.9552387" lon="17.6835761">
        <ele>26.5736</ele>
        <time>2013-05-05T14:46:02Z</time>
      </trkpt>
      <trkpt lat="59.9552647" lon="17.6836822">
        <ele>26.5736</ele>
        <time>2013-05-05T14:46:03Z</time>
      </trkpt>
      <trkpt lat="59.9552883" lon="17.6837924">
        <ele>26.5736</ele>
        <time>2013-05-05T14:46:04Z</time>
      </trkpt>
      <trkpt lat="59.9553096" lon="17.6839092">
        <ele>26.5736</ele>
        <time>2013-05-05T14:46:05Z</time>
      </trkpt>
      <trkpt lat="59.9553312" lon="17.6840303">
        <ele>26.5736</ele>
        <time>2013-05-05T14:46:06Z</time>
      </trkpt>
      <trkpt lat="59.9553542" lon="17.6841552">
        <ele>26.5736</ele>
        <time>2013-05-05T14:46:07Z</time>
      </trkpt>
      <trkpt lat="59.9553796" lon="17.6842873">
        <ele>26.5736</ele>
        <time>2013-05-05T14:46:08Z</time>
      </trkpt>
      <trkpt lat="59.955405" lon="17.6844283">
        <ele>26.5736</ele>
        <time>2013-05-05T14:46:09Z</time>
      </trkpt>
      <trkpt lat="59.9554313" lon="17.6845769">
        <ele>26.5736</ele>
        <time>2013-05-05T14:46:10Z</time>
      </trkpt>
      <trkpt lat="59.9554562" lon="17.6847272">
        <ele>26.5736</ele>
        <time>2013-05-05T14:46:11Z</time>
      </trkpt>
      <trkpt lat="59.9554801" lon="17.6848736">
        <ele>26.5736</ele>
        <time>2013-05-05T14:46:12Z</time>
      </trkpt>
      <trkpt lat="59.955504" lon="17.6850166">
        <ele>26.5736</ele>
        <time>2013-05-05T14:46:13Z</time>
      </trkpt>
      <trkpt lat="59.9555255" lon="17.6851581">
        <ele>26.5736</ele>
        <time>2013-05-05T14:46:14Z</time>
      </trkpt>
      <trkpt lat="59.9555443" lon="17.6852969">
        <ele>27.0543</ele>
        <time>2013-05-05T14:46:15Z</time>
      </trkpt>
      <trkpt lat="59.9555628" lon="17.6854326">
        <ele>27.0543</ele>
        <time>2013-05-05T14:46:16Z</time>
      </trkpt>
      <trkpt lat="59.9555811" lon="17.685564">
        <ele>27.0543</ele>
        <time>2013-05-05T14:46:17Z</time>
      </trkpt>
      <trkpt lat="59.9555977" lon="17.6856914">
        <ele>27.0543</ele>
        <time>2013-05-05T14:46:18Z</time>
      </trkpt>
      <trkpt lat="59.955613" lon="17.685815">
        <ele>27.0543</ele>
        <time>2013-05-05T14:46:19Z</time>
      </trkpt>
      <trkpt lat="59.9556291" lon="17.6859351">
        <ele>27.5349</ele>
        <time>2013-05-05T14:46:20Z</time>
      </trkpt>
      <trkpt lat="59.9556463" lon="17.6860521">
        <ele>27.5349</ele>
        <time>2013-05-05T14:46:21Z</time>
      </trkpt>
      <trkpt lat="59.9556627" lon="17.6861666">
        <ele>27.5349</ele>
        <time>2013-05-05T14:46:22Z</time>
      </trkpt>
      <trkpt lat="59.9556767" lon="17.6862795">
        <ele>27.5349</ele>
        <time>2013-05-05T14:46:23Z</time>
      </trkpt>
      <trkpt lat="59.9556896" lon="17.6863903">
        <ele>27.5349</ele>
        <time>2013-05-05T14:46:24Z</time>
      </trkpt>
      <trkpt lat="59.9557054" lon="17.6864991">
        <ele>27.5349</ele>
        <time>2013-05-05T14:46:25Z</time>
      </trkpt>
      <trkpt lat="59.9557224" lon="17.6866051">
        <ele>27.5349</ele>
        <time>2013-05-05T14:46:26Z</time>
      </trkpt>
      <trkpt lat="59.9557378" lon="17.6867093">
        <ele>28.0155</ele>
        <time>2013-05-05T14:46:27Z</time>
      </trkpt>
      <trkpt lat="59.9557518" lon="17.686814">
        <ele>28.0155</ele>
        <time>2013-05-05T14:46:28Z</time>
      </trkpt>
      <trkpt lat="59.9557658" lon="17.6869201">
        <ele>28.0155</ele>
        <time>2013-05-05T14:46:29Z</time>
      </trkpt>
      <trkpt lat="59.9557801" lon="17.687026">
        <ele>28.0155</ele>
        <time>2013-05-05T14:46:30Z</time>
      </trkpt>
      <trkpt lat="59.9557955" lon="17.6871323">
        <ele>28.0155</ele>
        <time>2013-05-05T14:46:31Z</time>
      </trkpt>
      <trkpt lat="59.9558124" lon="17.6872403">
        <ele>28.0155</ele>
        <time>2013-05-05T14:46:32Z</time>
      </trkpt>
      <trkpt lat="59.9558297" lon="17.6873507">
        <ele>28.0155</ele>
        <time>2013-05-05T14:46:33Z</time>
      </trkpt>
      <trkpt lat="59.9558483" lon="17.6874621">
        <ele>28.0155</ele>
        <time>2013-05-05T14:46:34Z</time>
      </trkpt>
      <trkpt lat="59.955867" lon="17.6875721">
        <ele>28.0155</ele>
        <time>2013-05-05T14:46:35Z</time>
      </trkpt>
      <trkpt lat="59.9558852" lon="17.6876798">
        <ele>28.0155</ele>
        <time>2013-05-05T14:46:36Z</time>
      </trkpt>
      <trkpt lat="59.9559022" lon="17.6877872">
        <ele>28.0155</ele>
        <time>2013-05-05T14:46:37Z</time>
      </trkpt>
      <trkpt lat="59.9559183" lon="17.687893">
        <ele>28.0155</ele>
        <time>2013-05-05T14:46:38Z</time>
      </trkpt>
      <trkpt lat="59.9559345" lon="17.6879962">
        <ele>28.0155</ele>
        <time>2013-05-05T14:46:39Z</time>
      </trkpt>
      <trkpt lat="59.9559512" lon="17.6880976">
        <ele>28.0155</ele>
        <time>2013-05-05T14:46:40Z</time>
      </trkpt>
      <trkpt lat="59.955968" lon="17.6881994">
        <ele>28.0155</ele>
        <time>2013-05-05T14:46:41Z</time>
      </trkpt>
      <trkpt lat="59.9559831" lon="17.6883045">
        <ele>28.4962</ele>
        <time>2013-05-05T14:46:42Z</time>
      </trkpt>
      <trkpt lat="59.9559977" lon="17.6884121">
        <ele>28.4962</ele>
        <time>2013-05-05T14:46:43Z</time>
      </trkpt>
      <trkpt lat="59.9560162" lon="17.6885194">
        <ele>28.4962</ele>
        <time>2013-05-05T14:46:44Z</time>
      </trkpt>
      <trkpt lat="59.9560406" lon="17.6886218">
        <ele>28.4962</ele>
        <time>2013-05-05T14:46:45Z</time>
      </trkpt>
      <trkpt lat="59.9560686" lon="17.688716">
        <ele>28.9769</ele>
        <time>2013-05-05T14:46:46Z</time>
      </trkpt>
      <trkpt lat="59.9560986" lon="17.6888053">
        <ele>28.9769</ele>
        <time>2013-05-05T14:46:47Z</time>
      </trkpt>
      <trkpt lat="59.9561281" lon="17.6888981">
        <ele>28.9769</ele>
        <time>2013-05-05T14:46:48Z</time>
      </trkpt>
      <trkpt lat="59.9561546" lon="17.6889964">
        <ele>28.4962</ele>
        <time>2013-05-05T14:46:49Z</time>
      </trkpt>
      <trkpt lat="59.9561771" lon="17.6890992">
        <ele>28.4962</ele>
        <time>2013-05-05T14:46:50Z</time>
      </trkpt>
      <trkpt lat="59.956197" lon="17.6892058">
        <ele>28.4962</ele>
        <time>2013-05-05T14:46:51Z</time>
      </trkpt>
      <trkpt lat="59.9562172" lon="17.6893134">
        <ele>28.4962</ele>
        <time>2013-05-05T14:46:52Z</time>
      </trkpt>
      <trkpt lat="59.9562384" lon="17.6894177">
        <ele>28.4962</ele>
        <time>2013-05-05T14:46:53Z</time>
      </trkpt>
      <trkpt lat="59.956261" lon="17.6895169">
        <ele>28.4962</ele>
        <time>2013-05-05T14:46:54Z</time>
      </trkpt>
      <trkpt lat="59.9562834" lon="17.6896128">
        <ele>28.4962</ele>
        <time>2013-05-05T14:46:55Z</time>
      </trkpt>
      <trkpt lat="59.9563048" lon="17.6897094">
        <ele>28.4962</ele>
        <time>2013-05-05T14:46:56Z</time>
      </trkpt>
      <trkpt lat="59.9563286" lon="17.6898029">
        <ele>28.0155</ele>
        <time>2013-05-05T14:46:57Z</time>
      </trkpt>
      <trkpt lat="59.9563539" lon="17.6898952">
        <ele>28.0155</ele>
        <time>2013-05-05T14:46:58Z</time>
      </trkpt>
      <trkpt lat="59.9563788" lon="17.6899906">
        <ele>28.0155</ele>
        <time>2013-05-05T14:46:59Z</time>
      </trkpt>
      <trkpt lat="59.9564048" lon="17.6900854">
        <ele>28.0155</ele>
        <time>2013-05-05T14:47:00Z</time>
      </trkpt>
      <trkpt lat="59.9564328" lon="17.6901771">
        <ele>28.0155</ele>
        <time>2013-05-05T14:47:01Z</time>
      </trkpt>
      <trkpt lat="59.9564627" lon="17.6902676">
        <ele>28.0155</ele>
        <time>2013-05-05T14:47:02Z</time>
      </trkpt>
      <trkpt lat="59.9564927" lon="17.6903578">
        <ele>27.5349</ele>
        <time>2013-05-05T14:47:03Z</time>
      </trkpt>
      <trkpt lat="59.9565232" lon="17.6904463">
        <ele>27.5349</ele>
        <time>2013-05-05T14:47:04Z</time>
      </trkpt>
      <trkpt lat="59.9565548" lon="17.6905376">
        <ele>27.5349</ele>
        <time>2013-05-05T14:47:05Z</time>
      </trkpt>
      <trkpt lat="59.956587" lon="17.6906333">
        <ele>27.0543</ele>
        <time>2013-05-05T14:47:06Z</time>
      </trkpt>
      <trkpt lat="59.9566188" lon="17.6907359">
        <ele>27.0543</ele>
        <time>2013-05-05T14:47:07Z</time>
      </trkpt>
      <trkpt lat="59.9566487" lon="17.6908432">
        <ele>27.5349</ele>
        <time>2013-05-05T14:47:08Z</time>
      </trkpt>
      <trkpt lat="59.9566823" lon="17.6909478">
        <ele>27.0543</ele>
        <time>2013-05-05T14:47:09Z</time>
      </trkpt>
      <trkpt lat="59.956716" lon="17.6910562">
        <ele>27.0543</ele>
        <time>2013-05-05T14:47:10Z</time>
      </trkpt>
      <trkpt lat="59.9567513" lon="17.691167">
        <ele>27.0543</ele>
        <time>2013-05-05T14:47:11Z</time>
      </trkpt>
      <trkpt lat="59.9567886" lon="17.6912798">
        <ele>27.0543</ele>
        <time>2013-05-05T14:47:12Z</time>
      </trkpt>
      <trkpt lat="59.9568267" lon="17.6913954">
        <ele>26.5736</ele>
        <time>2013-05-05T14:47:13Z</time>
      </trkpt>
      <trkpt lat="59.9568653" lon="17.6915121">
        <ele>26.5736</ele>
        <time>2013-05-05T14:47:14Z</time>
      </trkpt>
      <trkpt lat="59.9569051" lon="17.6916299">
        <ele>26.5736</ele>
        <time>2013-05-05T14:47:15Z</time>
      </trkpt>
      <trkpt lat="59.9569455" lon="17.691748">
        <ele>26.5736</ele>
        <time>2013-05-05T14:47:16Z</time>
      </trkpt>
      <trkpt lat="59.9569863" lon="17.691865">
        <ele>26.5736</ele>
        <time>2013-05-05T14:47:17Z</time>
      </trkpt>
      <trkpt lat="59.9570269" lon="17.6919802">
        <ele>26.5736</ele>
        <time>2013-05-05T14:47:18Z</time>
      </trkpt>
      <trkpt lat="59.9570667" lon="17.6920942">
        <ele>26.5736</ele>
        <time>2013-05-05T14:47:19Z</time>
      </trkpt>
      <trkpt lat="59.9571051" lon="17.6922072">
        <ele>26.5736</ele>
        <time>2013-05-05T14:47:20Z</time>
      </trkpt>
      <trkpt lat="59.9571433" lon="17.6923193">
        <ele>26.5736</ele>
        <time>2013-05-05T14:47:21Z</time>
      </trkpt>
      <trkpt lat="59.9571807" lon="17.6924283">
        <ele>26.5736</ele>
        <time>2013-05-05T14:47:22Z</time>
      </trkpt>
      <trkpt lat="59.9572171" lon="17.6925348">
        <ele>26.5736</ele>
        <time>2013-05-05T14:47:23Z</time>
      </trkpt>
      <trkpt lat="59.957254" lon="17.6926382">
        <ele>27.0543</ele>
        <time>2013-05-05T14:47:24Z</time>
      </trkpt>
      <trkpt lat="59.9572909" lon="17.6927436">
        <ele>27.0543</ele>
        <time>2013-05-05T14:47:25Z</time>
      </trkpt>
      <trkpt lat="59.9573276" lon="17.692852">
        <ele>27.0543</ele>
        <time>2013-05-05T14:47:26Z</time>
      </trkpt>
      <trkpt lat="59.9573649" lon="17.6929613">
        <ele>27.0543</ele>
        <time>2013-05-05T14:47:27Z</time>
      </trkpt>
      <trkpt lat="59.9574046" lon="17.6930699">
        <ele>27.0543</ele>
        <time>2013-05-05T14:47:28Z</time>
      </trkpt>
      <trkpt lat="59.9574453" lon="17.6931794">
        <ele>27.0543</ele>
        <time>2013-05-05T14:47:29Z</time>
      </trkpt>
      <trkpt lat="59.9574857" lon="17.6932912">
        <ele>27.5349</ele>
        <time>2013-05-05T14:47:30Z</time>
      </trkpt>
      <trkpt lat="59.9575246" lon="17.6934042">
        <ele>27.0543</ele>
        <time>2013-05-05T14:47:31Z</time>
      </trkpt>
      <trkpt lat="59.957563" lon="17.6935185">
        <ele>27.0543</ele>
        <time>2013-05-05T14:47:32Z</time>
      </trkpt>
      <trkpt lat="59.9576018" lon="17.6936321">
        <ele>27.0543</ele>
        <time>2013-05-05T14:47:33Z</time>
      </trkpt>
      <trkpt lat="59.9576398" lon="17.6937431">
        <ele>27.0543</ele>
        <time>2013-05-05T14:47:34Z</time>
      </trkpt>
      <trkpt lat="59.9576764" lon="17.6938545">
        <ele>27.0543</ele>
        <time>2013-05-05T14:47:35Z</time>
      </trkpt>
      <trkpt lat="59.9577125" lon="17.6939628">
        <ele>27.0543</ele>
        <time>2013-05-05T14:47:36Z</time>
      </trkpt>
      <trkpt lat="59.9577489" lon="17.6940662">
        <ele>27.0543</ele>
        <time>2013-05-05T14:47:37Z</time>
      </trkpt>
      <trkpt lat="59.9577851" lon="17.6941674">
        <ele>27.0543</ele>
        <time>2013-05-05T14:47:38Z</time>
      </trkpt>
      <trkpt lat="59.9578204" lon="17.6942708">
        <ele>27.0543</ele>
        <time>2013-05-05T14:47:39Z</time>
      </trkpt>
      <trkpt lat="59.9578556" lon="17.6943746">
        <ele>27.0543</ele>
        <time>2013-05-05T14:47:40Z</time>
      </trkpt>
      <trkpt lat="59.9578898" lon="17.6944764">
        <ele>26.5736</ele>
        <time>2013-05-05T14:47:41Z</time>
      </trkpt>
      <trkpt lat="59.9579233" lon="17.694574">
        <ele>26.5736</ele>
        <time>2013-05-05T14:47:42Z</time>
      </trkpt>
      <trkpt lat="59.9579568" lon="17.6946692">
        <ele>26.5736</ele>
        <time>2013-05-05T14:47:43Z</time>
      </trkpt>
      <trkpt lat="59.9579914" lon="17.6947649">
        <ele>26.5736</ele>
        <time>2013-05-05T14:47:44Z</time>
      </trkpt>
      <trkpt lat="59.9580257" lon="17.6948641">
        <ele>26.5736</ele>
        <time>2013-05-05T14:47:45Z</time>
      </trkpt>
      <trkpt lat="59.9580599" lon="17.694965">
        <ele>26.0929</ele>
        <time>2013-05-05T14:47:46Z</time>
      </trkpt>
      <trkpt lat="59.9580953" lon="17.6950629">
        <ele>26.0929</ele>
        <time>2013-05-05T14:47:47Z</time>
      </trkpt>
      <trkpt lat="59.958131" lon="17.6951577">
        <ele>26.0929</ele>
        <time>2013-05-05T14:47:48Z</time>
      </trkpt>
      <trkpt lat="59.9581668" lon="17.6952502">
        <ele>26.0929</ele>
        <time>2013-05-05T14:47:49Z</time>
      </trkpt>
      <trkpt lat="59.9582022" lon="17.6953412">
        <ele>26.0929</ele>
        <time>2013-05-05T14:47:50Z</time>
      </trkpt>
      <trkpt lat="59.958238" lon="17.6954348">
        <ele>26.0929</ele>
        <time>2013-05-05T14:47:51Z</time>
      </trkpt>
      <trkpt lat="59.9582746" lon="17.695531">
        <ele>26.0929</ele>
        <time>2013-05-05T14:47:52Z</time>
      </trkpt>
      <trkpt lat="59.9583124" lon="17.6956259">
        <ele>26.0929</ele>
        <time>2013-05-05T14:47:53Z</time>
      </trkpt>
      <trkpt lat="59.9583501" lon="17.6957187">
        <ele>26.0929</ele>
        <time>2013-05-05T14:47:54Z</time>
      </trkpt>
      <trkpt lat="59.9583872" lon="17.6958102">
        <ele>26.0929</ele>
        <time>2013-05-05T14:47:55Z</time>
      </trkpt>
      <trkpt lat="59.958424" lon="17.6958993">
        <ele>26.0929</ele>
        <time>2013-05-05T14:47:56Z</time>
      </trkpt>
      <trkpt lat="59.9584602" lon="17.6959865">
        <ele>25.6123</ele>
        <time>2013-05-05T14:47:57Z</time>
      </trkpt>
      <trkpt lat="59.9584954" lon="17.6960713">
        <ele>25.6123</ele>
        <time>2013-05-05T14:47:58Z</time>
      </trkpt>
      <trkpt lat="59.95853" lon="17.6961547">
        <ele>25.6123</ele>
        <time>2013-05-05T14:47:59Z</time>
      </trkpt>
      <trkpt lat="59.9585632" lon="17.6962376">
        <ele>25.6123</ele>
        <time>2013-05-05T14:48:00Z</time>
      </trkpt>
      <trkpt lat="59.9585952" lon="17.696323">
        <ele>25.6123</ele>
        <time>2013-05-05T14:48:01Z</time>
      </trkpt>
      <trkpt lat="59.9586259" lon="17.6964095">
        <ele>25.6123</ele>
        <time>2013-05-05T14:48:02Z</time>
      </trkpt>
      <trkpt lat="59.9586559" lon="17.6964997">
        <ele>25.6123</ele>
        <time>2013-05-05T14:48:03Z</time>
      </trkpt>
      <trkpt lat="59.958686" lon="17.6965921">
        <ele>25.6123</ele>
        <time>2013-05-05T14:48:04Z</time>
      </trkpt>
      <trkpt lat="59.958716" lon="17.696687">
        <ele>25.6123</ele>
        <time>2013-05-05T14:48:05Z</time>
      </trkpt>
      <trkpt lat="59.958744" lon="17.6967852">
        <ele>25.6123</ele>
        <time>2013-05-05T14:48:06Z</time>
      </trkpt>
      <trkpt lat="59.9587699" lon="17.6968867">
        <ele>25.6123</ele>
        <time>2013-05-05T14:48:07Z</time>
      </trkpt>
      <trkpt lat="59.9587943" lon="17.6969903">
        <ele>25.1317</ele>
        <time>2013-05-05T14:48:08Z</time>
      </trkpt>
      <trkpt lat="59.9588166" lon="17.6970923">
        <ele>25.1317</ele>
        <time>2013-05-05T14:48:09Z</time>
      </trkpt>
      <trkpt lat="59.9588368" lon="17.6971896">
        <ele>25.1317</ele>
        <time>2013-05-05T14:48:10Z</time>
      </trkpt>
      <trkpt lat="59.9588554" lon="17.6972897">
        <ele>25.1317</ele>
        <time>2013-05-05T14:48:11Z</time>
      </trkpt>
      <trkpt lat="59.9588744" lon="17.6973868">
        <ele>25.6123</ele>
        <time>2013-05-05T14:48:12Z</time>
      </trkpt>
      <trkpt lat="59.9588937" lon="17.6974826">
        <ele>25.6123</ele>
        <time>2013-05-05T14:48:13Z</time>
      </trkpt>
      <trkpt lat="59.9589132" lon="17.6975834">
        <ele>25.6123</ele>
        <time>2013-05-05T14:48:14Z</time>
      </trkpt>
      <trkpt lat="59.9589316" lon="17.6976864">
        <ele>26.0929</ele>
        <time>2013-05-05T14:48:15Z</time>
      </trkpt>
      <trkpt lat="59.9589457" lon="17.6977887">
        <ele>26.0929</ele>
        <time>2013-05-05T14:48:16Z</time>
      </trkpt>
      <trkpt lat="59.9589567" lon="17.6978933">
        <ele>26.5736</ele>
        <time>2013-05-05T14:48:17Z</time>
      </trkpt>
      <trkpt lat="59.9589643" lon="17.6980004">
        <ele>26.5736</ele>
        <time>2013-05-05T14:48:18Z</time>
      </trkpt>
      <trkpt lat="59.9589708" lon="17.6981109">
        <ele>27.0543</ele>
        <time>2013-05-05T14:48:19Z</time>
      </trkpt>
      <trkpt lat="59.9589765" lon="17.6982239">
        <ele>27.0543</ele>
        <time>2013-05-05T14:48:20Z</time>
      </trkpt>
      <trkpt lat="59.9589818" lon="17.6983336">
        <ele>27.5349</ele>
        <time>2013-05-05T14:48:21Z</time>
      </trkpt>
      <trkpt lat="59.9589861" lon="17.6984367">
        <ele>27.5349</ele>
        <time>2013-05-05T14:48:22Z</time>
      </trkpt>
      <trkpt lat="59.958988" lon="17.6985367">
        <ele>28.0155</ele>
        <time>2013-05-05T14:48:23Z</time>
      </trkpt>
      <trkpt lat="59.9589892" lon="17.698632">
        <ele>28.0155</ele>
        <time>2013-05-05T14:48:24Z</time>
      </trkpt>
      <trkpt lat="59.9589891" lon="17.6987287">
        <ele>28.0155</ele>
        <time>2013-05-05T14:48:25Z</time>
      </trkpt>
      <trkpt lat="59.9589918" lon="17.6988221">
        <ele>28.4962</ele>
        <time>2013-05-05T14:48:26Z</time>
      </trkpt>
      <trkpt lat="59.9589966" lon="17.698912">
        <ele>28.4962</ele>
        <time>2013-05-05T14:48:27Z</time>
      </trkpt>
      <trkpt lat="59.9589992" lon="17.6990064">
        <ele>28.4962</ele>
        <time>2013-05-05T14:48:28Z</time>
      </trkpt>
      <trkpt lat="59.9590005" lon="17.6991048">
        <ele>28.4962</ele>
        <time>2013-05-05T14:48:29Z</time>
      </trkpt>
      <trkpt lat="59.9590032" lon="17.6992054">
        <ele>28.4962</ele>
        <time>2013-05-05T14:48:30Z</time>
      </trkpt>
      <trkpt lat="59.9590077" lon="17.6993091">
        <ele>28.4962</ele>
        <time>2013-05-05T14:48:31Z</time>
      </trkpt>
      <trkpt lat="59.9590129" lon="17.6994143">
        <ele>28.4962</ele>
        <time>2013-05-05T14:48:32Z</time>
      </trkpt>
      <trkpt lat="59.9590191" lon="17.6995195">
        <ele>28.4962</ele>
        <time>2013-05-05T14:48:33Z</time>
      </trkpt>
      <trkpt lat="59.9590263" lon="17.6996255">
        <ele>28.0155</ele>
        <time>2013-05-05T14:48:34Z</time>
      </trkpt>
      <trkpt lat="59.9590345" lon="17.6997308">
        <ele>28.4962</ele>
        <time>2013-05-05T14:48:35Z</time>
      </trkpt>
      <trkpt lat="59.959044" lon="17.6998352">
        <ele>28.4962</ele>
        <time>2013-05-05T14:48:36Z</time>
      </trkpt>
      <trkpt lat="59.9590541" lon="17.6999379">
        <ele>28.4962</ele>
        <time>2013-05-05T14:48:37Z</time>
      </trkpt>
      <trkpt lat="59.9590637" lon="17.7000403">
        <ele>28.4962</ele>
        <time>2013-05-05T14:48:38Z</time>
      </trkpt>
      <trkpt lat="59.9590733" lon="17.7001416">
        <ele>28.4962</ele>
        <time>2013-05-05T14:48:39Z</time>
      </trkpt>
      <trkpt lat="59.9590838" lon="17.7002415">
        <ele>28.4962</ele>
        <time>2013-05-05T14:48:40Z</time>
      </trkpt>
      <trkpt lat="59.9590942" lon="17.7003404">
        <ele>28.0155</ele>
        <time>2013-05-05T14:48:41Z</time>
      </trkpt>
      <trkpt lat="59.9591035" lon="17.7004392">
        <ele>28.0155</ele>
        <time>2013-05-05T14:48:42Z</time>
      </trkpt>
      <trkpt lat="59.9591108" lon="17.7005352">
        <ele>28.0155</ele>
        <time>2013-05-05T14:48:43Z</time>
      </trkpt>
      <trkpt lat="59.9591186" lon="17.7006269">
        <ele>28.4962</ele>
        <time>2013-05-05T14:48:44Z</time>
      </trkpt>
      <trkpt lat="59.9591263" lon="17.7007145">
        <ele>28.4962</ele>
        <time>2013-05-05T14:48:45Z</time>
      </trkpt>
      <trkpt lat="59.9591341" lon="17.7007993">
        <ele>28.4962</ele>
        <time>2013-05-05T14:48:46Z</time>
      </trkpt>
      <trkpt lat="59.9591437" lon="17.7008823">
        <ele>28.4962</ele>
        <time>2013-05-05T14:48:47Z</time>
      </trkpt>
      <trkpt lat="59.9591543" lon="17.7009661">
        <ele>28.4962</ele>
        <time>2013-05-05T14:48:48Z</time>
      </trkpt>
      <trkpt lat="59.9591635" lon="17.701053">
        <ele>28.4962</ele>
        <time>2013-05-05T14:48:49Z</time>
      </trkpt>
      <trkpt lat="59.959171" lon="17.7011415">
        <ele>28.4962</ele>
        <time>2013-05-05T14:48:50Z</time>
      </trkpt>
      <trkpt lat="59.9591812" lon="17.7012283">
        <ele>28.4962</ele>
        <time>2013-05-05T14:48:51Z</time>
      </trkpt>
      <trkpt lat="59.959193" lon="17.7013161">
        <ele>28.0155</ele>
        <time>2013-05-05T14:48:52Z</time>
      </trkpt>
      <trkpt lat="59.9592076" lon="17.7014005">
        <ele>28.0155</ele>
        <time>2013-05-05T14:48:53Z</time>
      </trkpt>
      <trkpt lat="59.959224" lon="17.7014847">
        <ele>28.0155</ele>
        <time>2013-05-05T14:48:54Z</time>
      </trkpt>
      <trkpt lat="59.9592424" lon="17.7015682">
        <ele>28.0155</ele>
        <time>2013-05-05T14:48:55Z</time>
      </trkpt>
      <trkpt lat="59.9592626" lon="17.7016499">
        <ele>28.0155</ele>
        <time>2013-05-05T14:48:56Z</time>
      </trkpt>
      <trkpt lat="59.9592792" lon="17.7017287">
        <ele>27.5349</ele>
        <time>2013-05-05T14:48:57Z</time>
      </trkpt>
      <trkpt lat="59.9592991" lon="17.7018072">
        <ele>27.5349</ele>
        <time>2013-05-05T14:48:58Z</time>
      </trkpt>
      <trkpt lat="59.9593232" lon="17.7018923">
        <ele>27.5349</ele>
        <time>2013-05-05T14:48:59Z</time>
      </trkpt>
      <trkpt lat="59.9593482" lon="17.701981">
        <ele>27.5349</ele>
        <time>2013-05-05T14:49:00Z</time>
      </trkpt>
      <trkpt lat="59.9593718" lon="17.702071">
        <ele>27.5349</ele>
        <time>2013-05-05T14:49:01Z</time>
      </trkpt>
      <trkpt lat="59.9593957" lon="17.702158">
        <ele>27.5349</ele>
        <time>2013-05-05T14:49:02Z</time>
      </trkpt>
      <trkpt lat="59.9594205" lon="17.7022389">
        <ele>27.5349</ele>
        <time>2013-05-05T14:49:03Z</time>
      </trkpt>
      <trkpt lat="59.9594443" lon="17.7023198">
        <ele>27.5349</ele>
        <time>2013-05-05T14:49:04Z</time>
      </trkpt>
      <trkpt lat="59.9594681" lon="17.7024005">
        <ele>27.5349</ele>
        <time>2013-05-05T14:49:05Z</time>
      </trkpt>
      <trkpt lat="59.9594916" lon="17.702477">
        <ele>27.5349</ele>
        <time>2013-05-05T14:49:06Z</time>
      </trkpt>
      <trkpt lat="59.9595152" lon="17.7025495">
        <ele>27.5349</ele>
        <time>2013-05-05T14:49:07Z</time>
      </trkpt>
      <trkpt lat="59.9595375" lon="17.7026222">
        <ele>27.5349</ele>
        <time>2013-05-05T14:49:08Z</time>
      </trkpt>
      <trkpt lat="59.9595594" lon="17.7027004">
        <ele>28.0155</ele>
        <time>2013-05-05T14:49:09Z</time>
      </trkpt>
      <trkpt lat="59.9595795" lon="17.7027776">
        <ele>28.0155</ele>
        <time>2013-05-05T14:49:10Z</time>
      </trkpt>
      <trkpt lat="59.9595992" lon="17.7028501">
        <ele>28.0155</ele>
        <time>2013-05-05T14:49:11Z</time>
      </trkpt>
      <trkpt lat="59.9596191" lon="17.7029144">
        <ele>27.5349</ele>
        <time>2013-05-05T14:49:12Z</time>
      </trkpt>
      <trkpt lat="59.9596393" lon="17.7029786">
        <ele>27.5349</ele>
        <time>2013-05-05T14:49:13Z</time>
      </trkpt>
      <trkpt lat="59.9596594" lon="17.7030516">
        <ele>27.0543</ele>
        <time>2013-05-05T14:49:14Z</time>
      </trkpt>
      <trkpt lat="59.9596811" lon="17.7031293">
        <ele>27.0543</ele>
        <time>2013-05-05T14:49:15Z</time>
      </trkpt>
      <trkpt lat="59.9597054" lon="17.7032086">
        <ele>27.0543</ele>
        <time>2013-05-05T14:49:16Z</time>
      </trkpt>
      <trkpt lat="59.9597315" lon="17.7032918">
        <ele>27.0543</ele>
        <time>2013-05-05T14:49:17Z</time>
      </trkpt>
      <trkpt lat="59.9597583" lon="17.7033759">
        <ele>27.0543</ele>
        <time>2013-05-05T14:49:18Z</time>
      </trkpt>
      <trkpt lat="59.9597867" lon="17.7034612">
        <ele>27.0543</ele>
        <time>2013-05-05T14:49:19Z</time>
      </trkpt>
      <trkpt lat="59.9598131" lon="17.7035503">
        <ele>27.0543</ele>
        <time>2013-05-05T14:49:20Z</time>
      </trkpt>
      <trkpt lat="59.959838" lon="17.7036427">
        <ele>27.0543</ele>
        <time>2013-05-05T14:49:21Z</time>
      </trkpt>
      <trkpt lat="59.9598653" lon="17.703738">
        <ele>27.0543</ele>
        <time>2013-05-05T14:49:22Z</time>
      </trkpt>
      <trkpt lat="59.9598954" lon="17.7038359">
        <ele>27.0543</ele>
        <time>2013-05-05T14:49:23Z</time>
      </trkpt>
      <trkpt lat="59.9599272" lon="17.7039331">
        <ele>27.0543</ele>
        <time>2013-05-05T14:49:24Z</time>
      </trkpt>
      <trkpt lat="59.9599597" lon="17.7040287">
        <ele>27.0543</ele>
        <time>2013-05-05T14:49:25Z</time>
      </trkpt>
      <trkpt lat="59.9599945" lon="17.7041191">
        <ele>27.0543</ele>
        <time>2013-05-05T14:49:26Z</time>
      </trkpt>
      <trkpt lat="59.9600322" lon="17.7041995">
        <ele>27.0543</ele>
        <time>2013-05-05T14:49:27Z</time>
      </trkpt>
      <trkpt lat="59.9600707" lon="17.70427">
        <ele>27.0543</ele>
        <time>2013-05-05T14:49:28Z</time>
      </trkpt>
      <trkpt lat="59.9601116" lon="17.7043359">
        <ele>27.0543</ele>
        <time>2013-05-05T14:49:29Z</time>
      </trkpt>
      <trkpt lat="59.9601551" lon="17.7043996">
        <ele>26.5736</ele>
        <time>2013-05-05T14:49:30Z</time>
      </trkpt>
      <trkpt lat="59.9602038" lon="17.7044642">
        <ele>26.5736</ele>
        <time>2013-05-05T14:49:31Z</time>
      </trkpt>
      <trkpt lat="59.9602533" lon="17.7045264">
        <ele>26.5736</ele>
        <time>2013-05-05T14:49:32Z</time>
      </trkpt>
      <trkpt lat="59.9603015" lon="17.704588">
        <ele>26.5736</ele>
        <time>2013-05-05T14:49:33Z</time>
      </trkpt>
      <trkpt lat="59.9603487" lon="17.704647">
        <ele>26.0929</ele>
        <time>2013-05-05T14:49:34Z</time>
      </trkpt>
      <trkpt lat="59.9603951" lon="17.7047016">
        <ele>26.0929</ele>
        <time>2013-05-05T14:49:35Z</time>
      </trkpt>
      <trkpt lat="59.960441" lon="17.7047541">
        <ele>26.0929</ele>
        <time>2013-05-05T14:49:36Z</time>
      </trkpt>
      <trkpt lat="59.960486" lon="17.7048068">
        <ele>26.0929</ele>
        <time>2013-05-05T14:49:37Z</time>
      </trkpt>
      <trkpt lat="59.9605301" lon="17.7048647">
        <ele>26.0929</ele>
        <time>2013-05-05T14:49:38Z</time>
      </trkpt>
      <trkpt lat="59.9605752" lon="17.7049246">
        <ele>26.0929</ele>
        <time>2013-05-05T14:49:39Z</time>
      </trkpt>
      <trkpt lat="59.9606208" lon="17.7049829">
        <ele>26.0929</ele>
        <time>2013-05-05T14:49:40Z</time>
      </trkpt>
      <trkpt lat="59.9606682" lon="17.705043">
        <ele>26.0929</ele>
        <time>2013-05-05T14:49:41Z</time>
      </trkpt>
      <trkpt lat="59.9607119" lon="17.7050956">
        <ele>26.0929</ele>
        <time>2013-05-05T14:49:42Z</time>
      </trkpt>
      <trkpt lat="59.9607524" lon="17.7051504">
        <ele>26.0929</ele>
        <time>2013-05-05T14:49:43Z</time>
      </trkpt>
      <trkpt lat="59.960797" lon="17.7052107">
        <ele>26.0929</ele>
        <time>2013-05-05T14:49:44Z</time>
      </trkpt>
      <trkpt lat="59.9608433" lon="17.705276">
        <ele>26.0929</ele>
        <time>2013-05-05T14:49:45Z</time>
      </trkpt>
      <trkpt lat="59.9608902" lon="17.7053469">
        <ele>26.0929</ele>
        <time>2013-05-05T14:49:46Z</time>
      </trkpt>
      <trkpt lat="59.9609374" lon="17.7054183">
        <ele>26.0929</ele>
        <time>2013-05-05T14:49:47Z</time>
      </trkpt>
      <trkpt lat="59.9609823" lon="17.705493">
        <ele>26.5736</ele>
        <time>2013-05-05T14:49:48Z</time>
      </trkpt>
      <trkpt lat="59.9610242" lon="17.7055683">
        <ele>26.5736</ele>
        <time>2013-05-05T14:49:49Z</time>
      </trkpt>
      <trkpt lat="59.9610657" lon="17.7056434">
        <ele>26.5736</ele>
        <time>2013-05-05T14:49:50Z</time>
      </trkpt>
      <trkpt lat="59.9611063" lon="17.7057169">
        <ele>26.5736</ele>
        <time>2013-05-05T14:49:51Z</time>
      </trkpt>
      <trkpt lat="59.9611464" lon="17.705786">
        <ele>26.5736</ele>
        <time>2013-05-05T14:49:52Z</time>
      </trkpt>
      <trkpt lat="59.9611859" lon="17.7058529">
        <ele>26.5736</ele>
        <time>2013-05-05T14:49:53Z</time>
      </trkpt>
      <trkpt lat="59.9612244" lon="17.7059225">
        <ele>27.0543</ele>
        <time>2013-05-05T14:49:54Z</time>
      </trkpt>
      <trkpt lat="59.9612636" lon="17.7059934">
        <ele>27.0543</ele>
        <time>2013-05-05T14:49:55Z</time>
      </trkpt>
      <trkpt lat="59.961303" lon="17.7060665">
        <ele>27.0543</ele>
        <time>2013-05-05T14:49:56Z</time>
      </trkpt>
      <trkpt lat="59.9613429" lon="17.7061394">
        <ele>27.0543</ele>
        <time>2013-05-05T14:49:57Z</time>
      </trkpt>
      <trkpt lat="59.9613815" lon="17.7062092">
        <ele>27.0543</ele>
        <time>2013-05-05T14:49:58Z</time>
      </trkpt>
      <trkpt lat="59.9614197" lon="17.7062768">
        <ele>27.0543</ele>
        <time>2013-05-05T14:49:59Z</time>
      </trkpt>
      <trkpt lat="59.9614582" lon="17.7063387">
        <ele>27.0543</ele>
        <time>2013-05-05T14:50:00Z</time>
      </trkpt>
      <trkpt lat="59.9614976" lon="17.7063994">
        <ele>27.5349</ele>
        <time>2013-05-05T14:50:01Z</time>
      </trkpt>
      <trkpt lat="59.9615396" lon="17.706458">
        <ele>27.5349</ele>
        <time>2013-05-05T14:50:02Z</time>
      </trkpt>
      <trkpt lat="59.9615827" lon="17.7065156">
        <ele>27.5349</ele>
        <time>2013-05-05T14:50:03Z</time>
      </trkpt>
      <trkpt lat="59.9616264" lon="17.7065696">
        <ele>27.5349</ele>
        <time>2013-05-05T14:50:04Z</time>
      </trkpt>
      <trkpt lat="59.9616707" lon="17.7066171">
        <ele>27.5349</ele>
        <time>2013-05-05T14:50:05Z</time>
      </trkpt>
      <trkpt lat="59.9617155" lon="17.7066618">
        <ele>27.5349</ele>
        <time>2013-05-05T14:50:06Z</time>
      </trkpt>
      <trkpt lat="59.9617634" lon="17.7067041">
        <ele>27.0543</ele>
        <time>2013-05-05T14:50:07Z</time>
      </trkpt>
      <trkpt lat="59.9618137" lon="17.7067428">
        <ele>27.0543</ele>
        <time>2013-05-05T14:50:08Z</time>
      </trkpt>
      <trkpt lat="59.9618654" lon="17.7067832">
        <ele>27.0543</ele>
        <time>2013-05-05T14:50:09Z</time>
      </trkpt>
      <trkpt lat="59.9619219" lon="17.7068231">
        <ele>27.0543</ele>
        <time>2013-05-05T14:50:10Z</time>
      </trkpt>
      <trkpt lat="59.9619765" lon="17.7068606">
        <ele>26.5736</ele>
        <time>2013-05-05T14:50:11Z</time>
      </trkpt>
      <trkpt lat="59.9620302" lon="17.7068935">
        <ele>26.5736</ele>
        <time>2013-05-05T14:50:12Z</time>
      </trkpt>
      <trkpt lat="59.9620832" lon="17.7069212">
        <ele>26.5736</ele>
        <time>2013-05-05T14:50:13Z</time>
      </trkpt>
      <trkpt lat="59.9621363" lon="17.7069492">
        <ele>26.0929</ele>
        <time>2013-05-05T14:50:14Z</time>
      </trkpt>
      <trkpt lat="59.96219" lon="17.7069803">
        <ele>26.0929</ele>
        <time>2013-05-05T14:50:15Z</time>
      </trkpt>
      <trkpt lat="59.9622445" lon="17.707012">
        <ele>25.6123</ele>
        <time>2013-05-05T14:50:16Z</time>
      </trkpt>
      <trkpt lat="59.9622991" lon="17.7070419">
        <ele>25.6123</ele>
        <time>2013-05-05T14:50:17Z</time>
      </trkpt>
      <trkpt lat="59.962352" lon="17.7070723">
        <ele>25.1317</ele>
        <time>2013-05-05T14:50:18Z</time>
      </trkpt>
      <trkpt lat="59.9624086" lon="17.7070995">
        <ele>25.1317</ele>
        <time>2013-05-05T14:50:19Z</time>
      </trkpt>
      <trkpt lat="59.9624678" lon="17.707121">
        <ele>25.1317</ele>
        <time>2013-05-05T14:50:20Z</time>
      </trkpt>
      <trkpt lat="59.9625269" lon="17.7071434">
        <ele>25.1317</ele>
        <time>2013-05-05T14:50:21Z</time>
      </trkpt>
      <trkpt lat="59.9625825" lon="17.707162">
        <ele>25.1317</ele>
        <time>2013-05-05T14:50:22Z</time>
      </trkpt>
      <trkpt lat="59.9626405" lon="17.7071819">
        <ele>25.1317</ele>
        <time>2013-05-05T14:50:23Z</time>
      </trkpt>
      <trkpt lat="59.9626966" lon="17.7071895">
        <ele>25.1317</ele>
        <time>2013-05-05T14:50:24Z</time>
      </trkpt>
      <trkpt lat="59.962756" lon="17.7072026">
        <ele>25.1317</ele>
        <time>2013-05-05T14:50:25Z</time>
      </trkpt>
      <trkpt lat="59.9628116" lon="17.7072154">
        <ele>24.1703</ele>
        <time>2013-05-05T14:50:26Z</time>
      </trkpt>
      <trkpt lat="59.9628726" lon="17.7072173">
        <ele>23.6896</ele>
        <time>2013-05-05T14:50:27Z</time>
      </trkpt>
      <trkpt lat="59.9629326" lon="17.7072147">
        <ele>23.209</ele>
        <time>2013-05-05T14:50:28Z</time>
      </trkpt>
      <trkpt lat="59.9629905" lon="17.7072112">
        <ele>22.7283</ele>
        <time>2013-05-05T14:50:29Z</time>
      </trkpt>
      <trkpt lat="59.9630475" lon="17.7072051">
        <ele>22.2476</ele>
        <time>2013-05-05T14:50:30Z</time>
      </trkpt>
      <trkpt lat="59.9631003" lon="17.7071966">
        <ele>21.2864</ele>
        <time>2013-05-05T14:50:31Z</time>
      </trkpt>
      <trkpt lat="59.9631533" lon="17.7071874">
        <ele>20.325</ele>
        <time>2013-05-05T14:50:32Z</time>
      </trkpt>
      <trkpt lat="59.9632087" lon="17.7071864">
        <ele>19.8444</ele>
        <time>2013-05-05T14:50:33Z</time>
      </trkpt>
      <trkpt lat="59.9632621" lon="17.7071843">
        <ele>19.3638</ele>
        <time>2013-05-05T14:50:34Z</time>
      </trkpt>
      <trkpt lat="59.963318" lon="17.7071826">
        <ele>19.3638</ele>
        <time>2013-05-05T14:50:35Z</time>
      </trkpt>
      <trkpt lat="59.9633746" lon="17.7071812">
        <ele>19.3638</ele>
        <time>2013-05-05T14:50:36Z</time>
      </trkpt>
      <trkpt lat="59.9634326" lon="17.7071863">
        <ele>19.3638</ele>
        <time>2013-05-05T14:50:37Z</time>
      </trkpt>
      <trkpt lat="59.9634895" lon="17.7071927">
        <ele>19.3638</ele>
        <time>2013-05-05T14:50:38Z</time>
      </trkpt>
      <trkpt lat="59.9635463" lon="17.7071987">
        <ele>19.3638</ele>
        <time>2013-05-05T14:50:39Z</time>
      </trkpt>
      <trkpt lat="59.9636025" lon="17.7072039">
        <ele>19.3638</ele>
        <time>2013-05-05T14:50:40Z</time>
      </trkpt>
      <trkpt lat="59.9636601" lon="17.707209">
        <ele>19.8444</ele>
        <time>2013-05-05T14:50:41Z</time>
      </trkpt>
      <trkpt lat="59.9637164" lon="17.7072139">
        <ele>19.8444</ele>
        <time>2013-05-05T14:50:42Z</time>
      </trkpt>
      <trkpt lat="59.9637734" lon="17.707221">
        <ele>20.325</ele>
        <time>2013-05-05T14:50:43Z</time>
      </trkpt>
      <trkpt lat="59.9638302" lon="17.7072283">
        <ele>20.325</ele>
        <time>2013-05-05T14:50:44Z</time>
      </trkpt>
      <trkpt lat="59.9638861" lon="17.7072361">
        <ele>20.325</ele>
        <time>2013-05-05T14:50:45Z</time>
      </trkpt>
      <trkpt lat="59.9639438" lon="17.7072434">
        <ele>20.325</ele>
        <time>2013-05-05T14:50:46Z</time>
      </trkpt>
      <trkpt lat="59.9640004" lon="17.7072494">
        <ele>20.325</ele>
        <time>2013-05-05T14:50:47Z</time>
      </trkpt>
      <trkpt lat="59.9640563" lon="17.70726">
        <ele>20.325</ele>
        <time>2013-05-05T14:50:48Z</time>
      </trkpt>
      <trkpt lat="59.964111" lon="17.7072714">
        <ele>20.325</ele>
        <time>2013-05-05T14:50:49Z</time>
      </trkpt>
      <trkpt lat="59.9641675" lon="17.7072827">
        <ele>20.325</ele>
        <time>2013-05-05T14:50:50Z</time>
      </trkpt>
      <trkpt lat="59.9642234" lon="17.7072965">
        <ele>19.8444</ele>
        <time>2013-05-05T14:50:51Z</time>
      </trkpt>
      <trkpt lat="59.9642762" lon="17.7073103">
        <ele>19.3638</ele>
        <time>2013-05-05T14:50:52Z</time>
      </trkpt>
      <trkpt lat="59.9643291" lon="17.7073273">
        <ele>19.3638</ele>
        <time>2013-05-05T14:50:53Z</time>
      </trkpt>
      <trkpt lat="59.9643822" lon="17.7073501">
        <ele>18.8831</ele>
        <time>2013-05-05T14:50:54Z</time>
      </trkpt>
      <trkpt lat="59.9644348" lon="17.707375">
        <ele>18.8831</ele>
        <time>2013-05-05T14:50:55Z</time>
      </trkpt>
      <trkpt lat="59.9644873" lon="17.7074029">
        <ele>18.8831</ele>
        <time>2013-05-05T14:50:56Z</time>
      </trkpt>
      <trkpt lat="59.9645401" lon="17.7074321">
        <ele>18.8831</ele>
        <time>2013-05-05T14:50:57Z</time>
      </trkpt>
      <trkpt lat="59.9645917" lon="17.7074624">
        <ele>18.8831</ele>
        <time>2013-05-05T14:50:58Z</time>
      </trkpt>
      <trkpt lat="59.9646417" lon="17.7074942">
        <ele>18.8831</ele>
        <time>2013-05-05T14:50:59Z</time>
      </trkpt>
      <trkpt lat="59.9646906" lon="17.7075288">
        <ele>18.8831</ele>
        <time>2013-05-05T14:51:00Z</time>
      </trkpt>
      <trkpt lat="59.9647393" lon="17.7075651">
        <ele>19.3638</ele>
        <time>2013-05-05T14:51:01Z</time>
      </trkpt>
      <trkpt lat="59.964788" lon="17.7076013">
        <ele>19.3638</ele>
        <time>2013-05-05T14:51:02Z</time>
      </trkpt>
      <trkpt lat="59.9648364" lon="17.7076376">
        <ele>19.3638</ele>
        <time>2013-05-05T14:51:03Z</time>
      </trkpt>
      <trkpt lat="59.9648849" lon="17.7076739">
        <ele>19.3638</ele>
        <time>2013-05-05T14:51:04Z</time>
      </trkpt>
      <trkpt lat="59.9649337" lon="17.7077094">
        <ele>19.3638</ele>
        <time>2013-05-05T14:51:05Z</time>
      </trkpt>
      <trkpt lat="59.9649822" lon="17.7077467">
        <ele>19.3638</ele>
        <time>2013-05-05T14:51:06Z</time>
      </trkpt>
      <trkpt lat="59.9650316" lon="17.7077852">
        <ele>19.3638</ele>
        <time>2013-05-05T14:51:07Z</time>
      </trkpt>
      <trkpt lat="59.9650833" lon="17.7078251">
        <ele>19.3638</ele>
        <time>2013-05-05T14:51:08Z</time>
      </trkpt>
      <trkpt lat="59.9651362" lon="17.7078655">
        <ele>19.3638</ele>
        <time>2013-05-05T14:51:09Z</time>
      </trkpt>
      <trkpt lat="59.9651887" lon="17.7079086">
        <ele>19.3638</ele>
        <time>2013-05-05T14:51:10Z</time>
      </trkpt>
      <trkpt lat="59.9652399" lon="17.7079546">
        <ele>19.3638</ele>
        <time>2013-05-05T14:51:11Z</time>
      </trkpt>
      <trkpt lat="59.9652905" lon="17.7079969">
        <ele>19.3638</ele>
        <time>2013-05-05T14:51:12Z</time>
      </trkpt>
      <trkpt lat="59.9653404" lon="17.7080381">
        <ele>19.3638</ele>
        <time>2013-05-05T14:51:13Z</time>
      </trkpt>
      <trkpt lat="59.9653892" lon="17.7080826">
        <ele>19.3638</ele>
        <time>2013-05-05T14:51:14Z</time>
      </trkpt>
      <trkpt lat="59.9654378" lon="17.7081313">
        <ele>19.3638</ele>
        <time>2013-05-05T14:51:15Z</time>
      </trkpt>
      <trkpt lat="59.9654866" lon="17.7081882">
        <ele>19.3638</ele>
        <time>2013-05-05T14:51:16Z</time>
      </trkpt>
      <trkpt lat="59.9655356" lon="17.7082502">
        <ele>19.3638</ele>
        <time>2013-05-05T14:51:17Z</time>
      </trkpt>
      <trkpt lat="59.9655833" lon="17.7083161">
        <ele>19.3638</ele>
        <time>2013-05-05T14:51:18Z</time>
      </trkpt>
      <trkpt lat="59.9656314" lon="17.7083891">
        <ele>19.3638</ele>
        <time>2013-05-05T14:51:19Z</time>
      </trkpt>
      <trkpt lat="59.9656751" lon="17.7084665">
        <ele>19.3638</ele>
        <time>2013-05-05T14:51:20Z</time>
      </trkpt>
      <trkpt lat="59.9657175" lon="17.7085523">
        <ele>19.3638</ele>
        <time>2013-05-05T14:51:21Z</time>
      </trkpt>
      <trkpt lat="59.9657584" lon="17.7086457">
        <ele>19.8444</ele>
        <time>2013-05-05T14:51:22Z</time>
      </trkpt>
      <trkpt lat="59.9657978" lon="17.7087409">
        <ele>19.8444</ele>
        <time>2013-05-05T14:51:23Z</time>
      </trkpt>
      <trkpt lat="59.965835" lon="17.7088359">
        <ele>19.8444</ele>
        <time>2013-05-05T14:51:24Z</time>
      </trkpt>
      <trkpt lat="59.9658696" lon="17.7089307">
        <ele>20.325</ele>
        <time>2013-05-05T14:51:25Z</time>
      </trkpt>
      <trkpt lat="59.9659018" lon="17.7090265">
        <ele>20.8057</ele>
        <time>2013-05-05T14:51:26Z</time>
      </trkpt>
      <trkpt lat="59.9659314" lon="17.7091248">
        <ele>20.8057</ele>
        <time>2013-05-05T14:51:27Z</time>
      </trkpt>
      <trkpt lat="59.9659599" lon="17.7092228">
        <ele>21.2864</ele>
        <time>2013-05-05T14:51:28Z</time>
      </trkpt>
      <trkpt lat="59.9659874" lon="17.7093202">
        <ele>21.2864</ele>
        <time>2013-05-05T14:51:29Z</time>
      </trkpt>
      <trkpt lat="59.9660138" lon="17.7094159">
        <ele>21.2864</ele>
        <time>2013-05-05T14:51:30Z</time>
      </trkpt>
      <trkpt lat="59.96604" lon="17.7095086">
        <ele>21.2864</ele>
        <time>2013-05-05T14:51:31Z</time>
      </trkpt>
      <trkpt lat="59.9660629" lon="17.7095998">
        <ele>20.8057</ele>
        <time>2013-05-05T14:51:32Z</time>
      </trkpt>
      <trkpt lat="59.9660875" lon="17.7096913">
        <ele>20.325</ele>
        <time>2013-05-05T14:51:33Z</time>
      </trkpt>
      <trkpt lat="59.9661146" lon="17.7097842">
        <ele>20.325</ele>
        <time>2013-05-05T14:51:34Z</time>
      </trkpt>
      <trkpt lat="59.9661397" lon="17.7098794">
        <ele>19.8444</ele>
        <time>2013-05-05T14:51:35Z</time>
      </trkpt>
      <trkpt lat="59.9661652" lon="17.7099752">
        <ele>19.8444</ele>
        <time>2013-05-05T14:51:36Z</time>
      </trkpt>
      <trkpt lat="59.9661921" lon="17.7100717">
        <ele>19.3638</ele>
        <time>2013-05-05T14:51:37Z</time>
      </trkpt>
      <trkpt lat="59.9662194" lon="17.7101701">
        <ele>19.3638</ele>
        <time>2013-05-05T14:51:38Z</time>
      </trkpt>
      <trkpt lat="59.9662479" lon="17.7102702">
        <ele>19.3638</ele>
        <time>2013-05-05T14:51:39Z</time>
      </trkpt>
      <trkpt lat="59.9662764" lon="17.7103717">
        <ele>19.3638</ele>
        <time>2013-05-05T14:51:40Z</time>
      </trkpt>
      <trkpt lat="59.9663069" lon="17.7104764">
        <ele>19.8444</ele>
        <time>2013-05-05T14:51:41Z</time>
      </trkpt>
      <trkpt lat="59.966337" lon="17.7105821">
        <ele>20.325</ele>
        <time>2013-05-05T14:51:42Z</time>
      </trkpt>
      <trkpt lat="59.966369" lon="17.710687">
        <ele>20.325</ele>
        <time>2013-05-05T14:51:43Z</time>
      </trkpt>
      <trkpt lat="59.9663996" lon="17.7107949">
        <ele>20.8057</ele>
        <time>2013-05-05T14:51:44Z</time>
      </trkpt>
      <trkpt lat="59.9664285" lon="17.7109057">
        <ele>21.2864</ele>
        <time>2013-05-05T14:51:45Z</time>
      </trkpt>
      <trkpt lat="59.9664591" lon="17.7110154">
        <ele>21.2864</ele>
        <time>2013-05-05T14:51:46Z</time>
      </trkpt>
      <trkpt lat="59.9664899" lon="17.7111215">
        <ele>21.2864</ele>
        <time>2013-05-05T14:51:47Z</time>
      </trkpt>
      <trkpt lat="59.9665193" lon="17.7112233">
        <ele>21.2864</ele>
        <time>2013-05-05T14:51:48Z</time>
      </trkpt>
      <trkpt lat="59.9665489" lon="17.7113231">
        <ele>21.767</ele>
        <time>2013-05-05T14:51:49Z</time>
      </trkpt>
      <trkpt lat="59.9665789" lon="17.711415">
        <ele>21.767</ele>
        <time>2013-05-05T14:51:50Z</time>
      </trkpt>
      <trkpt lat="59.9666101" lon="17.7115075">
        <ele>21.767</ele>
        <time>2013-05-05T14:51:51Z</time>
      </trkpt>
      <trkpt lat="59.9666428" lon="17.7116025">
        <ele>22.2476</ele>
        <time>2013-05-05T14:51:52Z</time>
      </trkpt>
      <trkpt lat="59.9666748" lon="17.7116987">
        <ele>22.2476</ele>
        <time>2013-05-05T14:51:53Z</time>
      </trkpt>
      <trkpt lat="59.9667074" lon="17.7117926">
        <ele>22.2476</ele>
        <time>2013-05-05T14:51:54Z</time>
      </trkpt>
      <trkpt lat="59.9667416" lon="17.711881">
        <ele>22.2476</ele>
        <time>2013-05-05T14:51:55Z</time>
      </trkpt>
      <trkpt lat="59.9667754" lon="17.711967">
        <ele>22.2476</ele>
        <time>2013-05-05T14:51:56Z</time>
      </trkpt>
      <trkpt lat="59.9668084" lon="17.712051">
        <ele>22.2476</ele>
        <time>2013-05-05T14:51:57Z</time>
      </trkpt>
      <trkpt lat="59.966841" lon="17.712135">
        <ele>22.2476</ele>
        <time>2013-05-05T14:51:58Z</time>
      </trkpt>
      <trkpt lat="59.966873" lon="17.7122219">
        <ele>22.2476</ele>
        <time>2013-05-05T14:51:59Z</time>
      </trkpt>
      <trkpt lat="59.9669048" lon="17.7123122">
        <ele>22.2476</ele>
        <time>2013-05-05T14:52:00Z</time>
      </trkpt>
      <trkpt lat="59.966937" lon="17.7124046">
        <ele>22.2476</ele>
        <time>2013-05-05T14:52:01Z</time>
      </trkpt>
      <trkpt lat="59.9669686" lon="17.7124964">
        <ele>22.2476</ele>
        <time>2013-05-05T14:52:02Z</time>
      </trkpt>
      <trkpt lat="59.9669992" lon="17.7125888">
        <ele>22.2476</ele>
        <time>2013-05-05T14:52:03Z</time>
      </trkpt>
      <trkpt lat="59.9670286" lon="17.7126835">
        <ele>22.2476</ele>
        <time>2013-05-05T14:52:04Z</time>
      </trkpt>
      <trkpt lat="59.9670571" lon="17.7127814">
        <ele>22.7283</ele>
        <time>2013-05-05T14:52:05Z</time>
      </trkpt>
      <trkpt lat="59.9670851" lon="17.7128814">
        <ele>22.7283</ele>
        <time>2013-05-05T14:52:06Z</time>
      </trkpt>
      <trkpt lat="59.9671126" lon="17.7129823">
        <ele>22.7283</ele>
        <time>2013-05-05T14:52:07Z</time>
      </trkpt>
      <trkpt lat="59.967139" lon="17.7130866">
        <ele>22.2476</ele>
        <time>2013-05-05T14:52:08Z</time>
      </trkpt>
      <trkpt lat="59.9671649" lon="17.7131967">
        <ele>22.2476</ele>
        <time>2013-05-05T14:52:09Z</time>
      </trkpt>
      <trkpt lat="59.9671895" lon="17.7133123">
        <ele>21.767</ele>
        <time>2013-05-05T14:52:10Z</time>
      </trkpt>
      <trkpt lat="59.9672117" lon="17.713435">
        <ele>21.2864</ele>
        <time>2013-05-05T14:52:11Z</time>
      </trkpt>
      <trkpt lat="59.9672317" lon="17.7135647">
        <ele>21.2864</ele>
        <time>2013-05-05T14:52:12Z</time>
      </trkpt>
      <trkpt lat="59.9672517" lon="17.7137009">
        <ele>20.8057</ele>
        <time>2013-05-05T14:52:13Z</time>
      </trkpt>
      <trkpt lat="59.967272" lon="17.7138454">
        <ele>20.325</ele>
        <time>2013-05-05T14:52:14Z</time>
      </trkpt>
      <trkpt lat="59.9672932" lon="17.7139996">
        <ele>19.8444</ele>
        <time>2013-05-05T14:52:15Z</time>
      </trkpt>
      <trkpt lat="59.9673161" lon="17.7141624">
        <ele>18.8831</ele>
        <time>2013-05-05T14:52:16Z</time>
      </trkpt>
      <trkpt lat="59.9673409" lon="17.7143349">
        <ele>18.4023</ele>
        <time>2013-05-05T14:52:17Z</time>
      </trkpt>
      <trkpt lat="59.9673658" lon="17.7145155">
        <ele>17.9218</ele>
        <time>2013-05-05T14:52:18Z</time>
      </trkpt>
      <trkpt lat="59.9673906" lon="17.714701">
        <ele>17.9218</ele>
        <time>2013-05-05T14:52:19Z</time>
      </trkpt>
      <trkpt lat="59.9674151" lon="17.7148885">
        <ele>17.4412</ele>
        <time>2013-05-05T14:52:20Z</time>
      </trkpt>
      <trkpt lat="59.9674388" lon="17.7150798">
        <ele>16.9604</ele>
        <time>2013-05-05T14:52:21Z</time>
      </trkpt>
      <trkpt lat="59.9674652" lon="17.7152791">
        <ele>16.4797</ele>
        <time>2013-05-05T14:52:22Z</time>
      </trkpt>
      <trkpt lat="59.9674975" lon="17.7154602">
        <ele>16.4797</ele>
        <time>2013-05-05T14:52:23Z</time>
      </trkpt>
      <trkpt lat="59.9675351" lon="17.7156334">
        <ele>15.999</ele>
        <time>2013-05-05T14:52:24Z</time>
      </trkpt>
      <trkpt lat="59.9675671" lon="17.7157903">
        <ele>16.4797</ele>
        <time>2013-05-05T14:52:25Z</time>
      </trkpt>
      <trkpt lat="59.9676116" lon="17.7159597">
        <ele>16.9604</ele>
        <time>2013-05-05T14:52:26Z</time>
      </trkpt>
      <trkpt lat="59.9676672" lon="17.7161094">
        <ele>17.9218</ele>
        <time>2013-05-05T14:52:27Z</time>
      </trkpt>
      <trkpt lat="59.9677237" lon="17.7162485">
        <ele>18.8831</ele>
        <time>2013-05-05T14:52:28Z</time>
      </trkpt>
      <trkpt lat="59.9677805" lon="17.7163733">
        <ele>19.8444</ele>
        <time>2013-05-05T14:52:29Z</time>
      </trkpt>
      <trkpt lat="59.9678414" lon="17.7164858">
        <ele>20.325</ele>
        <time>2013-05-05T14:52:30Z</time>
      </trkpt>
      <trkpt lat="59.967902" lon="17.7165888">
        <ele>20.8057</ele>
        <time>2013-05-05T14:52:31Z</time>
      </trkpt>
      <trkpt lat="59.9679615" lon="17.7166821">
        <ele>21.767</ele>
        <time>2013-05-05T14:52:32Z</time>
      </trkpt>
      <trkpt lat="59.9680188" lon="17.7167715">
        <ele>22.7283</ele>
        <time>2013-05-05T14:52:33Z</time>
      </trkpt>
      <trkpt lat="59.968076" lon="17.7168521">
        <ele>23.209</ele>
        <time>2013-05-05T14:52:34Z</time>
      </trkpt>
      <trkpt lat="59.9681314" lon="17.7169233">
        <ele>24.1703</ele>
        <time>2013-05-05T14:52:35Z</time>
      </trkpt>
      <trkpt lat="59.9681875" lon="17.7169845">
        <ele>24.651</ele>
        <time>2013-05-05T14:52:36Z</time>
      </trkpt>
      <trkpt lat="59.9682431" lon="17.7170343">
        <ele>25.6123</ele>
        <time>2013-05-05T14:52:37Z</time>
      </trkpt>
      <trkpt lat="59.9682976" lon="17.7170706">
        <ele>25.6123</ele>
        <time>2013-05-05T14:52:38Z</time>
      </trkpt>
      <trkpt lat="59.9683508" lon="17.7171033">
        <ele>26.0929</ele>
        <time>2013-05-05T14:52:39Z</time>
      </trkpt>
      <trkpt lat="59.9683966" lon="17.7171266">
        <ele>26.5736</ele>
        <time>2013-05-05T14:52:40Z</time>
      </trkpt>
      <trkpt lat="59.968439" lon="17.7171503">
        <ele>27.0543</ele>
        <time>2013-05-05T14:52:41Z</time>
      </trkpt>
      <trkpt lat="59.9684791" lon="17.7171736">
        <ele>27.0543</ele>
        <time>2013-05-05T14:52:42Z</time>
      </trkpt>
      <trkpt lat="59.9685178" lon="17.7171971">
        <ele>27.5349</ele>
        <time>2013-05-05T14:52:43Z</time>
      </trkpt>
      <trkpt lat="59.9685552" lon="17.7172192">
        <ele>27.5349</ele>
        <time>2013-05-05T14:52:44Z</time>
      </trkpt>
      <trkpt lat="59.968591" lon="17.7172405">
        <ele>27.5349</ele>
        <time>2013-05-05T14:52:45Z</time>
      </trkpt>
      <trkpt lat="59.9686264" lon="17.7172599">
        <ele>28.0155</ele>
        <time>2013-05-05T14:52:46Z</time>
      </trkpt>
      <trkpt lat="59.9686617" lon="17.7172739">
        <ele>27.5349</ele>
        <time>2013-05-05T14:52:47Z</time>
      </trkpt>
      <trkpt lat="59.9686986" lon="17.7172855">
        <ele>27.5349</ele>
        <time>2013-05-05T14:52:48Z</time>
      </trkpt>
      <trkpt lat="59.9687347" lon="17.7172913">
        <ele>27.5349</ele>
        <time>2013-05-05T14:52:49Z</time>
      </trkpt>
      <trkpt lat="59.96877" lon="17.7172959">
        <ele>27.5349</ele>
        <time>2013-05-05T14:52:50Z</time>
      </trkpt>
      <trkpt lat="59.9688052" lon="17.7173046">
        <ele>27.5349</ele>
        <time>2013-05-05T14:52:51Z</time>
      </trkpt>
      <trkpt lat="59.9688401" lon="17.7173187">
        <ele>27.0543</ele>
        <time>2013-05-05T14:52:52Z</time>
      </trkpt>
      <trkpt lat="59.9688764" lon="17.7173345">
        <ele>27.0543</ele>
        <time>2013-05-05T14:52:53Z</time>
      </trkpt>
      <trkpt lat="59.9689139" lon="17.717348">
        <ele>27.0543</ele>
        <time>2013-05-05T14:52:54Z</time>
      </trkpt>
      <trkpt lat="59.9689519" lon="17.7173602">
        <ele>27.0543</ele>
        <time>2013-05-05T14:52:55Z</time>
      </trkpt>
      <trkpt lat="59.9689898" lon="17.7173731">
        <ele>27.0543</ele>
        <time>2013-05-05T14:52:56Z</time>
      </trkpt>
      <trkpt lat="59.9690276" lon="17.717385">
        <ele>27.0543</ele>
        <time>2013-05-05T14:52:57Z</time>
      </trkpt>
      <trkpt lat="59.9690654" lon="17.7173965">
        <ele>27.0543</ele>
        <time>2013-05-05T14:52:58Z</time>
      </trkpt>
      <trkpt lat="59.9691027" lon="17.7174124">
        <ele>27.0543</ele>
        <time>2013-05-05T14:52:59Z</time>
      </trkpt>
      <trkpt lat="59.9691404" lon="17.7174309">
        <ele>27.0543</ele>
        <time>2013-05-05T14:53:00Z</time>
      </trkpt>
      <trkpt lat="59.9691781" lon="17.7174482">
        <ele>27.0543</ele>
        <time>2013-05-05T14:53:01Z</time>
      </trkpt>
      <trkpt lat="59.9692146" lon="17.7174632">
        <ele>26.5736</ele>
        <time>2013-05-05T14:53:02Z</time>
      </trkpt>
      <trkpt lat="59.9692519" lon="17.7174777">
        <ele>26.5736</ele>
        <time>2013-05-05T14:53:03Z</time>
      </trkpt>
      <trkpt lat="59.9692912" lon="17.7174939">
        <ele>26.0929</ele>
        <time>2013-05-05T14:53:04Z</time>
      </trkpt>
      <trkpt lat="59.969332" lon="17.7175088">
        <ele>26.5736</ele>
        <time>2013-05-05T14:53:05Z</time>
      </trkpt>
      <trkpt lat="59.9693724" lon="17.7175284">
        <ele>26.5736</ele>
        <time>2013-05-05T14:53:06Z</time>
      </trkpt>
      <trkpt lat="59.9694126" lon="17.7175538">
        <ele>26.5736</ele>
        <time>2013-05-05T14:53:07Z</time>
      </trkpt>
      <trkpt lat="59.9694523" lon="17.7175766">
        <ele>26.5736</ele>
        <time>2013-05-05T14:53:08Z</time>
      </trkpt>
      <trkpt lat="59.9694942" lon="17.7175951">
        <ele>26.0929</ele>
        <time>2013-05-05T14:53:09Z</time>
      </trkpt>
      <trkpt lat="59.9695352" lon="17.7176109">
        <ele>26.0929</ele>
        <time>2013-05-05T14:53:10Z</time>
      </trkpt>
      <trkpt lat="59.9695756" lon="17.7176309">
        <ele>26.0929</ele>
        <time>2013-05-05T14:53:11Z</time>
      </trkpt>
      <trkpt lat="59.9696166" lon="17.7176532">
        <ele>26.0929</ele>
        <time>2013-05-05T14:53:12Z</time>
      </trkpt>
      <trkpt lat="59.969657" lon="17.7176808">
        <ele>26.0929</ele>
        <time>2013-05-05T14:53:13Z</time>
      </trkpt>
      <trkpt lat="59.9696983" lon="17.7177127">
        <ele>26.0929</ele>
        <time>2013-05-05T14:53:14Z</time>
      </trkpt>
      <trkpt lat="59.9697388" lon="17.7177455">
        <ele>26.0929</ele>
        <time>2013-05-05T14:53:15Z</time>
      </trkpt>
      <trkpt lat="59.9697791" lon="17.7177795">
        <ele>26.5736</ele>
        <time>2013-05-05T14:53:16Z</time>
      </trkpt>
      <trkpt lat="59.9698197" lon="17.7178137">
        <ele>26.5736</ele>
        <time>2013-05-05T14:53:17Z</time>
      </trkpt>
      <trkpt lat="59.9698605" lon="17.7178495">
        <ele>27.0543</ele>
        <time>2013-05-05T14:53:18Z</time>
      </trkpt>
      <trkpt lat="59.9699007" lon="17.7178862">
        <ele>27.0543</ele>
        <time>2013-05-05T14:53:19Z</time>
      </trkpt>
      <trkpt lat="59.9699408" lon="17.7179262">
        <ele>27.5349</ele>
        <time>2013-05-05T14:53:20Z</time>
      </trkpt>
      <trkpt lat="59.9699816" lon="17.7179663">
        <ele>28.0155</ele>
        <time>2013-05-05T14:53:21Z</time>
      </trkpt>
      <trkpt lat="59.9700227" lon="17.7180061">
        <ele>28.4962</ele>
        <time>2013-05-05T14:53:22Z</time>
      </trkpt>
      <trkpt lat="59.9700641" lon="17.7180478">
        <ele>28.4962</ele>
        <time>2013-05-05T14:53:23Z</time>
      </trkpt>
      <trkpt lat="59.9701054" lon="17.7180888">
        <ele>28.9769</ele>
        <time>2013-05-05T14:53:24Z</time>
      </trkpt>
      <trkpt lat="59.9701458" lon="17.7181299">
        <ele>28.9769</ele>
        <time>2013-05-05T14:53:25Z</time>
      </trkpt>
      <trkpt lat="59.9701838" lon="17.7181711">
        <ele>29.4575</ele>
        <time>2013-05-05T14:53:26Z</time>
      </trkpt>
      <trkpt lat="59.9702219" lon="17.7182103">
        <ele>29.4575</ele>
        <time>2013-05-05T14:53:27Z</time>
      </trkpt>
      <trkpt lat="59.9702604" lon="17.7182447">
        <ele>29.4575</ele>
        <time>2013-05-05T14:53:28Z</time>
      </trkpt>
      <trkpt lat="59.9702988" lon="17.7182768">
        <ele>29.4575</ele>
        <time>2013-05-05T14:53:29Z</time>
      </trkpt>
      <trkpt lat="59.9703374" lon="17.7183096">
        <ele>29.4575</ele>
        <time>2013-05-05T14:53:30Z</time>
      </trkpt>
      <trkpt lat="59.9703764" lon="17.718345">
        <ele>29.4575</ele>
        <time>2013-05-05T14:53:31Z</time>
      </trkpt>
      <trkpt lat="59.9704158" lon="17.71838">
        <ele>29.4575</ele>
        <time>2013-05-05T14:53:32Z</time>
      </trkpt>
      <trkpt lat="59.9704547" lon="17.7184152">
        <ele>29.4575</ele>
        <time>2013-05-05T14:53:33Z</time>
      </trkpt>
      <trkpt lat="59.9704949" lon="17.7184527">
        <ele>29.4575</ele>
        <time>2013-05-05T14:53:34Z</time>
      </trkpt>
      <trkpt lat="59.9705365" lon="17.7184914">
        <ele>29.4575</ele>
        <time>2013-05-05T14:53:35Z</time>
      </trkpt>
      <trkpt lat="59.9705785" lon="17.7185294">
        <ele>29.4575</ele>
        <time>2013-05-05T14:53:36Z</time>
      </trkpt>
      <trkpt lat="59.9706208" lon="17.7185687">
        <ele>29.4575</ele>
        <time>2013-05-05T14:53:37Z</time>
      </trkpt>
      <trkpt lat="59.970664" lon="17.718609">
        <ele>29.4575</ele>
        <time>2013-05-05T14:53:38Z</time>
      </trkpt>
      <trkpt lat="59.9707083" lon="17.7186479">
        <ele>29.4575</ele>
        <time>2013-05-05T14:53:39Z</time>
      </trkpt>
      <trkpt lat="59.9707523" lon="17.7186879">
        <ele>29.4575</ele>
        <time>2013-05-05T14:53:40Z</time>
      </trkpt>
      <trkpt lat="59.970797" lon="17.7187298">
        <ele>29.4575</ele>
        <time>2013-05-05T14:53:41Z</time>
      </trkpt>
      <trkpt lat="59.9708425" lon="17.7187701">
        <ele>29.4575</ele>
        <time>2013-05-05T14:53:42Z</time>
      </trkpt>
      <trkpt lat="59.9708876" lon="17.7188124">
        <ele>29.4575</ele>
        <time>2013-05-05T14:53:43Z</time>
      </trkpt>
      <trkpt lat="59.9709323" lon="17.7188564">
        <ele>29.4575</ele>
        <time>2013-05-05T14:53:44Z</time>
      </trkpt>
      <trkpt lat="59.9709782" lon="17.7188982">
        <ele>28.9769</ele>
        <time>2013-05-05T14:53:45Z</time>
      </trkpt>
      <trkpt lat="59.9710249" lon="17.7189386">
        <ele>28.9769</ele>
        <time>2013-05-05T14:53:46Z</time>
      </trkpt>
      <trkpt lat="59.9710718" lon="17.7189798">
        <ele>28.9769</ele>
        <time>2013-05-05T14:53:47Z</time>
      </trkpt>
      <trkpt lat="59.9711189" lon="17.7190219">
        <ele>28.9769</ele>
        <time>2013-05-05T14:53:48Z</time>
      </trkpt>
      <trkpt lat="59.9711644" lon="17.7190643">
        <ele>28.9769</ele>
        <time>2013-05-05T14:53:49Z</time>
      </trkpt>
      <trkpt lat="59.9712089" lon="17.7191063">
        <ele>28.9769</ele>
        <time>2013-05-05T14:53:50Z</time>
      </trkpt>
      <trkpt lat="59.9712534" lon="17.7191448">
        <ele>28.9769</ele>
        <time>2013-05-05T14:53:51Z</time>
      </trkpt>
      <trkpt lat="59.9712974" lon="17.7191828">
        <ele>28.4962</ele>
        <time>2013-05-05T14:53:52Z</time>
      </trkpt>
      <trkpt lat="59.971341" lon="17.7192229">
        <ele>28.4962</ele>
        <time>2013-05-05T14:53:53Z</time>
      </trkpt>
      <trkpt lat="59.9713836" lon="17.7192633">
        <ele>28.4962</ele>
        <time>2013-05-05T14:53:54Z</time>
      </trkpt>
      <trkpt lat="59.9714255" lon="17.7193043">
        <ele>28.4962</ele>
        <time>2013-05-05T14:53:55Z</time>
      </trkpt>
      <trkpt lat="59.9714672" lon="17.7193453">
        <ele>28.4962</ele>
        <time>2013-05-05T14:53:56Z</time>
      </trkpt>
      <trkpt lat="59.9715088" lon="17.7193843">
        <ele>28.4962</ele>
        <time>2013-05-05T14:53:57Z</time>
      </trkpt>
      <trkpt lat="59.9715506" lon="17.7194207">
        <ele>28.4962</ele>
        <time>2013-05-05T14:53:58Z</time>
      </trkpt>
      <trkpt lat="59.9715921" lon="17.7194568">
        <ele>28.4962</ele>
        <time>2013-05-05T14:53:59Z</time>
      </trkpt>
      <trkpt lat="59.9716332" lon="17.7194943">
        <ele>28.0155</ele>
        <time>2013-05-05T14:54:00Z</time>
      </trkpt>
      <trkpt lat="59.9716749" lon="17.7195327">
        <ele>28.0155</ele>
        <time>2013-05-05T14:54:01Z</time>
      </trkpt>
      <trkpt lat="59.9717186" lon="17.7195732">
        <ele>28.0155</ele>
        <time>2013-05-05T14:54:02Z</time>
      </trkpt>
      <trkpt lat="59.9717638" lon="17.7196139">
        <ele>28.0155</ele>
        <time>2013-05-05T14:54:03Z</time>
      </trkpt>
      <trkpt lat="59.9718089" lon="17.7196548">
        <ele>28.0155</ele>
        <time>2013-05-05T14:54:04Z</time>
      </trkpt>
      <trkpt lat="59.9718536" lon="17.7196973">
        <ele>28.0155</ele>
        <time>2013-05-05T14:54:05Z</time>
      </trkpt>
      <trkpt lat="59.9718979" lon="17.7197384">
        <ele>28.0155</ele>
        <time>2013-05-05T14:54:06Z</time>
      </trkpt>
      <trkpt lat="59.9719423" lon="17.719778">
        <ele>28.0155</ele>
        <time>2013-05-05T14:54:07Z</time>
      </trkpt>
      <trkpt lat="59.9719859" lon="17.7198175">
        <ele>28.0155</ele>
        <time>2013-05-05T14:54:08Z</time>
      </trkpt>
      <trkpt lat="59.9720287" lon="17.7198559">
        <ele>28.0155</ele>
        <time>2013-05-05T14:54:09Z</time>
      </trkpt>
      <trkpt lat="59.9720724" lon="17.7198951">
        <ele>28.0155</ele>
        <time>2013-05-05T14:54:10Z</time>
      </trkpt>
      <trkpt lat="59.9721175" lon="17.7199352">
        <ele>28.0155</ele>
        <time>2013-05-05T14:54:11Z</time>
      </trkpt>
      <trkpt lat="59.9721642" lon="17.719976">
        <ele>28.0155</ele>
        <time>2013-05-05T14:54:12Z</time>
      </trkpt>
      <trkpt lat="59.9722113" lon="17.7200165">
        <ele>28.0155</ele>
        <time>2013-05-05T14:54:13Z</time>
      </trkpt>
      <trkpt lat="59.9722578" lon="17.7200593">
        <ele>28.0155</ele>
        <time>2013-05-05T14:54:14Z</time>
      </trkpt>
      <trkpt lat="59.972304" lon="17.720103">
        <ele>27.5349</ele>
        <time>2013-05-05T14:54:15Z</time>
      </trkpt>
      <trkpt lat="59.9723504" lon="17.7201451">
        <ele>27.5349</ele>
        <time>2013-05-05T14:54:16Z</time>
      </trkpt>
      <trkpt lat="59.9723976" lon="17.720187">
        <ele>27.5349</ele>
        <time>2013-05-05T14:54:17Z</time>
      </trkpt>
      <trkpt lat="59.972445" lon="17.7202304">
        <ele>27.5349</ele>
        <time>2013-05-05T14:54:18Z</time>
      </trkpt>
      <trkpt lat="59.9724923" lon="17.7202733">
        <ele>27.5349</ele>
        <time>2013-05-05T14:54:19Z</time>
      </trkpt>
      <trkpt lat="59.972539" lon="17.7203134">
        <ele>27.5349</ele>
        <time>2013-05-05T14:54:20Z</time>
      </trkpt>
      <trkpt lat="59.9725849" lon="17.7203536">
        <ele>27.5349</ele>
        <time>2013-05-05T14:54:21Z</time>
      </trkpt>
      <trkpt lat="59.9726296" lon="17.7203967">
        <ele>27.5349</ele>
        <time>2013-05-05T14:54:22Z</time>
      </trkpt>
      <trkpt lat="59.9726727" lon="17.7204427">
        <ele>27.5349</ele>
        <time>2013-05-05T14:54:23Z</time>
      </trkpt>
      <trkpt lat="59.9727148" lon="17.7204884">
        <ele>27.5349</ele>
        <time>2013-05-05T14:54:24Z</time>
      </trkpt>
      <trkpt lat="59.9727573" lon="17.7205335">
        <ele>27.5349</ele>
        <time>2013-05-05T14:54:25Z</time>
      </trkpt>
      <trkpt lat="59.9727997" lon="17.7205832">
        <ele>27.5349</ele>
        <time>2013-05-05T14:54:26Z</time>
      </trkpt>
      <trkpt lat="59.972841" lon="17.7206366">
        <ele>27.5349</ele>
        <time>2013-05-05T14:54:27Z</time>
      </trkpt>
      <trkpt lat="59.9728816" lon="17.7206894">
        <ele>27.5349</ele>
        <time>2013-05-05T14:54:28Z</time>
      </trkpt>
      <trkpt lat="59.9729215" lon="17.7207412">
        <ele>27.5349</ele>
        <time>2013-05-05T14:54:29Z</time>
      </trkpt>
      <trkpt lat="59.9729608" lon="17.7207919">
        <ele>27.0543</ele>
        <time>2013-05-05T14:54:30Z</time>
      </trkpt>
      <trkpt lat="59.9730001" lon="17.7208422">
        <ele>27.0543</ele>
        <time>2013-05-05T14:54:31Z</time>
      </trkpt>
      <trkpt lat="59.9730385" lon="17.720894">
        <ele>27.0543</ele>
        <time>2013-05-05T14:54:32Z</time>
      </trkpt>
      <trkpt lat="59.9730758" lon="17.7209505">
        <ele>27.0543</ele>
        <time>2013-05-05T14:54:33Z</time>
      </trkpt>
      <trkpt lat="59.9731131" lon="17.7210088">
        <ele>27.0543</ele>
        <time>2013-05-05T14:54:34Z</time>
      </trkpt>
      <trkpt lat="59.9731498" lon="17.7210668">
        <ele>27.0543</ele>
        <time>2013-05-05T14:54:35Z</time>
      </trkpt>
      <trkpt lat="59.9731867" lon="17.7211275">
        <ele>27.0543</ele>
        <time>2013-05-05T14:54:36Z</time>
      </trkpt>
      <trkpt lat="59.9732238" lon="17.7211892">
        <ele>27.0543</ele>
        <time>2013-05-05T14:54:37Z</time>
      </trkpt>
      <trkpt lat="59.9732613" lon="17.7212562">
        <ele>27.0543</ele>
        <time>2013-05-05T14:54:38Z</time>
      </trkpt>
      <trkpt lat="59.9732986" lon="17.721327">
        <ele>27.0543</ele>
        <time>2013-05-05T14:54:39Z</time>
      </trkpt>
      <trkpt lat="59.9733363" lon="17.7213948">
        <ele>27.0543</ele>
        <time>2013-05-05T14:54:40Z</time>
      </trkpt>
      <trkpt lat="59.973373" lon="17.7214631">
        <ele>27.0543</ele>
        <time>2013-05-05T14:54:41Z</time>
      </trkpt>
      <trkpt lat="59.9734082" lon="17.7215337">
        <ele>27.0543</ele>
        <time>2013-05-05T14:54:42Z</time>
      </trkpt>
      <trkpt lat="59.9734416" lon="17.7216067">
        <ele>27.0543</ele>
        <time>2013-05-05T14:54:43Z</time>
      </trkpt>
      <trkpt lat="59.9734735" lon="17.7216834">
        <ele>27.0543</ele>
        <time>2013-05-05T14:54:44Z</time>
      </trkpt>
      <trkpt lat="59.9735037" lon="17.721762">
        <ele>27.0543</ele>
        <time>2013-05-05T14:54:45Z</time>
      </trkpt>
      <trkpt lat="59.9735341" lon="17.7218388">
        <ele>27.0543</ele>
        <time>2013-05-05T14:54:46Z</time>
      </trkpt>
      <trkpt lat="59.9735651" lon="17.7219144">
        <ele>27.0543</ele>
        <time>2013-05-05T14:54:47Z</time>
      </trkpt>
      <trkpt lat="59.9735942" lon="17.7219918">
        <ele>26.5736</ele>
        <time>2013-05-05T14:54:48Z</time>
      </trkpt>
      <trkpt lat="59.9736223" lon="17.7220703">
        <ele>26.5736</ele>
        <time>2013-05-05T14:54:49Z</time>
      </trkpt>
      <trkpt lat="59.9736498" lon="17.7221496">
        <ele>27.0543</ele>
        <time>2013-05-05T14:54:50Z</time>
      </trkpt>
      <trkpt lat="59.9736773" lon="17.722228">
        <ele>26.5736</ele>
        <time>2013-05-05T14:54:51Z</time>
      </trkpt>
      <trkpt lat="59.9737034" lon="17.7223062">
        <ele>26.5736</ele>
        <time>2013-05-05T14:54:52Z</time>
      </trkpt>
      <trkpt lat="59.9737285" lon="17.7223828">
        <ele>26.5736</ele>
        <time>2013-05-05T14:54:53Z</time>
      </trkpt>
      <trkpt lat="59.9737529" lon="17.7224593">
        <ele>26.5736</ele>
        <time>2013-05-05T14:54:54Z</time>
      </trkpt>
      <trkpt lat="59.973776" lon="17.722539">
        <ele>26.5736</ele>
        <time>2013-05-05T14:54:55Z</time>
      </trkpt>
      <trkpt lat="59.9737995" lon="17.7226186">
        <ele>26.5736</ele>
        <time>2013-05-05T14:54:56Z</time>
      </trkpt>
      <trkpt lat="59.9738233" lon="17.7226975">
        <ele>26.5736</ele>
        <time>2013-05-05T14:54:57Z</time>
      </trkpt>
      <trkpt lat="59.9738451" lon="17.722777">
        <ele>26.0929</ele>
        <time>2013-05-05T14:54:58Z</time>
      </trkpt>
      <trkpt lat="59.9738642" lon="17.7228568">
        <ele>26.0929</ele>
        <time>2013-05-05T14:54:59Z</time>
      </trkpt>
      <trkpt lat="59.9738828" lon="17.7229356">
        <ele>26.0929</ele>
        <time>2013-05-05T14:55:00Z</time>
      </trkpt>
      <trkpt lat="59.9739005" lon="17.7230132">
        <ele>26.5736</ele>
        <time>2013-05-05T14:55:01Z</time>
      </trkpt>
      <trkpt lat="59.9739166" lon="17.723094">
        <ele>26.5736</ele>
        <time>2013-05-05T14:55:02Z</time>
      </trkpt>
      <trkpt lat="59.973932" lon="17.7231767">
        <ele>26.5736</ele>
        <time>2013-05-05T14:55:03Z</time>
      </trkpt>
      <trkpt lat="59.9739482" lon="17.7232566">
        <ele>26.5736</ele>
        <time>2013-05-05T14:55:04Z</time>
      </trkpt>
      <trkpt lat="59.9739645" lon="17.7233342">
        <ele>26.5736</ele>
        <time>2013-05-05T14:55:05Z</time>
      </trkpt>
      <trkpt lat="59.9739787" lon="17.7234115">
        <ele>26.5736</ele>
        <time>2013-05-05T14:55:06Z</time>
      </trkpt>
      <trkpt lat="59.9739918" lon="17.7234929">
        <ele>26.5736</ele>
        <time>2013-05-05T14:55:07Z</time>
      </trkpt>
      <trkpt lat="59.9740045" lon="17.7235812">
        <ele>26.5736</ele>
        <time>2013-05-05T14:55:08Z</time>
      </trkpt>
      <trkpt lat="59.9740181" lon="17.7236753">
        <ele>26.5736</ele>
        <time>2013-05-05T14:55:09Z</time>
      </trkpt>
      <trkpt lat="59.9740327" lon="17.723774">
        <ele>26.5736</ele>
        <time>2013-05-05T14:55:10Z</time>
      </trkpt>
      <trkpt lat="59.9740477" lon="17.7238732">
        <ele>26.5736</ele>
        <time>2013-05-05T14:55:11Z</time>
      </trkpt>
      <trkpt lat="59.9740616" lon="17.723971">
        <ele>26.5736</ele>
        <time>2013-05-05T14:55:12Z</time>
      </trkpt>
      <trkpt lat="59.974074" lon="17.7240667">
        <ele>26.5736</ele>
        <time>2013-05-05T14:55:13Z</time>
      </trkpt>
      <trkpt lat="59.974088" lon="17.7241612">
        <ele>26.5736</ele>
        <time>2013-05-05T14:55:14Z</time>
      </trkpt>
      <trkpt lat="59.9741035" lon="17.7242588">
        <ele>27.0543</ele>
        <time>2013-05-05T14:55:15Z</time>
      </trkpt>
      <trkpt lat="59.9741176" lon="17.7243577">
        <ele>27.0543</ele>
        <time>2013-05-05T14:55:16Z</time>
      </trkpt>
      <trkpt lat="59.974132" lon="17.7244538">
        <ele>27.0543</ele>
        <time>2013-05-05T14:55:17Z</time>
      </trkpt>
      <trkpt lat="59.974146" lon="17.7245487">
        <ele>27.0543</ele>
        <time>2013-05-05T14:55:18Z</time>
      </trkpt>
      <trkpt lat="59.9741598" lon="17.7246437">
        <ele>27.0543</ele>
        <time>2013-05-05T14:55:19Z</time>
      </trkpt>
      <trkpt lat="59.974174" lon="17.7247366">
        <ele>27.0543</ele>
        <time>2013-05-05T14:55:20Z</time>
      </trkpt>
      <trkpt lat="59.9741891" lon="17.7248257">
        <ele>27.0543</ele>
        <time>2013-05-05T14:55:21Z</time>
      </trkpt>
      <trkpt lat="59.9742039" lon="17.7249122">
        <ele>27.0543</ele>
        <time>2013-05-05T14:55:22Z</time>
      </trkpt>
      <trkpt lat="59.9742155" lon="17.7249977">
        <ele>27.0543</ele>
        <time>2013-05-05T14:55:23Z</time>
      </trkpt>
      <trkpt lat="59.9742253" lon="17.7250831">
        <ele>27.0543</ele>
        <time>2013-05-05T14:55:24Z</time>
      </trkpt>
      <trkpt lat="59.9742365" lon="17.7251686">
        <ele>27.0543</ele>
        <time>2013-05-05T14:55:25Z</time>
      </trkpt>
      <trkpt lat="59.9742474" lon="17.7252578">
        <ele>27.0543</ele>
        <time>2013-05-05T14:55:26Z</time>
      </trkpt>
      <trkpt lat="59.9742579" lon="17.7253524">
        <ele>27.0543</ele>
        <time>2013-05-05T14:55:27Z</time>
      </trkpt>
      <trkpt lat="59.9742698" lon="17.7254488">
        <ele>27.0543</ele>
        <time>2013-05-05T14:55:28Z</time>
      </trkpt>
      <trkpt lat="59.9742803" lon="17.7255445">
        <ele>27.0543</ele>
        <time>2013-05-05T14:55:29Z</time>
      </trkpt>
      <trkpt lat="59.9742889" lon="17.725638">
        <ele>27.0543</ele>
        <time>2013-05-05T14:55:30Z</time>
      </trkpt>
      <trkpt lat="59.9742957" lon="17.7257296">
        <ele>27.0543</ele>
        <time>2013-05-05T14:55:31Z</time>
      </trkpt>
      <trkpt lat="59.9743029" lon="17.7258208">
        <ele>27.0543</ele>
        <time>2013-05-05T14:55:32Z</time>
      </trkpt>
      <trkpt lat="59.9743101" lon="17.7259145">
        <ele>27.0543</ele>
        <time>2013-05-05T14:55:33Z</time>
      </trkpt>
      <trkpt lat="59.9743159" lon="17.7260062">
        <ele>27.0543</ele>
        <time>2013-05-05T14:55:34Z</time>
      </trkpt>
      <trkpt lat="59.9743214" lon="17.7260947">
        <ele>27.0543</ele>
        <time>2013-05-05T14:55:35Z</time>
      </trkpt>
      <trkpt lat="59.9743261" lon="17.7261855">
        <ele>27.0543</ele>
        <time>2013-05-05T14:55:36Z</time>
      </trkpt>
      <trkpt lat="59.9743299" lon="17.7262796">
        <ele>27.0543</ele>
        <time>2013-05-05T14:55:37Z</time>
      </trkpt>
      <trkpt lat="59.9743356" lon="17.7263703">
        <ele>27.0543</ele>
        <time>2013-05-05T14:55:38Z</time>
      </trkpt>
      <trkpt lat="59.9743399" lon="17.7264606">
        <ele>27.0543</ele>
        <time>2013-05-05T14:55:39Z</time>
      </trkpt>
      <trkpt lat="59.9743418" lon="17.7265505">
        <ele>27.0543</ele>
        <time>2013-05-05T14:55:40Z</time>
      </trkpt>
      <trkpt lat="59.9743448" lon="17.7266351">
        <ele>27.0543</ele>
        <time>2013-05-05T14:55:41Z</time>
      </trkpt>
      <trkpt lat="59.9743485" lon="17.726717">
        <ele>27.0543</ele>
        <time>2013-05-05T14:55:42Z</time>
      </trkpt>
      <trkpt lat="59.9743512" lon="17.7267983">
        <ele>27.0543</ele>
        <time>2013-05-05T14:55:43Z</time>
      </trkpt>
      <trkpt lat="59.9743542" lon="17.72688">
        <ele>27.0543</ele>
        <time>2013-05-05T14:55:44Z</time>
      </trkpt>
      <trkpt lat="59.9743579" lon="17.726963">
        <ele>27.0543</ele>
        <time>2013-05-05T14:55:45Z</time>
      </trkpt>
      <trkpt lat="59.974362" lon="17.7270472">
        <ele>27.0543</ele>
        <time>2013-05-05T14:55:46Z</time>
      </trkpt>
      <trkpt lat="59.9743644" lon="17.7271337">
        <ele>27.0543</ele>
        <time>2013-05-05T14:55:47Z</time>
      </trkpt>
      <trkpt lat="59.9743662" lon="17.7272239">
        <ele>27.0543</ele>
        <time>2013-05-05T14:55:48Z</time>
      </trkpt>
      <trkpt lat="59.9743677" lon="17.7273174">
        <ele>27.0543</ele>
        <time>2013-05-05T14:55:49Z</time>
      </trkpt>
      <trkpt lat="59.9743686" lon="17.7274141">
        <ele>26.5736</ele>
        <time>2013-05-05T14:55:50Z</time>
      </trkpt>
      <trkpt lat="59.9743709" lon="17.727513">
        <ele>26.5736</ele>
        <time>2013-05-05T14:55:51Z</time>
      </trkpt>
      <trkpt lat="59.9743745" lon="17.7276141">
        <ele>26.5736</ele>
        <time>2013-05-05T14:55:52Z</time>
      </trkpt>
      <trkpt lat="59.9743767" lon="17.7277177">
        <ele>26.5736</ele>
        <time>2013-05-05T14:55:53Z</time>
      </trkpt>
      <trkpt lat="59.9743791" lon="17.7278248">
        <ele>26.5736</ele>
        <time>2013-05-05T14:55:54Z</time>
      </trkpt>
      <trkpt lat="59.9743818" lon="17.7279326">
        <ele>26.5736</ele>
        <time>2013-05-05T14:55:55Z</time>
      </trkpt>
      <trkpt lat="59.9743846" lon="17.7280405">
        <ele>26.5736</ele>
        <time>2013-05-05T14:55:56Z</time>
      </trkpt>
      <trkpt lat="59.9743867" lon="17.7281487">
        <ele>26.5736</ele>
        <time>2013-05-05T14:55:57Z</time>
      </trkpt>
      <trkpt lat="59.9743881" lon="17.728256">
        <ele>26.5736</ele>
        <time>2013-05-05T14:55:58Z</time>
      </trkpt>
      <trkpt lat="59.9743909" lon="17.7283607">
        <ele>26.5736</ele>
        <time>2013-05-05T14:55:59Z</time>
      </trkpt>
      <trkpt lat="59.9743951" lon="17.7284632">
        <ele>26.5736</ele>
        <time>2013-05-05T14:56:00Z</time>
      </trkpt>
      <trkpt lat="59.9743989" lon="17.7285636">
        <ele>26.5736</ele>
        <time>2013-05-05T14:56:01Z</time>
      </trkpt>
      <trkpt lat="59.9744025" lon="17.728662">
        <ele>26.5736</ele>
        <time>2013-05-05T14:56:02Z</time>
      </trkpt>
      <trkpt lat="59.9744056" lon="17.7287585">
        <ele>26.5736</ele>
        <time>2013-05-05T14:56:03Z</time>
      </trkpt>
      <trkpt lat="59.9744087" lon="17.7288523">
        <ele>26.5736</ele>
        <time>2013-05-05T14:56:04Z</time>
      </trkpt>
      <trkpt lat="59.9744127" lon="17.7289432">
        <ele>26.5736</ele>
        <time>2013-05-05T14:56:05Z</time>
      </trkpt>
      <trkpt lat="59.9744178" lon="17.7290309">
        <ele>26.5736</ele>
        <time>2013-05-05T14:56:06Z</time>
      </trkpt>
      <trkpt lat="59.9744212" lon="17.7291215">
        <ele>26.5736</ele>
        <time>2013-05-05T14:56:07Z</time>
      </trkpt>
      <trkpt lat="59.9744228" lon="17.7292168">
        <ele>26.5736</ele>
        <time>2013-05-05T14:56:08Z</time>
      </trkpt>
      <trkpt lat="59.9744238" lon="17.7293146">
        <ele>26.5736</ele>
        <time>2013-05-05T14:56:09Z</time>
      </trkpt>
      <trkpt lat="59.9744233" lon="17.7294127">
        <ele>26.5736</ele>
        <time>2013-05-05T14:56:10Z</time>
      </trkpt>
      <trkpt lat="59.9744202" lon="17.729509">
        <ele>26.5736</ele>
        <time>2013-05-05T14:56:11Z</time>
      </trkpt>
      <trkpt lat="59.9744159" lon="17.7296064">
        <ele>26.5736</ele>
        <time>2013-05-05T14:56:12Z</time>
      </trkpt>
      <trkpt lat="59.9744111" lon="17.7297053">
        <ele>26.5736</ele>
        <time>2013-05-05T14:56:13Z</time>
      </trkpt>
      <trkpt lat="59.974405" lon="17.7298048">
        <ele>27.0543</ele>
        <time>2013-05-05T14:56:14Z</time>
      </trkpt>
      <trkpt lat="59.9743979" lon="17.7299068">
        <ele>27.0543</ele>
        <time>2013-05-05T14:56:15Z</time>
      </trkpt>
      <trkpt lat="59.9743899" lon="17.7300123">
        <ele>27.0543</ele>
        <time>2013-05-05T14:56:16Z</time>
      </trkpt>
      <trkpt lat="59.9743803" lon="17.7301208">
        <ele>27.0543</ele>
        <time>2013-05-05T14:56:17Z</time>
      </trkpt>
      <trkpt lat="59.9743707" lon="17.7302296">
        <ele>27.5349</ele>
        <time>2013-05-05T14:56:18Z</time>
      </trkpt>
      <trkpt lat="59.9743626" lon="17.7303368">
        <ele>27.5349</ele>
        <time>2013-05-05T14:56:19Z</time>
      </trkpt>
      <trkpt lat="59.9743543" lon="17.7304435">
        <ele>27.5349</ele>
        <time>2013-05-05T14:56:20Z</time>
      </trkpt>
      <trkpt lat="59.974345" lon="17.7305474">
        <ele>27.5349</ele>
        <time>2013-05-05T14:56:21Z</time>
      </trkpt>
      <trkpt lat="59.9743363" lon="17.7306519">
        <ele>27.5349</ele>
        <time>2013-05-05T14:56:22Z</time>
      </trkpt>
      <trkpt lat="59.9743292" lon="17.7307552">
        <ele>27.5349</ele>
        <time>2013-05-05T14:56:23Z</time>
      </trkpt>
      <trkpt lat="59.9743235" lon="17.7308584">
        <ele>27.5349</ele>
        <time>2013-05-05T14:56:24Z</time>
      </trkpt>
      <trkpt lat="59.974318" lon="17.7309592">
        <ele>27.5349</ele>
        <time>2013-05-05T14:56:25Z</time>
      </trkpt>
      <trkpt lat="59.9743124" lon="17.731058">
        <ele>27.5349</ele>
        <time>2013-05-05T14:56:26Z</time>
      </trkpt>
      <trkpt lat="59.974308" lon="17.7311604">
        <ele>27.5349</ele>
        <time>2013-05-05T14:56:27Z</time>
      </trkpt>
      <trkpt lat="59.9743038" lon="17.7312615">
        <ele>27.5349</ele>
        <time>2013-05-05T14:56:28Z</time>
      </trkpt>
      <trkpt lat="59.9743009" lon="17.7313622">
        <ele>27.5349</ele>
        <time>2013-05-05T14:56:29Z</time>
      </trkpt>
      <trkpt lat="59.9742994" lon="17.7314627">
        <ele>27.5349</ele>
        <time>2013-05-05T14:56:30Z</time>
      </trkpt>
      <trkpt lat="59.9742973" lon="17.7315622">
        <ele>27.5349</ele>
        <time>2013-05-05T14:56:31Z</time>
      </trkpt>
      <trkpt lat="59.9742961" lon="17.7316602">
        <ele>27.5349</ele>
        <time>2013-05-05T14:56:32Z</time>
      </trkpt>
      <trkpt lat="59.9742964" lon="17.7317568">
        <ele>27.5349</ele>
        <time>2013-05-05T14:56:33Z</time>
      </trkpt>
      <trkpt lat="59.9742977" lon="17.7318525">
        <ele>27.5349</ele>
        <time>2013-05-05T14:56:34Z</time>
      </trkpt>
      <trkpt lat="59.9742992" lon="17.7319467">
        <ele>27.5349</ele>
        <time>2013-05-05T14:56:35Z</time>
      </trkpt>
      <trkpt lat="59.9743023" lon="17.7320384">
        <ele>27.5349</ele>
        <time>2013-05-05T14:56:36Z</time>
      </trkpt>
      <trkpt lat="59.9743045" lon="17.7321327">
        <ele>27.5349</ele>
        <time>2013-05-05T14:56:37Z</time>
      </trkpt>
      <trkpt lat="59.9743064" lon="17.7322306">
        <ele>27.5349</ele>
        <time>2013-05-05T14:56:38Z</time>
      </trkpt>
      <trkpt lat="59.9743111" lon="17.7323316">
        <ele>27.5349</ele>
        <time>2013-05-05T14:56:39Z</time>
      </trkpt>
      <trkpt lat="59.9743154" lon="17.7324369">
        <ele>27.5349</ele>
        <time>2013-05-05T14:56:40Z</time>
      </trkpt>
      <trkpt lat="59.974318" lon="17.7325457">
        <ele>27.5349</ele>
        <time>2013-05-05T14:56:41Z</time>
      </trkpt>
      <trkpt lat="59.9743197" lon="17.7326547">
        <ele>27.5349</ele>
        <time>2013-05-05T14:56:42Z</time>
      </trkpt>
      <trkpt lat="59.9743205" lon="17.7327645">
        <ele>27.5349</ele>
        <time>2013-05-05T14:56:43Z</time>
      </trkpt>
      <trkpt lat="59.9743199" lon="17.7328755">
        <ele>27.5349</ele>
        <time>2013-05-05T14:56:44Z</time>
      </trkpt>
      <trkpt lat="59.9743175" lon="17.7329855">
        <ele>27.0543</ele>
        <time>2013-05-05T14:56:45Z</time>
      </trkpt>
      <trkpt lat="59.9743138" lon="17.7330946">
        <ele>27.0543</ele>
        <time>2013-05-05T14:56:46Z</time>
      </trkpt>
      <trkpt lat="59.9743091" lon="17.733204">
        <ele>27.0543</ele>
        <time>2013-05-05T14:56:47Z</time>
      </trkpt>
      <trkpt lat="59.9743045" lon="17.7333142">
        <ele>27.0543</ele>
        <time>2013-05-05T14:56:48Z</time>
      </trkpt>
      <trkpt lat="59.9742987" lon="17.7334267">
        <ele>27.0543</ele>
        <time>2013-05-05T14:56:49Z</time>
      </trkpt>
      <trkpt lat="59.9742911" lon="17.733542">
        <ele>27.0543</ele>
        <time>2013-05-05T14:56:50Z</time>
      </trkpt>
      <trkpt lat="59.974286" lon="17.7336561">
        <ele>27.5349</ele>
        <time>2013-05-05T14:56:51Z</time>
      </trkpt>
      <trkpt lat="59.9742818" lon="17.73377">
        <ele>27.5349</ele>
        <time>2013-05-05T14:56:52Z</time>
      </trkpt>
      <trkpt lat="59.9742748" lon="17.7338879">
        <ele>27.5349</ele>
        <time>2013-05-05T14:56:53Z</time>
      </trkpt>
      <trkpt lat="59.9742673" lon="17.7340109">
        <ele>27.5349</ele>
        <time>2013-05-05T14:56:54Z</time>
      </trkpt>
      <trkpt lat="59.9742613" lon="17.7341349">
        <ele>27.5349</ele>
        <time>2013-05-05T14:56:55Z</time>
      </trkpt>
      <trkpt lat="59.9742567" lon="17.734257">
        <ele>28.0155</ele>
        <time>2013-05-05T14:56:56Z</time>
      </trkpt>
      <trkpt lat="59.9742546" lon="17.7343763">
        <ele>28.0155</ele>
        <time>2013-05-05T14:56:57Z</time>
      </trkpt>
      <trkpt lat="59.9742552" lon="17.7344934">
        <ele>28.0155</ele>
        <time>2013-05-05T14:56:58Z</time>
      </trkpt>
      <trkpt lat="59.9742567" lon="17.7346083">
        <ele>28.0155</ele>
        <time>2013-05-05T14:56:59Z</time>
      </trkpt>
      <trkpt lat="59.974259" lon="17.7347202">
        <ele>28.0155</ele>
        <time>2013-05-05T14:57:00Z</time>
      </trkpt>
      <trkpt lat="59.9742632" lon="17.734829">
        <ele>28.0155</ele>
        <time>2013-05-05T14:57:01Z</time>
      </trkpt>
      <trkpt lat="59.9742683" lon="17.7349352">
        <ele>28.0155</ele>
        <time>2013-05-05T14:57:02Z</time>
      </trkpt>
      <trkpt lat="59.9742761" lon="17.7350398">
        <ele>28.0155</ele>
        <time>2013-05-05T14:57:03Z</time>
      </trkpt>
      <trkpt lat="59.9742859" lon="17.7351419">
        <ele>28.0155</ele>
        <time>2013-05-05T14:57:04Z</time>
      </trkpt>
      <trkpt lat="59.9742946" lon="17.7352435">
        <ele>28.0155</ele>
        <time>2013-05-05T14:57:05Z</time>
      </trkpt>
      <trkpt lat="59.9743039" lon="17.7353457">
        <ele>28.0155</ele>
        <time>2013-05-05T14:57:06Z</time>
      </trkpt>
      <trkpt lat="59.9743161" lon="17.735449">
        <ele>28.4962</ele>
        <time>2013-05-05T14:57:07Z</time>
      </trkpt>
      <trkpt lat="59.9743303" lon="17.7355507">
        <ele>28.4962</ele>
        <time>2013-05-05T14:57:08Z</time>
      </trkpt>
      <trkpt lat="59.9743455" lon="17.735651">
        <ele>28.4962</ele>
        <time>2013-05-05T14:57:09Z</time>
      </trkpt>
      <trkpt lat="59.974362" lon="17.7357526">
        <ele>28.4962</ele>
        <time>2013-05-05T14:57:10Z</time>
      </trkpt>
      <trkpt lat="59.9743787" lon="17.7358562">
        <ele>28.4962</ele>
        <time>2013-05-05T14:57:11Z</time>
      </trkpt>
      <trkpt lat="59.9743955" lon="17.7359586">
        <ele>28.4962</ele>
        <time>2013-05-05T14:57:12Z</time>
      </trkpt>
      <trkpt lat="59.9744143" lon="17.7360556">
        <ele>28.9769</ele>
        <time>2013-05-05T14:57:13Z</time>
      </trkpt>
      <trkpt lat="59.9744349" lon="17.7361478">
        <ele>28.9769</ele>
        <time>2013-05-05T14:57:14Z</time>
      </trkpt>
      <trkpt lat="59.9744574" lon="17.7362348">
        <ele>28.9769</ele>
        <time>2013-05-05T14:57:15Z</time>
      </trkpt>
      <trkpt lat="59.9744802" lon="17.736317">
        <ele>28.9769</ele>
        <time>2013-05-05T14:57:16Z</time>
      </trkpt>
      <trkpt lat="59.9745004" lon="17.7364027">
        <ele>28.9769</ele>
        <time>2013-05-05T14:57:17Z</time>
      </trkpt>
      <trkpt lat="59.9745219" lon="17.7364923">
        <ele>28.4962</ele>
        <time>2013-05-05T14:57:18Z</time>
      </trkpt>
      <trkpt lat="59.9745466" lon="17.7365824">
        <ele>28.9769</ele>
        <time>2013-05-05T14:57:19Z</time>
      </trkpt>
      <trkpt lat="59.9745721" lon="17.7366695">
        <ele>28.9769</ele>
        <time>2013-05-05T14:57:20Z</time>
      </trkpt>
      <trkpt lat="59.9745976" lon="17.7367504">
        <ele>28.9769</ele>
        <time>2013-05-05T14:57:21Z</time>
      </trkpt>
      <trkpt lat="59.9746241" lon="17.7368301">
        <ele>28.4962</ele>
        <time>2013-05-05T14:57:22Z</time>
      </trkpt>
      <trkpt lat="59.9746516" lon="17.736914">
        <ele>28.9769</ele>
        <time>2013-05-05T14:57:23Z</time>
      </trkpt>
      <trkpt lat="59.9746809" lon="17.7369989">
        <ele>28.9769</ele>
        <time>2013-05-05T14:57:24Z</time>
      </trkpt>
      <trkpt lat="59.9747125" lon="17.7370791">
        <ele>28.9769</ele>
        <time>2013-05-05T14:57:25Z</time>
      </trkpt>
      <trkpt lat="59.9747433" lon="17.737158">
        <ele>28.9769</ele>
        <time>2013-05-05T14:57:26Z</time>
      </trkpt>
      <trkpt lat="59.9747738" lon="17.7372331">
        <ele>28.9769</ele>
        <time>2013-05-05T14:57:27Z</time>
      </trkpt>
      <trkpt lat="59.9748034" lon="17.7373033">
        <ele>28.9769</ele>
        <time>2013-05-05T14:57:28Z</time>
      </trkpt>
      <trkpt lat="59.9748314" lon="17.7373673">
        <ele>28.9769</ele>
        <time>2013-05-05T14:57:29Z</time>
      </trkpt>
      <trkpt lat="59.9748604" lon="17.7374284">
        <ele>28.9769</ele>
        <time>2013-05-05T14:57:30Z</time>
      </trkpt>
      <trkpt lat="59.9748926" lon="17.737489">
        <ele>28.9769</ele>
        <time>2013-05-05T14:57:31Z</time>
      </trkpt>
      <trkpt lat="59.9749231" lon="17.7375488">
        <ele>28.9769</ele>
        <time>2013-05-05T14:57:32Z</time>
      </trkpt>
      <trkpt lat="59.9749534" lon="17.7376063">
        <ele>28.4962</ele>
        <time>2013-05-05T14:57:33Z</time>
      </trkpt>
      <trkpt lat="59.974985" lon="17.7376651">
        <ele>28.4962</ele>
        <time>2013-05-05T14:57:34Z</time>
      </trkpt>
      <trkpt lat="59.9750154" lon="17.7377263">
        <ele>28.4962</ele>
        <time>2013-05-05T14:57:35Z</time>
      </trkpt>
      <trkpt lat="59.9750469" lon="17.7377879">
        <ele>28.4962</ele>
        <time>2013-05-05T14:57:36Z</time>
      </trkpt>
      <trkpt lat="59.9750806" lon="17.7378483">
        <ele>28.4962</ele>
        <time>2013-05-05T14:57:37Z</time>
      </trkpt>
      <trkpt lat="59.9751151" lon="17.7379102">
        <ele>28.4962</ele>
        <time>2013-05-05T14:57:38Z</time>
      </trkpt>
      <trkpt lat="59.9751483" lon="17.7379728">
        <ele>28.4962</ele>
        <time>2013-05-05T14:57:39Z</time>
      </trkpt>
      <trkpt lat="59.9751819" lon="17.7380345">
        <ele>28.0155</ele>
        <time>2013-05-05T14:57:40Z</time>
      </trkpt>
      <trkpt lat="59.9752177" lon="17.7380955">
        <ele>28.0155</ele>
        <time>2013-05-05T14:57:41Z</time>
      </trkpt>
      <trkpt lat="59.9752556" lon="17.7381586">
        <ele>28.0155</ele>
        <time>2013-05-05T14:57:42Z</time>
      </trkpt>
      <trkpt lat="59.9752938" lon="17.7382217">
        <ele>28.0155</ele>
        <time>2013-05-05T14:57:43Z</time>
      </trkpt>
      <trkpt lat="59.9753307" lon="17.738282">
        <ele>28.0155</ele>
        <time>2013-05-05T14:57:44Z</time>
      </trkpt>
      <trkpt lat="59.9753688" lon="17.7383442">
        <ele>28.0155</ele>
        <time>2013-05-05T14:57:45Z</time>
      </trkpt>
      <trkpt lat="59.9754091" lon="17.7384109">
        <ele>28.0155</ele>
        <time>2013-05-05T14:57:46Z</time>
      </trkpt>
      <trkpt lat="59.9754489" lon="17.7384782">
        <ele>28.0155</ele>
        <time>2013-05-05T14:57:47Z</time>
      </trkpt>
      <trkpt lat="59.975487" lon="17.7385441">
        <ele>28.0155</ele>
        <time>2013-05-05T14:57:48Z</time>
      </trkpt>
      <trkpt lat="59.9755227" lon="17.7386098">
        <ele>28.0155</ele>
        <time>2013-05-05T14:57:49Z</time>
      </trkpt>
      <trkpt lat="59.9755575" lon="17.7386721">
        <ele>28.0155</ele>
        <time>2013-05-05T14:57:50Z</time>
      </trkpt>
      <trkpt lat="59.9755922" lon="17.7387366">
        <ele>28.0155</ele>
        <time>2013-05-05T14:57:51Z</time>
      </trkpt>
      <trkpt lat="59.9756265" lon="17.7388052">
        <ele>28.4962</ele>
        <time>2013-05-05T14:57:52Z</time>
      </trkpt>
      <trkpt lat="59.9756648" lon="17.7388726">
        <ele>28.4962</ele>
        <time>2013-05-05T14:57:53Z</time>
      </trkpt>
      <trkpt lat="59.9757056" lon="17.7389331">
        <ele>28.4962</ele>
        <time>2013-05-05T14:57:54Z</time>
      </trkpt>
      <trkpt lat="59.9757434" lon="17.7389936">
        <ele>28.4962</ele>
        <time>2013-05-05T14:57:55Z</time>
      </trkpt>
      <trkpt lat="59.9757779" lon="17.739058">
        <ele>28.9769</ele>
        <time>2013-05-05T14:57:56Z</time>
      </trkpt>
      <trkpt lat="59.9758126" lon="17.7391217">
        <ele>28.9769</ele>
        <time>2013-05-05T14:57:57Z</time>
      </trkpt>
      <trkpt lat="59.975848" lon="17.739183">
        <ele>28.9769</ele>
        <time>2013-05-05T14:57:58Z</time>
      </trkpt>
      <trkpt lat="59.9758824" lon="17.7392431">
        <ele>28.9769</ele>
        <time>2013-05-05T14:57:59Z</time>
      </trkpt>
      <trkpt lat="59.9759172" lon="17.7393031">
        <ele>29.4575</ele>
        <time>2013-05-05T14:58:00Z</time>
      </trkpt>
      <trkpt lat="59.9759533" lon="17.7393615">
        <ele>29.9381</ele>
        <time>2013-05-05T14:58:01Z</time>
      </trkpt>
      <trkpt lat="59.9759885" lon="17.739418">
        <ele>29.9381</ele>
        <time>2013-05-05T14:58:02Z</time>
      </trkpt>
      <trkpt lat="59.9760228" lon="17.7394725">
        <ele>30.4188</ele>
        <time>2013-05-05T14:58:03Z</time>
      </trkpt>
      <trkpt lat="59.9760563" lon="17.7395225">
        <ele>30.8995</ele>
        <time>2013-05-05T14:58:04Z</time>
      </trkpt>
      <trkpt lat="59.9760876" lon="17.7395715">
        <ele>31.3801</ele>
        <time>2013-05-05T14:58:05Z</time>
      </trkpt>
      <trkpt lat="59.9761169" lon="17.7396174">
        <ele>31.8607</ele>
        <time>2013-05-05T14:58:06Z</time>
      </trkpt>
      <trkpt lat="59.976146" lon="17.7396537">
        <ele>31.8607</ele>
        <time>2013-05-05T14:58:07Z</time>
      </trkpt>
      <trkpt lat="59.9761751" lon="17.7396848">
        <ele>32.3416</ele>
        <time>2013-05-05T14:58:08Z</time>
      </trkpt>
      <trkpt lat="59.9762049" lon="17.7397112">
        <ele>32.3416</ele>
        <time>2013-05-05T14:58:09Z</time>
      </trkpt>
      <trkpt lat="59.9762351" lon="17.739734">
        <ele>32.8223</ele>
        <time>2013-05-05T14:58:10Z</time>
      </trkpt>
      <trkpt lat="59.9762641" lon="17.7397521">
        <ele>33.3029</ele>
        <time>2013-05-05T14:58:11Z</time>
      </trkpt>
      <trkpt lat="59.9762927" lon="17.7397629">
        <ele>33.3029</ele>
        <time>2013-05-05T14:58:12Z</time>
      </trkpt>
      <trkpt lat="59.976323" lon="17.7397605">
        <ele>33.3029</ele>
        <time>2013-05-05T14:58:13Z</time>
      </trkpt>
      <trkpt lat="59.9763539" lon="17.739746">
        <ele>33.7834</ele>
        <time>2013-05-05T14:58:14Z</time>
      </trkpt>
      <trkpt lat="59.9763849" lon="17.7397206">
        <ele>33.7834</ele>
        <time>2013-05-05T14:58:15Z</time>
      </trkpt>
      <trkpt lat="59.9764187" lon="17.7396857">
        <ele>33.7834</ele>
        <time>2013-05-05T14:58:16Z</time>
      </trkpt>
      <trkpt lat="59.9764533" lon="17.7396494">
        <ele>33.7834</ele>
        <time>2013-05-05T14:58:17Z</time>
      </trkpt>
      <trkpt lat="59.9764849" lon="17.7396122">
        <ele>33.7834</ele>
        <time>2013-05-05T14:58:18Z</time>
      </trkpt>
      <trkpt lat="59.9765173" lon="17.7395801">
        <ele>34.2642</ele>
        <time>2013-05-05T14:58:19Z</time>
      </trkpt>
      <trkpt lat="59.9765454" lon="17.7395504">
        <ele>34.2642</ele>
        <time>2013-05-05T14:58:20Z</time>
      </trkpt>
      <trkpt lat="59.9765707" lon="17.7395227">
        <ele>34.2642</ele>
        <time>2013-05-05T14:58:21Z</time>
      </trkpt>
      <trkpt lat="59.9765952" lon="17.7394984">
        <ele>34.7449</ele>
        <time>2013-05-05T14:58:22Z</time>
      </trkpt>
      <trkpt lat="59.9766206" lon="17.7394762">
        <ele>34.7449</ele>
        <time>2013-05-05T14:58:23Z</time>
      </trkpt>
      <trkpt lat="59.9766469" lon="17.7394585">
        <ele>34.7449</ele>
        <time>2013-05-05T14:58:24Z</time>
      </trkpt>
      <trkpt lat="59.9766738" lon="17.7394428">
        <ele>34.7449</ele>
        <time>2013-05-05T14:58:25Z</time>
      </trkpt>
      <trkpt lat="59.9767004" lon="17.739428">
        <ele>34.7449</ele>
        <time>2013-05-05T14:58:26Z</time>
      </trkpt>
      <trkpt lat="59.9767281" lon="17.739416">
        <ele>35.2255</ele>
        <time>2013-05-05T14:58:27Z</time>
      </trkpt>
      <trkpt lat="59.9767552" lon="17.7394051">
        <ele>35.2255</ele>
        <time>2013-05-05T14:58:28Z</time>
      </trkpt>
      <trkpt lat="59.976782" lon="17.7393963">
        <ele>35.2255</ele>
        <time>2013-05-05T14:58:29Z</time>
      </trkpt>
      <trkpt lat="59.9768096" lon="17.7393876">
        <ele>35.2255</ele>
        <time>2013-05-05T14:58:30Z</time>
      </trkpt>
      <trkpt lat="59.9768357" lon="17.7393787">
        <ele>35.2255</ele>
        <time>2013-05-05T14:58:31Z</time>
      </trkpt>
      <trkpt lat="59.9768605" lon="17.7393681">
        <ele>35.2255</ele>
        <time>2013-05-05T14:58:32Z</time>
      </trkpt>
      <trkpt lat="59.9768814" lon="17.7393558">
        <ele>35.2255</ele>
        <time>2013-05-05T14:58:33Z</time>
      </trkpt>
      <trkpt lat="59.976907" lon="17.7393441">
        <ele>35.2255</ele>
        <time>2013-05-05T14:58:34Z</time>
      </trkpt>
      <trkpt lat="59.9769389" lon="17.7393329">
        <ele>35.2255</ele>
        <time>2013-05-05T14:58:35Z</time>
      </trkpt>
      <trkpt lat="59.9769734" lon="17.7393191">
        <ele>35.7061</ele>
        <time>2013-05-05T14:58:36Z</time>
      </trkpt>
      <trkpt lat="59.9770055" lon="17.7393035">
        <ele>35.7061</ele>
        <time>2013-05-05T14:58:37Z</time>
      </trkpt>
      <trkpt lat="59.9770385" lon="17.7392876">
        <ele>35.7061</ele>
        <time>2013-05-05T14:58:38Z</time>
      </trkpt>
      <trkpt lat="59.9770701" lon="17.7392699">
        <ele>35.7061</ele>
        <time>2013-05-05T14:58:39Z</time>
      </trkpt>
      <trkpt lat="59.9770985" lon="17.7392496">
        <ele>35.2255</ele>
        <time>2013-05-05T14:58:40Z</time>
      </trkpt>
      <trkpt lat="59.9771317" lon="17.7392294">
        <ele>35.7061</ele>
        <time>2013-05-05T14:58:41Z</time>
      </trkpt>
      <trkpt lat="59.977165" lon="17.7392109">
        <ele>35.7061</ele>
        <time>2013-05-05T14:58:42Z</time>
      </trkpt>
      <trkpt lat="59.977196" lon="17.7391927">
        <ele>35.2255</ele>
        <time>2013-05-05T14:58:43Z</time>
      </trkpt>
      <trkpt lat="59.9772298" lon="17.7391726">
        <ele>35.7061</ele>
        <time>2013-05-05T14:58:44Z</time>
      </trkpt>
      <trkpt lat="59.9772645" lon="17.7391536">
        <ele>35.7061</ele>
        <time>2013-05-05T14:58:45Z</time>
      </trkpt>
      <trkpt lat="59.9772991" lon="17.7391362">
        <ele>35.7061</ele>
        <time>2013-05-05T14:58:46Z</time>
      </trkpt>
      <trkpt lat="59.9773339" lon="17.7391198">
        <ele>36.1868</ele>
        <time>2013-05-05T14:58:47Z</time>
      </trkpt>
      <trkpt lat="59.97737" lon="17.7391031">
        <ele>36.6675</ele>
        <time>2013-05-05T14:58:48Z</time>
      </trkpt>
      <trkpt lat="59.9774051" lon="17.7390889">
        <ele>37.1481</ele>
        <time>2013-05-05T14:58:49Z</time>
      </trkpt>
      <trkpt lat="59.977439" lon="17.7390776">
        <ele>37.6287</ele>
        <time>2013-05-05T14:58:50Z</time>
      </trkpt>
      <trkpt lat="59.9774726" lon="17.7390682">
        <ele>37.6287</ele>
        <time>2013-05-05T14:58:51Z</time>
      </trkpt>
      <trkpt lat="59.9775058" lon="17.7390604">
        <ele>38.1094</ele>
        <time>2013-05-05T14:58:52Z</time>
      </trkpt>
      <trkpt lat="59.977539" lon="17.7390523">
        <ele>38.1094</ele>
        <time>2013-05-05T14:58:53Z</time>
      </trkpt>
      <trkpt lat="59.9775723" lon="17.7390461">
        <ele>38.5901</ele>
        <time>2013-05-05T14:58:54Z</time>
      </trkpt>
      <trkpt lat="59.9776057" lon="17.739044">
        <ele>39.0707</ele>
        <time>2013-05-05T14:58:55Z</time>
      </trkpt>
      <trkpt lat="59.9776386" lon="17.7390438">
        <ele>39.0707</ele>
        <time>2013-05-05T14:58:56Z</time>
      </trkpt>
      <trkpt lat="59.9776711" lon="17.7390471">
        <ele>39.5513</ele>
        <time>2013-05-05T14:58:57Z</time>
      </trkpt>
      <trkpt lat="59.9777037" lon="17.7390549">
        <ele>39.5513</ele>
        <time>2013-05-05T14:58:58Z</time>
      </trkpt>
      <trkpt lat="59.9777368" lon="17.7390648">
        <ele>40.0321</ele>
        <time>2013-05-05T14:58:59Z</time>
      </trkpt>
      <trkpt lat="59.9777709" lon="17.7390787">
        <ele>40.0321</ele>
        <time>2013-05-05T14:59:00Z</time>
      </trkpt>
      <trkpt lat="59.9778053" lon="17.7390912">
        <ele>40.5128</ele>
        <time>2013-05-05T14:59:01Z</time>
      </trkpt>
      <trkpt lat="59.97784" lon="17.7391052">
        <ele>40.5128</ele>
        <time>2013-05-05T14:59:02Z</time>
      </trkpt>
      <trkpt lat="59.9778731" lon="17.7391248">
        <ele>40.9934</ele>
        <time>2013-05-05T14:59:03Z</time>
      </trkpt>
      <trkpt lat="59.9779055" lon="17.7391481">
        <ele>40.9934</ele>
        <time>2013-05-05T14:59:04Z</time>
      </trkpt>
      <trkpt lat="59.977941" lon="17.7391687">
        <ele>41.474</ele>
        <time>2013-05-05T14:59:05Z</time>
      </trkpt>
      <trkpt lat="59.9779757" lon="17.7391845">
        <ele>41.9547</ele>
        <time>2013-05-05T14:59:06Z</time>
      </trkpt>
      <trkpt lat="59.9780108" lon="17.7392005">
        <ele>42.4354</ele>
        <time>2013-05-05T14:59:07Z</time>
      </trkpt>
      <trkpt lat="59.9780445" lon="17.7392168">
        <ele>42.4354</ele>
        <time>2013-05-05T14:59:08Z</time>
      </trkpt>
      <trkpt lat="59.9780788" lon="17.739234">
        <ele>42.916</ele>
        <time>2013-05-05T14:59:09Z</time>
      </trkpt>
      <trkpt lat="59.9781156" lon="17.7392455">
        <ele>42.916</ele>
        <time>2013-05-05T14:59:10Z</time>
      </trkpt>
      <trkpt lat="59.9781529" lon="17.7392543">
        <ele>43.3966</ele>
        <time>2013-05-05T14:59:11Z</time>
      </trkpt>
      <trkpt lat="59.9781899" lon="17.7392648">
        <ele>43.3966</ele>
        <time>2013-05-05T14:59:12Z</time>
      </trkpt>
      <trkpt lat="59.9782288" lon="17.7392751">
        <ele>43.3966</ele>
        <time>2013-05-05T14:59:13Z</time>
      </trkpt>
      <trkpt lat="59.9782683" lon="17.7392869">
        <ele>43.8773</ele>
        <time>2013-05-05T14:59:14Z</time>
      </trkpt>
      <trkpt lat="59.9783087" lon="17.7392984">
        <ele>43.8773</ele>
        <time>2013-05-05T14:59:15Z</time>
      </trkpt>
      <trkpt lat="59.9783482" lon="17.7393055">
        <ele>43.8773</ele>
        <time>2013-05-05T14:59:16Z</time>
      </trkpt>
      <trkpt lat="59.9783857" lon="17.739313">
        <ele>43.8773</ele>
        <time>2013-05-05T14:59:17Z</time>
      </trkpt>
      <trkpt lat="59.9784218" lon="17.7393235">
        <ele>43.8773</ele>
        <time>2013-05-05T14:59:18Z</time>
      </trkpt>
      <trkpt lat="59.9784567" lon="17.7393335">
        <ele>43.8773</ele>
        <time>2013-05-05T14:59:19Z</time>
      </trkpt>
      <trkpt lat="59.978492" lon="17.7393398">
        <ele>44.358</ele>
        <time>2013-05-05T14:59:20Z</time>
      </trkpt>
      <trkpt lat="59.9785295" lon="17.7393434">
        <ele>44.358</ele>
        <time>2013-05-05T14:59:21Z</time>
      </trkpt>
      <trkpt lat="59.9785688" lon="17.7393469">
        <ele>43.8773</ele>
        <time>2013-05-05T14:59:22Z</time>
      </trkpt>
      <trkpt lat="59.9786066" lon="17.7393508">
        <ele>43.8773</ele>
        <time>2013-05-05T14:59:23Z</time>
      </trkpt>
      <trkpt lat="59.978645" lon="17.7393565">
        <ele>43.8773</ele>
        <time>2013-05-05T14:59:24Z</time>
      </trkpt>
      <trkpt lat="59.9786841" lon="17.7393598">
        <ele>43.8773</ele>
        <time>2013-05-05T14:59:25Z</time>
      </trkpt>
      <trkpt lat="59.9787228" lon="17.7393612">
        <ele>44.358</ele>
        <time>2013-05-05T14:59:26Z</time>
      </trkpt>
      <trkpt lat="59.9787629" lon="17.7393574">
        <ele>43.8773</ele>
        <time>2013-05-05T14:59:27Z</time>
      </trkpt>
      <trkpt lat="59.9788013" lon="17.7393553">
        <ele>43.8773</ele>
        <time>2013-05-05T14:59:28Z</time>
      </trkpt>
      <trkpt lat="59.9788359" lon="17.7393552">
        <ele>43.8773</ele>
        <time>2013-05-05T14:59:29Z</time>
      </trkpt>
      <trkpt lat="59.9788649" lon="17.7393639">
        <ele>43.3966</ele>
        <time>2013-05-05T14:59:30Z</time>
      </trkpt>
      <trkpt lat="59.9788877" lon="17.7393864">
        <ele>43.3966</ele>
        <time>2013-05-05T14:59:31Z</time>
      </trkpt>
      <trkpt lat="59.978903" lon="17.7394243">
        <ele>43.3966</ele>
        <time>2013-05-05T14:59:32Z</time>
      </trkpt>
      <trkpt lat="59.9789061" lon="17.7394719">
        <ele>43.3966</ele>
        <time>2013-05-05T14:59:33Z</time>
      </trkpt>
      <trkpt lat="59.9789007" lon="17.7395142">
        <ele>42.916</ele>
        <time>2013-05-05T14:59:34Z</time>
      </trkpt>
      <trkpt lat="59.9788931" lon="17.7395393">
        <ele>42.916</ele>
        <time>2013-05-05T14:59:35Z</time>
      </trkpt>
      <trkpt lat="59.9788884" lon="17.7395531">
        <ele>42.916</ele>
        <time>2013-05-05T14:59:36Z</time>
      </trkpt>
      <trkpt lat="59.978887" lon="17.7395559">
        <ele>42.916</ele>
        <time>2013-05-05T14:59:37Z</time>
      </trkpt>
    </trkseg>
  </trk>
</gpx>